<?xml version="1.0" encoding="UTF-8" standalone="no" ?>
<gpx xmlns="http://www.topografix.com/GPX/1/1" xmlns:xsi="http://www.w3.org/2001/XMLSchema-instance" xsi:schemaLocation="http://www.topografix.com/GPX/1/1 http://www.topografix.com/GPX/1/1/gpx.xsd" version="1.1" creator="VisuGPX - https://www.visugpx.com">
  <metadata>
    <name>1200 RAA 2022 Monpazier - Béost</name>
    <desc><![CDATA[Trace officielle]]></desc>
  </metadata>
  <trk>
    <name><![CDATA[14985444-1200 RAA 2022 Monpazier - Béost]]></name>
    <trkseg>
      <trkpt lat="44.6847" lon="0.89392">
        <ele>204</ele>
        <time>2022-06-27T09:53:45Z</time>
      </trkpt>
      <trkpt lat="44.68447" lon="0.89415">
        <ele>204</ele>
        <time>2022-06-27T09:53:50Z</time>
      </trkpt>
      <trkpt lat="44.68429" lon="0.89399">
        <ele>203</ele>
        <time>2022-06-27T09:53:54Z</time>
      </trkpt>
      <trkpt lat="44.68252" lon="0.89435">
        <ele>201</ele>
        <time>2022-06-27T09:54:26Z</time>
      </trkpt>
      <trkpt lat="44.68261" lon="0.89559">
        <ele>197</ele>
        <time>2022-06-27T09:54:41Z</time>
      </trkpt>
      <trkpt lat="44.68253" lon="0.89623">
        <ele>195</ele>
        <time>2022-06-27T09:54:50Z</time>
      </trkpt>
      <trkpt lat="44.68235" lon="0.89684">
        <ele>193</ele>
        <time>2022-06-27T09:54:58Z</time>
      </trkpt>
      <trkpt lat="44.68199" lon="0.89743">
        <ele>192</ele>
        <time>2022-06-27T09:55:08Z</time>
      </trkpt>
      <trkpt lat="44.68157" lon="0.89787">
        <ele>192</ele>
        <time>2022-06-27T09:55:17Z</time>
      </trkpt>
      <trkpt lat="44.68122" lon="0.89806">
        <ele>190</ele>
        <time>2022-06-27T09:55:24Z</time>
      </trkpt>
      <trkpt lat="44.68095" lon="0.89723">
        <ele>182</ele>
        <time>2022-06-27T09:55:35Z</time>
      </trkpt>
      <trkpt lat="44.68056" lon="0.89667">
        <ele>183</ele>
        <time>2022-06-27T09:55:45Z</time>
      </trkpt>
      <trkpt lat="44.68008" lon="0.89633">
        <ele>188</ele>
        <time>2022-06-27T09:55:55Z</time>
      </trkpt>
      <trkpt lat="44.67848" lon="0.89609">
        <ele>178</ele>
        <time>2022-06-27T09:56:23Z</time>
      </trkpt>
      <trkpt lat="44.6775" lon="0.89456">
        <ele>172</ele>
        <time>2022-06-27T09:56:50Z</time>
      </trkpt>
      <trkpt lat="44.67716" lon="0.89426">
        <ele>169</ele>
        <time>2022-06-27T09:56:57Z</time>
      </trkpt>
      <trkpt lat="44.67654" lon="0.89323">
        <ele>163</ele>
        <time>2022-06-27T09:57:14Z</time>
      </trkpt>
      <trkpt lat="44.6753" lon="0.89045">
        <ele>148</ele>
        <time>2022-06-27T09:57:55Z</time>
      </trkpt>
      <trkpt lat="44.67433" lon="0.88884">
        <ele>147</ele>
        <time>2022-06-27T09:58:22Z</time>
      </trkpt>
      <trkpt lat="44.67386" lon="0.8882">
        <ele>147</ele>
        <time>2022-06-27T09:58:34Z</time>
      </trkpt>
      <trkpt lat="44.67319" lon="0.88767">
        <ele>147</ele>
        <time>2022-06-27T09:58:47Z</time>
      </trkpt>
      <trkpt lat="44.67238" lon="0.88718">
        <ele>149</ele>
        <time>2022-06-27T09:59:03Z</time>
      </trkpt>
      <trkpt lat="44.672" lon="0.88684">
        <ele>148</ele>
        <time>2022-06-27T09:59:11Z</time>
      </trkpt>
      <trkpt lat="44.67118" lon="0.886">
        <ele>148</ele>
        <time>2022-06-27T09:59:29Z</time>
      </trkpt>
      <trkpt lat="44.67077" lon="0.88547">
        <ele>146</ele>
        <time>2022-06-27T09:59:39Z</time>
      </trkpt>
      <trkpt lat="44.67032" lon="0.88456">
        <ele>145</ele>
        <time>2022-06-27T09:59:53Z</time>
      </trkpt>
      <trkpt lat="44.67003" lon="0.88323">
        <ele>144</ele>
        <time>2022-06-27T10:00:11Z</time>
      </trkpt>
      <trkpt lat="44.66929" lon="0.88122">
        <ele>144</ele>
        <time>2022-06-27T10:00:39Z</time>
      </trkpt>
      <trkpt lat="44.66859" lon="0.88015">
        <ele>144</ele>
        <time>2022-06-27T10:00:58Z</time>
      </trkpt>
      <trkpt lat="44.66718" lon="0.87836">
        <ele>143</ele>
        <time>2022-06-27T10:01:31Z</time>
      </trkpt>
      <trkpt lat="44.66483" lon="0.87633">
        <ele>142</ele>
        <time>2022-06-27T10:02:20Z</time>
      </trkpt>
      <trkpt lat="44.66343" lon="0.87465">
        <ele>141</ele>
        <time>2022-06-27T10:02:53Z</time>
      </trkpt>
      <trkpt lat="44.66284" lon="0.87406">
        <ele>140</ele>
        <time>2022-06-27T10:03:06Z</time>
      </trkpt>
      <trkpt lat="44.66262" lon="0.87364">
        <ele>136</ele>
        <time>2022-06-27T10:03:13Z</time>
      </trkpt>
      <trkpt lat="44.662" lon="0.87158">
        <ele>136</ele>
        <time>2022-06-27T10:03:41Z</time>
      </trkpt>
      <trkpt lat="44.66157" lon="0.87064">
        <ele>134</ele>
        <time>2022-06-27T10:03:55Z</time>
      </trkpt>
      <trkpt lat="44.66095" lon="0.86886">
        <ele>132</ele>
        <time>2022-06-27T10:04:20Z</time>
      </trkpt>
      <trkpt lat="44.66062" lon="0.86831">
        <ele>130</ele>
        <time>2022-06-27T10:04:29Z</time>
      </trkpt>
      <trkpt lat="44.65745" lon="0.86446">
        <ele>129</ele>
        <time>2022-06-27T10:05:44Z</time>
      </trkpt>
      <trkpt lat="44.65689" lon="0.86343">
        <ele>131</ele>
        <time>2022-06-27T10:06:00Z</time>
      </trkpt>
      <trkpt lat="44.65521" lon="0.8598">
        <ele>124</ele>
        <time>2022-06-27T10:06:55Z</time>
      </trkpt>
      <trkpt lat="44.65395" lon="0.85806">
        <ele>128</ele>
        <time>2022-06-27T10:07:27Z</time>
      </trkpt>
      <trkpt lat="44.6537" lon="0.85759">
        <ele>130</ele>
        <time>2022-06-27T10:07:34Z</time>
      </trkpt>
      <trkpt lat="44.65279" lon="0.85407">
        <ele>130</ele>
        <time>2022-06-27T10:08:21Z</time>
      </trkpt>
      <trkpt lat="44.65255" lon="0.85241">
        <ele>131</ele>
        <time>2022-06-27T10:08:43Z</time>
      </trkpt>
      <trkpt lat="44.65252" lon="0.85191">
        <ele>129</ele>
        <time>2022-06-27T10:08:49Z</time>
      </trkpt>
      <trkpt lat="44.65275" lon="0.85016">
        <ele>123</ele>
        <time>2022-06-27T10:09:12Z</time>
      </trkpt>
      <trkpt lat="44.65272" lon="0.84732">
        <ele>121</ele>
        <time>2022-06-27T10:09:48Z</time>
      </trkpt>
      <trkpt lat="44.65259" lon="0.84579">
        <ele>119</ele>
        <time>2022-06-27T10:10:07Z</time>
      </trkpt>
      <trkpt lat="44.65083" lon="0.84545">
        <ele>134</ele>
        <time>2022-06-27T10:10:39Z</time>
      </trkpt>
      <trkpt lat="44.65037" lon="0.84546">
        <ele>138</ele>
        <time>2022-06-27T10:10:47Z</time>
      </trkpt>
      <trkpt lat="44.64937" lon="0.84567">
        <ele>142</ele>
        <time>2022-06-27T10:11:05Z</time>
      </trkpt>
      <trkpt lat="44.64859" lon="0.84618">
        <ele>143</ele>
        <time>2022-06-27T10:11:20Z</time>
      </trkpt>
      <trkpt lat="44.64838" lon="0.84626">
        <ele>142</ele>
        <time>2022-06-27T10:11:24Z</time>
      </trkpt>
      <trkpt lat="44.64815" lon="0.84618">
        <ele>144</ele>
        <time>2022-06-27T10:11:28Z</time>
      </trkpt>
      <trkpt lat="44.64753" lon="0.84564">
        <ele>147</ele>
        <time>2022-06-27T10:11:41Z</time>
      </trkpt>
      <trkpt lat="44.64704" lon="0.84564">
        <ele>148</ele>
        <time>2022-06-27T10:11:50Z</time>
      </trkpt>
      <trkpt lat="44.64609" lon="0.84598">
        <ele>153</ele>
        <time>2022-06-27T10:12:07Z</time>
      </trkpt>
      <trkpt lat="44.64527" lon="0.8459">
        <ele>155</ele>
        <time>2022-06-27T10:12:22Z</time>
      </trkpt>
      <trkpt lat="44.64337" lon="0.84559">
        <ele>161</ele>
        <time>2022-06-27T10:12:56Z</time>
      </trkpt>
      <trkpt lat="44.64164" lon="0.84624">
        <ele>175</ele>
        <time>2022-06-27T10:13:28Z</time>
      </trkpt>
      <trkpt lat="44.64083" lon="0.84679">
        <ele>176</ele>
        <time>2022-06-27T10:13:44Z</time>
      </trkpt>
      <trkpt lat="44.6404" lon="0.84687">
        <ele>178</ele>
        <time>2022-06-27T10:13:52Z</time>
      </trkpt>
      <trkpt lat="44.6398" lon="0.84657">
        <ele>183</ele>
        <time>2022-06-27T10:14:03Z</time>
      </trkpt>
      <trkpt lat="44.63864" lon="0.84626">
        <ele>188</ele>
        <time>2022-06-27T10:14:24Z</time>
      </trkpt>
      <trkpt lat="44.63846" lon="0.84614">
        <ele>188</ele>
        <time>2022-06-27T10:14:28Z</time>
      </trkpt>
      <trkpt lat="44.63675" lon="0.84403">
        <ele>188</ele>
        <time>2022-06-27T10:15:08Z</time>
      </trkpt>
      <trkpt lat="44.63613" lon="0.84274">
        <ele>189</ele>
        <time>2022-06-27T10:15:28Z</time>
      </trkpt>
      <trkpt lat="44.63594" lon="0.84249">
        <ele>189</ele>
        <time>2022-06-27T10:15:32Z</time>
      </trkpt>
      <trkpt lat="44.63546" lon="0.8421">
        <ele>186</ele>
        <time>2022-06-27T10:15:42Z</time>
      </trkpt>
      <trkpt lat="44.63524" lon="0.84198">
        <ele>186</ele>
        <time>2022-06-27T10:15:46Z</time>
      </trkpt>
      <trkpt lat="44.6346" lon="0.84184">
        <ele>184</ele>
        <time>2022-06-27T10:15:58Z</time>
      </trkpt>
      <trkpt lat="44.63282" lon="0.842">
        <ele>174</ele>
        <time>2022-06-27T10:16:30Z</time>
      </trkpt>
      <trkpt lat="44.63189" lon="0.84226">
        <ele>164</ele>
        <time>2022-06-27T10:16:47Z</time>
      </trkpt>
      <trkpt lat="44.63168" lon="0.84222">
        <ele>163</ele>
        <time>2022-06-27T10:16:50Z</time>
      </trkpt>
      <trkpt lat="44.63144" lon="0.84202">
        <ele>162</ele>
        <time>2022-06-27T10:16:55Z</time>
      </trkpt>
      <trkpt lat="44.63079" lon="0.84085">
        <ele>157</ele>
        <time>2022-06-27T10:17:14Z</time>
      </trkpt>
      <trkpt lat="44.62936" lon="0.83916">
        <ele>146</ele>
        <time>2022-06-27T10:17:47Z</time>
      </trkpt>
      <trkpt lat="44.62902" lon="0.83837">
        <ele>144</ele>
        <time>2022-06-27T10:17:59Z</time>
      </trkpt>
      <trkpt lat="44.62872" lon="0.83792">
        <ele>145</ele>
        <time>2022-06-27T10:18:07Z</time>
      </trkpt>
      <trkpt lat="44.62831" lon="0.83757">
        <ele>145</ele>
        <time>2022-06-27T10:18:15Z</time>
      </trkpt>
      <trkpt lat="44.62758" lon="0.83729">
        <ele>144</ele>
        <time>2022-06-27T10:18:29Z</time>
      </trkpt>
      <trkpt lat="44.62699" lon="0.83677">
        <ele>141</ele>
        <time>2022-06-27T10:18:41Z</time>
      </trkpt>
      <trkpt lat="44.62657" lon="0.83665">
        <ele>140</ele>
        <time>2022-06-27T10:18:49Z</time>
      </trkpt>
      <trkpt lat="44.62642" lon="0.83654">
        <ele>141</ele>
        <time>2022-06-27T10:18:52Z</time>
      </trkpt>
      <trkpt lat="44.6253" lon="0.83468">
        <ele>136</ele>
        <time>2022-06-27T10:19:23Z</time>
      </trkpt>
      <trkpt lat="44.62422" lon="0.83398">
        <ele>133</ele>
        <time>2022-06-27T10:19:44Z</time>
      </trkpt>
      <trkpt lat="44.62322" lon="0.83281">
        <ele>130</ele>
        <time>2022-06-27T10:20:07Z</time>
      </trkpt>
      <trkpt lat="44.62311" lon="0.83262">
        <ele>130</ele>
        <time>2022-06-27T10:20:10Z</time>
      </trkpt>
      <trkpt lat="44.62305" lon="0.83235">
        <ele>129</ele>
        <time>2022-06-27T10:20:14Z</time>
      </trkpt>
      <trkpt lat="44.62299" lon="0.83135">
        <ele>128</ele>
        <time>2022-06-27T10:20:26Z</time>
      </trkpt>
      <trkpt lat="44.62291" lon="0.83097">
        <ele>128</ele>
        <time>2022-06-27T10:20:31Z</time>
      </trkpt>
      <trkpt lat="44.62243" lon="0.82989">
        <ele>125</ele>
        <time>2022-06-27T10:20:48Z</time>
      </trkpt>
      <trkpt lat="44.62205" lon="0.82935">
        <ele>125</ele>
        <time>2022-06-27T10:20:57Z</time>
      </trkpt>
      <trkpt lat="44.62141" lon="0.82891">
        <ele>125</ele>
        <time>2022-06-27T10:21:10Z</time>
      </trkpt>
      <trkpt lat="44.62118" lon="0.82868">
        <ele>126</ele>
        <time>2022-06-27T10:21:15Z</time>
      </trkpt>
      <trkpt lat="44.6205" lon="0.82704">
        <ele>125</ele>
        <time>2022-06-27T10:21:39Z</time>
      </trkpt>
      <trkpt lat="44.62026" lon="0.82668">
        <ele>124</ele>
        <time>2022-06-27T10:21:45Z</time>
      </trkpt>
      <trkpt lat="44.61999" lon="0.8265">
        <ele>123</ele>
        <time>2022-06-27T10:21:51Z</time>
      </trkpt>
      <trkpt lat="44.61767" lon="0.82503">
        <ele>118</ele>
        <time>2022-06-27T10:22:36Z</time>
      </trkpt>
      <trkpt lat="44.61745" lon="0.82493">
        <ele>118</ele>
        <time>2022-06-27T10:22:40Z</time>
      </trkpt>
      <trkpt lat="44.61693" lon="0.82484">
        <ele>118</ele>
        <time>2022-06-27T10:22:49Z</time>
      </trkpt>
      <trkpt lat="44.61645" lon="0.82498">
        <ele>117</ele>
        <time>2022-06-27T10:22:58Z</time>
      </trkpt>
      <trkpt lat="44.61524" lon="0.82588">
        <ele>115</ele>
        <time>2022-06-27T10:23:22Z</time>
      </trkpt>
      <trkpt lat="44.61485" lon="0.82607">
        <ele>114</ele>
        <time>2022-06-27T10:23:30Z</time>
      </trkpt>
      <trkpt lat="44.61464" lon="0.8261">
        <ele>114</ele>
        <time>2022-06-27T10:23:33Z</time>
      </trkpt>
      <trkpt lat="44.6144" lon="0.8261">
        <ele>114</ele>
        <time>2022-06-27T10:23:38Z</time>
      </trkpt>
      <trkpt lat="44.61413" lon="0.82601">
        <ele>115</ele>
        <time>2022-06-27T10:23:43Z</time>
      </trkpt>
      <trkpt lat="44.61234" lon="0.82517">
        <ele>115</ele>
        <time>2022-06-27T10:24:16Z</time>
      </trkpt>
      <trkpt lat="44.61177" lon="0.82498">
        <ele>114</ele>
        <time>2022-06-27T10:24:27Z</time>
      </trkpt>
      <trkpt lat="44.61115" lon="0.82497">
        <ele>112</ele>
        <time>2022-06-27T10:24:38Z</time>
      </trkpt>
      <trkpt lat="44.609" lon="0.82555">
        <ele>112</ele>
        <time>2022-06-27T10:25:17Z</time>
      </trkpt>
      <trkpt lat="44.60868" lon="0.82552">
        <ele>111</ele>
        <time>2022-06-27T10:25:22Z</time>
      </trkpt>
      <trkpt lat="44.60602" lon="0.82388">
        <ele>109</ele>
        <time>2022-06-27T10:26:14Z</time>
      </trkpt>
      <trkpt lat="44.60298" lon="0.82299">
        <ele>109</ele>
        <time>2022-06-27T10:27:09Z</time>
      </trkpt>
      <trkpt lat="44.60255" lon="0.82281">
        <ele>109</ele>
        <time>2022-06-27T10:27:17Z</time>
      </trkpt>
      <trkpt lat="44.60238" lon="0.82268">
        <ele>109</ele>
        <time>2022-06-27T10:27:21Z</time>
      </trkpt>
      <trkpt lat="44.60092" lon="0.82098">
        <ele>106</ele>
        <time>2022-06-27T10:27:54Z</time>
      </trkpt>
      <trkpt lat="44.60048" lon="0.82055">
        <ele>106</ele>
        <time>2022-06-27T10:28:04Z</time>
      </trkpt>
      <trkpt lat="44.59646" lon="0.81789">
        <ele>105</ele>
        <time>2022-06-27T10:29:23Z</time>
      </trkpt>
      <trkpt lat="44.59599" lon="0.8175">
        <ele>106</ele>
        <time>2022-06-27T10:29:33Z</time>
      </trkpt>
      <trkpt lat="44.59448" lon="0.81561">
        <ele>105</ele>
        <time>2022-06-27T10:30:09Z</time>
      </trkpt>
      <trkpt lat="44.59403" lon="0.8152">
        <ele>106</ele>
        <time>2022-06-27T10:30:18Z</time>
      </trkpt>
      <trkpt lat="44.59355" lon="0.81501">
        <ele>105</ele>
        <time>2022-06-27T10:30:27Z</time>
      </trkpt>
      <trkpt lat="44.59261" lon="0.81488">
        <ele>103</ele>
        <time>2022-06-27T10:30:44Z</time>
      </trkpt>
      <trkpt lat="44.59208" lon="0.8147">
        <ele>103</ele>
        <time>2022-06-27T10:30:54Z</time>
      </trkpt>
      <trkpt lat="44.59136" lon="0.81386">
        <ele>102</ele>
        <time>2022-06-27T10:31:10Z</time>
      </trkpt>
      <trkpt lat="44.5911" lon="0.81365">
        <ele>102</ele>
        <time>2022-06-27T10:31:16Z</time>
      </trkpt>
      <trkpt lat="44.59001" lon="0.81313">
        <ele>104</ele>
        <time>2022-06-27T10:31:36Z</time>
      </trkpt>
      <trkpt lat="44.58954" lon="0.81302">
        <ele>104</ele>
        <time>2022-06-27T10:31:45Z</time>
      </trkpt>
      <trkpt lat="44.58933" lon="0.81303">
        <ele>103</ele>
        <time>2022-06-27T10:31:48Z</time>
      </trkpt>
      <trkpt lat="44.58905" lon="0.8131">
        <ele>103</ele>
        <time>2022-06-27T10:31:53Z</time>
      </trkpt>
      <trkpt lat="44.58832" lon="0.81352">
        <ele>104</ele>
        <time>2022-06-27T10:32:07Z</time>
      </trkpt>
      <trkpt lat="44.58788" lon="0.81351">
        <ele>104</ele>
        <time>2022-06-27T10:32:15Z</time>
      </trkpt>
      <trkpt lat="44.58773" lon="0.81344">
        <ele>103</ele>
        <time>2022-06-27T10:32:18Z</time>
      </trkpt>
      <trkpt lat="44.58744" lon="0.81309">
        <ele>103</ele>
        <time>2022-06-27T10:32:25Z</time>
      </trkpt>
      <trkpt lat="44.58695" lon="0.81218">
        <ele>102</ele>
        <time>2022-06-27T10:32:39Z</time>
      </trkpt>
      <trkpt lat="44.58629" lon="0.81117">
        <ele>103</ele>
        <time>2022-06-27T10:32:57Z</time>
      </trkpt>
      <trkpt lat="44.58354" lon="0.80793">
        <ele>100</ele>
        <time>2022-06-27T10:34:01Z</time>
      </trkpt>
      <trkpt lat="44.58302" lon="0.80688">
        <ele>101</ele>
        <time>2022-06-27T10:34:17Z</time>
      </trkpt>
      <trkpt lat="44.5825" lon="0.80637">
        <ele>99</ele>
        <time>2022-06-27T10:34:28Z</time>
      </trkpt>
      <trkpt lat="44.58207" lon="0.80564">
        <ele>98</ele>
        <time>2022-06-27T10:34:40Z</time>
      </trkpt>
      <trkpt lat="44.57912" lon="0.80263">
        <ele>99</ele>
        <time>2022-06-27T10:35:45Z</time>
      </trkpt>
      <trkpt lat="44.57835" lon="0.80214">
        <ele>98</ele>
        <time>2022-06-27T10:36:00Z</time>
      </trkpt>
      <trkpt lat="44.57788" lon="0.80158">
        <ele>97</ele>
        <time>2022-06-27T10:36:11Z</time>
      </trkpt>
      <trkpt lat="44.57703" lon="0.80006">
        <ele>95</ele>
        <time>2022-06-27T10:36:36Z</time>
      </trkpt>
      <trkpt lat="44.5765" lon="0.79829">
        <ele>94</ele>
        <time>2022-06-27T10:37:00Z</time>
      </trkpt>
      <trkpt lat="44.5763" lon="0.79782">
        <ele>94</ele>
        <time>2022-06-27T10:37:07Z</time>
      </trkpt>
      <trkpt lat="44.57586" lon="0.79716">
        <ele>93</ele>
        <time>2022-06-27T10:37:18Z</time>
      </trkpt>
      <trkpt lat="44.5756" lon="0.79691">
        <ele>94</ele>
        <time>2022-06-27T10:37:24Z</time>
      </trkpt>
      <trkpt lat="44.57492" lon="0.79651">
        <ele>93</ele>
        <time>2022-06-27T10:37:37Z</time>
      </trkpt>
      <trkpt lat="44.57076" lon="0.79516">
        <ele>98</ele>
        <time>2022-06-27T10:38:53Z</time>
      </trkpt>
      <trkpt lat="44.57062" lon="0.79499">
        <ele>98</ele>
        <time>2022-06-27T10:38:56Z</time>
      </trkpt>
      <trkpt lat="44.56997" lon="0.79369">
        <ele>92</ele>
        <time>2022-06-27T10:39:16Z</time>
      </trkpt>
      <trkpt lat="44.56927" lon="0.79271">
        <ele>91</ele>
        <time>2022-06-27T10:39:34Z</time>
      </trkpt>
      <trkpt lat="44.56904" lon="0.79248">
        <ele>91</ele>
        <time>2022-06-27T10:39:39Z</time>
      </trkpt>
      <trkpt lat="44.56886" lon="0.79235">
        <ele>91</ele>
        <time>2022-06-27T10:39:43Z</time>
      </trkpt>
      <trkpt lat="44.56724" lon="0.79169">
        <ele>95</ele>
        <time>2022-06-27T10:40:13Z</time>
      </trkpt>
      <trkpt lat="44.5656" lon="0.78996">
        <ele>93</ele>
        <time>2022-06-27T10:40:49Z</time>
      </trkpt>
      <trkpt lat="44.56468" lon="0.7897">
        <ele>93</ele>
        <time>2022-06-27T10:41:06Z</time>
      </trkpt>
      <trkpt lat="44.56432" lon="0.78953">
        <ele>94</ele>
        <time>2022-06-27T10:41:13Z</time>
      </trkpt>
      <trkpt lat="44.56321" lon="0.78882">
        <ele>93</ele>
        <time>2022-06-27T10:41:34Z</time>
      </trkpt>
      <trkpt lat="44.56137" lon="0.78829">
        <ele>96</ele>
        <time>2022-06-27T10:42:08Z</time>
      </trkpt>
      <trkpt lat="44.56096" lon="0.7881">
        <ele>96</ele>
        <time>2022-06-27T10:42:15Z</time>
      </trkpt>
      <trkpt lat="44.56094" lon="0.788">
        <ele>96</ele>
        <time>2022-06-27T10:42:17Z</time>
      </trkpt>
      <trkpt lat="44.56086" lon="0.78804">
        <ele>96</ele>
        <time>2022-06-27T10:42:18Z</time>
      </trkpt>
      <trkpt lat="44.5606" lon="0.78787">
        <ele>96</ele>
        <time>2022-06-27T10:42:23Z</time>
      </trkpt>
      <trkpt lat="44.5578" lon="0.78492">
        <ele>93</ele>
        <time>2022-06-27T10:43:26Z</time>
      </trkpt>
      <trkpt lat="44.55746" lon="0.78451">
        <ele>94</ele>
        <time>2022-06-27T10:43:34Z</time>
      </trkpt>
      <trkpt lat="44.55722" lon="0.78411">
        <ele>95</ele>
        <time>2022-06-27T10:43:40Z</time>
      </trkpt>
      <trkpt lat="44.55559" lon="0.7809">
        <ele>101</ele>
        <time>2022-06-27T10:44:30Z</time>
      </trkpt>
      <trkpt lat="44.55545" lon="0.78048">
        <ele>102</ele>
        <time>2022-06-27T10:44:36Z</time>
      </trkpt>
      <trkpt lat="44.55505" lon="0.77815">
        <ele>109</ele>
        <time>2022-06-27T10:45:06Z</time>
      </trkpt>
      <trkpt lat="44.55495" lon="0.77786">
        <ele>110</ele>
        <time>2022-06-27T10:45:11Z</time>
      </trkpt>
      <trkpt lat="44.55466" lon="0.77749">
        <ele>112</ele>
        <time>2022-06-27T10:45:17Z</time>
      </trkpt>
      <trkpt lat="44.55229" lon="0.77598">
        <ele>106</ele>
        <time>2022-06-27T10:46:04Z</time>
      </trkpt>
      <trkpt lat="44.55178" lon="0.77577">
        <ele>105</ele>
        <time>2022-06-27T10:46:13Z</time>
      </trkpt>
      <trkpt lat="44.54957" lon="0.77516">
        <ele>94</ele>
        <time>2022-06-27T10:46:53Z</time>
      </trkpt>
      <trkpt lat="44.54677" lon="0.77339">
        <ele>87</ele>
        <time>2022-06-27T10:47:48Z</time>
      </trkpt>
      <trkpt lat="44.54426" lon="0.77287">
        <ele>93</ele>
        <time>2022-06-27T10:48:33Z</time>
      </trkpt>
      <trkpt lat="44.54358" lon="0.77292">
        <ele>93</ele>
        <time>2022-06-27T10:48:45Z</time>
      </trkpt>
      <trkpt lat="44.54325" lon="0.77287">
        <ele>94</ele>
        <time>2022-06-27T10:48:51Z</time>
      </trkpt>
      <trkpt lat="44.54241" lon="0.77258">
        <ele>98</ele>
        <time>2022-06-27T10:49:07Z</time>
      </trkpt>
      <trkpt lat="44.54145" lon="0.77253">
        <ele>105</ele>
        <time>2022-06-27T10:49:24Z</time>
      </trkpt>
      <trkpt lat="44.53666" lon="0.77344">
        <ele>125</ele>
        <time>2022-06-27T10:50:50Z</time>
      </trkpt>
      <trkpt lat="44.5359" lon="0.77347">
        <ele>128</ele>
        <time>2022-06-27T10:51:03Z</time>
      </trkpt>
      <trkpt lat="44.53505" lon="0.77326">
        <ele>132</ele>
        <time>2022-06-27T10:51:19Z</time>
      </trkpt>
      <trkpt lat="44.53258" lon="0.77149">
        <ele>137</ele>
        <time>2022-06-27T10:52:08Z</time>
      </trkpt>
      <trkpt lat="44.53101" lon="0.77114">
        <ele>139</ele>
        <time>2022-06-27T10:52:36Z</time>
      </trkpt>
      <trkpt lat="44.53089" lon="0.77119">
        <ele>138</ele>
        <time>2022-06-27T10:52:38Z</time>
      </trkpt>
      <trkpt lat="44.53082" lon="0.77115">
        <ele>138</ele>
        <time>2022-06-27T10:52:40Z</time>
      </trkpt>
      <trkpt lat="44.53031" lon="0.77036">
        <ele>141</ele>
        <time>2022-06-27T10:52:53Z</time>
      </trkpt>
      <trkpt lat="44.53025" lon="0.76994">
        <ele>143</ele>
        <time>2022-06-27T10:52:59Z</time>
      </trkpt>
      <trkpt lat="44.53023" lon="0.76894">
        <ele>149</ele>
        <time>2022-06-27T10:53:11Z</time>
      </trkpt>
      <trkpt lat="44.52986" lon="0.769">
        <ele>144</ele>
        <time>2022-06-27T10:53:18Z</time>
      </trkpt>
      <trkpt lat="44.52961" lon="0.76873">
        <ele>143</ele>
        <time>2022-06-27T10:53:24Z</time>
      </trkpt>
      <trkpt lat="44.52936" lon="0.76801">
        <ele>141</ele>
        <time>2022-06-27T10:53:34Z</time>
      </trkpt>
      <trkpt lat="44.5293" lon="0.76723">
        <ele>137</ele>
        <time>2022-06-27T10:53:44Z</time>
      </trkpt>
      <trkpt lat="44.52951" lon="0.76459">
        <ele>127</ele>
        <time>2022-06-27T10:54:17Z</time>
      </trkpt>
      <trkpt lat="44.52936" lon="0.76393">
        <ele>124</ele>
        <time>2022-06-27T10:54:26Z</time>
      </trkpt>
      <trkpt lat="44.52917" lon="0.76352">
        <ele>122</ele>
        <time>2022-06-27T10:54:32Z</time>
      </trkpt>
      <trkpt lat="44.52791" lon="0.76163">
        <ele>123</ele>
        <time>2022-06-27T10:55:05Z</time>
      </trkpt>
      <trkpt lat="44.52748" lon="0.76118">
        <ele>123</ele>
        <time>2022-06-27T10:55:15Z</time>
      </trkpt>
      <trkpt lat="44.52709" lon="0.76096">
        <ele>123</ele>
        <time>2022-06-27T10:55:22Z</time>
      </trkpt>
      <trkpt lat="44.52657" lon="0.76086">
        <ele>123</ele>
        <time>2022-06-27T10:55:32Z</time>
      </trkpt>
      <trkpt lat="44.52615" lon="0.76096">
        <ele>123</ele>
        <time>2022-06-27T10:55:39Z</time>
      </trkpt>
      <trkpt lat="44.52547" lon="0.7613">
        <ele>122</ele>
        <time>2022-06-27T10:55:52Z</time>
      </trkpt>
      <trkpt lat="44.52524" lon="0.76135">
        <ele>121</ele>
        <time>2022-06-27T10:55:56Z</time>
      </trkpt>
      <trkpt lat="44.52465" lon="0.7614">
        <ele>120</ele>
        <time>2022-06-27T10:56:07Z</time>
      </trkpt>
      <trkpt lat="44.52401" lon="0.76131">
        <ele>119</ele>
        <time>2022-06-27T10:56:18Z</time>
      </trkpt>
      <trkpt lat="44.52351" lon="0.76102">
        <ele>119</ele>
        <time>2022-06-27T10:56:28Z</time>
      </trkpt>
      <trkpt lat="44.5227" lon="0.76036">
        <ele>119</ele>
        <time>2022-06-27T10:56:44Z</time>
      </trkpt>
      <trkpt lat="44.52164" lon="0.75928">
        <ele>119</ele>
        <time>2022-06-27T10:57:08Z</time>
      </trkpt>
      <trkpt lat="44.5211" lon="0.75906">
        <ele>118</ele>
        <time>2022-06-27T10:57:18Z</time>
      </trkpt>
      <trkpt lat="44.52017" lon="0.75913">
        <ele>118</ele>
        <time>2022-06-27T10:57:34Z</time>
      </trkpt>
      <trkpt lat="44.51944" lon="0.75905">
        <ele>116</ele>
        <time>2022-06-27T10:57:47Z</time>
      </trkpt>
      <trkpt lat="44.51799" lon="0.75821">
        <ele>110</ele>
        <time>2022-06-27T10:58:15Z</time>
      </trkpt>
      <trkpt lat="44.5173" lon="0.75794">
        <ele>108</ele>
        <time>2022-06-27T10:58:28Z</time>
      </trkpt>
      <trkpt lat="44.51168" lon="0.75666">
        <ele>97</ele>
        <time>2022-06-27T11:00:09Z</time>
      </trkpt>
      <trkpt lat="44.51065" lon="0.75652">
        <ele>92</ele>
        <time>2022-06-27T11:00:28Z</time>
      </trkpt>
      <trkpt lat="44.51046" lon="0.75644">
        <ele>91</ele>
        <time>2022-06-27T11:00:31Z</time>
      </trkpt>
      <trkpt lat="44.5102" lon="0.75622">
        <ele>89</ele>
        <time>2022-06-27T11:00:37Z</time>
      </trkpt>
      <trkpt lat="44.51001" lon="0.75593">
        <ele>89</ele>
        <time>2022-06-27T11:00:42Z</time>
      </trkpt>
      <trkpt lat="44.5099" lon="0.75558">
        <ele>88</ele>
        <time>2022-06-27T11:00:46Z</time>
      </trkpt>
      <trkpt lat="44.5099" lon="0.75471">
        <ele>88</ele>
        <time>2022-06-27T11:00:58Z</time>
      </trkpt>
      <trkpt lat="44.51" lon="0.7538">
        <ele>88</ele>
        <time>2022-06-27T11:01:09Z</time>
      </trkpt>
      <trkpt lat="44.51014" lon="0.75318">
        <ele>89</ele>
        <time>2022-06-27T11:01:17Z</time>
      </trkpt>
      <trkpt lat="44.51115" lon="0.75092">
        <ele>80</ele>
        <time>2022-06-27T11:01:51Z</time>
      </trkpt>
      <trkpt lat="44.5113" lon="0.75041">
        <ele>77</ele>
        <time>2022-06-27T11:01:58Z</time>
      </trkpt>
      <trkpt lat="44.51127" lon="0.74994">
        <ele>76</ele>
        <time>2022-06-27T11:02:04Z</time>
      </trkpt>
      <trkpt lat="44.51007" lon="0.74823">
        <ele>77</ele>
        <time>2022-06-27T11:02:35Z</time>
      </trkpt>
      <trkpt lat="44.50961" lon="0.74793">
        <ele>77</ele>
        <time>2022-06-27T11:02:44Z</time>
      </trkpt>
      <trkpt lat="44.50898" lon="0.74781">
        <ele>79</ele>
        <time>2022-06-27T11:02:55Z</time>
      </trkpt>
      <trkpt lat="44.50844" lon="0.74797">
        <ele>80</ele>
        <time>2022-06-27T11:03:05Z</time>
      </trkpt>
      <trkpt lat="44.50769" lon="0.74841">
        <ele>81</ele>
        <time>2022-06-27T11:03:19Z</time>
      </trkpt>
      <trkpt lat="44.50583" lon="0.74978">
        <ele>89</ele>
        <time>2022-06-27T11:03:57Z</time>
      </trkpt>
      <trkpt lat="44.50498" lon="0.74997">
        <ele>94</ele>
        <time>2022-06-27T11:04:12Z</time>
      </trkpt>
      <trkpt lat="44.50349" lon="0.74996">
        <ele>97</ele>
        <time>2022-06-27T11:04:39Z</time>
      </trkpt>
      <trkpt lat="44.50213" lon="0.74954">
        <ele>101</ele>
        <time>2022-06-27T11:05:03Z</time>
      </trkpt>
      <trkpt lat="44.49839" lon="0.74899">
        <ele>105</ele>
        <time>2022-06-27T11:06:10Z</time>
      </trkpt>
      <trkpt lat="44.49748" lon="0.74903">
        <ele>103</ele>
        <time>2022-06-27T11:06:26Z</time>
      </trkpt>
      <trkpt lat="44.49655" lon="0.7494">
        <ele>99</ele>
        <time>2022-06-27T11:06:44Z</time>
      </trkpt>
      <trkpt lat="44.49609" lon="0.74944">
        <ele>96</ele>
        <time>2022-06-27T11:06:52Z</time>
      </trkpt>
      <trkpt lat="44.49281" lon="0.74918">
        <ele>99</ele>
        <time>2022-06-27T11:07:50Z</time>
      </trkpt>
      <trkpt lat="44.49244" lon="0.74922">
        <ele>101</ele>
        <time>2022-06-27T11:07:57Z</time>
      </trkpt>
      <trkpt lat="44.49207" lon="0.74936">
        <ele>102</ele>
        <time>2022-06-27T11:08:04Z</time>
      </trkpt>
      <trkpt lat="44.49124" lon="0.74986">
        <ele>104</ele>
        <time>2022-06-27T11:08:20Z</time>
      </trkpt>
      <trkpt lat="44.49082" lon="0.74992">
        <ele>107</ele>
        <time>2022-06-27T11:08:27Z</time>
      </trkpt>
      <trkpt lat="44.48963" lon="0.74943">
        <ele>109</ele>
        <time>2022-06-27T11:08:49Z</time>
      </trkpt>
      <trkpt lat="44.48611" lon="0.74891">
        <ele>104</ele>
        <time>2022-06-27T11:09:52Z</time>
      </trkpt>
      <trkpt lat="44.47887" lon="0.74643">
        <ele>86</ele>
        <time>2022-06-27T11:12:05Z</time>
      </trkpt>
      <trkpt lat="44.47809" lon="0.74603">
        <ele>87</ele>
        <time>2022-06-27T11:12:20Z</time>
      </trkpt>
      <trkpt lat="44.47752" lon="0.74536">
        <ele>94</ele>
        <time>2022-06-27T11:12:33Z</time>
      </trkpt>
      <trkpt lat="44.47713" lon="0.74463">
        <ele>101</ele>
        <time>2022-06-27T11:12:45Z</time>
      </trkpt>
      <trkpt lat="44.47586" lon="0.7413">
        <ele>95</ele>
        <time>2022-06-27T11:13:33Z</time>
      </trkpt>
      <trkpt lat="44.47568" lon="0.74067">
        <ele>93</ele>
        <time>2022-06-27T11:13:41Z</time>
      </trkpt>
      <trkpt lat="44.47555" lon="0.73509">
        <ele>97</ele>
        <time>2022-06-27T11:14:52Z</time>
      </trkpt>
      <trkpt lat="44.47543" lon="0.73459">
        <ele>97</ele>
        <time>2022-06-27T11:14:59Z</time>
      </trkpt>
      <trkpt lat="44.47249" lon="0.73126">
        <ele>100</ele>
        <time>2022-06-27T11:16:06Z</time>
      </trkpt>
      <trkpt lat="44.46949" lon="0.73051">
        <ele>93</ele>
        <time>2022-06-27T11:17:00Z</time>
      </trkpt>
      <trkpt lat="44.46695" lon="0.72736">
        <ele>91</ele>
        <time>2022-06-27T11:18:01Z</time>
      </trkpt>
      <trkpt lat="44.46596" lon="0.72619">
        <ele>84</ele>
        <time>2022-06-27T11:18:24Z</time>
      </trkpt>
      <trkpt lat="44.4655" lon="0.72603">
        <ele>83</ele>
        <time>2022-06-27T11:18:32Z</time>
      </trkpt>
      <trkpt lat="44.46286" lon="0.72675">
        <ele>77</ele>
        <time>2022-06-27T11:19:20Z</time>
      </trkpt>
      <trkpt lat="44.45945" lon="0.72758">
        <ele>75</ele>
        <time>2022-06-27T11:20:21Z</time>
      </trkpt>
      <trkpt lat="44.45887" lon="0.72788">
        <ele>80</ele>
        <time>2022-06-27T11:20:32Z</time>
      </trkpt>
      <trkpt lat="44.4557" lon="0.73207">
        <ele>92</ele>
        <time>2022-06-27T11:21:50Z</time>
      </trkpt>
      <trkpt lat="44.45515" lon="0.73271">
        <ele>94</ele>
        <time>2022-06-27T11:22:03Z</time>
      </trkpt>
      <trkpt lat="44.45419" lon="0.73345">
        <ele>96</ele>
        <time>2022-06-27T11:22:22Z</time>
      </trkpt>
      <trkpt lat="44.45368" lon="0.73393">
        <ele>99</ele>
        <time>2022-06-27T11:22:33Z</time>
      </trkpt>
      <trkpt lat="44.45207" lon="0.7366">
        <ele>105</ele>
        <time>2022-06-27T11:23:18Z</time>
      </trkpt>
      <trkpt lat="44.45179" lon="0.73688">
        <ele>105</ele>
        <time>2022-06-27T11:23:24Z</time>
      </trkpt>
      <trkpt lat="44.44976" lon="0.73768">
        <ele>110</ele>
        <time>2022-06-27T11:24:01Z</time>
      </trkpt>
      <trkpt lat="44.44879" lon="0.73751">
        <ele>115</ele>
        <time>2022-06-27T11:24:19Z</time>
      </trkpt>
      <trkpt lat="44.4484" lon="0.73758">
        <ele>117</ele>
        <time>2022-06-27T11:24:26Z</time>
      </trkpt>
      <trkpt lat="44.448" lon="0.73779">
        <ele>120</ele>
        <time>2022-06-27T11:24:33Z</time>
      </trkpt>
      <trkpt lat="44.447" lon="0.73895">
        <ele>122</ele>
        <time>2022-06-27T11:24:56Z</time>
      </trkpt>
      <trkpt lat="44.44657" lon="0.73919">
        <ele>122</ele>
        <time>2022-06-27T11:25:05Z</time>
      </trkpt>
      <trkpt lat="44.44576" lon="0.7392">
        <ele>126</ele>
        <time>2022-06-27T11:25:19Z</time>
      </trkpt>
      <trkpt lat="44.4451" lon="0.73909">
        <ele>127</ele>
        <time>2022-06-27T11:25:31Z</time>
      </trkpt>
      <trkpt lat="44.44198" lon="0.73838">
        <ele>135</ele>
        <time>2022-06-27T11:26:27Z</time>
      </trkpt>
      <trkpt lat="44.44133" lon="0.738">
        <ele>137</ele>
        <time>2022-06-27T11:26:40Z</time>
      </trkpt>
      <trkpt lat="44.44107" lon="0.73766">
        <ele>138</ele>
        <time>2022-06-27T11:26:46Z</time>
      </trkpt>
      <trkpt lat="44.44048" lon="0.73634">
        <ele>143</ele>
        <time>2022-06-27T11:27:06Z</time>
      </trkpt>
      <trkpt lat="44.44027" lon="0.736">
        <ele>144</ele>
        <time>2022-06-27T11:27:11Z</time>
      </trkpt>
      <trkpt lat="44.44006" lon="0.73585">
        <ele>144</ele>
        <time>2022-06-27T11:27:16Z</time>
      </trkpt>
      <trkpt lat="44.4395" lon="0.73573">
        <ele>145</ele>
        <time>2022-06-27T11:27:26Z</time>
      </trkpt>
      <trkpt lat="44.439" lon="0.73555">
        <ele>145</ele>
        <time>2022-06-27T11:27:35Z</time>
      </trkpt>
      <trkpt lat="44.43808" lon="0.7348">
        <ele>145</ele>
        <time>2022-06-27T11:27:54Z</time>
      </trkpt>
      <trkpt lat="44.43783" lon="0.73471">
        <ele>145</ele>
        <time>2022-06-27T11:27:58Z</time>
      </trkpt>
      <trkpt lat="44.4375" lon="0.73472">
        <ele>144</ele>
        <time>2022-06-27T11:28:04Z</time>
      </trkpt>
      <trkpt lat="44.43725" lon="0.73485">
        <ele>146</ele>
        <time>2022-06-27T11:28:09Z</time>
      </trkpt>
      <trkpt lat="44.43655" lon="0.73555">
        <ele>141</ele>
        <time>2022-06-27T11:28:24Z</time>
      </trkpt>
      <trkpt lat="44.43502" lon="0.7365">
        <ele>138</ele>
        <time>2022-06-27T11:28:54Z</time>
      </trkpt>
      <trkpt lat="44.43479" lon="0.73659">
        <ele>136</ele>
        <time>2022-06-27T11:28:58Z</time>
      </trkpt>
      <trkpt lat="44.43458" lon="0.73662">
        <ele>134</ele>
        <time>2022-06-27T11:29:02Z</time>
      </trkpt>
      <trkpt lat="44.43306" lon="0.73647">
        <ele>129</ele>
        <time>2022-06-27T11:29:29Z</time>
      </trkpt>
      <trkpt lat="44.43265" lon="0.73625">
        <ele>128</ele>
        <time>2022-06-27T11:29:37Z</time>
      </trkpt>
      <trkpt lat="44.43233" lon="0.73591">
        <ele>128</ele>
        <time>2022-06-27T11:29:44Z</time>
      </trkpt>
      <trkpt lat="44.43207" lon="0.73532">
        <ele>128</ele>
        <time>2022-06-27T11:29:53Z</time>
      </trkpt>
      <trkpt lat="44.43117" lon="0.73221">
        <ele>122</ele>
        <time>2022-06-27T11:30:36Z</time>
      </trkpt>
      <trkpt lat="44.43052" lon="0.73134">
        <ele>121</ele>
        <time>2022-06-27T11:30:52Z</time>
      </trkpt>
      <trkpt lat="44.43004" lon="0.7304">
        <ele>116</ele>
        <time>2022-06-27T11:31:06Z</time>
      </trkpt>
      <trkpt lat="44.43013" lon="0.73027">
        <ele>115</ele>
        <time>2022-06-27T11:31:09Z</time>
      </trkpt>
      <trkpt lat="44.43016" lon="0.73007">
        <ele>114</ele>
        <time>2022-06-27T11:31:11Z</time>
      </trkpt>
      <trkpt lat="44.43008" lon="0.72981">
        <ele>112</ele>
        <time>2022-06-27T11:31:15Z</time>
      </trkpt>
      <trkpt lat="44.42992" lon="0.72973">
        <ele>111</ele>
        <time>2022-06-27T11:31:18Z</time>
      </trkpt>
      <trkpt lat="44.42974" lon="0.72978">
        <ele>112</ele>
        <time>2022-06-27T11:31:21Z</time>
      </trkpt>
      <trkpt lat="44.42923" lon="0.72944">
        <ele>109</ele>
        <time>2022-06-27T11:31:31Z</time>
      </trkpt>
      <trkpt lat="44.42861" lon="0.72928">
        <ele>112</ele>
        <time>2022-06-27T11:31:42Z</time>
      </trkpt>
      <trkpt lat="44.4282" lon="0.72887">
        <ele>112</ele>
        <time>2022-06-27T11:31:51Z</time>
      </trkpt>
      <trkpt lat="44.4209" lon="0.72098">
        <ele>75</ele>
        <time>2022-06-27T11:34:35Z</time>
      </trkpt>
      <trkpt lat="44.41788" lon="0.71761">
        <ele>68</ele>
        <time>2022-06-27T11:35:44Z</time>
      </trkpt>
      <trkpt lat="44.41641" lon="0.71603">
        <ele>66</ele>
        <time>2022-06-27T11:36:17Z</time>
      </trkpt>
      <trkpt lat="44.41637" lon="0.71605">
        <ele>66</ele>
        <time>2022-06-27T11:36:18Z</time>
      </trkpt>
      <trkpt lat="44.41005" lon="0.70923">
        <ele>61</ele>
        <time>2022-06-27T11:38:40Z</time>
      </trkpt>
      <trkpt lat="44.40918" lon="0.70827">
        <ele>60</ele>
        <time>2022-06-27T11:38:59Z</time>
      </trkpt>
      <trkpt lat="44.40911" lon="0.70806">
        <ele>60</ele>
        <time>2022-06-27T11:39:02Z</time>
      </trkpt>
      <trkpt lat="44.40828" lon="0.70727">
        <ele>60</ele>
        <time>2022-06-27T11:39:20Z</time>
      </trkpt>
      <trkpt lat="44.40744" lon="0.70858">
        <ele>59</ele>
        <time>2022-06-27T11:39:43Z</time>
      </trkpt>
      <trkpt lat="44.4034" lon="0.70414">
        <ele>57</ele>
        <time>2022-06-27T11:41:14Z</time>
      </trkpt>
      <trkpt lat="44.40317" lon="0.70345">
        <ele>59</ele>
        <time>2022-06-27T11:41:24Z</time>
      </trkpt>
      <trkpt lat="44.40341" lon="0.7012">
        <ele>60</ele>
        <time>2022-06-27T11:41:53Z</time>
      </trkpt>
      <trkpt lat="44.40314" lon="0.7009">
        <ele>60</ele>
        <time>2022-06-27T11:41:59Z</time>
      </trkpt>
      <trkpt lat="44.4011" lon="0.69942">
        <ele>60</ele>
        <time>2022-06-27T11:42:40Z</time>
      </trkpt>
      <trkpt lat="44.395" lon="0.69469">
        <ele>69</ele>
        <time>2022-06-27T11:44:44Z</time>
      </trkpt>
      <trkpt lat="44.39464" lon="0.69428">
        <ele>69</ele>
        <time>2022-06-27T11:44:52Z</time>
      </trkpt>
      <trkpt lat="44.39457" lon="0.69407">
        <ele>69</ele>
        <time>2022-06-27T11:44:55Z</time>
      </trkpt>
      <trkpt lat="44.39455" lon="0.69325">
        <ele>68</ele>
        <time>2022-06-27T11:45:05Z</time>
      </trkpt>
      <trkpt lat="44.39414" lon="0.69267">
        <ele>69</ele>
        <time>2022-06-27T11:45:16Z</time>
      </trkpt>
      <trkpt lat="44.39402" lon="0.69265">
        <ele>70</ele>
        <time>2022-06-27T11:45:18Z</time>
      </trkpt>
      <trkpt lat="44.39391" lon="0.69271">
        <ele>70</ele>
        <time>2022-06-27T11:45:20Z</time>
      </trkpt>
      <trkpt lat="44.39382" lon="0.69298">
        <ele>71</ele>
        <time>2022-06-27T11:45:24Z</time>
      </trkpt>
      <trkpt lat="44.39366" lon="0.69318">
        <ele>72</ele>
        <time>2022-06-27T11:45:28Z</time>
      </trkpt>
      <trkpt lat="44.39331" lon="0.69331">
        <ele>73</ele>
        <time>2022-06-27T11:45:34Z</time>
      </trkpt>
      <trkpt lat="44.39317" lon="0.69328">
        <ele>74</ele>
        <time>2022-06-27T11:45:37Z</time>
      </trkpt>
      <trkpt lat="44.39066" lon="0.69131">
        <ele>80</ele>
        <time>2022-06-27T11:46:28Z</time>
      </trkpt>
      <trkpt lat="44.39029" lon="0.69111">
        <ele>83</ele>
        <time>2022-06-27T11:46:35Z</time>
      </trkpt>
      <trkpt lat="44.39015" lon="0.69092">
        <ele>84</ele>
        <time>2022-06-27T11:46:38Z</time>
      </trkpt>
      <trkpt lat="44.38965" lon="0.69052">
        <ele>89</ele>
        <time>2022-06-27T11:46:49Z</time>
      </trkpt>
      <trkpt lat="44.38906" lon="0.68921">
        <ele>95</ele>
        <time>2022-06-27T11:47:08Z</time>
      </trkpt>
      <trkpt lat="44.38864" lon="0.68805">
        <ele>104</ele>
        <time>2022-06-27T11:47:25Z</time>
      </trkpt>
      <trkpt lat="44.38829" lon="0.68512">
        <ele>116</ele>
        <time>2022-06-27T11:48:03Z</time>
      </trkpt>
      <trkpt lat="44.38765" lon="0.68199">
        <ele>123</ele>
        <time>2022-06-27T11:48:44Z</time>
      </trkpt>
      <trkpt lat="44.38755" lon="0.68128">
        <ele>125</ele>
        <time>2022-06-27T11:48:53Z</time>
      </trkpt>
      <trkpt lat="44.38742" lon="0.68024">
        <ele>121</ele>
        <time>2022-06-27T11:49:07Z</time>
      </trkpt>
      <trkpt lat="44.38746" lon="0.67887">
        <ele>114</ele>
        <time>2022-06-27T11:49:24Z</time>
      </trkpt>
      <trkpt lat="44.38713" lon="0.67694">
        <ele>102</ele>
        <time>2022-06-27T11:49:49Z</time>
      </trkpt>
      <trkpt lat="44.38691" lon="0.67661">
        <ele>98</ele>
        <time>2022-06-27T11:49:55Z</time>
      </trkpt>
      <trkpt lat="44.38674" lon="0.67658">
        <ele>96</ele>
        <time>2022-06-27T11:49:58Z</time>
      </trkpt>
      <trkpt lat="44.38657" lon="0.67667">
        <ele>95</ele>
        <time>2022-06-27T11:50:01Z</time>
      </trkpt>
      <trkpt lat="44.38624" lon="0.6771">
        <ele>92</ele>
        <time>2022-06-27T11:50:09Z</time>
      </trkpt>
      <trkpt lat="44.38528" lon="0.67755">
        <ele>86</ele>
        <time>2022-06-27T11:50:27Z</time>
      </trkpt>
      <trkpt lat="44.38508" lon="0.67759">
        <ele>84</ele>
        <time>2022-06-27T11:50:31Z</time>
      </trkpt>
      <trkpt lat="44.38475" lon="0.67744">
        <ele>82</ele>
        <time>2022-06-27T11:50:37Z</time>
      </trkpt>
      <trkpt lat="44.38435" lon="0.67697">
        <ele>79</ele>
        <time>2022-06-27T11:50:46Z</time>
      </trkpt>
      <trkpt lat="44.38374" lon="0.67721">
        <ele>78</ele>
        <time>2022-06-27T11:50:58Z</time>
      </trkpt>
      <trkpt lat="44.38294" lon="0.67778">
        <ele>78</ele>
        <time>2022-06-27T11:51:14Z</time>
      </trkpt>
      <trkpt lat="44.3821" lon="0.67858">
        <ele>79</ele>
        <time>2022-06-27T11:51:32Z</time>
      </trkpt>
      <trkpt lat="44.38151" lon="0.67951">
        <ele>79</ele>
        <time>2022-06-27T11:51:47Z</time>
      </trkpt>
      <trkpt lat="44.38079" lon="0.68019">
        <ele>78</ele>
        <time>2022-06-27T11:52:03Z</time>
      </trkpt>
      <trkpt lat="44.37862" lon="0.6831">
        <ele>81</ele>
        <time>2022-06-27T11:52:56Z</time>
      </trkpt>
      <trkpt lat="44.3771" lon="0.68413">
        <ele>81</ele>
        <time>2022-06-27T11:53:26Z</time>
      </trkpt>
      <trkpt lat="44.37662" lon="0.68433">
        <ele>81</ele>
        <time>2022-06-27T11:53:35Z</time>
      </trkpt>
      <trkpt lat="44.37206" lon="0.68538">
        <ele>85</ele>
        <time>2022-06-27T11:54:58Z</time>
      </trkpt>
      <trkpt lat="44.36833" lon="0.68589">
        <ele>85</ele>
        <time>2022-06-27T11:56:04Z</time>
      </trkpt>
      <trkpt lat="44.36803" lon="0.68555">
        <ele>86</ele>
        <time>2022-06-27T11:56:11Z</time>
      </trkpt>
      <trkpt lat="44.36795" lon="0.68422">
        <ele>88</ele>
        <time>2022-06-27T11:56:28Z</time>
      </trkpt>
      <trkpt lat="44.36776" lon="0.68364">
        <ele>90</ele>
        <time>2022-06-27T11:56:36Z</time>
      </trkpt>
      <trkpt lat="44.36741" lon="0.68333">
        <ele>91</ele>
        <time>2022-06-27T11:56:44Z</time>
      </trkpt>
      <trkpt lat="44.35786" lon="0.68082">
        <ele>95</ele>
        <time>2022-06-27T11:59:37Z</time>
      </trkpt>
      <trkpt lat="44.35681" lon="0.68015">
        <ele>94</ele>
        <time>2022-06-27T11:59:57Z</time>
      </trkpt>
      <trkpt lat="44.35529" lon="0.6798">
        <ele>96</ele>
        <time>2022-06-27T12:00:24Z</time>
      </trkpt>
      <trkpt lat="44.35498" lon="0.67993">
        <ele>97</ele>
        <time>2022-06-27T12:00:30Z</time>
      </trkpt>
      <trkpt lat="44.35417" lon="0.68068">
        <ele>101</ele>
        <time>2022-06-27T12:00:48Z</time>
      </trkpt>
      <trkpt lat="44.3527" lon="0.68115">
        <ele>101</ele>
        <time>2022-06-27T12:01:14Z</time>
      </trkpt>
      <trkpt lat="44.35148" lon="0.68135">
        <ele>103</ele>
        <time>2022-06-27T12:01:36Z</time>
      </trkpt>
      <trkpt lat="44.35057" lon="0.68212">
        <ele>100</ele>
        <time>2022-06-27T12:01:55Z</time>
      </trkpt>
      <trkpt lat="44.34745" lon="0.6833">
        <ele>102</ele>
        <time>2022-06-27T12:02:53Z</time>
      </trkpt>
      <trkpt lat="44.34575" lon="0.68265">
        <ele>106</ele>
        <time>2022-06-27T12:03:24Z</time>
      </trkpt>
      <trkpt lat="44.34388" lon="0.68251">
        <ele>107</ele>
        <time>2022-06-27T12:03:57Z</time>
      </trkpt>
      <trkpt lat="44.34346" lon="0.68124">
        <ele>115</ele>
        <time>2022-06-27T12:04:15Z</time>
      </trkpt>
      <trkpt lat="44.34316" lon="0.68101">
        <ele>116</ele>
        <time>2022-06-27T12:04:21Z</time>
      </trkpt>
      <trkpt lat="44.34283" lon="0.68095">
        <ele>119</ele>
        <time>2022-06-27T12:04:27Z</time>
      </trkpt>
      <trkpt lat="44.3423" lon="0.68128">
        <ele>122</ele>
        <time>2022-06-27T12:04:37Z</time>
      </trkpt>
      <trkpt lat="44.34201" lon="0.68133">
        <ele>125</ele>
        <time>2022-06-27T12:04:43Z</time>
      </trkpt>
      <trkpt lat="44.34135" lon="0.6813">
        <ele>129</ele>
        <time>2022-06-27T12:04:54Z</time>
      </trkpt>
      <trkpt lat="44.34102" lon="0.68106">
        <ele>131</ele>
        <time>2022-06-27T12:05:01Z</time>
      </trkpt>
      <trkpt lat="44.34089" lon="0.68067">
        <ele>134</ele>
        <time>2022-06-27T12:05:06Z</time>
      </trkpt>
      <trkpt lat="44.34089" lon="0.67861">
        <ele>141</ele>
        <time>2022-06-27T12:05:33Z</time>
      </trkpt>
      <trkpt lat="44.34065" lon="0.67829">
        <ele>147</ele>
        <time>2022-06-27T12:05:39Z</time>
      </trkpt>
      <trkpt lat="44.34039" lon="0.67829">
        <ele>150</ele>
        <time>2022-06-27T12:05:43Z</time>
      </trkpt>
      <trkpt lat="44.33938" lon="0.67872">
        <ele>155</ele>
        <time>2022-06-27T12:06:02Z</time>
      </trkpt>
      <trkpt lat="44.33904" lon="0.6786">
        <ele>158</ele>
        <time>2022-06-27T12:06:08Z</time>
      </trkpt>
      <trkpt lat="44.33876" lon="0.67829">
        <ele>160</ele>
        <time>2022-06-27T12:06:15Z</time>
      </trkpt>
      <trkpt lat="44.33778" lon="0.67617">
        <ele>179</ele>
        <time>2022-06-27T12:06:47Z</time>
      </trkpt>
      <trkpt lat="44.33743" lon="0.67595">
        <ele>178</ele>
        <time>2022-06-27T12:06:54Z</time>
      </trkpt>
      <trkpt lat="44.33711" lon="0.67557">
        <ele>179</ele>
        <time>2022-06-27T12:07:01Z</time>
      </trkpt>
      <trkpt lat="44.33673" lon="0.67473">
        <ele>186</ele>
        <time>2022-06-27T12:07:14Z</time>
      </trkpt>
      <trkpt lat="44.33643" lon="0.67456">
        <ele>189</ele>
        <time>2022-06-27T12:07:19Z</time>
      </trkpt>
      <trkpt lat="44.33618" lon="0.67469">
        <ele>190</ele>
        <time>2022-06-27T12:07:24Z</time>
      </trkpt>
      <trkpt lat="44.33566" lon="0.67543">
        <ele>187</ele>
        <time>2022-06-27T12:07:37Z</time>
      </trkpt>
      <trkpt lat="44.33534" lon="0.67553">
        <ele>186</ele>
        <time>2022-06-27T12:07:43Z</time>
      </trkpt>
      <trkpt lat="44.33497" lon="0.67529">
        <ele>189</ele>
        <time>2022-06-27T12:07:50Z</time>
      </trkpt>
      <trkpt lat="44.33408" lon="0.67323">
        <ele>202</ele>
        <time>2022-06-27T12:08:21Z</time>
      </trkpt>
      <trkpt lat="44.33348" lon="0.67227">
        <ele>206</ele>
        <time>2022-06-27T12:08:37Z</time>
      </trkpt>
      <trkpt lat="44.333" lon="0.67158">
        <ele>209</ele>
        <time>2022-06-27T12:08:50Z</time>
      </trkpt>
      <trkpt lat="44.33246" lon="0.67109">
        <ele>209</ele>
        <time>2022-06-27T12:09:01Z</time>
      </trkpt>
      <trkpt lat="44.33125" lon="0.67078">
        <ele>214</ele>
        <time>2022-06-27T12:09:23Z</time>
      </trkpt>
      <trkpt lat="44.33171" lon="0.67009">
        <ele>212</ele>
        <time>2022-06-27T12:09:35Z</time>
      </trkpt>
      <trkpt lat="44.33209" lon="0.66813">
        <ele>210</ele>
        <time>2022-06-27T12:10:01Z</time>
      </trkpt>
      <trkpt lat="44.33323" lon="0.66443">
        <ele>209</ele>
        <time>2022-06-27T12:10:52Z</time>
      </trkpt>
      <trkpt lat="44.33323" lon="0.66368">
        <ele>212</ele>
        <time>2022-06-27T12:11:02Z</time>
      </trkpt>
      <trkpt lat="44.33275" lon="0.66266">
        <ele>214</ele>
        <time>2022-06-27T12:11:17Z</time>
      </trkpt>
      <trkpt lat="44.33254" lon="0.6619">
        <ele>213</ele>
        <time>2022-06-27T12:11:28Z</time>
      </trkpt>
      <trkpt lat="44.33249" lon="0.66094">
        <ele>212</ele>
        <time>2022-06-27T12:11:40Z</time>
      </trkpt>
      <trkpt lat="44.33281" lon="0.65924">
        <ele>207</ele>
        <time>2022-06-27T12:12:02Z</time>
      </trkpt>
      <trkpt lat="44.33315" lon="0.65806">
        <ele>208</ele>
        <time>2022-06-27T12:12:18Z</time>
      </trkpt>
      <trkpt lat="44.3337" lon="0.65716">
        <ele>205</ele>
        <time>2022-06-27T12:12:33Z</time>
      </trkpt>
      <trkpt lat="44.33376" lon="0.65675">
        <ele>205</ele>
        <time>2022-06-27T12:12:39Z</time>
      </trkpt>
      <trkpt lat="44.33333" lon="0.6554">
        <ele>199</ele>
        <time>2022-06-27T12:12:58Z</time>
      </trkpt>
      <trkpt lat="44.33296" lon="0.65496">
        <ele>195</ele>
        <time>2022-06-27T12:13:06Z</time>
      </trkpt>
      <trkpt lat="44.33173" lon="0.65431">
        <ele>188</ele>
        <time>2022-06-27T12:13:30Z</time>
      </trkpt>
      <trkpt lat="44.33129" lon="0.65378">
        <ele>185</ele>
        <time>2022-06-27T12:13:40Z</time>
      </trkpt>
      <trkpt lat="44.33105" lon="0.65306">
        <ele>183</ele>
        <time>2022-06-27T12:13:50Z</time>
      </trkpt>
      <trkpt lat="44.33071" lon="0.65055">
        <ele>181</ele>
        <time>2022-06-27T12:14:23Z</time>
      </trkpt>
      <trkpt lat="44.33009" lon="0.64898">
        <ele>178</ele>
        <time>2022-06-27T12:14:45Z</time>
      </trkpt>
      <trkpt lat="44.33026" lon="0.64774">
        <ele>177</ele>
        <time>2022-06-27T12:15:01Z</time>
      </trkpt>
      <trkpt lat="44.3302" lon="0.64652">
        <ele>175</ele>
        <time>2022-06-27T12:15:17Z</time>
      </trkpt>
      <trkpt lat="44.33065" lon="0.6443">
        <ele>178</ele>
        <time>2022-06-27T12:15:46Z</time>
      </trkpt>
      <trkpt lat="44.3312" lon="0.64302">
        <ele>182</ele>
        <time>2022-06-27T12:16:05Z</time>
      </trkpt>
      <trkpt lat="44.33148" lon="0.64209">
        <ele>183</ele>
        <time>2022-06-27T12:16:18Z</time>
      </trkpt>
      <trkpt lat="44.33322" lon="0.63802">
        <ele>194</ele>
        <time>2022-06-27T12:17:19Z</time>
      </trkpt>
      <trkpt lat="44.33369" lon="0.63581">
        <ele>189</ele>
        <time>2022-06-27T12:17:48Z</time>
      </trkpt>
      <trkpt lat="44.33387" lon="0.63445">
        <ele>182</ele>
        <time>2022-06-27T12:18:05Z</time>
      </trkpt>
      <trkpt lat="44.33356" lon="0.63319">
        <ele>179</ele>
        <time>2022-06-27T12:18:22Z</time>
      </trkpt>
      <trkpt lat="44.33358" lon="0.63254">
        <ele>177</ele>
        <time>2022-06-27T12:18:31Z</time>
      </trkpt>
      <trkpt lat="44.3334" lon="0.6318">
        <ele>174</ele>
        <time>2022-06-27T12:18:41Z</time>
      </trkpt>
      <trkpt lat="44.33312" lon="0.63092">
        <ele>172</ele>
        <time>2022-06-27T12:18:53Z</time>
      </trkpt>
      <trkpt lat="44.33256" lon="0.62963">
        <ele>178</ele>
        <time>2022-06-27T12:19:12Z</time>
      </trkpt>
      <trkpt lat="44.33195" lon="0.62995">
        <ele>175</ele>
        <time>2022-06-27T12:19:24Z</time>
      </trkpt>
      <trkpt lat="44.33156" lon="0.63006">
        <ele>174</ele>
        <time>2022-06-27T12:19:31Z</time>
      </trkpt>
      <trkpt lat="44.3285" lon="0.6286">
        <ele>162</ele>
        <time>2022-06-27T12:20:28Z</time>
      </trkpt>
      <trkpt lat="44.32802" lon="0.62805">
        <ele>161</ele>
        <time>2022-06-27T12:20:39Z</time>
      </trkpt>
      <trkpt lat="44.32754" lon="0.62773">
        <ele>156</ele>
        <time>2022-06-27T12:20:49Z</time>
      </trkpt>
      <trkpt lat="44.32741" lon="0.62758">
        <ele>155</ele>
        <time>2022-06-27T12:20:52Z</time>
      </trkpt>
      <trkpt lat="44.32711" lon="0.62681">
        <ele>155</ele>
        <time>2022-06-27T12:21:03Z</time>
      </trkpt>
      <trkpt lat="44.32693" lon="0.62652">
        <ele>153</ele>
        <time>2022-06-27T12:21:08Z</time>
      </trkpt>
      <trkpt lat="44.32578" lon="0.62567">
        <ele>139</ele>
        <time>2022-06-27T12:21:31Z</time>
      </trkpt>
      <trkpt lat="44.32445" lon="0.62484">
        <ele>137</ele>
        <time>2022-06-27T12:21:57Z</time>
      </trkpt>
      <trkpt lat="44.32198" lon="0.6238">
        <ele>136</ele>
        <time>2022-06-27T12:22:43Z</time>
      </trkpt>
      <trkpt lat="44.32153" lon="0.62373">
        <ele>134</ele>
        <time>2022-06-27T12:22:51Z</time>
      </trkpt>
      <trkpt lat="44.32115" lon="0.62375">
        <ele>131</ele>
        <time>2022-06-27T12:22:58Z</time>
      </trkpt>
      <trkpt lat="44.32024" lon="0.62401">
        <ele>126</ele>
        <time>2022-06-27T12:23:14Z</time>
      </trkpt>
      <trkpt lat="44.31797" lon="0.62505">
        <ele>131</ele>
        <time>2022-06-27T12:23:57Z</time>
      </trkpt>
      <trkpt lat="44.31758" lon="0.62531">
        <ele>128</ele>
        <time>2022-06-27T12:24:04Z</time>
      </trkpt>
      <trkpt lat="44.31723" lon="0.62574">
        <ele>128</ele>
        <time>2022-06-27T12:24:13Z</time>
      </trkpt>
      <trkpt lat="44.31595" lon="0.62789">
        <ele>135</ele>
        <time>2022-06-27T12:24:48Z</time>
      </trkpt>
      <trkpt lat="44.31553" lon="0.62824">
        <ele>137</ele>
        <time>2022-06-27T12:24:57Z</time>
      </trkpt>
      <trkpt lat="44.31342" lon="0.62947">
        <ele>155</ele>
        <time>2022-06-27T12:25:38Z</time>
      </trkpt>
      <trkpt lat="44.31307" lon="0.62993">
        <ele>161</ele>
        <time>2022-06-27T12:25:46Z</time>
      </trkpt>
      <trkpt lat="44.31274" lon="0.63078">
        <ele>162</ele>
        <time>2022-06-27T12:25:59Z</time>
      </trkpt>
      <trkpt lat="44.3121" lon="0.63177">
        <ele>167</ele>
        <time>2022-06-27T12:26:16Z</time>
      </trkpt>
      <trkpt lat="44.31131" lon="0.63242">
        <ele>174</ele>
        <time>2022-06-27T12:26:32Z</time>
      </trkpt>
      <trkpt lat="44.31108" lon="0.63272">
        <ele>177</ele>
        <time>2022-06-27T12:26:37Z</time>
      </trkpt>
      <trkpt lat="44.31089" lon="0.63335">
        <ele>179</ele>
        <time>2022-06-27T12:26:46Z</time>
      </trkpt>
      <trkpt lat="44.31066" lon="0.63387">
        <ele>177</ele>
        <time>2022-06-27T12:26:54Z</time>
      </trkpt>
      <trkpt lat="44.31006" lon="0.63463">
        <ele>182</ele>
        <time>2022-06-27T12:27:08Z</time>
      </trkpt>
      <trkpt lat="44.30981" lon="0.63507">
        <ele>182</ele>
        <time>2022-06-27T12:27:15Z</time>
      </trkpt>
      <trkpt lat="44.30964" lon="0.63605">
        <ele>185</ele>
        <time>2022-06-27T12:27:28Z</time>
      </trkpt>
      <trkpt lat="44.30948" lon="0.63661">
        <ele>188</ele>
        <time>2022-06-27T12:27:36Z</time>
      </trkpt>
      <trkpt lat="44.30905" lon="0.63753">
        <ele>191</ele>
        <time>2022-06-27T12:27:50Z</time>
      </trkpt>
      <trkpt lat="44.3089" lon="0.63773">
        <ele>190</ele>
        <time>2022-06-27T12:27:54Z</time>
      </trkpt>
      <trkpt lat="44.30857" lon="0.63785">
        <ele>191</ele>
        <time>2022-06-27T12:28:00Z</time>
      </trkpt>
      <trkpt lat="44.30631" lon="0.6379">
        <ele>189</ele>
        <time>2022-06-27T12:28:40Z</time>
      </trkpt>
      <trkpt lat="44.30581" lon="0.63783">
        <ele>189</ele>
        <time>2022-06-27T12:28:49Z</time>
      </trkpt>
      <trkpt lat="44.30554" lon="0.63772">
        <ele>188</ele>
        <time>2022-06-27T12:28:54Z</time>
      </trkpt>
      <trkpt lat="44.30532" lon="0.63755">
        <ele>188</ele>
        <time>2022-06-27T12:28:58Z</time>
      </trkpt>
      <trkpt lat="44.30484" lon="0.63695">
        <ele>189</ele>
        <time>2022-06-27T12:29:10Z</time>
      </trkpt>
      <trkpt lat="44.30465" lon="0.63659">
        <ele>191</ele>
        <time>2022-06-27T12:29:16Z</time>
      </trkpt>
      <trkpt lat="44.30253" lon="0.63126">
        <ele>195</ele>
        <time>2022-06-27T12:30:33Z</time>
      </trkpt>
      <trkpt lat="44.30036" lon="0.62878">
        <ele>201</ele>
        <time>2022-06-27T12:31:23Z</time>
      </trkpt>
      <trkpt lat="44.30005" lon="0.62864">
        <ele>203</ele>
        <time>2022-06-27T12:31:29Z</time>
      </trkpt>
      <trkpt lat="44.29991" lon="0.62868">
        <ele>204</ele>
        <time>2022-06-27T12:31:31Z</time>
      </trkpt>
      <trkpt lat="44.29928" lon="0.62916">
        <ele>208</ele>
        <time>2022-06-27T12:31:44Z</time>
      </trkpt>
      <trkpt lat="44.29903" lon="0.62931">
        <ele>210</ele>
        <time>2022-06-27T12:31:49Z</time>
      </trkpt>
      <trkpt lat="44.29873" lon="0.62939">
        <ele>210</ele>
        <time>2022-06-27T12:31:54Z</time>
      </trkpt>
      <trkpt lat="44.29715" lon="0.62968">
        <ele>212</ele>
        <time>2022-06-27T12:32:23Z</time>
      </trkpt>
      <trkpt lat="44.29678" lon="0.62966">
        <ele>214</ele>
        <time>2022-06-27T12:32:29Z</time>
      </trkpt>
      <trkpt lat="44.29656" lon="0.62957">
        <ele>214</ele>
        <time>2022-06-27T12:32:33Z</time>
      </trkpt>
      <trkpt lat="44.29632" lon="0.62923">
        <ele>214</ele>
        <time>2022-06-27T12:32:40Z</time>
      </trkpt>
      <trkpt lat="44.29594" lon="0.62814">
        <ele>213</ele>
        <time>2022-06-27T12:32:55Z</time>
      </trkpt>
      <trkpt lat="44.29556" lon="0.62769">
        <ele>210</ele>
        <time>2022-06-27T12:33:04Z</time>
      </trkpt>
      <trkpt lat="44.29051" lon="0.62372">
        <ele>194</ele>
        <time>2022-06-27T12:34:47Z</time>
      </trkpt>
      <trkpt lat="44.29031" lon="0.62337">
        <ele>194</ele>
        <time>2022-06-27T12:34:53Z</time>
      </trkpt>
      <trkpt lat="44.28865" lon="0.62495">
        <ele>185</ele>
        <time>2022-06-27T12:35:28Z</time>
      </trkpt>
      <trkpt lat="44.28845" lon="0.62507">
        <ele>184</ele>
        <time>2022-06-27T12:35:32Z</time>
      </trkpt>
      <trkpt lat="44.2876" lon="0.62518">
        <ele>183</ele>
        <time>2022-06-27T12:35:47Z</time>
      </trkpt>
      <trkpt lat="44.28699" lon="0.62578">
        <ele>179</ele>
        <time>2022-06-27T12:36:01Z</time>
      </trkpt>
      <trkpt lat="44.28654" lon="0.62609">
        <ele>177</ele>
        <time>2022-06-27T12:36:10Z</time>
      </trkpt>
      <trkpt lat="44.28635" lon="0.6264">
        <ele>173</ele>
        <time>2022-06-27T12:36:15Z</time>
      </trkpt>
      <trkpt lat="44.28603" lon="0.62718">
        <ele>167</ele>
        <time>2022-06-27T12:36:26Z</time>
      </trkpt>
      <trkpt lat="44.28595" lon="0.62744">
        <ele>166</ele>
        <time>2022-06-27T12:36:30Z</time>
      </trkpt>
      <trkpt lat="44.28587" lon="0.62825">
        <ele>159</ele>
        <time>2022-06-27T12:36:40Z</time>
      </trkpt>
      <trkpt lat="44.28567" lon="0.6286">
        <ele>156</ele>
        <time>2022-06-27T12:36:46Z</time>
      </trkpt>
      <trkpt lat="44.28529" lon="0.62894">
        <ele>153</ele>
        <time>2022-06-27T12:36:54Z</time>
      </trkpt>
      <trkpt lat="44.28449" lon="0.63004">
        <ele>149</ele>
        <time>2022-06-27T12:37:14Z</time>
      </trkpt>
      <trkpt lat="44.28348" lon="0.63071">
        <ele>142</ele>
        <time>2022-06-27T12:37:34Z</time>
      </trkpt>
      <trkpt lat="44.28282" lon="0.63136">
        <ele>137</ele>
        <time>2022-06-27T12:37:48Z</time>
      </trkpt>
      <trkpt lat="44.28099" lon="0.63368">
        <ele>120</ele>
        <time>2022-06-27T12:38:32Z</time>
      </trkpt>
      <trkpt lat="44.27966" lon="0.63497">
        <ele>108</ele>
        <time>2022-06-27T12:39:01Z</time>
      </trkpt>
      <trkpt lat="44.27941" lon="0.63504">
        <ele>106</ele>
        <time>2022-06-27T12:39:06Z</time>
      </trkpt>
      <trkpt lat="44.27904" lon="0.6349">
        <ele>105</ele>
        <time>2022-06-27T12:39:12Z</time>
      </trkpt>
      <trkpt lat="44.27539" lon="0.63009">
        <ele>92</ele>
        <time>2022-06-27T12:40:42Z</time>
      </trkpt>
      <trkpt lat="44.27517" lon="0.62997">
        <ele>92</ele>
        <time>2022-06-27T12:40:46Z</time>
      </trkpt>
      <trkpt lat="44.27499" lon="0.62997">
        <ele>91</ele>
        <time>2022-06-27T12:40:49Z</time>
      </trkpt>
      <trkpt lat="44.27475" lon="0.63006">
        <ele>91</ele>
        <time>2022-06-27T12:40:54Z</time>
      </trkpt>
      <trkpt lat="44.27368" lon="0.63191">
        <ele>95</ele>
        <time>2022-06-27T12:41:24Z</time>
      </trkpt>
      <trkpt lat="44.27267" lon="0.63321">
        <ele>103</ele>
        <time>2022-06-27T12:41:48Z</time>
      </trkpt>
      <trkpt lat="44.27078" lon="0.6352">
        <ele>122</ele>
        <time>2022-06-27T12:42:30Z</time>
      </trkpt>
      <trkpt lat="44.27062" lon="0.63529">
        <ele>125</ele>
        <time>2022-06-27T12:42:33Z</time>
      </trkpt>
      <trkpt lat="44.27023" lon="0.63528">
        <ele>128</ele>
        <time>2022-06-27T12:42:40Z</time>
      </trkpt>
      <trkpt lat="44.26993" lon="0.63503">
        <ele>128</ele>
        <time>2022-06-27T12:42:47Z</time>
      </trkpt>
      <trkpt lat="44.26985" lon="0.63469">
        <ele>132</ele>
        <time>2022-06-27T12:42:51Z</time>
      </trkpt>
      <trkpt lat="44.27004" lon="0.63382">
        <ele>131</ele>
        <time>2022-06-27T12:43:03Z</time>
      </trkpt>
      <trkpt lat="44.26999" lon="0.63329">
        <ele>134</ele>
        <time>2022-06-27T12:43:10Z</time>
      </trkpt>
      <trkpt lat="44.26987" lon="0.63299">
        <ele>134</ele>
        <time>2022-06-27T12:43:14Z</time>
      </trkpt>
      <trkpt lat="44.26947" lon="0.63245">
        <ele>138</ele>
        <time>2022-06-27T12:43:24Z</time>
      </trkpt>
      <trkpt lat="44.269" lon="0.63209">
        <ele>140</ele>
        <time>2022-06-27T12:43:33Z</time>
      </trkpt>
      <trkpt lat="44.26882" lon="0.63203">
        <ele>141</ele>
        <time>2022-06-27T12:43:37Z</time>
      </trkpt>
      <trkpt lat="44.26823" lon="0.63217">
        <ele>148</ele>
        <time>2022-06-27T12:43:47Z</time>
      </trkpt>
      <trkpt lat="44.26732" lon="0.63258">
        <ele>155</ele>
        <time>2022-06-27T12:44:04Z</time>
      </trkpt>
      <trkpt lat="44.26706" lon="0.63253">
        <ele>157</ele>
        <time>2022-06-27T12:44:09Z</time>
      </trkpt>
      <trkpt lat="44.26688" lon="0.63233">
        <ele>158</ele>
        <time>2022-06-27T12:44:13Z</time>
      </trkpt>
      <trkpt lat="44.26636" lon="0.63146">
        <ele>161</ele>
        <time>2022-06-27T12:44:28Z</time>
      </trkpt>
      <trkpt lat="44.26599" lon="0.6307">
        <ele>165</ele>
        <time>2022-06-27T12:44:39Z</time>
      </trkpt>
      <trkpt lat="44.26582" lon="0.63051">
        <ele>166</ele>
        <time>2022-06-27T12:44:43Z</time>
      </trkpt>
      <trkpt lat="44.26529" lon="0.63016">
        <ele>171</ele>
        <time>2022-06-27T12:44:54Z</time>
      </trkpt>
      <trkpt lat="44.26475" lon="0.62994">
        <ele>174</ele>
        <time>2022-06-27T12:45:04Z</time>
      </trkpt>
      <trkpt lat="44.26435" lon="0.62955">
        <ele>175</ele>
        <time>2022-06-27T12:45:12Z</time>
      </trkpt>
      <trkpt lat="44.2642" lon="0.6295">
        <ele>176</ele>
        <time>2022-06-27T12:45:15Z</time>
      </trkpt>
      <trkpt lat="44.26409" lon="0.62954">
        <ele>177</ele>
        <time>2022-06-27T12:45:17Z</time>
      </trkpt>
      <trkpt lat="44.26399" lon="0.62973">
        <ele>177</ele>
        <time>2022-06-27T12:45:20Z</time>
      </trkpt>
      <trkpt lat="44.26359" lon="0.63134">
        <ele>170</ele>
        <time>2022-06-27T12:45:42Z</time>
      </trkpt>
      <trkpt lat="44.26377" lon="0.63282">
        <ele>163</ele>
        <time>2022-06-27T12:46:01Z</time>
      </trkpt>
      <trkpt lat="44.26375" lon="0.63322">
        <ele>161</ele>
        <time>2022-06-27T12:46:06Z</time>
      </trkpt>
      <trkpt lat="44.26356" lon="0.63388">
        <ele>160</ele>
        <time>2022-06-27T12:46:15Z</time>
      </trkpt>
      <trkpt lat="44.26328" lon="0.63406">
        <ele>157</ele>
        <time>2022-06-27T12:46:21Z</time>
      </trkpt>
      <trkpt lat="44.26254" lon="0.63402">
        <ele>150</ele>
        <time>2022-06-27T12:46:34Z</time>
      </trkpt>
      <trkpt lat="44.26195" lon="0.63421">
        <ele>145</ele>
        <time>2022-06-27T12:46:44Z</time>
      </trkpt>
      <trkpt lat="44.26096" lon="0.63477">
        <ele>139</ele>
        <time>2022-06-27T12:47:03Z</time>
      </trkpt>
      <trkpt lat="44.26055" lon="0.63491">
        <ele>134</ele>
        <time>2022-06-27T12:47:11Z</time>
      </trkpt>
      <trkpt lat="44.26027" lon="0.63525">
        <ele>132</ele>
        <time>2022-06-27T12:47:18Z</time>
      </trkpt>
      <trkpt lat="44.25989" lon="0.636">
        <ele>130</ele>
        <time>2022-06-27T12:47:29Z</time>
      </trkpt>
      <trkpt lat="44.25981" lon="0.63626">
        <ele>128</ele>
        <time>2022-06-27T12:47:33Z</time>
      </trkpt>
      <trkpt lat="44.25975" lon="0.63685">
        <ele>125</ele>
        <time>2022-06-27T12:47:40Z</time>
      </trkpt>
      <trkpt lat="44.25981" lon="0.63726">
        <ele>125</ele>
        <time>2022-06-27T12:47:46Z</time>
      </trkpt>
      <trkpt lat="44.26008" lon="0.63823">
        <ele>124</ele>
        <time>2022-06-27T12:47:59Z</time>
      </trkpt>
      <trkpt lat="44.26025" lon="0.63993">
        <ele>113</ele>
        <time>2022-06-27T12:48:21Z</time>
      </trkpt>
      <trkpt lat="44.26012" lon="0.64025">
        <ele>109</ele>
        <time>2022-06-27T12:48:26Z</time>
      </trkpt>
      <trkpt lat="44.25782" lon="0.64114">
        <ele>118</ele>
        <time>2022-06-27T12:49:08Z</time>
      </trkpt>
      <trkpt lat="44.25765" lon="0.64119">
        <ele>119</ele>
        <time>2022-06-27T12:49:11Z</time>
      </trkpt>
      <trkpt lat="44.25742" lon="0.64116">
        <ele>122</ele>
        <time>2022-06-27T12:49:15Z</time>
      </trkpt>
      <trkpt lat="44.25733" lon="0.64101">
        <ele>123</ele>
        <time>2022-06-27T12:49:18Z</time>
      </trkpt>
      <trkpt lat="44.25727" lon="0.64072">
        <ele>124</ele>
        <time>2022-06-27T12:49:22Z</time>
      </trkpt>
      <trkpt lat="44.25736" lon="0.6398">
        <ele>124</ele>
        <time>2022-06-27T12:49:33Z</time>
      </trkpt>
      <trkpt lat="44.25734" lon="0.6395">
        <ele>124</ele>
        <time>2022-06-27T12:49:37Z</time>
      </trkpt>
      <trkpt lat="44.25721" lon="0.63914">
        <ele>127</ele>
        <time>2022-06-27T12:49:42Z</time>
      </trkpt>
      <trkpt lat="44.25708" lon="0.63901">
        <ele>128</ele>
        <time>2022-06-27T12:49:45Z</time>
      </trkpt>
      <trkpt lat="44.25611" lon="0.63849">
        <ele>133</ele>
        <time>2022-06-27T12:50:04Z</time>
      </trkpt>
      <trkpt lat="44.25585" lon="0.63846">
        <ele>134</ele>
        <time>2022-06-27T12:50:08Z</time>
      </trkpt>
      <trkpt lat="44.25471" lon="0.6394">
        <ele>148</ele>
        <time>2022-06-27T12:50:32Z</time>
      </trkpt>
      <trkpt lat="44.25341" lon="0.64035">
        <ele>158</ele>
        <time>2022-06-27T12:50:58Z</time>
      </trkpt>
      <trkpt lat="44.25312" lon="0.64037">
        <ele>159</ele>
        <time>2022-06-27T12:51:03Z</time>
      </trkpt>
      <trkpt lat="44.2522" lon="0.64005">
        <ele>163</ele>
        <time>2022-06-27T12:51:20Z</time>
      </trkpt>
      <trkpt lat="44.2511" lon="0.64029">
        <ele>168</ele>
        <time>2022-06-27T12:51:40Z</time>
      </trkpt>
      <trkpt lat="44.25067" lon="0.64052">
        <ele>171</ele>
        <time>2022-06-27T12:51:48Z</time>
      </trkpt>
      <trkpt lat="44.25019" lon="0.64096">
        <ele>175</ele>
        <time>2022-06-27T12:51:58Z</time>
      </trkpt>
      <trkpt lat="44.24958" lon="0.64165">
        <ele>177</ele>
        <time>2022-06-27T12:52:12Z</time>
      </trkpt>
      <trkpt lat="44.24928" lon="0.6418">
        <ele>177</ele>
        <time>2022-06-27T12:52:18Z</time>
      </trkpt>
      <trkpt lat="44.24921" lon="0.64201">
        <ele>176</ele>
        <time>2022-06-27T12:52:21Z</time>
      </trkpt>
      <trkpt lat="44.24908" lon="0.64214">
        <ele>175</ele>
        <time>2022-06-27T12:52:24Z</time>
      </trkpt>
      <trkpt lat="44.2488" lon="0.64223">
        <ele>173</ele>
        <time>2022-06-27T12:52:29Z</time>
      </trkpt>
      <trkpt lat="44.2479" lon="0.64236">
        <ele>168</ele>
        <time>2022-06-27T12:52:45Z</time>
      </trkpt>
      <trkpt lat="44.24659" lon="0.64285">
        <ele>163</ele>
        <time>2022-06-27T12:53:09Z</time>
      </trkpt>
      <trkpt lat="44.24574" lon="0.64302">
        <ele>161</ele>
        <time>2022-06-27T12:53:24Z</time>
      </trkpt>
      <trkpt lat="44.24515" lon="0.64331">
        <ele>160</ele>
        <time>2022-06-27T12:53:36Z</time>
      </trkpt>
      <trkpt lat="44.24498" lon="0.64326">
        <ele>160</ele>
        <time>2022-06-27T12:53:39Z</time>
      </trkpt>
      <trkpt lat="44.24486" lon="0.64337">
        <ele>160</ele>
        <time>2022-06-27T12:53:41Z</time>
      </trkpt>
      <trkpt lat="44.24483" lon="0.64359">
        <ele>162</ele>
        <time>2022-06-27T12:53:44Z</time>
      </trkpt>
      <trkpt lat="44.24467" lon="0.64378">
        <ele>163</ele>
        <time>2022-06-27T12:53:48Z</time>
      </trkpt>
      <trkpt lat="44.24401" lon="0.64399">
        <ele>162</ele>
        <time>2022-06-27T12:54:00Z</time>
      </trkpt>
      <trkpt lat="44.24204" lon="0.64481">
        <ele>157</ele>
        <time>2022-06-27T12:54:36Z</time>
      </trkpt>
      <trkpt lat="44.24077" lon="0.64547">
        <ele>157</ele>
        <time>2022-06-27T12:55:01Z</time>
      </trkpt>
      <trkpt lat="44.24048" lon="0.64547">
        <ele>158</ele>
        <time>2022-06-27T12:55:06Z</time>
      </trkpt>
      <trkpt lat="44.24019" lon="0.64537">
        <ele>158</ele>
        <time>2022-06-27T12:55:11Z</time>
      </trkpt>
      <trkpt lat="44.23952" lon="0.64474">
        <ele>158</ele>
        <time>2022-06-27T12:55:25Z</time>
      </trkpt>
      <trkpt lat="44.23593" lon="0.64171">
        <ele>163</ele>
        <time>2022-06-27T12:56:40Z</time>
      </trkpt>
      <trkpt lat="44.2293" lon="0.63664">
        <ele>156</ele>
        <time>2022-06-27T12:58:55Z</time>
      </trkpt>
      <trkpt lat="44.22894" lon="0.63632">
        <ele>159</ele>
        <time>2022-06-27T12:59:02Z</time>
      </trkpt>
      <trkpt lat="44.22786" lon="0.63515">
        <ele>167</ele>
        <time>2022-06-27T12:59:26Z</time>
      </trkpt>
      <trkpt lat="44.22717" lon="0.6347">
        <ele>170</ele>
        <time>2022-06-27T12:59:40Z</time>
      </trkpt>
      <trkpt lat="44.22669" lon="0.63455">
        <ele>173</ele>
        <time>2022-06-27T12:59:49Z</time>
      </trkpt>
      <trkpt lat="44.22587" lon="0.63457">
        <ele>177</ele>
        <time>2022-06-27T13:00:03Z</time>
      </trkpt>
      <trkpt lat="44.22519" lon="0.63439">
        <ele>174</ele>
        <time>2022-06-27T13:00:16Z</time>
      </trkpt>
      <trkpt lat="44.22327" lon="0.6334">
        <ele>152</ele>
        <time>2022-06-27T13:00:52Z</time>
      </trkpt>
      <trkpt lat="44.22274" lon="0.63285">
        <ele>145</ele>
        <time>2022-06-27T13:01:04Z</time>
      </trkpt>
      <trkpt lat="44.22199" lon="0.63153">
        <ele>138</ele>
        <time>2022-06-27T13:01:25Z</time>
      </trkpt>
      <trkpt lat="44.22145" lon="0.63123">
        <ele>133</ele>
        <time>2022-06-27T13:01:36Z</time>
      </trkpt>
      <trkpt lat="44.22038" lon="0.63077">
        <ele>120</ele>
        <time>2022-06-27T13:01:56Z</time>
      </trkpt>
      <trkpt lat="44.22018" lon="0.63063">
        <ele>117</ele>
        <time>2022-06-27T13:02:00Z</time>
      </trkpt>
      <trkpt lat="44.21891" lon="0.62874">
        <ele>105</ele>
        <time>2022-06-27T13:02:33Z</time>
      </trkpt>
      <trkpt lat="44.2187" lon="0.62861">
        <ele>103</ele>
        <time>2022-06-27T13:02:37Z</time>
      </trkpt>
      <trkpt lat="44.21776" lon="0.62845">
        <ele>93</ele>
        <time>2022-06-27T13:02:54Z</time>
      </trkpt>
      <trkpt lat="44.21565" lon="0.6274">
        <ele>76</ele>
        <time>2022-06-27T13:03:33Z</time>
      </trkpt>
      <trkpt lat="44.21539" lon="0.62733">
        <ele>75</ele>
        <time>2022-06-27T13:03:38Z</time>
      </trkpt>
      <trkpt lat="44.21514" lon="0.62737">
        <ele>74</ele>
        <time>2022-06-27T13:03:43Z</time>
      </trkpt>
      <trkpt lat="44.21102" lon="0.62928">
        <ele>59</ele>
        <time>2022-06-27T13:05:00Z</time>
      </trkpt>
      <trkpt lat="44.21069" lon="0.62939">
        <ele>58</ele>
        <time>2022-06-27T13:05:06Z</time>
      </trkpt>
      <trkpt lat="44.2105" lon="0.62936">
        <ele>57</ele>
        <time>2022-06-27T13:05:09Z</time>
      </trkpt>
      <trkpt lat="44.20939" lon="0.62866">
        <ele>55</ele>
        <time>2022-06-27T13:05:31Z</time>
      </trkpt>
      <trkpt lat="44.20887" lon="0.62826">
        <ele>53</ele>
        <time>2022-06-27T13:05:42Z</time>
      </trkpt>
      <trkpt lat="44.20876" lon="0.62806">
        <ele>52</ele>
        <time>2022-06-27T13:05:45Z</time>
      </trkpt>
      <trkpt lat="44.20865" lon="0.62808">
        <ele>52</ele>
        <time>2022-06-27T13:05:47Z</time>
      </trkpt>
      <trkpt lat="44.20847" lon="0.62797">
        <ele>51</ele>
        <time>2022-06-27T13:05:50Z</time>
      </trkpt>
      <trkpt lat="44.20578" lon="0.62606">
        <ele>52</ele>
        <time>2022-06-27T13:06:44Z</time>
      </trkpt>
      <trkpt lat="44.20522" lon="0.62559">
        <ele>53</ele>
        <time>2022-06-27T13:06:56Z</time>
      </trkpt>
      <trkpt lat="44.20365" lon="0.6245">
        <ele>53</ele>
        <time>2022-06-27T13:07:27Z</time>
      </trkpt>
      <trkpt lat="44.20331" lon="0.62433">
        <ele>53</ele>
        <time>2022-06-27T13:07:33Z</time>
      </trkpt>
      <trkpt lat="44.19845" lon="0.62087">
        <ele>50</ele>
        <time>2022-06-27T13:09:10Z</time>
      </trkpt>
      <trkpt lat="44.19825" lon="0.62132">
        <ele>49</ele>
        <time>2022-06-27T13:09:17Z</time>
      </trkpt>
      <trkpt lat="44.19767" lon="0.62224">
        <ele>49</ele>
        <time>2022-06-27T13:09:33Z</time>
      </trkpt>
      <trkpt lat="44.19741" lon="0.62244">
        <ele>49</ele>
        <time>2022-06-27T13:09:38Z</time>
      </trkpt>
      <trkpt lat="44.19662" lon="0.62259">
        <ele>47</ele>
        <time>2022-06-27T13:09:52Z</time>
      </trkpt>
      <trkpt lat="44.19589" lon="0.62255">
        <ele>48</ele>
        <time>2022-06-27T13:10:05Z</time>
      </trkpt>
      <trkpt lat="44.19567" lon="0.6227">
        <ele>48</ele>
        <time>2022-06-27T13:10:09Z</time>
      </trkpt>
      <trkpt lat="44.19546" lon="0.62299">
        <ele>48</ele>
        <time>2022-06-27T13:10:15Z</time>
      </trkpt>
      <trkpt lat="44.19527" lon="0.62308">
        <ele>48</ele>
        <time>2022-06-27T13:10:18Z</time>
      </trkpt>
      <trkpt lat="44.19496" lon="0.62307">
        <ele>48</ele>
        <time>2022-06-27T13:10:24Z</time>
      </trkpt>
      <trkpt lat="44.19431" lon="0.62372">
        <ele>46</ele>
        <time>2022-06-27T13:10:38Z</time>
      </trkpt>
      <trkpt lat="44.19383" lon="0.62404">
        <ele>45</ele>
        <time>2022-06-27T13:10:47Z</time>
      </trkpt>
      <trkpt lat="44.19368" lon="0.62471">
        <ele>47</ele>
        <time>2022-06-27T13:10:56Z</time>
      </trkpt>
      <trkpt lat="44.19354" lon="0.62487">
        <ele>47</ele>
        <time>2022-06-27T13:11:00Z</time>
      </trkpt>
      <trkpt lat="44.19336" lon="0.62486">
        <ele>47</ele>
        <time>2022-06-27T13:11:03Z</time>
      </trkpt>
      <trkpt lat="44.19258" lon="0.62445">
        <ele>49</ele>
        <time>2022-06-27T13:11:18Z</time>
      </trkpt>
      <trkpt lat="44.19233" lon="0.62448">
        <ele>49</ele>
        <time>2022-06-27T13:11:22Z</time>
      </trkpt>
      <trkpt lat="44.19069" lon="0.62541">
        <ele>46</ele>
        <time>2022-06-27T13:11:54Z</time>
      </trkpt>
      <trkpt lat="44.18942" lon="0.6258">
        <ele>46</ele>
        <time>2022-06-27T13:12:17Z</time>
      </trkpt>
      <trkpt lat="44.18872" lon="0.62303">
        <ele>48</ele>
        <time>2022-06-27T13:12:54Z</time>
      </trkpt>
      <trkpt lat="44.18837" lon="0.6214">
        <ele>48</ele>
        <time>2022-06-27T13:13:16Z</time>
      </trkpt>
      <trkpt lat="44.1884" lon="0.61942">
        <ele>50</ele>
        <time>2022-06-27T13:13:41Z</time>
      </trkpt>
      <trkpt lat="44.18836" lon="0.61921">
        <ele>51</ele>
        <time>2022-06-27T13:13:44Z</time>
      </trkpt>
      <trkpt lat="44.19319" lon="0.61431">
        <ele>46</ele>
        <time>2022-06-27T13:15:30Z</time>
      </trkpt>
      <trkpt lat="44.19359" lon="0.61428">
        <ele>46</ele>
        <time>2022-06-27T13:15:37Z</time>
      </trkpt>
      <trkpt lat="44.19377" lon="0.61403">
        <ele>47</ele>
        <time>2022-06-27T13:15:42Z</time>
      </trkpt>
      <trkpt lat="44.19388" lon="0.61368">
        <ele>48</ele>
        <time>2022-06-27T13:15:47Z</time>
      </trkpt>
      <trkpt lat="44.19477" lon="0.61272">
        <ele>47</ele>
        <time>2022-06-27T13:16:07Z</time>
      </trkpt>
      <trkpt lat="44.19513" lon="0.61266">
        <ele>47</ele>
        <time>2022-06-27T13:16:13Z</time>
      </trkpt>
      <trkpt lat="44.19516" lon="0.61238">
        <ele>47</ele>
        <time>2022-06-27T13:16:17Z</time>
      </trkpt>
      <trkpt lat="44.19505" lon="0.61202">
        <ele>44</ele>
        <time>2022-06-27T13:16:22Z</time>
      </trkpt>
      <trkpt lat="44.1948" lon="0.60876">
        <ele>43</ele>
        <time>2022-06-27T13:17:04Z</time>
      </trkpt>
      <trkpt lat="44.19484" lon="0.60824">
        <ele>45</ele>
        <time>2022-06-27T13:17:10Z</time>
      </trkpt>
      <trkpt lat="44.19469" lon="0.60728">
        <ele>48</ele>
        <time>2022-06-27T13:17:23Z</time>
      </trkpt>
      <trkpt lat="44.19443" lon="0.60413">
        <ele>48</ele>
        <time>2022-06-27T13:18:03Z</time>
      </trkpt>
      <trkpt lat="44.19444" lon="0.60357">
        <ele>48</ele>
        <time>2022-06-27T13:18:11Z</time>
      </trkpt>
      <trkpt lat="44.19456" lon="0.60338">
        <ele>48</ele>
        <time>2022-06-27T13:18:14Z</time>
      </trkpt>
      <trkpt lat="44.19439" lon="0.60314">
        <ele>48</ele>
        <time>2022-06-27T13:18:18Z</time>
      </trkpt>
      <trkpt lat="44.19427" lon="0.60242">
        <ele>48</ele>
        <time>2022-06-27T13:18:27Z</time>
      </trkpt>
      <trkpt lat="44.19398" lon="0.59868">
        <ele>47</ele>
        <time>2022-06-27T13:19:15Z</time>
      </trkpt>
      <trkpt lat="44.19399" lon="0.59784">
        <ele>47</ele>
        <time>2022-06-27T13:19:26Z</time>
      </trkpt>
      <trkpt lat="44.19402" lon="0.59773">
        <ele>47</ele>
        <time>2022-06-27T13:19:28Z</time>
      </trkpt>
      <trkpt lat="44.19413" lon="0.59766">
        <ele>46</ele>
        <time>2022-06-27T13:19:30Z</time>
      </trkpt>
      <trkpt lat="44.19413" lon="0.59749">
        <ele>46</ele>
        <time>2022-06-27T13:19:32Z</time>
      </trkpt>
      <trkpt lat="44.19395" lon="0.59728">
        <ele>48</ele>
        <time>2022-06-27T13:19:36Z</time>
      </trkpt>
      <trkpt lat="44.19381" lon="0.59661">
        <ele>51</ele>
        <time>2022-06-27T13:19:45Z</time>
      </trkpt>
      <trkpt lat="44.19358" lon="0.59304">
        <ele>59</ele>
        <time>2022-06-27T13:20:31Z</time>
      </trkpt>
      <trkpt lat="44.19354" lon="0.59322">
        <ele>58</ele>
        <time>2022-06-27T13:20:33Z</time>
      </trkpt>
      <trkpt lat="44.19339" lon="0.59333">
        <ele>59</ele>
        <time>2022-06-27T13:20:36Z</time>
      </trkpt>
      <trkpt lat="44.1863" lon="0.58008">
        <ele>57</ele>
        <time>2022-06-27T13:24:07Z</time>
      </trkpt>
      <trkpt lat="44.1862" lon="0.57969">
        <ele>58</ele>
        <time>2022-06-27T13:24:12Z</time>
      </trkpt>
      <trkpt lat="44.18619" lon="0.57928">
        <ele>58</ele>
        <time>2022-06-27T13:24:18Z</time>
      </trkpt>
      <trkpt lat="44.1861" lon="0.57917">
        <ele>59</ele>
        <time>2022-06-27T13:24:20Z</time>
      </trkpt>
      <trkpt lat="44.18597" lon="0.57916">
        <ele>59</ele>
        <time>2022-06-27T13:24:22Z</time>
      </trkpt>
      <trkpt lat="44.18581" lon="0.57903">
        <ele>59</ele>
        <time>2022-06-27T13:24:25Z</time>
      </trkpt>
      <trkpt lat="44.18563" lon="0.57882">
        <ele>59</ele>
        <time>2022-06-27T13:24:30Z</time>
      </trkpt>
      <trkpt lat="44.18219" lon="0.57244">
        <ele>59</ele>
        <time>2022-06-27T13:26:11Z</time>
      </trkpt>
      <trkpt lat="44.18209" lon="0.57208">
        <ele>59</ele>
        <time>2022-06-27T13:26:16Z</time>
      </trkpt>
      <trkpt lat="44.18215" lon="0.57173">
        <ele>59</ele>
        <time>2022-06-27T13:26:21Z</time>
      </trkpt>
      <trkpt lat="44.18212" lon="0.57149">
        <ele>59</ele>
        <time>2022-06-27T13:26:24Z</time>
      </trkpt>
      <trkpt lat="44.18205" lon="0.57136">
        <ele>59</ele>
        <time>2022-06-27T13:26:26Z</time>
      </trkpt>
      <trkpt lat="44.1819" lon="0.57125">
        <ele>59</ele>
        <time>2022-06-27T13:26:29Z</time>
      </trkpt>
      <trkpt lat="44.18161" lon="0.57126">
        <ele>59</ele>
        <time>2022-06-27T13:26:34Z</time>
      </trkpt>
      <trkpt lat="44.18135" lon="0.5709">
        <ele>59</ele>
        <time>2022-06-27T13:26:41Z</time>
      </trkpt>
      <trkpt lat="44.17608" lon="0.56107">
        <ele>72</ele>
        <time>2022-06-27T13:29:17Z</time>
      </trkpt>
      <trkpt lat="44.17581" lon="0.56054">
        <ele>73</ele>
        <time>2022-06-27T13:29:26Z</time>
      </trkpt>
      <trkpt lat="44.17575" lon="0.56031">
        <ele>72</ele>
        <time>2022-06-27T13:29:29Z</time>
      </trkpt>
      <trkpt lat="44.17547" lon="0.55994">
        <ele>72</ele>
        <time>2022-06-27T13:29:36Z</time>
      </trkpt>
      <trkpt lat="44.17224" lon="0.55386">
        <ele>65</ele>
        <time>2022-06-27T13:31:12Z</time>
      </trkpt>
      <trkpt lat="44.17169" lon="0.55272">
        <ele>66</ele>
        <time>2022-06-27T13:31:30Z</time>
      </trkpt>
      <trkpt lat="44.17154" lon="0.55245">
        <ele>67</ele>
        <time>2022-06-27T13:31:34Z</time>
      </trkpt>
      <trkpt lat="44.17126" lon="0.55219">
        <ele>70</ele>
        <time>2022-06-27T13:31:40Z</time>
      </trkpt>
      <trkpt lat="44.17113" lon="0.55177">
        <ele>72</ele>
        <time>2022-06-27T13:31:46Z</time>
      </trkpt>
      <trkpt lat="44.17035" lon="0.55054">
        <ele>75</ele>
        <time>2022-06-27T13:32:07Z</time>
      </trkpt>
      <trkpt lat="44.15573" lon="0.53228">
        <ele>148</ele>
        <time>2022-06-27T13:37:56Z</time>
      </trkpt>
      <trkpt lat="44.1552" lon="0.53151">
        <ele>151</ele>
        <time>2022-06-27T13:38:10Z</time>
      </trkpt>
      <trkpt lat="44.154" lon="0.52932">
        <ele>159</ele>
        <time>2022-06-27T13:38:45Z</time>
      </trkpt>
      <trkpt lat="44.14957" lon="0.52098">
        <ele>161</ele>
        <time>2022-06-27T13:40:58Z</time>
      </trkpt>
      <trkpt lat="44.14931" lon="0.52027">
        <ele>167</ele>
        <time>2022-06-27T13:41:08Z</time>
      </trkpt>
      <trkpt lat="44.14909" lon="0.51946">
        <ele>168</ele>
        <time>2022-06-27T13:41:19Z</time>
      </trkpt>
      <trkpt lat="44.14897" lon="0.51856">
        <ele>167</ele>
        <time>2022-06-27T13:41:30Z</time>
      </trkpt>
      <trkpt lat="44.14865" lon="0.50708">
        <ele>194</ele>
        <time>2022-06-27T13:43:57Z</time>
      </trkpt>
      <trkpt lat="44.14742" lon="0.49095">
        <ele>188</ele>
        <time>2022-06-27T13:47:24Z</time>
      </trkpt>
      <trkpt lat="44.14742" lon="0.48977">
        <ele>183</ele>
        <time>2022-06-27T13:47:39Z</time>
      </trkpt>
      <trkpt lat="44.14755" lon="0.48789">
        <ele>178</ele>
        <time>2022-06-27T13:48:03Z</time>
      </trkpt>
      <trkpt lat="44.14783" lon="0.48636">
        <ele>177</ele>
        <time>2022-06-27T13:48:24Z</time>
      </trkpt>
      <trkpt lat="44.1483" lon="0.48458">
        <ele>182</ele>
        <time>2022-06-27T13:48:48Z</time>
      </trkpt>
      <trkpt lat="44.15124" lon="0.47602">
        <ele>168</ele>
        <time>2022-06-27T13:50:49Z</time>
      </trkpt>
      <trkpt lat="44.15155" lon="0.47536">
        <ele>169</ele>
        <time>2022-06-27T13:50:59Z</time>
      </trkpt>
      <trkpt lat="44.15397" lon="0.47142">
        <ele>165</ele>
        <time>2022-06-27T13:52:05Z</time>
      </trkpt>
      <trkpt lat="44.15434" lon="0.47063">
        <ele>165</ele>
        <time>2022-06-27T13:52:17Z</time>
      </trkpt>
      <trkpt lat="44.15468" lon="0.46926">
        <ele>166</ele>
        <time>2022-06-27T13:52:36Z</time>
      </trkpt>
      <trkpt lat="44.15475" lon="0.46855">
        <ele>167</ele>
        <time>2022-06-27T13:52:45Z</time>
      </trkpt>
      <trkpt lat="44.15469" lon="0.46711">
        <ele>170</ele>
        <time>2022-06-27T13:53:03Z</time>
      </trkpt>
      <trkpt lat="44.15441" lon="0.46598">
        <ele>167</ele>
        <time>2022-06-27T13:53:19Z</time>
      </trkpt>
      <trkpt lat="44.15405" lon="0.46504">
        <ele>166</ele>
        <time>2022-06-27T13:53:32Z</time>
      </trkpt>
      <trkpt lat="44.14723" lon="0.44847">
        <ele>79</ele>
        <time>2022-06-27T13:57:36Z</time>
      </trkpt>
      <trkpt lat="44.14665" lon="0.44644">
        <ele>68</ele>
        <time>2022-06-27T13:58:04Z</time>
      </trkpt>
      <trkpt lat="44.14652" lon="0.44626">
        <ele>66</ele>
        <time>2022-06-27T13:58:07Z</time>
      </trkpt>
      <trkpt lat="44.14636" lon="0.44616">
        <ele>64</ele>
        <time>2022-06-27T13:58:10Z</time>
      </trkpt>
      <trkpt lat="44.146" lon="0.44608">
        <ele>60</ele>
        <time>2022-06-27T13:58:17Z</time>
      </trkpt>
      <trkpt lat="44.14599" lon="0.44574">
        <ele>59</ele>
        <time>2022-06-27T13:58:21Z</time>
      </trkpt>
      <trkpt lat="44.1458" lon="0.44495">
        <ele>60</ele>
        <time>2022-06-27T13:58:32Z</time>
      </trkpt>
      <trkpt lat="44.13786" lon="0.42576">
        <ele>90</ele>
        <time>2022-06-27T14:03:15Z</time>
      </trkpt>
      <trkpt lat="44.13683" lon="0.42316">
        <ele>103</ele>
        <time>2022-06-27T14:03:53Z</time>
      </trkpt>
      <trkpt lat="44.13258" lon="0.411">
        <ele>144</ele>
        <time>2022-06-27T14:06:45Z</time>
      </trkpt>
      <trkpt lat="44.13232" lon="0.40993">
        <ele>149</ele>
        <time>2022-06-27T14:07:00Z</time>
      </trkpt>
      <trkpt lat="44.13227" lon="0.40949">
        <ele>149</ele>
        <time>2022-06-27T14:07:05Z</time>
      </trkpt>
      <trkpt lat="44.1323" lon="0.40857">
        <ele>148</ele>
        <time>2022-06-27T14:07:17Z</time>
      </trkpt>
      <trkpt lat="44.13424" lon="0.39737">
        <ele>149</ele>
        <time>2022-06-27T14:09:44Z</time>
      </trkpt>
      <trkpt lat="44.1343" lon="0.39609">
        <ele>149</ele>
        <time>2022-06-27T14:10:01Z</time>
      </trkpt>
      <trkpt lat="44.13413" lon="0.3948">
        <ele>145</ele>
        <time>2022-06-27T14:10:17Z</time>
      </trkpt>
      <trkpt lat="44.13138" lon="0.37827">
        <ele>128</ele>
        <time>2022-06-27T14:13:54Z</time>
      </trkpt>
      <trkpt lat="44.12878" lon="0.36192">
        <ele>77</ele>
        <time>2022-06-27T14:17:28Z</time>
      </trkpt>
      <trkpt lat="44.12869" lon="0.36089">
        <ele>76</ele>
        <time>2022-06-27T14:17:41Z</time>
      </trkpt>
      <trkpt lat="44.1287" lon="0.36038">
        <ele>75</ele>
        <time>2022-06-27T14:17:48Z</time>
      </trkpt>
      <trkpt lat="44.12889" lon="0.35917">
        <ele>74</ele>
        <time>2022-06-27T14:18:04Z</time>
      </trkpt>
      <trkpt lat="44.1293" lon="0.35779">
        <ele>74</ele>
        <time>2022-06-27T14:18:23Z</time>
      </trkpt>
      <trkpt lat="44.13457" lon="0.34406">
        <ele>61</ele>
        <time>2022-06-27T14:21:41Z</time>
      </trkpt>
      <trkpt lat="44.13501" lon="0.34093">
        <ele>53</ele>
        <time>2022-06-27T14:22:22Z</time>
      </trkpt>
      <trkpt lat="44.13475" lon="0.34041">
        <ele>59</ele>
        <time>2022-06-27T14:22:30Z</time>
      </trkpt>
      <trkpt lat="44.13485" lon="0.33916">
        <ele>67</ele>
        <time>2022-06-27T14:22:46Z</time>
      </trkpt>
      <trkpt lat="44.13451" lon="0.33728">
        <ele>68</ele>
        <time>2022-06-27T14:23:11Z</time>
      </trkpt>
      <trkpt lat="44.13541" lon="0.33669">
        <ele>68</ele>
        <time>2022-06-27T14:23:29Z</time>
      </trkpt>
      <trkpt lat="44.13232" lon="0.32774">
        <ele>115</ele>
        <time>2022-06-27T14:25:36Z</time>
      </trkpt>
      <trkpt lat="44.13039" lon="0.32262">
        <ele>129</ele>
        <time>2022-06-27T14:26:49Z</time>
      </trkpt>
      <trkpt lat="44.12538" lon="0.30439">
        <ele>92</ele>
        <time>2022-06-27T14:30:59Z</time>
      </trkpt>
      <trkpt lat="44.12533" lon="0.30409">
        <ele>91</ele>
        <time>2022-06-27T14:31:03Z</time>
      </trkpt>
      <trkpt lat="44.12535" lon="0.30333">
        <ele>90</ele>
        <time>2022-06-27T14:31:12Z</time>
      </trkpt>
      <trkpt lat="44.12562" lon="0.30065">
        <ele>81</ele>
        <time>2022-06-27T14:31:47Z</time>
      </trkpt>
      <trkpt lat="44.12568" lon="0.29942">
        <ele>78</ele>
        <time>2022-06-27T14:32:03Z</time>
      </trkpt>
      <trkpt lat="44.12555" lon="0.29757">
        <ele>74</ele>
        <time>2022-06-27T14:32:26Z</time>
      </trkpt>
      <trkpt lat="44.12532" lon="0.29631">
        <ele>72</ele>
        <time>2022-06-27T14:32:43Z</time>
      </trkpt>
      <trkpt lat="44.1251" lon="0.29549">
        <ele>69</ele>
        <time>2022-06-27T14:32:54Z</time>
      </trkpt>
      <trkpt lat="44.12481" lon="0.29468">
        <ele>64</ele>
        <time>2022-06-27T14:33:06Z</time>
      </trkpt>
      <trkpt lat="44.12443" lon="0.29385">
        <ele>62</ele>
        <time>2022-06-27T14:33:18Z</time>
      </trkpt>
      <trkpt lat="44.12376" lon="0.29268">
        <ele>60</ele>
        <time>2022-06-27T14:33:38Z</time>
      </trkpt>
      <trkpt lat="44.12344" lon="0.29241">
        <ele>59</ele>
        <time>2022-06-27T14:33:44Z</time>
      </trkpt>
      <trkpt lat="44.12297" lon="0.29224">
        <ele>57</ele>
        <time>2022-06-27T14:33:53Z</time>
      </trkpt>
      <trkpt lat="44.12096" lon="0.29236">
        <ele>57</ele>
        <time>2022-06-27T14:34:29Z</time>
      </trkpt>
      <trkpt lat="44.12054" lon="0.29226">
        <ele>58</ele>
        <time>2022-06-27T14:34:36Z</time>
      </trkpt>
      <trkpt lat="44.1173" lon="0.28914">
        <ele>60</ele>
        <time>2022-06-27T14:35:46Z</time>
      </trkpt>
      <trkpt lat="44.11012" lon="0.28484">
        <ele>94</ele>
        <time>2022-06-27T14:38:05Z</time>
      </trkpt>
      <trkpt lat="44.10934" lon="0.28445">
        <ele>96</ele>
        <time>2022-06-27T14:38:20Z</time>
      </trkpt>
      <trkpt lat="44.10881" lon="0.28432">
        <ele>96</ele>
        <time>2022-06-27T14:38:30Z</time>
      </trkpt>
      <trkpt lat="44.1024" lon="0.28366">
        <ele>113</ele>
        <time>2022-06-27T14:40:24Z</time>
      </trkpt>
      <trkpt lat="44.10107" lon="0.28344">
        <ele>112</ele>
        <time>2022-06-27T14:40:48Z</time>
      </trkpt>
      <trkpt lat="44.09968" lon="0.28308">
        <ele>108</ele>
        <time>2022-06-27T14:41:13Z</time>
      </trkpt>
      <trkpt lat="44.09329" lon="0.28123">
        <ele>111</ele>
        <time>2022-06-27T14:43:09Z</time>
      </trkpt>
      <trkpt lat="44.08546" lon="0.27888">
        <ele>118</ele>
        <time>2022-06-27T14:45:32Z</time>
      </trkpt>
      <trkpt lat="44.07881" lon="0.27692">
        <ele>125</ele>
        <time>2022-06-27T14:47:33Z</time>
      </trkpt>
      <trkpt lat="44.06331" lon="0.27224">
        <ele>127</ele>
        <time>2022-06-27T14:52:15Z</time>
      </trkpt>
      <trkpt lat="44.05643" lon="0.27023">
        <ele>130</ele>
        <time>2022-06-27T14:54:20Z</time>
      </trkpt>
      <trkpt lat="44.05507" lon="0.26977">
        <ele>142</ele>
        <time>2022-06-27T14:54:45Z</time>
      </trkpt>
      <trkpt lat="44.05474" lon="0.26949">
        <ele>143</ele>
        <time>2022-06-27T14:54:52Z</time>
      </trkpt>
      <trkpt lat="44.05448" lon="0.26904">
        <ele>142</ele>
        <time>2022-06-27T14:54:59Z</time>
      </trkpt>
      <trkpt lat="44.05434" lon="0.26848">
        <ele>140</ele>
        <time>2022-06-27T14:55:07Z</time>
      </trkpt>
      <trkpt lat="44.0547" lon="0.26155">
        <ele>118</ele>
        <time>2022-06-27T14:56:35Z</time>
      </trkpt>
      <trkpt lat="44.05461" lon="0.26121">
        <ele>116</ele>
        <time>2022-06-27T14:56:40Z</time>
      </trkpt>
      <trkpt lat="44.0538" lon="0.26048">
        <ele>107</ele>
        <time>2022-06-27T14:56:57Z</time>
      </trkpt>
      <trkpt lat="44.05367" lon="0.26018">
        <ele>105</ele>
        <time>2022-06-27T14:57:02Z</time>
      </trkpt>
      <trkpt lat="44.05374" lon="0.25981">
        <ele>104</ele>
        <time>2022-06-27T14:57:07Z</time>
      </trkpt>
      <trkpt lat="44.0547" lon="0.25793">
        <ele>97</ele>
        <time>2022-06-27T14:57:36Z</time>
      </trkpt>
      <trkpt lat="44.05487" lon="0.2572">
        <ele>94</ele>
        <time>2022-06-27T14:57:46Z</time>
      </trkpt>
      <trkpt lat="44.05507" lon="0.25649">
        <ele>89</ele>
        <time>2022-06-27T14:57:56Z</time>
      </trkpt>
      <trkpt lat="44.05537" lon="0.25581">
        <ele>84</ele>
        <time>2022-06-27T14:58:06Z</time>
      </trkpt>
      <trkpt lat="44.05612" lon="0.25462">
        <ele>81</ele>
        <time>2022-06-27T14:58:26Z</time>
      </trkpt>
      <trkpt lat="44.05695" lon="0.25383">
        <ele>80</ele>
        <time>2022-06-27T14:58:44Z</time>
      </trkpt>
      <trkpt lat="44.05712" lon="0.25342">
        <ele>78</ele>
        <time>2022-06-27T14:58:50Z</time>
      </trkpt>
      <trkpt lat="44.05713" lon="0.24878">
        <ele>65</ele>
        <time>2022-06-27T14:59:49Z</time>
      </trkpt>
      <trkpt lat="44.05724" lon="0.24783">
        <ele>64</ele>
        <time>2022-06-27T15:00:02Z</time>
      </trkpt>
      <trkpt lat="44.05802" lon="0.24391">
        <ele>64</ele>
        <time>2022-06-27T15:00:54Z</time>
      </trkpt>
      <trkpt lat="44.05803" lon="0.24317">
        <ele>66</ele>
        <time>2022-06-27T15:01:03Z</time>
      </trkpt>
      <trkpt lat="44.05792" lon="0.24253">
        <ele>68</ele>
        <time>2022-06-27T15:01:12Z</time>
      </trkpt>
      <trkpt lat="44.0576" lon="0.24184">
        <ele>69</ele>
        <time>2022-06-27T15:01:22Z</time>
      </trkpt>
      <trkpt lat="44.05589" lon="0.23949">
        <ele>74</ele>
        <time>2022-06-27T15:02:05Z</time>
      </trkpt>
      <trkpt lat="44.05367" lon="0.23518">
        <ele>77</ele>
        <time>2022-06-27T15:03:13Z</time>
      </trkpt>
      <trkpt lat="44.05083" lon="0.23219">
        <ele>66</ele>
        <time>2022-06-27T15:04:16Z</time>
      </trkpt>
      <trkpt lat="44.05044" lon="0.2316">
        <ele>67</ele>
        <time>2022-06-27T15:04:26Z</time>
      </trkpt>
      <trkpt lat="44.05018" lon="0.23085">
        <ele>72</ele>
        <time>2022-06-27T15:04:37Z</time>
      </trkpt>
      <trkpt lat="44.04539" lon="0.21052">
        <ele>73</ele>
        <time>2022-06-27T15:09:11Z</time>
      </trkpt>
      <trkpt lat="44.04472" lon="0.2085">
        <ele>70</ele>
        <time>2022-06-27T15:09:39Z</time>
      </trkpt>
      <trkpt lat="44.04118" lon="0.1999">
        <ele>71</ele>
        <time>2022-06-27T15:11:46Z</time>
      </trkpt>
      <trkpt lat="44.04094" lon="0.19895">
        <ele>75</ele>
        <time>2022-06-27T15:11:59Z</time>
      </trkpt>
      <trkpt lat="44.04081" lon="0.19757">
        <ele>81</ele>
        <time>2022-06-27T15:12:16Z</time>
      </trkpt>
      <trkpt lat="44.04077" lon="0.19477">
        <ele>91</ele>
        <time>2022-06-27T15:12:52Z</time>
      </trkpt>
      <trkpt lat="44.04068" lon="0.19416">
        <ele>91</ele>
        <time>2022-06-27T15:13:00Z</time>
      </trkpt>
      <trkpt lat="44.04065" lon="0.19295">
        <ele>95</ele>
        <time>2022-06-27T15:13:16Z</time>
      </trkpt>
      <trkpt lat="44.04078" lon="0.19183">
        <ele>101</ele>
        <time>2022-06-27T15:13:30Z</time>
      </trkpt>
      <trkpt lat="44.04077" lon="0.19038">
        <ele>116</ele>
        <time>2022-06-27T15:13:49Z</time>
      </trkpt>
      <trkpt lat="44.04092" lon="0.18961">
        <ele>121</ele>
        <time>2022-06-27T15:13:59Z</time>
      </trkpt>
      <trkpt lat="44.04121" lon="0.1891">
        <ele>125</ele>
        <time>2022-06-27T15:14:07Z</time>
      </trkpt>
      <trkpt lat="44.04136" lon="0.18858">
        <ele>127</ele>
        <time>2022-06-27T15:14:14Z</time>
      </trkpt>
      <trkpt lat="44.04149" lon="0.18769">
        <ele>133</ele>
        <time>2022-06-27T15:14:26Z</time>
      </trkpt>
      <trkpt lat="44.04139" lon="0.18658">
        <ele>132</ele>
        <time>2022-06-27T15:14:40Z</time>
      </trkpt>
      <trkpt lat="44.04291" lon="0.17756">
        <ele>142</ele>
        <time>2022-06-27T15:16:39Z</time>
      </trkpt>
      <trkpt lat="44.04492" lon="0.17216">
        <ele>140</ele>
        <time>2022-06-27T15:17:57Z</time>
      </trkpt>
      <trkpt lat="44.04601" lon="0.16733">
        <ele>153</ele>
        <time>2022-06-27T15:19:01Z</time>
      </trkpt>
      <trkpt lat="44.04607" lon="0.16657">
        <ele>153</ele>
        <time>2022-06-27T15:19:11Z</time>
      </trkpt>
      <trkpt lat="44.0455" lon="0.16383">
        <ele>156</ele>
        <time>2022-06-27T15:19:48Z</time>
      </trkpt>
      <trkpt lat="44.04543" lon="0.16315">
        <ele>156</ele>
        <time>2022-06-27T15:19:56Z</time>
      </trkpt>
      <trkpt lat="44.04671" lon="0.15364">
        <ele>136</ele>
        <time>2022-06-27T15:22:00Z</time>
      </trkpt>
      <trkpt lat="44.04674" lon="0.15248">
        <ele>131</ele>
        <time>2022-06-27T15:22:15Z</time>
      </trkpt>
      <trkpt lat="44.04714" lon="0.15129">
        <ele>130</ele>
        <time>2022-06-27T15:22:32Z</time>
      </trkpt>
      <trkpt lat="44.04736" lon="0.15028">
        <ele>126</ele>
        <time>2022-06-27T15:22:45Z</time>
      </trkpt>
      <trkpt lat="44.04732" lon="0.14973">
        <ele>124</ele>
        <time>2022-06-27T15:22:52Z</time>
      </trkpt>
      <trkpt lat="44.04697" lon="0.14899">
        <ele>120</ele>
        <time>2022-06-27T15:23:04Z</time>
      </trkpt>
      <trkpt lat="44.04603" lon="0.14617">
        <ele>109</ele>
        <time>2022-06-27T15:23:43Z</time>
      </trkpt>
      <trkpt lat="44.04584" lon="0.14584">
        <ele>107</ele>
        <time>2022-06-27T15:23:49Z</time>
      </trkpt>
      <trkpt lat="44.04517" lon="0.14508">
        <ele>108</ele>
        <time>2022-06-27T15:24:04Z</time>
      </trkpt>
      <trkpt lat="44.04495" lon="0.14466">
        <ele>109</ele>
        <time>2022-06-27T15:24:11Z</time>
      </trkpt>
      <trkpt lat="44.04485" lon="0.1441">
        <ele>112</ele>
        <time>2022-06-27T15:24:18Z</time>
      </trkpt>
      <trkpt lat="44.04495" lon="0.14277">
        <ele>115</ele>
        <time>2022-06-27T15:24:35Z</time>
      </trkpt>
      <trkpt lat="44.04485" lon="0.14238">
        <ele>115</ele>
        <time>2022-06-27T15:24:41Z</time>
      </trkpt>
      <trkpt lat="44.04461" lon="0.1422">
        <ele>116</ele>
        <time>2022-06-27T15:24:46Z</time>
      </trkpt>
      <trkpt lat="44.04193" lon="0.14244">
        <ele>117</ele>
        <time>2022-06-27T15:25:33Z</time>
      </trkpt>
      <trkpt lat="44.04169" lon="0.14214">
        <ele>117</ele>
        <time>2022-06-27T15:25:39Z</time>
      </trkpt>
      <trkpt lat="44.04066" lon="0.14026">
        <ele>108</ele>
        <time>2022-06-27T15:26:09Z</time>
      </trkpt>
      <trkpt lat="44.03996" lon="0.13867">
        <ele>105</ele>
        <time>2022-06-27T15:26:33Z</time>
      </trkpt>
      <trkpt lat="44.03942" lon="0.13788">
        <ele>95</ele>
        <time>2022-06-27T15:26:47Z</time>
      </trkpt>
      <trkpt lat="44.0393" lon="0.13733">
        <ele>93</ele>
        <time>2022-06-27T15:26:54Z</time>
      </trkpt>
      <trkpt lat="44.03937" lon="0.13694">
        <ele>92</ele>
        <time>2022-06-27T15:27:00Z</time>
      </trkpt>
      <trkpt lat="44.03947" lon="0.13672">
        <ele>92</ele>
        <time>2022-06-27T15:27:03Z</time>
      </trkpt>
      <trkpt lat="44.03975" lon="0.13629">
        <ele>91</ele>
        <time>2022-06-27T15:27:10Z</time>
      </trkpt>
      <trkpt lat="44.04083" lon="0.13496">
        <ele>83</ele>
        <time>2022-06-27T15:27:36Z</time>
      </trkpt>
      <trkpt lat="44.04097" lon="0.13483">
        <ele>82</ele>
        <time>2022-06-27T15:27:39Z</time>
      </trkpt>
      <trkpt lat="44.0416" lon="0.1345">
        <ele>80</ele>
        <time>2022-06-27T15:27:51Z</time>
      </trkpt>
      <trkpt lat="44.0422" lon="0.1344">
        <ele>79</ele>
        <time>2022-06-27T15:28:02Z</time>
      </trkpt>
      <trkpt lat="44.04236" lon="0.1343">
        <ele>78</ele>
        <time>2022-06-27T15:28:05Z</time>
      </trkpt>
      <trkpt lat="44.04247" lon="0.13389">
        <ele>77</ele>
        <time>2022-06-27T15:28:10Z</time>
      </trkpt>
      <trkpt lat="44.0424" lon="0.13317">
        <ele>76</ele>
        <time>2022-06-27T15:28:20Z</time>
      </trkpt>
      <trkpt lat="44.04222" lon="0.13294">
        <ele>76</ele>
        <time>2022-06-27T15:28:24Z</time>
      </trkpt>
      <trkpt lat="44.04206" lon="0.13289">
        <ele>76</ele>
        <time>2022-06-27T15:28:27Z</time>
      </trkpt>
      <trkpt lat="44.03999" lon="0.13286">
        <ele>79</ele>
        <time>2022-06-27T15:29:04Z</time>
      </trkpt>
      <trkpt lat="44.0396" lon="0.13273">
        <ele>77</ele>
        <time>2022-06-27T15:29:11Z</time>
      </trkpt>
      <trkpt lat="44.0394" lon="0.13239">
        <ele>78</ele>
        <time>2022-06-27T15:29:17Z</time>
      </trkpt>
      <trkpt lat="44.03942" lon="0.13052">
        <ele>84</ele>
        <time>2022-06-27T15:29:41Z</time>
      </trkpt>
      <trkpt lat="44.03929" lon="0.13013">
        <ele>83</ele>
        <time>2022-06-27T15:29:46Z</time>
      </trkpt>
      <trkpt lat="44.03908" lon="0.12991">
        <ele>82</ele>
        <time>2022-06-27T15:29:51Z</time>
      </trkpt>
      <trkpt lat="44.03793" lon="0.12917">
        <ele>81</ele>
        <time>2022-06-27T15:30:13Z</time>
      </trkpt>
      <trkpt lat="44.03757" lon="0.12886">
        <ele>82</ele>
        <time>2022-06-27T15:30:21Z</time>
      </trkpt>
      <trkpt lat="44.03691" lon="0.12786">
        <ele>84</ele>
        <time>2022-06-27T15:30:38Z</time>
      </trkpt>
      <trkpt lat="44.03662" lon="0.1272">
        <ele>85</ele>
        <time>2022-06-27T15:30:48Z</time>
      </trkpt>
      <trkpt lat="44.03607" lon="0.12444">
        <ele>88</ele>
        <time>2022-06-27T15:31:25Z</time>
      </trkpt>
      <trkpt lat="44.03603" lon="0.12331">
        <ele>91</ele>
        <time>2022-06-27T15:31:39Z</time>
      </trkpt>
      <trkpt lat="44.03591" lon="0.12256">
        <ele>93</ele>
        <time>2022-06-27T15:31:49Z</time>
      </trkpt>
      <trkpt lat="44.03582" lon="0.12141">
        <ele>100</ele>
        <time>2022-06-27T15:32:04Z</time>
      </trkpt>
      <trkpt lat="44.03563" lon="0.12076">
        <ele>102</ele>
        <time>2022-06-27T15:32:13Z</time>
      </trkpt>
      <trkpt lat="44.03529" lon="0.12022">
        <ele>104</ele>
        <time>2022-06-27T15:32:22Z</time>
      </trkpt>
      <trkpt lat="44.03312" lon="0.11733">
        <ele>114</ele>
        <time>2022-06-27T15:33:15Z</time>
      </trkpt>
      <trkpt lat="44.03235" lon="0.11618">
        <ele>115</ele>
        <time>2022-06-27T15:33:35Z</time>
      </trkpt>
      <trkpt lat="44.03223" lon="0.11582">
        <ele>113</ele>
        <time>2022-06-27T15:33:41Z</time>
      </trkpt>
      <trkpt lat="44.03218" lon="0.1153">
        <ele>114</ele>
        <time>2022-06-27T15:33:47Z</time>
      </trkpt>
      <trkpt lat="44.0322" lon="0.11476">
        <ele>113</ele>
        <time>2022-06-27T15:33:54Z</time>
      </trkpt>
      <trkpt lat="44.03235" lon="0.11388">
        <ele>109</ele>
        <time>2022-06-27T15:34:06Z</time>
      </trkpt>
      <trkpt lat="44.03234" lon="0.11353">
        <ele>107</ele>
        <time>2022-06-27T15:34:10Z</time>
      </trkpt>
      <trkpt lat="44.03214" lon="0.11304">
        <ele>108</ele>
        <time>2022-06-27T15:34:17Z</time>
      </trkpt>
      <trkpt lat="44.03127" lon="0.11145">
        <ele>115</ele>
        <time>2022-06-27T15:34:43Z</time>
      </trkpt>
      <trkpt lat="44.03043" lon="0.11069">
        <ele>121</ele>
        <time>2022-06-27T15:35:01Z</time>
      </trkpt>
      <trkpt lat="44.03028" lon="0.11048">
        <ele>122</ele>
        <time>2022-06-27T15:35:05Z</time>
      </trkpt>
      <trkpt lat="44.02897" lon="0.10744">
        <ele>128</ele>
        <time>2022-06-27T15:35:50Z</time>
      </trkpt>
      <trkpt lat="44.0286" lon="0.10672">
        <ele>131</ele>
        <time>2022-06-27T15:36:01Z</time>
      </trkpt>
      <trkpt lat="44.02473" lon="0.1003">
        <ele>147</ele>
        <time>2022-06-27T15:37:48Z</time>
      </trkpt>
      <trkpt lat="44.0245" lon="0.09986">
        <ele>147</ele>
        <time>2022-06-27T15:37:55Z</time>
      </trkpt>
      <trkpt lat="44.02416" lon="0.0989">
        <ele>148</ele>
        <time>2022-06-27T15:38:09Z</time>
      </trkpt>
      <trkpt lat="44.02398" lon="0.09805">
        <ele>151</ele>
        <time>2022-06-27T15:38:20Z</time>
      </trkpt>
      <trkpt lat="44.0214" lon="0.08023">
        <ele>151</ele>
        <time>2022-06-27T15:42:13Z</time>
      </trkpt>
      <trkpt lat="44.02136" lon="0.07916">
        <ele>150</ele>
        <time>2022-06-27T15:42:27Z</time>
      </trkpt>
      <trkpt lat="44.02158" lon="0.0764">
        <ele>148</ele>
        <time>2022-06-27T15:43:02Z</time>
      </trkpt>
      <trkpt lat="44.02159" lon="0.07521">
        <ele>143</ele>
        <time>2022-06-27T15:43:17Z</time>
      </trkpt>
      <trkpt lat="44.02103" lon="0.06893">
        <ele>135</ele>
        <time>2022-06-27T15:44:38Z</time>
      </trkpt>
      <trkpt lat="44.02095" lon="0.06861">
        <ele>135</ele>
        <time>2022-06-27T15:44:43Z</time>
      </trkpt>
      <trkpt lat="44.02073" lon="0.06822">
        <ele>135</ele>
        <time>2022-06-27T15:44:49Z</time>
      </trkpt>
      <trkpt lat="44.01989" lon="0.06748">
        <ele>133</ele>
        <time>2022-06-27T15:45:07Z</time>
      </trkpt>
      <trkpt lat="44.01943" lon="0.06675">
        <ele>130</ele>
        <time>2022-06-27T15:45:19Z</time>
      </trkpt>
      <trkpt lat="44.01927" lon="0.0661">
        <ele>129</ele>
        <time>2022-06-27T15:45:28Z</time>
      </trkpt>
      <trkpt lat="44.01925" lon="0.06521">
        <ele>126</ele>
        <time>2022-06-27T15:45:39Z</time>
      </trkpt>
      <trkpt lat="44.01917" lon="0.06482">
        <ele>124</ele>
        <time>2022-06-27T15:45:45Z</time>
      </trkpt>
      <trkpt lat="44.01837" lon="0.0633">
        <ele>108</ele>
        <time>2022-06-27T15:46:09Z</time>
      </trkpt>
      <trkpt lat="44.01784" lon="0.06183">
        <ele>110</ele>
        <time>2022-06-27T15:46:30Z</time>
      </trkpt>
      <trkpt lat="44.01672" lon="0.06078">
        <ele>103</ele>
        <time>2022-06-27T15:46:54Z</time>
      </trkpt>
      <trkpt lat="44.01574" lon="0.05959">
        <ele>109</ele>
        <time>2022-06-27T15:47:17Z</time>
      </trkpt>
      <trkpt lat="44.01503" lon="0.05926">
        <ele>111</ele>
        <time>2022-06-27T15:47:30Z</time>
      </trkpt>
      <trkpt lat="44.01495" lon="0.05911">
        <ele>112</ele>
        <time>2022-06-27T15:47:33Z</time>
      </trkpt>
      <trkpt lat="44.01497" lon="0.05875">
        <ele>116</ele>
        <time>2022-06-27T15:47:37Z</time>
      </trkpt>
      <trkpt lat="44.01488" lon="0.05836">
        <ele>119</ele>
        <time>2022-06-27T15:47:43Z</time>
      </trkpt>
      <trkpt lat="44.01259" lon="0.05447">
        <ele>129</ele>
        <time>2022-06-27T15:48:47Z</time>
      </trkpt>
      <trkpt lat="44.01244" lon="0.05423">
        <ele>129</ele>
        <time>2022-06-27T15:48:51Z</time>
      </trkpt>
      <trkpt lat="44.01062" lon="0.05212">
        <ele>130</ele>
        <time>2022-06-27T15:49:33Z</time>
      </trkpt>
      <trkpt lat="44.01049" lon="0.05188">
        <ele>130</ele>
        <time>2022-06-27T15:49:37Z</time>
      </trkpt>
      <trkpt lat="44.01035" lon="0.05147">
        <ele>131</ele>
        <time>2022-06-27T15:49:43Z</time>
      </trkpt>
      <trkpt lat="44.00955" lon="0.04654">
        <ele>146</ele>
        <time>2022-06-27T15:50:47Z</time>
      </trkpt>
      <trkpt lat="44.00938" lon="0.04575">
        <ele>146</ele>
        <time>2022-06-27T15:50:58Z</time>
      </trkpt>
      <trkpt lat="44.0089" lon="0.04445">
        <ele>147</ele>
        <time>2022-06-27T15:51:17Z</time>
      </trkpt>
      <trkpt lat="44.00865" lon="0.04392">
        <ele>147</ele>
        <time>2022-06-27T15:51:25Z</time>
      </trkpt>
      <trkpt lat="43.99941" lon="0.02939">
        <ele>150</ele>
        <time>2022-06-27T15:55:33Z</time>
      </trkpt>
      <trkpt lat="43.99418" lon="0.01571">
        <ele>155</ele>
        <time>2022-06-27T15:58:51Z</time>
      </trkpt>
      <trkpt lat="43.99383" lon="0.01507">
        <ele>153</ele>
        <time>2022-06-27T15:59:02Z</time>
      </trkpt>
      <trkpt lat="43.99208" lon="0.01323">
        <ele>154</ele>
        <time>2022-06-27T15:59:41Z</time>
      </trkpt>
      <trkpt lat="43.99171" lon="0.01296">
        <ele>155</ele>
        <time>2022-06-27T15:59:48Z</time>
      </trkpt>
      <trkpt lat="43.98684" lon="0.01159">
        <ele>151</ele>
        <time>2022-06-27T16:01:16Z</time>
      </trkpt>
      <trkpt lat="43.98671" lon="0.01109">
        <ele>151</ele>
        <time>2022-06-27T16:01:23Z</time>
      </trkpt>
      <trkpt lat="43.98655" lon="0.01075">
        <ele>151</ele>
        <time>2022-06-27T16:01:28Z</time>
      </trkpt>
      <trkpt lat="43.98576" lon="0.0097">
        <ele>152</ele>
        <time>2022-06-27T16:01:48Z</time>
      </trkpt>
      <trkpt lat="43.98572" lon="0.00959">
        <ele>152</ele>
        <time>2022-06-27T16:01:49Z</time>
      </trkpt>
      <trkpt lat="43.98578" lon="0.00949">
        <ele>152</ele>
        <time>2022-06-27T16:01:51Z</time>
      </trkpt>
      <trkpt lat="43.98571" lon="0.00938">
        <ele>152</ele>
        <time>2022-06-27T16:01:53Z</time>
      </trkpt>
      <trkpt lat="43.98562" lon="0.00946">
        <ele>152</ele>
        <time>2022-06-27T16:01:55Z</time>
      </trkpt>
      <trkpt lat="43.98516" lon="0.00933">
        <ele>152</ele>
        <time>2022-06-27T16:02:03Z</time>
      </trkpt>
      <trkpt lat="43.9849" lon="0.00934">
        <ele>152</ele>
        <time>2022-06-27T16:02:08Z</time>
      </trkpt>
      <trkpt lat="43.98465" lon="0.00944">
        <ele>152</ele>
        <time>2022-06-27T16:02:13Z</time>
      </trkpt>
      <trkpt lat="43.98409" lon="0.00991">
        <ele>150</ele>
        <time>2022-06-27T16:02:24Z</time>
      </trkpt>
      <trkpt lat="43.984" lon="0.00991">
        <ele>150</ele>
        <time>2022-06-27T16:02:26Z</time>
      </trkpt>
      <trkpt lat="43.98289" lon="0.0089">
        <ele>153</ele>
        <time>2022-06-27T16:02:49Z</time>
      </trkpt>
      <trkpt lat="43.98258" lon="0.00875">
        <ele>153</ele>
        <time>2022-06-27T16:02:55Z</time>
      </trkpt>
      <trkpt lat="43.97806" lon="0.00711">
        <ele>159</ele>
        <time>2022-06-27T16:04:18Z</time>
      </trkpt>
      <trkpt lat="43.97775" lon="0.0071">
        <ele>159</ele>
        <time>2022-06-27T16:04:24Z</time>
      </trkpt>
      <trkpt lat="43.97771" lon="0.00699">
        <ele>159</ele>
        <time>2022-06-27T16:04:25Z</time>
      </trkpt>
      <trkpt lat="43.97761" lon="0.00705">
        <ele>159</ele>
        <time>2022-06-27T16:04:27Z</time>
      </trkpt>
      <trkpt lat="43.97733" lon="0.00686">
        <ele>159</ele>
        <time>2022-06-27T16:04:33Z</time>
      </trkpt>
      <trkpt lat="43.97398" lon="0.00567">
        <ele>169</ele>
        <time>2022-06-27T16:05:34Z</time>
      </trkpt>
      <trkpt lat="43.97341" lon="0.00556">
        <ele>170</ele>
        <time>2022-06-27T16:05:45Z</time>
      </trkpt>
      <trkpt lat="43.96949" lon="0.00581">
        <ele>173</ele>
        <time>2022-06-27T16:06:55Z</time>
      </trkpt>
      <trkpt lat="43.96863" lon="0.0047">
        <ele>175</ele>
        <time>2022-06-27T16:07:15Z</time>
      </trkpt>
      <trkpt lat="43.96708" lon="0.00189">
        <ele>163</ele>
        <time>2022-06-27T16:08:01Z</time>
      </trkpt>
      <trkpt lat="43.96121" lon="-0.01145">
        <ele>157</ele>
        <time>2022-06-27T16:11:21Z</time>
      </trkpt>
      <trkpt lat="43.95671" lon="-0.02133">
        <ele>170</ele>
        <time>2022-06-27T16:13:51Z</time>
      </trkpt>
      <trkpt lat="43.9531" lon="-0.02978">
        <ele>165</ele>
        <time>2022-06-27T16:15:57Z</time>
      </trkpt>
      <trkpt lat="43.95311" lon="-0.0299">
        <ele>165</ele>
        <time>2022-06-27T16:15:58Z</time>
      </trkpt>
      <trkpt lat="43.953" lon="-0.03012">
        <ele>165</ele>
        <time>2022-06-27T16:16:02Z</time>
      </trkpt>
      <trkpt lat="43.9529" lon="-0.03055">
        <ele>164</ele>
        <time>2022-06-27T16:16:07Z</time>
      </trkpt>
      <trkpt lat="43.95288" lon="-0.031">
        <ele>164</ele>
        <time>2022-06-27T16:16:13Z</time>
      </trkpt>
      <trkpt lat="43.95318" lon="-0.03717">
        <ele>143</ele>
        <time>2022-06-27T16:17:32Z</time>
      </trkpt>
      <trkpt lat="43.95312" lon="-0.03803">
        <ele>140</ele>
        <time>2022-06-27T16:17:43Z</time>
      </trkpt>
      <trkpt lat="43.95301" lon="-0.03817">
        <ele>139</ele>
        <time>2022-06-27T16:17:46Z</time>
      </trkpt>
      <trkpt lat="43.95296" lon="-0.03845">
        <ele>137</ele>
        <time>2022-06-27T16:17:50Z</time>
      </trkpt>
      <trkpt lat="43.95278" lon="-0.03853">
        <ele>135</ele>
        <time>2022-06-27T16:17:53Z</time>
      </trkpt>
      <trkpt lat="43.95265" lon="-0.0384">
        <ele>135</ele>
        <time>2022-06-27T16:17:56Z</time>
      </trkpt>
      <trkpt lat="43.95255" lon="-0.03838">
        <ele>134</ele>
        <time>2022-06-27T16:17:58Z</time>
      </trkpt>
      <trkpt lat="43.95255" lon="-0.03846">
        <ele>134</ele>
        <time>2022-06-27T16:17:59Z</time>
      </trkpt>
      <trkpt lat="43.95242" lon="-0.03847">
        <ele>134</ele>
        <time>2022-06-27T16:18:01Z</time>
      </trkpt>
      <trkpt lat="43.95162" lon="-0.03887">
        <ele>134</ele>
        <time>2022-06-27T16:18:16Z</time>
      </trkpt>
      <trkpt lat="43.94958" lon="-0.04108">
        <ele>130</ele>
        <time>2022-06-27T16:19:02Z</time>
      </trkpt>
      <trkpt lat="43.94956" lon="-0.04122">
        <ele>129</ele>
        <time>2022-06-27T16:19:04Z</time>
      </trkpt>
      <trkpt lat="43.94943" lon="-0.04136">
        <ele>129</ele>
        <time>2022-06-27T16:19:07Z</time>
      </trkpt>
      <trkpt lat="43.94934" lon="-0.04135">
        <ele>129</ele>
        <time>2022-06-27T16:19:09Z</time>
      </trkpt>
      <trkpt lat="43.94884" lon="-0.04185">
        <ele>130</ele>
        <time>2022-06-27T16:19:20Z</time>
      </trkpt>
      <trkpt lat="43.94772" lon="-0.04307">
        <ele>124</ele>
        <time>2022-06-27T16:19:45Z</time>
      </trkpt>
      <trkpt lat="43.94734" lon="-0.04373">
        <ele>121</ele>
        <time>2022-06-27T16:19:56Z</time>
      </trkpt>
      <trkpt lat="43.94717" lon="-0.04447">
        <ele>120</ele>
        <time>2022-06-27T16:20:06Z</time>
      </trkpt>
      <trkpt lat="43.94718" lon="-0.04527">
        <ele>118</ele>
        <time>2022-06-27T16:20:16Z</time>
      </trkpt>
      <trkpt lat="43.94729" lon="-0.04591">
        <ele>117</ele>
        <time>2022-06-27T16:20:24Z</time>
      </trkpt>
      <trkpt lat="43.94725" lon="-0.04594">
        <ele>117</ele>
        <time>2022-06-27T16:20:25Z</time>
      </trkpt>
      <trkpt lat="43.94733" lon="-0.04608">
        <ele>116</ele>
        <time>2022-06-27T16:20:27Z</time>
      </trkpt>
      <trkpt lat="43.94752" lon="-0.04622">
        <ele>116</ele>
        <time>2022-06-27T16:20:31Z</time>
      </trkpt>
      <trkpt lat="43.94758" lon="-0.0465">
        <ele>117</ele>
        <time>2022-06-27T16:20:35Z</time>
      </trkpt>
      <trkpt lat="43.94753" lon="-0.04666">
        <ele>116</ele>
        <time>2022-06-27T16:20:37Z</time>
      </trkpt>
      <trkpt lat="43.94733" lon="-0.04688">
        <ele>116</ele>
        <time>2022-06-27T16:20:42Z</time>
      </trkpt>
      <trkpt lat="43.94693" lon="-0.04802">
        <ele>114</ele>
        <time>2022-06-27T16:20:58Z</time>
      </trkpt>
      <trkpt lat="43.94573" lon="-0.04954">
        <ele>113</ele>
        <time>2022-06-27T16:21:27Z</time>
      </trkpt>
      <trkpt lat="43.94505" lon="-0.05029">
        <ele>115</ele>
        <time>2022-06-27T16:21:42Z</time>
      </trkpt>
      <trkpt lat="43.94441" lon="-0.05114">
        <ele>113</ele>
        <time>2022-06-27T16:21:58Z</time>
      </trkpt>
      <trkpt lat="43.94342" lon="-0.05226">
        <ele>108</ele>
        <time>2022-06-27T16:22:21Z</time>
      </trkpt>
      <trkpt lat="43.94012" lon="-0.0563">
        <ele>111</ele>
        <time>2022-06-27T16:23:39Z</time>
      </trkpt>
      <trkpt lat="43.9368" lon="-0.05962">
        <ele>146</ele>
        <time>2022-06-27T16:24:52Z</time>
      </trkpt>
      <trkpt lat="43.93641" lon="-0.0598">
        <ele>148</ele>
        <time>2022-06-27T16:24:59Z</time>
      </trkpt>
      <trkpt lat="43.93614" lon="-0.05983">
        <ele>148</ele>
        <time>2022-06-27T16:25:04Z</time>
      </trkpt>
      <trkpt lat="43.93507" lon="-0.05979">
        <ele>151</ele>
        <time>2022-06-27T16:25:23Z</time>
      </trkpt>
      <trkpt lat="43.93474" lon="-0.05962">
        <ele>150</ele>
        <time>2022-06-27T16:25:29Z</time>
      </trkpt>
      <trkpt lat="43.93451" lon="-0.05973">
        <ele>148</ele>
        <time>2022-06-27T16:25:34Z</time>
      </trkpt>
      <trkpt lat="43.93451" lon="-0.06167">
        <ele>146</ele>
        <time>2022-06-27T16:25:59Z</time>
      </trkpt>
      <trkpt lat="43.9344" lon="-0.06242">
        <ele>145</ele>
        <time>2022-06-27T16:26:08Z</time>
      </trkpt>
      <trkpt lat="43.9341" lon="-0.06819">
        <ele>142</ele>
        <time>2022-06-27T16:27:22Z</time>
      </trkpt>
      <trkpt lat="43.93415" lon="-0.06881">
        <ele>142</ele>
        <time>2022-06-27T16:27:30Z</time>
      </trkpt>
      <trkpt lat="43.93472" lon="-0.07198">
        <ele>134</ele>
        <time>2022-06-27T16:28:12Z</time>
      </trkpt>
      <trkpt lat="43.9357" lon="-0.07339">
        <ele>125</ele>
        <time>2022-06-27T16:28:37Z</time>
      </trkpt>
      <trkpt lat="43.93737" lon="-0.07633">
        <ele>106</ele>
        <time>2022-06-27T16:29:25Z</time>
      </trkpt>
      <trkpt lat="43.93737" lon="-0.07693">
        <ele>103</ele>
        <time>2022-06-27T16:29:33Z</time>
      </trkpt>
      <trkpt lat="43.93697" lon="-0.07729">
        <ele>106</ele>
        <time>2022-06-27T16:29:42Z</time>
      </trkpt>
      <trkpt lat="43.93637" lon="-0.07777">
        <ele>105</ele>
        <time>2022-06-27T16:29:54Z</time>
      </trkpt>
      <trkpt lat="43.93544" lon="-0.07812">
        <ele>102</ele>
        <time>2022-06-27T16:30:11Z</time>
      </trkpt>
      <trkpt lat="43.93503" lon="-0.07813">
        <ele>102</ele>
        <time>2022-06-27T16:30:18Z</time>
      </trkpt>
      <trkpt lat="43.93468" lon="-0.07797">
        <ele>103</ele>
        <time>2022-06-27T16:30:25Z</time>
      </trkpt>
      <trkpt lat="43.93212" lon="-0.07498">
        <ele>102</ele>
        <time>2022-06-27T16:31:24Z</time>
      </trkpt>
      <trkpt lat="43.93146" lon="-0.07449">
        <ele>101</ele>
        <time>2022-06-27T16:31:38Z</time>
      </trkpt>
      <trkpt lat="43.93097" lon="-0.07445">
        <ele>103</ele>
        <time>2022-06-27T16:31:46Z</time>
      </trkpt>
      <trkpt lat="43.92401" lon="-0.0762">
        <ele>104</ele>
        <time>2022-06-27T16:33:52Z</time>
      </trkpt>
      <trkpt lat="43.92353" lon="-0.07637">
        <ele>105</ele>
        <time>2022-06-27T16:34:01Z</time>
      </trkpt>
      <trkpt lat="43.9201" lon="-0.07819">
        <ele>111</ele>
        <time>2022-06-27T16:35:06Z</time>
      </trkpt>
      <trkpt lat="43.91818" lon="-0.07901">
        <ele>120</ele>
        <time>2022-06-27T16:35:42Z</time>
      </trkpt>
      <trkpt lat="43.91628" lon="-0.07972">
        <ele>124</ele>
        <time>2022-06-27T16:36:17Z</time>
      </trkpt>
      <trkpt lat="43.91355" lon="-0.08007">
        <ele>130</ele>
        <time>2022-06-27T16:37:06Z</time>
      </trkpt>
      <trkpt lat="43.91009" lon="-0.08028">
        <ele>136</ele>
        <time>2022-06-27T16:38:08Z</time>
      </trkpt>
      <trkpt lat="43.90951" lon="-0.08046">
        <ele>136</ele>
        <time>2022-06-27T16:38:18Z</time>
      </trkpt>
      <trkpt lat="43.90835" lon="-0.08098">
        <ele>140</ele>
        <time>2022-06-27T16:38:40Z</time>
      </trkpt>
      <trkpt lat="43.90535" lon="-0.08287">
        <ele>146</ele>
        <time>2022-06-27T16:39:39Z</time>
      </trkpt>
      <trkpt lat="43.89725" lon="-0.09052">
        <ele>125</ele>
        <time>2022-06-27T16:42:33Z</time>
      </trkpt>
      <trkpt lat="43.89684" lon="-0.09076">
        <ele>125</ele>
        <time>2022-06-27T16:42:41Z</time>
      </trkpt>
      <trkpt lat="43.89549" lon="-0.09131">
        <ele>124</ele>
        <time>2022-06-27T16:43:06Z</time>
      </trkpt>
      <trkpt lat="43.89515" lon="-0.09158">
        <ele>122</ele>
        <time>2022-06-27T16:43:13Z</time>
      </trkpt>
      <trkpt lat="43.89396" lon="-0.09331">
        <ele>120</ele>
        <time>2022-06-27T16:43:43Z</time>
      </trkpt>
      <trkpt lat="43.89224" lon="-0.09527">
        <ele>126</ele>
        <time>2022-06-27T16:44:23Z</time>
      </trkpt>
      <trkpt lat="43.892" lon="-0.09548">
        <ele>124</ele>
        <time>2022-06-27T16:44:28Z</time>
      </trkpt>
      <trkpt lat="43.89174" lon="-0.09561">
        <ele>122</ele>
        <time>2022-06-27T16:44:33Z</time>
      </trkpt>
      <trkpt lat="43.89033" lon="-0.09595">
        <ele>126</ele>
        <time>2022-06-27T16:44:58Z</time>
      </trkpt>
      <trkpt lat="43.88928" lon="-0.09586">
        <ele>127</ele>
        <time>2022-06-27T16:45:17Z</time>
      </trkpt>
      <trkpt lat="43.888" lon="-0.09599">
        <ele>130</ele>
        <time>2022-06-27T16:45:40Z</time>
      </trkpt>
      <trkpt lat="43.88716" lon="-0.09615">
        <ele>129</ele>
        <time>2022-06-27T16:45:55Z</time>
      </trkpt>
      <trkpt lat="43.8849" lon="-0.09755">
        <ele>134</ele>
        <time>2022-06-27T16:46:39Z</time>
      </trkpt>
      <trkpt lat="43.88407" lon="-0.09793">
        <ele>131</ele>
        <time>2022-06-27T16:46:55Z</time>
      </trkpt>
      <trkpt lat="43.87678" lon="-0.1">
        <ele>135</ele>
        <time>2022-06-27T16:49:07Z</time>
      </trkpt>
      <trkpt lat="43.87651" lon="-0.1001">
        <ele>135</ele>
        <time>2022-06-27T16:49:12Z</time>
      </trkpt>
      <trkpt lat="43.87552" lon="-0.10066">
        <ele>135</ele>
        <time>2022-06-27T16:49:31Z</time>
      </trkpt>
      <trkpt lat="43.86719" lon="-0.10281">
        <ele>105</ele>
        <time>2022-06-27T16:52:02Z</time>
      </trkpt>
      <trkpt lat="43.86737" lon="-0.10511">
        <ele>100</ele>
        <time>2022-06-27T16:52:32Z</time>
      </trkpt>
      <trkpt lat="43.86724" lon="-0.10618">
        <ele>98</ele>
        <time>2022-06-27T16:52:45Z</time>
      </trkpt>
      <trkpt lat="43.86698" lon="-0.1074">
        <ele>102</ele>
        <time>2022-06-27T16:53:02Z</time>
      </trkpt>
      <trkpt lat="43.8666" lon="-0.10819">
        <ele>105</ele>
        <time>2022-06-27T16:53:14Z</time>
      </trkpt>
      <trkpt lat="43.86625" lon="-0.10948">
        <ele>109</ele>
        <time>2022-06-27T16:53:32Z</time>
      </trkpt>
      <trkpt lat="43.86376" lon="-0.12041">
        <ele>87</ele>
        <time>2022-06-27T16:55:59Z</time>
      </trkpt>
      <trkpt lat="43.8635" lon="-0.12092">
        <ele>87</ele>
        <time>2022-06-27T16:56:07Z</time>
      </trkpt>
      <trkpt lat="43.86221" lon="-0.12274">
        <ele>93</ele>
        <time>2022-06-27T16:56:39Z</time>
      </trkpt>
      <trkpt lat="43.86205" lon="-0.12288">
        <ele>95</ele>
        <time>2022-06-27T16:56:43Z</time>
      </trkpt>
      <trkpt lat="43.86175" lon="-0.12297">
        <ele>98</ele>
        <time>2022-06-27T16:56:48Z</time>
      </trkpt>
      <trkpt lat="43.8609" lon="-0.12276">
        <ele>102</ele>
        <time>2022-06-27T16:57:04Z</time>
      </trkpt>
      <trkpt lat="43.86044" lon="-0.12277">
        <ele>104</ele>
        <time>2022-06-27T16:57:12Z</time>
      </trkpt>
      <trkpt lat="43.86024" lon="-0.12284">
        <ele>105</ele>
        <time>2022-06-27T16:57:15Z</time>
      </trkpt>
      <trkpt lat="43.85993" lon="-0.12315">
        <ele>106</ele>
        <time>2022-06-27T16:57:22Z</time>
      </trkpt>
      <trkpt lat="43.85972" lon="-0.12356">
        <ele>107</ele>
        <time>2022-06-27T16:57:29Z</time>
      </trkpt>
      <trkpt lat="43.85943" lon="-0.12651">
        <ele>119</ele>
        <time>2022-06-27T16:58:07Z</time>
      </trkpt>
      <trkpt lat="43.85922" lon="-0.12709">
        <ele>122</ele>
        <time>2022-06-27T16:58:15Z</time>
      </trkpt>
      <trkpt lat="43.85883" lon="-0.12752">
        <ele>123</ele>
        <time>2022-06-27T16:58:24Z</time>
      </trkpt>
      <trkpt lat="43.85564" lon="-0.13053">
        <ele>114</ele>
        <time>2022-06-27T16:59:33Z</time>
      </trkpt>
      <trkpt lat="43.85535" lon="-0.13083">
        <ele>115</ele>
        <time>2022-06-27T16:59:39Z</time>
      </trkpt>
      <trkpt lat="43.85515" lon="-0.13121">
        <ele>117</ele>
        <time>2022-06-27T16:59:45Z</time>
      </trkpt>
      <trkpt lat="43.85492" lon="-0.13123">
        <ele>118</ele>
        <time>2022-06-27T16:59:49Z</time>
      </trkpt>
      <trkpt lat="43.85479" lon="-0.13106">
        <ele>119</ele>
        <time>2022-06-27T16:59:53Z</time>
      </trkpt>
      <trkpt lat="43.8542" lon="-0.13085">
        <ele>122</ele>
        <time>2022-06-27T17:00:03Z</time>
      </trkpt>
      <trkpt lat="43.85378" lon="-0.13085">
        <ele>122</ele>
        <time>2022-06-27T17:00:11Z</time>
      </trkpt>
      <trkpt lat="43.85356" lon="-0.13092">
        <ele>123</ele>
        <time>2022-06-27T17:00:15Z</time>
      </trkpt>
      <trkpt lat="43.84486" lon="-0.13624">
        <ele>108</ele>
        <time>2022-06-27T17:03:04Z</time>
      </trkpt>
      <trkpt lat="43.84473" lon="-0.13636">
        <ele>108</ele>
        <time>2022-06-27T17:03:07Z</time>
      </trkpt>
      <trkpt lat="43.84461" lon="-0.13661">
        <ele>107</ele>
        <time>2022-06-27T17:03:11Z</time>
      </trkpt>
      <trkpt lat="43.84449" lon="-0.13702">
        <ele>106</ele>
        <time>2022-06-27T17:03:16Z</time>
      </trkpt>
      <trkpt lat="43.84453" lon="-0.13873">
        <ele>101</ele>
        <time>2022-06-27T17:03:38Z</time>
      </trkpt>
      <trkpt lat="43.84449" lon="-0.13927">
        <ele>99</ele>
        <time>2022-06-27T17:03:45Z</time>
      </trkpt>
      <trkpt lat="43.84439" lon="-0.13954">
        <ele>99</ele>
        <time>2022-06-27T17:03:49Z</time>
      </trkpt>
      <trkpt lat="43.84355" lon="-0.14043">
        <ele>94</ele>
        <time>2022-06-27T17:04:08Z</time>
      </trkpt>
      <trkpt lat="43.8432" lon="-0.14055">
        <ele>93</ele>
        <time>2022-06-27T17:04:14Z</time>
      </trkpt>
      <trkpt lat="43.84263" lon="-0.14048">
        <ele>93</ele>
        <time>2022-06-27T17:04:25Z</time>
      </trkpt>
      <trkpt lat="43.8425" lon="-0.14055">
        <ele>92</ele>
        <time>2022-06-27T17:04:27Z</time>
      </trkpt>
      <trkpt lat="43.84212" lon="-0.14116">
        <ele>87</ele>
        <time>2022-06-27T17:04:37Z</time>
      </trkpt>
      <trkpt lat="43.8418" lon="-0.1413">
        <ele>86</ele>
        <time>2022-06-27T17:04:43Z</time>
      </trkpt>
      <trkpt lat="43.84032" lon="-0.14139">
        <ele>77</ele>
        <time>2022-06-27T17:05:10Z</time>
      </trkpt>
      <trkpt lat="43.83981" lon="-0.1416">
        <ele>76</ele>
        <time>2022-06-27T17:05:19Z</time>
      </trkpt>
      <trkpt lat="43.8236" lon="-0.15431">
        <ele>82</ele>
        <time>2022-06-27T17:10:51Z</time>
      </trkpt>
      <trkpt lat="43.82036" lon="-0.15682">
        <ele>86</ele>
        <time>2022-06-27T17:11:57Z</time>
      </trkpt>
      <trkpt lat="43.82016" lon="-0.15692">
        <ele>86</ele>
        <time>2022-06-27T17:12:00Z</time>
      </trkpt>
      <trkpt lat="43.81975" lon="-0.157">
        <ele>87</ele>
        <time>2022-06-27T17:12:08Z</time>
      </trkpt>
      <trkpt lat="43.81101" lon="-0.15604">
        <ele>86</ele>
        <time>2022-06-27T17:14:44Z</time>
      </trkpt>
      <trkpt lat="43.81043" lon="-0.15571">
        <ele>84</ele>
        <time>2022-06-27T17:14:55Z</time>
      </trkpt>
      <trkpt lat="43.80697" lon="-0.15288">
        <ele>93</ele>
        <time>2022-06-27T17:16:06Z</time>
      </trkpt>
      <trkpt lat="43.80657" lon="-0.15261">
        <ele>95</ele>
        <time>2022-06-27T17:16:14Z</time>
      </trkpt>
      <trkpt lat="43.80636" lon="-0.15256">
        <ele>97</ele>
        <time>2022-06-27T17:16:18Z</time>
      </trkpt>
      <trkpt lat="43.80602" lon="-0.15263">
        <ele>100</ele>
        <time>2022-06-27T17:16:24Z</time>
      </trkpt>
      <trkpt lat="43.80249" lon="-0.15427">
        <ele>120</ele>
        <time>2022-06-27T17:17:30Z</time>
      </trkpt>
      <trkpt lat="43.80207" lon="-0.15429">
        <ele>121</ele>
        <time>2022-06-27T17:17:38Z</time>
      </trkpt>
      <trkpt lat="43.79877" lon="-0.1539">
        <ele>122</ele>
        <time>2022-06-27T17:18:37Z</time>
      </trkpt>
      <trkpt lat="43.79842" lon="-0.15402">
        <ele>122</ele>
        <time>2022-06-27T17:18:43Z</time>
      </trkpt>
      <trkpt lat="43.79265" lon="-0.15978">
        <ele>125</ele>
        <time>2022-06-27T17:20:50Z</time>
      </trkpt>
      <trkpt lat="43.79132" lon="-0.16115">
        <ele>126</ele>
        <time>2022-06-27T17:21:19Z</time>
      </trkpt>
      <trkpt lat="43.79113" lon="-0.16146">
        <ele>125</ele>
        <time>2022-06-27T17:21:25Z</time>
      </trkpt>
      <trkpt lat="43.79101" lon="-0.16201">
        <ele>125</ele>
        <time>2022-06-27T17:21:32Z</time>
      </trkpt>
      <trkpt lat="43.79029" lon="-0.16969">
        <ele>100</ele>
        <time>2022-06-27T17:23:11Z</time>
      </trkpt>
      <trkpt lat="43.79017" lon="-0.17017">
        <ele>97</ele>
        <time>2022-06-27T17:23:18Z</time>
      </trkpt>
      <trkpt lat="43.78999" lon="-0.17046">
        <ele>97</ele>
        <time>2022-06-27T17:23:23Z</time>
      </trkpt>
      <trkpt lat="43.78873" lon="-0.17207">
        <ele>100</ele>
        <time>2022-06-27T17:23:53Z</time>
      </trkpt>
      <trkpt lat="43.78826" lon="-0.17253">
        <ele>101</ele>
        <time>2022-06-27T17:24:04Z</time>
      </trkpt>
      <trkpt lat="43.78744" lon="-0.17313">
        <ele>107</ele>
        <time>2022-06-27T17:24:20Z</time>
      </trkpt>
      <trkpt lat="43.78653" lon="-0.17347">
        <ele>108</ele>
        <time>2022-06-27T17:24:37Z</time>
      </trkpt>
      <trkpt lat="43.78481" lon="-0.17453">
        <ele>116</ele>
        <time>2022-06-27T17:25:10Z</time>
      </trkpt>
      <trkpt lat="43.78267" lon="-0.17598">
        <ele>123</ele>
        <time>2022-06-27T17:25:53Z</time>
      </trkpt>
      <trkpt lat="43.78235" lon="-0.17632">
        <ele>124</ele>
        <time>2022-06-27T17:26:00Z</time>
      </trkpt>
      <trkpt lat="43.78032" lon="-0.17907">
        <ele>125</ele>
        <time>2022-06-27T17:26:50Z</time>
      </trkpt>
      <trkpt lat="43.78019" lon="-0.17938">
        <ele>126</ele>
        <time>2022-06-27T17:26:55Z</time>
      </trkpt>
      <trkpt lat="43.77921" lon="-0.18311">
        <ele>135</ele>
        <time>2022-06-27T17:27:46Z</time>
      </trkpt>
      <trkpt lat="43.77896" lon="-0.18352">
        <ele>138</ele>
        <time>2022-06-27T17:27:53Z</time>
      </trkpt>
      <trkpt lat="43.77832" lon="-0.18382">
        <ele>142</ele>
        <time>2022-06-27T17:28:05Z</time>
      </trkpt>
      <trkpt lat="43.77778" lon="-0.18505">
        <ele>144</ele>
        <time>2022-06-27T17:28:23Z</time>
      </trkpt>
      <trkpt lat="43.77747" lon="-0.18529">
        <ele>143</ele>
        <time>2022-06-27T17:28:30Z</time>
      </trkpt>
      <trkpt lat="43.77637" lon="-0.18574">
        <ele>147</ele>
        <time>2022-06-27T17:28:50Z</time>
      </trkpt>
      <trkpt lat="43.77588" lon="-0.1842">
        <ele>147</ele>
        <time>2022-06-27T17:29:12Z</time>
      </trkpt>
      <trkpt lat="43.77576" lon="-0.18427">
        <ele>146</ele>
        <time>2022-06-27T17:29:14Z</time>
      </trkpt>
      <trkpt lat="43.77588" lon="-0.1842">
        <ele>147</ele>
        <time>2022-06-27T17:29:16Z</time>
      </trkpt>
      <trkpt lat="43.77488" lon="-0.18058">
        <ele>150</ele>
        <time>2022-06-27T17:30:06Z</time>
      </trkpt>
      <trkpt lat="43.77427" lon="-0.18051">
        <ele>147</ele>
        <time>2022-06-27T17:30:17Z</time>
      </trkpt>
      <trkpt lat="43.77411" lon="-0.18055">
        <ele>146</ele>
        <time>2022-06-27T17:30:20Z</time>
      </trkpt>
      <trkpt lat="43.76888" lon="-0.18371">
        <ele>122</ele>
        <time>2022-06-27T17:32:02Z</time>
      </trkpt>
      <trkpt lat="43.7683" lon="-0.18423">
        <ele>117</ele>
        <time>2022-06-27T17:32:14Z</time>
      </trkpt>
      <trkpt lat="43.7679" lon="-0.18481">
        <ele>114</ele>
        <time>2022-06-27T17:32:24Z</time>
      </trkpt>
      <trkpt lat="43.76756" lon="-0.18517">
        <ele>112</ele>
        <time>2022-06-27T17:32:32Z</time>
      </trkpt>
      <trkpt lat="43.76596" lon="-0.18575">
        <ele>127</ele>
        <time>2022-06-27T17:33:01Z</time>
      </trkpt>
      <trkpt lat="43.765" lon="-0.18639">
        <ele>136</ele>
        <time>2022-06-27T17:33:20Z</time>
      </trkpt>
      <trkpt lat="43.7648" lon="-0.18659">
        <ele>137</ele>
        <time>2022-06-27T17:33:25Z</time>
      </trkpt>
      <trkpt lat="43.76444" lon="-0.18714">
        <ele>136</ele>
        <time>2022-06-27T17:33:34Z</time>
      </trkpt>
      <trkpt lat="43.76362" lon="-0.18856">
        <ele>135</ele>
        <time>2022-06-27T17:33:57Z</time>
      </trkpt>
      <trkpt lat="43.76146" lon="-0.19126">
        <ele>138</ele>
        <time>2022-06-27T17:34:49Z</time>
      </trkpt>
      <trkpt lat="43.76117" lon="-0.1919">
        <ele>139</ele>
        <time>2022-06-27T17:34:59Z</time>
      </trkpt>
      <trkpt lat="43.76074" lon="-0.19334">
        <ele>136</ele>
        <time>2022-06-27T17:35:19Z</time>
      </trkpt>
      <trkpt lat="43.76034" lon="-0.19394">
        <ele>137</ele>
        <time>2022-06-27T17:35:29Z</time>
      </trkpt>
      <trkpt lat="43.75477" lon="-0.19935">
        <ele>139</ele>
        <time>2022-06-27T17:37:30Z</time>
      </trkpt>
      <trkpt lat="43.75444" lon="-0.19951">
        <ele>140</ele>
        <time>2022-06-27T17:37:37Z</time>
      </trkpt>
      <trkpt lat="43.75256" lon="-0.19998">
        <ele>134</ele>
        <time>2022-06-27T17:38:11Z</time>
      </trkpt>
      <trkpt lat="43.75227" lon="-0.20011">
        <ele>133</ele>
        <time>2022-06-27T17:38:16Z</time>
      </trkpt>
      <trkpt lat="43.75125" lon="-0.20113">
        <ele>127</ele>
        <time>2022-06-27T17:38:38Z</time>
      </trkpt>
      <trkpt lat="43.74954" lon="-0.20208">
        <ele>114</ele>
        <time>2022-06-27T17:39:11Z</time>
      </trkpt>
      <trkpt lat="43.74871" lon="-0.20248">
        <ele>114</ele>
        <time>2022-06-27T17:39:27Z</time>
      </trkpt>
      <trkpt lat="43.74844" lon="-0.20255">
        <ele>117</ele>
        <time>2022-06-27T17:39:32Z</time>
      </trkpt>
      <trkpt lat="43.7482" lon="-0.2025">
        <ele>120</ele>
        <time>2022-06-27T17:39:36Z</time>
      </trkpt>
      <trkpt lat="43.74789" lon="-0.20219">
        <ele>125</ele>
        <time>2022-06-27T17:39:43Z</time>
      </trkpt>
      <trkpt lat="43.74707" lon="-0.19986">
        <ele>130</ele>
        <time>2022-06-27T17:40:16Z</time>
      </trkpt>
      <trkpt lat="43.74696" lon="-0.19969">
        <ele>131</ele>
        <time>2022-06-27T17:40:19Z</time>
      </trkpt>
      <trkpt lat="43.74664" lon="-0.19943">
        <ele>132</ele>
        <time>2022-06-27T17:40:26Z</time>
      </trkpt>
      <trkpt lat="43.7463" lon="-0.19947">
        <ele>133</ele>
        <time>2022-06-27T17:40:32Z</time>
      </trkpt>
      <trkpt lat="43.73689" lon="-0.20918">
        <ele>135</ele>
        <time>2022-06-27T17:44:01Z</time>
      </trkpt>
      <trkpt lat="43.73585" lon="-0.2101">
        <ele>133</ele>
        <time>2022-06-27T17:44:23Z</time>
      </trkpt>
      <trkpt lat="43.73442" lon="-0.21105">
        <ele>137</ele>
        <time>2022-06-27T17:44:51Z</time>
      </trkpt>
      <trkpt lat="43.73221" lon="-0.21292">
        <ele>130</ele>
        <time>2022-06-27T17:45:37Z</time>
      </trkpt>
      <trkpt lat="43.72976" lon="-0.21454">
        <ele>134</ele>
        <time>2022-06-27T17:46:25Z</time>
      </trkpt>
      <trkpt lat="43.72715" lon="-0.21701">
        <ele>126</ele>
        <time>2022-06-27T17:47:22Z</time>
      </trkpt>
      <trkpt lat="43.72315" lon="-0.22271">
        <ele>119</ele>
        <time>2022-06-27T17:49:04Z</time>
      </trkpt>
      <trkpt lat="43.71719" lon="-0.23223">
        <ele>91</ele>
        <time>2022-06-27T17:51:46Z</time>
      </trkpt>
      <trkpt lat="43.71701" lon="-0.23273">
        <ele>91</ele>
        <time>2022-06-27T17:51:53Z</time>
      </trkpt>
      <trkpt lat="43.71701" lon="-0.23299">
        <ele>91</ele>
        <time>2022-06-27T17:51:56Z</time>
      </trkpt>
      <trkpt lat="43.71686" lon="-0.23315">
        <ele>92</ele>
        <time>2022-06-27T17:52:00Z</time>
      </trkpt>
      <trkpt lat="43.71671" lon="-0.23312">
        <ele>92</ele>
        <time>2022-06-27T17:52:02Z</time>
      </trkpt>
      <trkpt lat="43.71659" lon="-0.2329">
        <ele>91</ele>
        <time>2022-06-27T17:52:06Z</time>
      </trkpt>
      <trkpt lat="43.7163" lon="-0.23271">
        <ele>91</ele>
        <time>2022-06-27T17:52:12Z</time>
      </trkpt>
      <trkpt lat="43.71616" lon="-0.23253">
        <ele>91</ele>
        <time>2022-06-27T17:52:15Z</time>
      </trkpt>
      <trkpt lat="43.71528" lon="-0.23108">
        <ele>91</ele>
        <time>2022-06-27T17:52:39Z</time>
      </trkpt>
      <trkpt lat="43.71505" lon="-0.23093">
        <ele>92</ele>
        <time>2022-06-27T17:52:44Z</time>
      </trkpt>
      <trkpt lat="43.7148" lon="-0.23093">
        <ele>93</ele>
        <time>2022-06-27T17:52:48Z</time>
      </trkpt>
      <trkpt lat="43.70641" lon="-0.23485">
        <ele>89</ele>
        <time>2022-06-27T17:55:26Z</time>
      </trkpt>
      <trkpt lat="43.70584" lon="-0.23506">
        <ele>89</ele>
        <time>2022-06-27T17:55:36Z</time>
      </trkpt>
      <trkpt lat="43.70573" lon="-0.23502">
        <ele>89</ele>
        <time>2022-06-27T17:55:38Z</time>
      </trkpt>
      <trkpt lat="43.70531" lon="-0.23528">
        <ele>87</ele>
        <time>2022-06-27T17:55:46Z</time>
      </trkpt>
      <trkpt lat="43.70345" lon="-0.23618">
        <ele>85</ele>
        <time>2022-06-27T17:56:22Z</time>
      </trkpt>
      <trkpt lat="43.70331" lon="-0.23627">
        <ele>86</ele>
        <time>2022-06-27T17:56:24Z</time>
      </trkpt>
      <trkpt lat="43.70356" lon="-0.2373">
        <ele>85</ele>
        <time>2022-06-27T17:56:38Z</time>
      </trkpt>
      <trkpt lat="43.70347" lon="-0.2373">
        <ele>85</ele>
        <time>2022-06-27T17:56:40Z</time>
      </trkpt>
      <trkpt lat="43.70303" lon="-0.23754">
        <ele>85</ele>
        <time>2022-06-27T17:56:48Z</time>
      </trkpt>
      <trkpt lat="43.70277" lon="-0.2365">
        <ele>87</ele>
        <time>2022-06-27T17:57:02Z</time>
      </trkpt>
      <trkpt lat="43.68776" lon="-0.24339">
        <ele>84</ele>
        <time>2022-06-27T18:01:44Z</time>
      </trkpt>
      <trkpt lat="43.68504" lon="-0.24488">
        <ele>94</ele>
        <time>2022-06-27T18:02:36Z</time>
      </trkpt>
      <trkpt lat="43.68482" lon="-0.24441">
        <ele>96</ele>
        <time>2022-06-27T18:02:43Z</time>
      </trkpt>
      <trkpt lat="43.68463" lon="-0.24378">
        <ele>97</ele>
        <time>2022-06-27T18:02:52Z</time>
      </trkpt>
      <trkpt lat="43.68381" lon="-0.24027">
        <ele>99</ele>
        <time>2022-06-27T18:03:39Z</time>
      </trkpt>
      <trkpt lat="43.6835" lon="-0.23938">
        <ele>96</ele>
        <time>2022-06-27T18:03:52Z</time>
      </trkpt>
      <trkpt lat="43.68312" lon="-0.23863">
        <ele>95</ele>
        <time>2022-06-27T18:04:04Z</time>
      </trkpt>
      <trkpt lat="43.68241" lon="-0.23763">
        <ele>96</ele>
        <time>2022-06-27T18:04:22Z</time>
      </trkpt>
      <trkpt lat="43.6818" lon="-0.23711">
        <ele>98</ele>
        <time>2022-06-27T18:04:35Z</time>
      </trkpt>
      <trkpt lat="43.68149" lon="-0.23695">
        <ele>95</ele>
        <time>2022-06-27T18:04:41Z</time>
      </trkpt>
      <trkpt lat="43.68122" lon="-0.23692">
        <ele>95</ele>
        <time>2022-06-27T18:04:45Z</time>
      </trkpt>
      <trkpt lat="43.68092" lon="-0.237">
        <ele>97</ele>
        <time>2022-06-27T18:04:51Z</time>
      </trkpt>
      <trkpt lat="43.6802" lon="-0.23737">
        <ele>98</ele>
        <time>2022-06-27T18:05:04Z</time>
      </trkpt>
      <trkpt lat="43.67979" lon="-0.23745">
        <ele>98</ele>
        <time>2022-06-27T18:05:12Z</time>
      </trkpt>
      <trkpt lat="43.67859" lon="-0.23735">
        <ele>97</ele>
        <time>2022-06-27T18:05:33Z</time>
      </trkpt>
      <trkpt lat="43.6782" lon="-0.23739">
        <ele>96</ele>
        <time>2022-06-27T18:05:40Z</time>
      </trkpt>
      <trkpt lat="43.67772" lon="-0.23759">
        <ele>95</ele>
        <time>2022-06-27T18:05:49Z</time>
      </trkpt>
      <trkpt lat="43.67681" lon="-0.23823">
        <ele>98</ele>
        <time>2022-06-27T18:06:07Z</time>
      </trkpt>
      <trkpt lat="43.67669" lon="-0.23829">
        <ele>97</ele>
        <time>2022-06-27T18:06:10Z</time>
      </trkpt>
      <trkpt lat="43.67658" lon="-0.23827">
        <ele>95</ele>
        <time>2022-06-27T18:06:11Z</time>
      </trkpt>
      <trkpt lat="43.67646" lon="-0.23814">
        <ele>93</ele>
        <time>2022-06-27T18:06:14Z</time>
      </trkpt>
      <trkpt lat="43.67545" lon="-0.23581">
        <ele>85</ele>
        <time>2022-06-27T18:06:49Z</time>
      </trkpt>
      <trkpt lat="43.67505" lon="-0.2352">
        <ele>86</ele>
        <time>2022-06-27T18:07:00Z</time>
      </trkpt>
      <trkpt lat="43.67433" lon="-0.23459">
        <ele>85</ele>
        <time>2022-06-27T18:07:15Z</time>
      </trkpt>
      <trkpt lat="43.6721" lon="-0.2341">
        <ele>86</ele>
        <time>2022-06-27T18:07:55Z</time>
      </trkpt>
      <trkpt lat="43.64571" lon="-0.22918">
        <ele>103</ele>
        <time>2022-06-27T18:15:49Z</time>
      </trkpt>
      <trkpt lat="43.64553" lon="-0.22988">
        <ele>100</ele>
        <time>2022-06-27T18:15:58Z</time>
      </trkpt>
      <trkpt lat="43.64562" lon="-0.23108">
        <ele>97</ele>
        <time>2022-06-27T18:16:14Z</time>
      </trkpt>
      <trkpt lat="43.64581" lon="-0.23212">
        <ele>94</ele>
        <time>2022-06-27T18:16:28Z</time>
      </trkpt>
      <trkpt lat="43.64599" lon="-0.23271">
        <ele>93</ele>
        <time>2022-06-27T18:16:36Z</time>
      </trkpt>
      <trkpt lat="43.64618" lon="-0.23303">
        <ele>93</ele>
        <time>2022-06-27T18:16:41Z</time>
      </trkpt>
      <trkpt lat="43.64695" lon="-0.23397">
        <ele>92</ele>
        <time>2022-06-27T18:17:00Z</time>
      </trkpt>
      <trkpt lat="43.64715" lon="-0.23444">
        <ele>93</ele>
        <time>2022-06-27T18:17:07Z</time>
      </trkpt>
      <trkpt lat="43.64717" lon="-0.23519">
        <ele>93</ele>
        <time>2022-06-27T18:17:16Z</time>
      </trkpt>
      <trkpt lat="43.64708" lon="-0.23625">
        <ele>92</ele>
        <time>2022-06-27T18:17:30Z</time>
      </trkpt>
      <trkpt lat="43.64723" lon="-0.24055">
        <ele>92</ele>
        <time>2022-06-27T18:18:25Z</time>
      </trkpt>
      <trkpt lat="43.64723" lon="-0.24131">
        <ele>92</ele>
        <time>2022-06-27T18:18:35Z</time>
      </trkpt>
      <trkpt lat="43.64714" lon="-0.24175">
        <ele>92</ele>
        <time>2022-06-27T18:18:41Z</time>
      </trkpt>
      <trkpt lat="43.64581" lon="-0.24462">
        <ele>98</ele>
        <time>2022-06-27T18:19:25Z</time>
      </trkpt>
      <trkpt lat="43.64541" lon="-0.24514">
        <ele>104</ele>
        <time>2022-06-27T18:19:35Z</time>
      </trkpt>
      <trkpt lat="43.64508" lon="-0.24536">
        <ele>108</ele>
        <time>2022-06-27T18:19:41Z</time>
      </trkpt>
      <trkpt lat="43.64336" lon="-0.24627">
        <ele>110</ele>
        <time>2022-06-27T18:20:14Z</time>
      </trkpt>
      <trkpt lat="43.6396" lon="-0.24799">
        <ele>108</ele>
        <time>2022-06-27T18:21:24Z</time>
      </trkpt>
      <trkpt lat="43.63907" lon="-0.24829">
        <ele>106</ele>
        <time>2022-06-27T18:21:35Z</time>
      </trkpt>
      <trkpt lat="43.62771" lon="-0.25662">
        <ele>111</ele>
        <time>2022-06-27T18:25:23Z</time>
      </trkpt>
      <trkpt lat="43.62744" lon="-0.25672">
        <ele>111</ele>
        <time>2022-06-27T18:25:28Z</time>
      </trkpt>
      <trkpt lat="43.626" lon="-0.25694">
        <ele>115</ele>
        <time>2022-06-27T18:25:54Z</time>
      </trkpt>
      <trkpt lat="43.62568" lon="-0.25691">
        <ele>114</ele>
        <time>2022-06-27T18:26:00Z</time>
      </trkpt>
      <trkpt lat="43.62529" lon="-0.25709">
        <ele>114</ele>
        <time>2022-06-27T18:26:07Z</time>
      </trkpt>
      <trkpt lat="43.62253" lon="-0.25797">
        <ele>116</ele>
        <time>2022-06-27T18:26:58Z</time>
      </trkpt>
      <trkpt lat="43.62203" lon="-0.25808">
        <ele>117</ele>
        <time>2022-06-27T18:27:07Z</time>
      </trkpt>
      <trkpt lat="43.62064" lon="-0.25792">
        <ele>116</ele>
        <time>2022-06-27T18:27:31Z</time>
      </trkpt>
      <trkpt lat="43.62027" lon="-0.25795">
        <ele>115</ele>
        <time>2022-06-27T18:27:38Z</time>
      </trkpt>
      <trkpt lat="43.62013" lon="-0.2581">
        <ele>115</ele>
        <time>2022-06-27T18:27:41Z</time>
      </trkpt>
      <trkpt lat="43.62001" lon="-0.25844">
        <ele>115</ele>
        <time>2022-06-27T18:27:46Z</time>
      </trkpt>
      <trkpt lat="43.61974" lon="-0.25947">
        <ele>119</ele>
        <time>2022-06-27T18:28:00Z</time>
      </trkpt>
      <trkpt lat="43.61952" lon="-0.25981">
        <ele>120</ele>
        <time>2022-06-27T18:28:06Z</time>
      </trkpt>
      <trkpt lat="43.61926" lon="-0.25992">
        <ele>121</ele>
        <time>2022-06-27T18:28:11Z</time>
      </trkpt>
      <trkpt lat="43.6176" lon="-0.25986">
        <ele>121</ele>
        <time>2022-06-27T18:28:40Z</time>
      </trkpt>
      <trkpt lat="43.61556" lon="-0.26037">
        <ele>120</ele>
        <time>2022-06-27T18:29:17Z</time>
      </trkpt>
      <trkpt lat="43.61389" lon="-0.26058">
        <ele>121</ele>
        <time>2022-06-27T18:29:47Z</time>
      </trkpt>
      <trkpt lat="43.61377" lon="-0.26068">
        <ele>122</ele>
        <time>2022-06-27T18:29:50Z</time>
      </trkpt>
      <trkpt lat="43.61372" lon="-0.26105">
        <ele>124</ele>
        <time>2022-06-27T18:29:55Z</time>
      </trkpt>
      <trkpt lat="43.61383" lon="-0.26248">
        <ele>135</ele>
        <time>2022-06-27T18:30:13Z</time>
      </trkpt>
      <trkpt lat="43.61379" lon="-0.26261">
        <ele>136</ele>
        <time>2022-06-27T18:30:15Z</time>
      </trkpt>
      <trkpt lat="43.61243" lon="-0.26247">
        <ele>132</ele>
        <time>2022-06-27T18:30:39Z</time>
      </trkpt>
      <trkpt lat="43.61214" lon="-0.26255">
        <ele>132</ele>
        <time>2022-06-27T18:30:44Z</time>
      </trkpt>
      <trkpt lat="43.61172" lon="-0.26277">
        <ele>134</ele>
        <time>2022-06-27T18:30:52Z</time>
      </trkpt>
      <trkpt lat="43.61132" lon="-0.26316">
        <ele>138</ele>
        <time>2022-06-27T18:31:01Z</time>
      </trkpt>
      <trkpt lat="43.611" lon="-0.2633">
        <ele>138</ele>
        <time>2022-06-27T18:31:07Z</time>
      </trkpt>
      <trkpt lat="43.61071" lon="-0.26356">
        <ele>143</ele>
        <time>2022-06-27T18:31:13Z</time>
      </trkpt>
      <trkpt lat="43.61032" lon="-0.26375">
        <ele>146</ele>
        <time>2022-06-27T18:31:21Z</time>
      </trkpt>
      <trkpt lat="43.60883" lon="-0.26378">
        <ele>141</ele>
        <time>2022-06-27T18:31:47Z</time>
      </trkpt>
      <trkpt lat="43.60798" lon="-0.2635">
        <ele>139</ele>
        <time>2022-06-27T18:32:03Z</time>
      </trkpt>
      <trkpt lat="43.60641" lon="-0.26323">
        <ele>134</ele>
        <time>2022-06-27T18:32:31Z</time>
      </trkpt>
      <trkpt lat="43.60608" lon="-0.2633">
        <ele>133</ele>
        <time>2022-06-27T18:32:37Z</time>
      </trkpt>
      <trkpt lat="43.60525" lon="-0.26367">
        <ele>134</ele>
        <time>2022-06-27T18:32:52Z</time>
      </trkpt>
      <trkpt lat="43.60475" lon="-0.26378">
        <ele>133</ele>
        <time>2022-06-27T18:33:01Z</time>
      </trkpt>
      <trkpt lat="43.60474" lon="-0.2634">
        <ele>129</ele>
        <time>2022-06-27T18:33:06Z</time>
      </trkpt>
      <trkpt lat="43.60216" lon="-0.2636">
        <ele>128</ele>
        <time>2022-06-27T18:33:52Z</time>
      </trkpt>
      <trkpt lat="43.60174" lon="-0.2637">
        <ele>130</ele>
        <time>2022-06-27T18:34:00Z</time>
      </trkpt>
      <trkpt lat="43.60161" lon="-0.26346">
        <ele>129</ele>
        <time>2022-06-27T18:34:04Z</time>
      </trkpt>
      <trkpt lat="43.60158" lon="-0.26304">
        <ele>129</ele>
        <time>2022-06-27T18:34:09Z</time>
      </trkpt>
      <trkpt lat="43.60133" lon="-0.26284">
        <ele>129</ele>
        <time>2022-06-27T18:34:14Z</time>
      </trkpt>
      <trkpt lat="43.60071" lon="-0.26278">
        <ele>130</ele>
        <time>2022-06-27T18:34:25Z</time>
      </trkpt>
      <trkpt lat="43.59967" lon="-0.26282">
        <ele>130</ele>
        <time>2022-06-27T18:34:44Z</time>
      </trkpt>
      <trkpt lat="43.59868" lon="-0.26258">
        <ele>129</ele>
        <time>2022-06-27T18:35:02Z</time>
      </trkpt>
      <trkpt lat="43.59841" lon="-0.26265">
        <ele>130</ele>
        <time>2022-06-27T18:35:07Z</time>
      </trkpt>
      <trkpt lat="43.59806" lon="-0.26319">
        <ele>133</ele>
        <time>2022-06-27T18:35:16Z</time>
      </trkpt>
      <trkpt lat="43.59774" lon="-0.26322">
        <ele>134</ele>
        <time>2022-06-27T18:35:22Z</time>
      </trkpt>
      <trkpt lat="43.59697" lon="-0.2631">
        <ele>134</ele>
        <time>2022-06-27T18:35:35Z</time>
      </trkpt>
      <trkpt lat="43.5956" lon="-0.2626">
        <ele>129</ele>
        <time>2022-06-27T18:36:01Z</time>
      </trkpt>
      <trkpt lat="43.59503" lon="-0.26259">
        <ele>131</ele>
        <time>2022-06-27T18:36:11Z</time>
      </trkpt>
      <trkpt lat="43.59496" lon="-0.26251">
        <ele>130</ele>
        <time>2022-06-27T18:36:12Z</time>
      </trkpt>
      <trkpt lat="43.59492" lon="-0.26184">
        <ele>127</ele>
        <time>2022-06-27T18:36:21Z</time>
      </trkpt>
      <trkpt lat="43.59485" lon="-0.26175">
        <ele>126</ele>
        <time>2022-06-27T18:36:23Z</time>
      </trkpt>
      <trkpt lat="43.59331" lon="-0.26183">
        <ele>126</ele>
        <time>2022-06-27T18:36:50Z</time>
      </trkpt>
      <trkpt lat="43.59263" lon="-0.26194">
        <ele>128</ele>
        <time>2022-06-27T18:37:02Z</time>
      </trkpt>
      <trkpt lat="43.5922" lon="-0.26204">
        <ele>129</ele>
        <time>2022-06-27T18:37:10Z</time>
      </trkpt>
      <trkpt lat="43.592" lon="-0.26215">
        <ele>130</ele>
        <time>2022-06-27T18:37:14Z</time>
      </trkpt>
      <trkpt lat="43.5915" lon="-0.2626">
        <ele>133</ele>
        <time>2022-06-27T18:37:24Z</time>
      </trkpt>
      <trkpt lat="43.59014" lon="-0.26281">
        <ele>139</ele>
        <time>2022-06-27T18:37:49Z</time>
      </trkpt>
      <trkpt lat="43.58899" lon="-0.26306">
        <ele>145</ele>
        <time>2022-06-27T18:38:10Z</time>
      </trkpt>
      <trkpt lat="43.58885" lon="-0.26304">
        <ele>144</ele>
        <time>2022-06-27T18:38:12Z</time>
      </trkpt>
      <trkpt lat="43.58799" lon="-0.26235">
        <ele>138</ele>
        <time>2022-06-27T18:38:30Z</time>
      </trkpt>
      <trkpt lat="43.58787" lon="-0.26232">
        <ele>139</ele>
        <time>2022-06-27T18:38:32Z</time>
      </trkpt>
      <trkpt lat="43.58683" lon="-0.26237">
        <ele>140</ele>
        <time>2022-06-27T18:38:50Z</time>
      </trkpt>
      <trkpt lat="43.58612" lon="-0.26278">
        <ele>141</ele>
        <time>2022-06-27T18:39:04Z</time>
      </trkpt>
      <trkpt lat="43.58518" lon="-0.26294">
        <ele>140</ele>
        <time>2022-06-27T18:39:21Z</time>
      </trkpt>
      <trkpt lat="43.58491" lon="-0.26291">
        <ele>138</ele>
        <time>2022-06-27T18:39:26Z</time>
      </trkpt>
      <trkpt lat="43.58385" lon="-0.26236">
        <ele>131</ele>
        <time>2022-06-27T18:39:46Z</time>
      </trkpt>
      <trkpt lat="43.58357" lon="-0.26233">
        <ele>131</ele>
        <time>2022-06-27T18:39:51Z</time>
      </trkpt>
      <trkpt lat="43.58217" lon="-0.26266">
        <ele>130</ele>
        <time>2022-06-27T18:40:16Z</time>
      </trkpt>
      <trkpt lat="43.58075" lon="-0.26289">
        <ele>129</ele>
        <time>2022-06-27T18:40:42Z</time>
      </trkpt>
      <trkpt lat="43.5792" lon="-0.26385">
        <ele>130</ele>
        <time>2022-06-27T18:41:12Z</time>
      </trkpt>
      <trkpt lat="43.57889" lon="-0.26398">
        <ele>130</ele>
        <time>2022-06-27T18:41:18Z</time>
      </trkpt>
      <trkpt lat="43.5755" lon="-0.26477">
        <ele>131</ele>
        <time>2022-06-27T18:42:19Z</time>
      </trkpt>
      <trkpt lat="43.572" lon="-0.26572">
        <ele>133</ele>
        <time>2022-06-27T18:43:22Z</time>
      </trkpt>
      <trkpt lat="43.57077" lon="-0.26583">
        <ele>134</ele>
        <time>2022-06-27T18:43:44Z</time>
      </trkpt>
      <trkpt lat="43.56916" lon="-0.26583">
        <ele>136</ele>
        <time>2022-06-27T18:44:13Z</time>
      </trkpt>
      <trkpt lat="43.56853" lon="-0.26603">
        <ele>136</ele>
        <time>2022-06-27T18:44:24Z</time>
      </trkpt>
      <trkpt lat="43.56726" lon="-0.26662">
        <ele>141</ele>
        <time>2022-06-27T18:44:48Z</time>
      </trkpt>
      <trkpt lat="43.56695" lon="-0.26668">
        <ele>143</ele>
        <time>2022-06-27T18:44:54Z</time>
      </trkpt>
      <trkpt lat="43.56671" lon="-0.26661">
        <ele>145</ele>
        <time>2022-06-27T18:44:58Z</time>
      </trkpt>
      <trkpt lat="43.56665" lon="-0.26669">
        <ele>145</ele>
        <time>2022-06-27T18:45:00Z</time>
      </trkpt>
      <trkpt lat="43.5664" lon="-0.26678">
        <ele>147</ele>
        <time>2022-06-27T18:45:04Z</time>
      </trkpt>
      <trkpt lat="43.56342" lon="-0.26656">
        <ele>162</ele>
        <time>2022-06-27T18:45:57Z</time>
      </trkpt>
      <trkpt lat="43.56077" lon="-0.26694">
        <ele>178</ele>
        <time>2022-06-27T18:46:45Z</time>
      </trkpt>
      <trkpt lat="43.56054" lon="-0.26708">
        <ele>180</ele>
        <time>2022-06-27T18:46:49Z</time>
      </trkpt>
      <trkpt lat="43.56049" lon="-0.26731">
        <ele>182</ele>
        <time>2022-06-27T18:46:52Z</time>
      </trkpt>
      <trkpt lat="43.56024" lon="-0.2673">
        <ele>181</ele>
        <time>2022-06-27T18:46:57Z</time>
      </trkpt>
      <trkpt lat="43.56" lon="-0.26783">
        <ele>186</ele>
        <time>2022-06-27T18:47:05Z</time>
      </trkpt>
      <trkpt lat="43.55975" lon="-0.26999">
        <ele>199</ele>
        <time>2022-06-27T18:47:33Z</time>
      </trkpt>
      <trkpt lat="43.55978" lon="-0.27096">
        <ele>201</ele>
        <time>2022-06-27T18:47:46Z</time>
      </trkpt>
      <trkpt lat="43.55947" lon="-0.27163">
        <ele>202</ele>
        <time>2022-06-27T18:47:56Z</time>
      </trkpt>
      <trkpt lat="43.55946" lon="-0.272">
        <ele>204</ele>
        <time>2022-06-27T18:48:01Z</time>
      </trkpt>
      <trkpt lat="43.55956" lon="-0.27254">
        <ele>207</ele>
        <time>2022-06-27T18:48:08Z</time>
      </trkpt>
      <trkpt lat="43.55927" lon="-0.27322">
        <ele>206</ele>
        <time>2022-06-27T18:48:18Z</time>
      </trkpt>
      <trkpt lat="43.55928" lon="-0.27334">
        <ele>206</ele>
        <time>2022-06-27T18:48:19Z</time>
      </trkpt>
      <trkpt lat="43.55919" lon="-0.27339">
        <ele>206</ele>
        <time>2022-06-27T18:48:21Z</time>
      </trkpt>
      <trkpt lat="43.55915" lon="-0.27329">
        <ele>206</ele>
        <time>2022-06-27T18:48:23Z</time>
      </trkpt>
      <trkpt lat="43.559" lon="-0.27332">
        <ele>206</ele>
        <time>2022-06-27T18:48:25Z</time>
      </trkpt>
      <trkpt lat="43.55809" lon="-0.27397">
        <ele>208</ele>
        <time>2022-06-27T18:48:44Z</time>
      </trkpt>
      <trkpt lat="43.55723" lon="-0.2747">
        <ele>208</ele>
        <time>2022-06-27T18:49:02Z</time>
      </trkpt>
      <trkpt lat="43.55644" lon="-0.27512">
        <ele>209</ele>
        <time>2022-06-27T18:49:17Z</time>
      </trkpt>
      <trkpt lat="43.55589" lon="-0.27533">
        <ele>210</ele>
        <time>2022-06-27T18:49:27Z</time>
      </trkpt>
      <trkpt lat="43.55556" lon="-0.27539">
        <ele>210</ele>
        <time>2022-06-27T18:49:33Z</time>
      </trkpt>
      <trkpt lat="43.55293" lon="-0.27551">
        <ele>212</ele>
        <time>2022-06-27T18:50:20Z</time>
      </trkpt>
      <trkpt lat="43.55225" lon="-0.27547">
        <ele>212</ele>
        <time>2022-06-27T18:50:32Z</time>
      </trkpt>
      <trkpt lat="43.54998" lon="-0.27502">
        <ele>213</ele>
        <time>2022-06-27T18:51:12Z</time>
      </trkpt>
      <trkpt lat="43.54765" lon="-0.27486">
        <ele>214</ele>
        <time>2022-06-27T18:51:54Z</time>
      </trkpt>
      <trkpt lat="43.54499" lon="-0.27511">
        <ele>215</ele>
        <time>2022-06-27T18:52:41Z</time>
      </trkpt>
      <trkpt lat="43.54129" lon="-0.27573">
        <ele>215</ele>
        <time>2022-06-27T18:53:48Z</time>
      </trkpt>
      <trkpt lat="43.53953" lon="-0.27583">
        <ele>218</ele>
        <time>2022-06-27T18:54:19Z</time>
      </trkpt>
      <trkpt lat="43.53919" lon="-0.27595">
        <ele>219</ele>
        <time>2022-06-27T18:54:25Z</time>
      </trkpt>
      <trkpt lat="43.5375" lon="-0.27703">
        <ele>215</ele>
        <time>2022-06-27T18:54:58Z</time>
      </trkpt>
      <trkpt lat="43.53525" lon="-0.278">
        <ele>217</ele>
        <time>2022-06-27T18:55:40Z</time>
      </trkpt>
      <trkpt lat="43.53385" lon="-0.27873">
        <ele>219</ele>
        <time>2022-06-27T18:56:07Z</time>
      </trkpt>
      <trkpt lat="43.52869" lon="-0.28123">
        <ele>219</ele>
        <time>2022-06-27T18:57:44Z</time>
      </trkpt>
      <trkpt lat="43.5284" lon="-0.28128">
        <ele>220</ele>
        <time>2022-06-27T18:57:50Z</time>
      </trkpt>
      <trkpt lat="43.52794" lon="-0.28118">
        <ele>219</ele>
        <time>2022-06-27T18:57:58Z</time>
      </trkpt>
      <trkpt lat="43.52529" lon="-0.28019">
        <ele>221</ele>
        <time>2022-06-27T18:58:47Z</time>
      </trkpt>
      <trkpt lat="43.52437" lon="-0.27954">
        <ele>221</ele>
        <time>2022-06-27T18:59:05Z</time>
      </trkpt>
      <trkpt lat="43.52354" lon="-0.27872">
        <ele>221</ele>
        <time>2022-06-27T18:59:23Z</time>
      </trkpt>
      <trkpt lat="43.52278" lon="-0.2783">
        <ele>222</ele>
        <time>2022-06-27T18:59:38Z</time>
      </trkpt>
      <trkpt lat="43.52239" lon="-0.2782">
        <ele>221</ele>
        <time>2022-06-27T18:59:45Z</time>
      </trkpt>
      <trkpt lat="43.52037" lon="-0.27795">
        <ele>220</ele>
        <time>2022-06-27T19:00:21Z</time>
      </trkpt>
      <trkpt lat="43.51965" lon="-0.2778">
        <ele>221</ele>
        <time>2022-06-27T19:00:34Z</time>
      </trkpt>
      <trkpt lat="43.51716" lon="-0.27638">
        <ele>222</ele>
        <time>2022-06-27T19:01:22Z</time>
      </trkpt>
      <trkpt lat="43.51542" lon="-0.27578">
        <ele>224</ele>
        <time>2022-06-27T19:01:54Z</time>
      </trkpt>
      <trkpt lat="43.5129" lon="-0.27461">
        <ele>228</ele>
        <time>2022-06-27T19:02:41Z</time>
      </trkpt>
      <trkpt lat="43.51224" lon="-0.27448">
        <ele>227</ele>
        <time>2022-06-27T19:02:53Z</time>
      </trkpt>
      <trkpt lat="43.50939" lon="-0.27422">
        <ele>229</ele>
        <time>2022-06-27T19:03:44Z</time>
      </trkpt>
      <trkpt lat="43.50873" lon="-0.27423">
        <ele>229</ele>
        <time>2022-06-27T19:03:55Z</time>
      </trkpt>
      <trkpt lat="43.50829" lon="-0.27431">
        <ele>229</ele>
        <time>2022-06-27T19:04:03Z</time>
      </trkpt>
      <trkpt lat="43.50787" lon="-0.27445">
        <ele>230</ele>
        <time>2022-06-27T19:04:11Z</time>
      </trkpt>
      <trkpt lat="43.50707" lon="-0.27489">
        <ele>231</ele>
        <time>2022-06-27T19:04:26Z</time>
      </trkpt>
      <trkpt lat="43.50584" lon="-0.27514">
        <ele>231</ele>
        <time>2022-06-27T19:04:49Z</time>
      </trkpt>
      <trkpt lat="43.50185" lon="-0.2753">
        <ele>230</ele>
        <time>2022-06-27T19:06:00Z</time>
      </trkpt>
      <trkpt lat="43.50122" lon="-0.27538">
        <ele>230</ele>
        <time>2022-06-27T19:06:11Z</time>
      </trkpt>
      <trkpt lat="43.50081" lon="-0.27557">
        <ele>229</ele>
        <time>2022-06-27T19:06:18Z</time>
      </trkpt>
      <trkpt lat="43.49972" lon="-0.27643">
        <ele>230</ele>
        <time>2022-06-27T19:06:41Z</time>
      </trkpt>
      <trkpt lat="43.49916" lon="-0.27676">
        <ele>231</ele>
        <time>2022-06-27T19:06:52Z</time>
      </trkpt>
      <trkpt lat="43.49823" lon="-0.27719">
        <ele>231</ele>
        <time>2022-06-27T19:07:09Z</time>
      </trkpt>
      <trkpt lat="43.49746" lon="-0.27744">
        <ele>232</ele>
        <time>2022-06-27T19:07:23Z</time>
      </trkpt>
      <trkpt lat="43.49665" lon="-0.27749">
        <ele>233</ele>
        <time>2022-06-27T19:07:38Z</time>
      </trkpt>
      <trkpt lat="43.4947" lon="-0.27714">
        <ele>234</ele>
        <time>2022-06-27T19:08:13Z</time>
      </trkpt>
      <trkpt lat="43.49406" lon="-0.27714">
        <ele>236</ele>
        <time>2022-06-27T19:08:24Z</time>
      </trkpt>
      <trkpt lat="43.49321" lon="-0.27723">
        <ele>236</ele>
        <time>2022-06-27T19:08:39Z</time>
      </trkpt>
      <trkpt lat="43.4876" lon="-0.27856">
        <ele>240</ele>
        <time>2022-06-27T19:10:20Z</time>
      </trkpt>
      <trkpt lat="43.48653" lon="-0.2785">
        <ele>239</ele>
        <time>2022-06-27T19:10:40Z</time>
      </trkpt>
      <trkpt lat="43.48618" lon="-0.27864">
        <ele>238</ele>
        <time>2022-06-27T19:10:46Z</time>
      </trkpt>
      <trkpt lat="43.48547" lon="-0.27929">
        <ele>238</ele>
        <time>2022-06-27T19:11:01Z</time>
      </trkpt>
      <trkpt lat="43.48496" lon="-0.27992">
        <ele>238</ele>
        <time>2022-06-27T19:11:13Z</time>
      </trkpt>
      <trkpt lat="43.48464" lon="-0.28045">
        <ele>240</ele>
        <time>2022-06-27T19:11:22Z</time>
      </trkpt>
      <trkpt lat="43.48441" lon="-0.28068">
        <ele>240</ele>
        <time>2022-06-27T19:11:27Z</time>
      </trkpt>
      <trkpt lat="43.48415" lon="-0.28075">
        <ele>241</ele>
        <time>2022-06-27T19:11:32Z</time>
      </trkpt>
      <trkpt lat="43.48254" lon="-0.2807">
        <ele>240</ele>
        <time>2022-06-27T19:12:01Z</time>
      </trkpt>
      <trkpt lat="43.48202" lon="-0.2805">
        <ele>240</ele>
        <time>2022-06-27T19:12:10Z</time>
      </trkpt>
      <trkpt lat="43.48162" lon="-0.28016">
        <ele>241</ele>
        <time>2022-06-27T19:12:19Z</time>
      </trkpt>
      <trkpt lat="43.48119" lon="-0.27966">
        <ele>241</ele>
        <time>2022-06-27T19:12:29Z</time>
      </trkpt>
      <trkpt lat="43.47958" lon="-0.27834">
        <ele>241</ele>
        <time>2022-06-27T19:13:02Z</time>
      </trkpt>
      <trkpt lat="43.47858" lon="-0.27731">
        <ele>242</ele>
        <time>2022-06-27T19:13:24Z</time>
      </trkpt>
      <trkpt lat="43.47748" lon="-0.27594">
        <ele>239</ele>
        <time>2022-06-27T19:13:51Z</time>
      </trkpt>
      <trkpt lat="43.47573" lon="-0.27343">
        <ele>244</ele>
        <time>2022-06-27T19:14:36Z</time>
      </trkpt>
      <trkpt lat="43.4732" lon="-0.27167">
        <ele>246</ele>
        <time>2022-06-27T19:15:26Z</time>
      </trkpt>
      <trkpt lat="43.47197" lon="-0.27044">
        <ele>247</ele>
        <time>2022-06-27T19:15:53Z</time>
      </trkpt>
      <trkpt lat="43.47053" lon="-0.26956">
        <ele>248</ele>
        <time>2022-06-27T19:16:21Z</time>
      </trkpt>
      <trkpt lat="43.46895" lon="-0.2691">
        <ele>249</ele>
        <time>2022-06-27T19:16:50Z</time>
      </trkpt>
      <trkpt lat="43.46834" lon="-0.26902">
        <ele>250</ele>
        <time>2022-06-27T19:17:01Z</time>
      </trkpt>
      <trkpt lat="43.4668" lon="-0.26914">
        <ele>249</ele>
        <time>2022-06-27T19:17:28Z</time>
      </trkpt>
      <trkpt lat="43.46633" lon="-0.26912">
        <ele>249</ele>
        <time>2022-06-27T19:17:36Z</time>
      </trkpt>
      <trkpt lat="43.46471" lon="-0.26884">
        <ele>251</ele>
        <time>2022-06-27T19:18:06Z</time>
      </trkpt>
      <trkpt lat="43.46364" lon="-0.26872">
        <ele>252</ele>
        <time>2022-06-27T19:18:25Z</time>
      </trkpt>
      <trkpt lat="43.46232" lon="-0.26873">
        <ele>252</ele>
        <time>2022-06-27T19:18:48Z</time>
      </trkpt>
      <trkpt lat="43.45899" lon="-0.26759">
        <ele>254</ele>
        <time>2022-06-27T19:19:49Z</time>
      </trkpt>
      <trkpt lat="43.45551" lon="-0.26592">
        <ele>256</ele>
        <time>2022-06-27T19:20:55Z</time>
      </trkpt>
      <trkpt lat="43.45445" lon="-0.26594">
        <ele>257</ele>
        <time>2022-06-27T19:21:14Z</time>
      </trkpt>
      <trkpt lat="43.45295" lon="-0.26606">
        <ele>255</ele>
        <time>2022-06-27T19:21:40Z</time>
      </trkpt>
      <trkpt lat="43.45189" lon="-0.26576">
        <ele>256</ele>
        <time>2022-06-27T19:22:00Z</time>
      </trkpt>
      <trkpt lat="43.45086" lon="-0.26566">
        <ele>257</ele>
        <time>2022-06-27T19:22:18Z</time>
      </trkpt>
      <trkpt lat="43.4492" lon="-0.26527">
        <ele>259</ele>
        <time>2022-06-27T19:22:48Z</time>
      </trkpt>
      <trkpt lat="43.44777" lon="-0.26502">
        <ele>260</ele>
        <time>2022-06-27T19:23:14Z</time>
      </trkpt>
      <trkpt lat="43.44589" lon="-0.2643">
        <ele>262</ele>
        <time>2022-06-27T19:23:48Z</time>
      </trkpt>
      <trkpt lat="43.44503" lon="-0.26448">
        <ele>261</ele>
        <time>2022-06-27T19:24:04Z</time>
      </trkpt>
      <trkpt lat="43.44449" lon="-0.26452">
        <ele>262</ele>
        <time>2022-06-27T19:24:13Z</time>
      </trkpt>
      <trkpt lat="43.4435" lon="-0.26448">
        <ele>263</ele>
        <time>2022-06-27T19:24:31Z</time>
      </trkpt>
      <trkpt lat="43.44225" lon="-0.26342">
        <ele>265</ele>
        <time>2022-06-27T19:24:57Z</time>
      </trkpt>
      <trkpt lat="43.44154" lon="-0.263">
        <ele>264</ele>
        <time>2022-06-27T19:25:11Z</time>
      </trkpt>
      <trkpt lat="43.44126" lon="-0.26287">
        <ele>265</ele>
        <time>2022-06-27T19:25:16Z</time>
      </trkpt>
      <trkpt lat="43.44051" lon="-0.26286">
        <ele>265</ele>
        <time>2022-06-27T19:25:29Z</time>
      </trkpt>
      <trkpt lat="43.44028" lon="-0.26273">
        <ele>266</ele>
        <time>2022-06-27T19:25:34Z</time>
      </trkpt>
      <trkpt lat="43.43911" lon="-0.26193">
        <ele>265</ele>
        <time>2022-06-27T19:25:57Z</time>
      </trkpt>
      <trkpt lat="43.43836" lon="-0.26134">
        <ele>265</ele>
        <time>2022-06-27T19:26:12Z</time>
      </trkpt>
      <trkpt lat="43.43721" lon="-0.26066">
        <ele>265</ele>
        <time>2022-06-27T19:26:35Z</time>
      </trkpt>
      <trkpt lat="43.43573" lon="-0.25901">
        <ele>267</ele>
        <time>2022-06-27T19:27:09Z</time>
      </trkpt>
      <trkpt lat="43.43502" lon="-0.25836">
        <ele>267</ele>
        <time>2022-06-27T19:27:24Z</time>
      </trkpt>
      <trkpt lat="43.43331" lon="-0.25717">
        <ele>268</ele>
        <time>2022-06-27T19:27:58Z</time>
      </trkpt>
      <trkpt lat="43.43209" lon="-0.25654">
        <ele>267</ele>
        <time>2022-06-27T19:28:21Z</time>
      </trkpt>
      <trkpt lat="43.43098" lon="-0.25576">
        <ele>268</ele>
        <time>2022-06-27T19:28:43Z</time>
      </trkpt>
      <trkpt lat="43.42962" lon="-0.2545">
        <ele>270</ele>
        <time>2022-06-27T19:29:12Z</time>
      </trkpt>
      <trkpt lat="43.42886" lon="-0.25393">
        <ele>271</ele>
        <time>2022-06-27T19:29:28Z</time>
      </trkpt>
      <trkpt lat="43.42805" lon="-0.2532">
        <ele>272</ele>
        <time>2022-06-27T19:29:45Z</time>
      </trkpt>
      <trkpt lat="43.42736" lon="-0.2524">
        <ele>271</ele>
        <time>2022-06-27T19:30:01Z</time>
      </trkpt>
      <trkpt lat="43.42689" lon="-0.25162">
        <ele>271</ele>
        <time>2022-06-27T19:30:14Z</time>
      </trkpt>
      <trkpt lat="43.42669" lon="-0.25142">
        <ele>271</ele>
        <time>2022-06-27T19:30:19Z</time>
      </trkpt>
      <trkpt lat="43.42509" lon="-0.2501">
        <ele>272</ele>
        <time>2022-06-27T19:30:52Z</time>
      </trkpt>
      <trkpt lat="43.4234" lon="-0.24906">
        <ele>272</ele>
        <time>2022-06-27T19:31:25Z</time>
      </trkpt>
      <trkpt lat="43.4221" lon="-0.24771">
        <ele>272</ele>
        <time>2022-06-27T19:31:54Z</time>
      </trkpt>
      <trkpt lat="43.42101" lon="-0.24677">
        <ele>273</ele>
        <time>2022-06-27T19:32:17Z</time>
      </trkpt>
      <trkpt lat="43.42073" lon="-0.2462">
        <ele>274</ele>
        <time>2022-06-27T19:32:25Z</time>
      </trkpt>
      <trkpt lat="43.41974" lon="-0.24467">
        <ele>275</ele>
        <time>2022-06-27T19:32:52Z</time>
      </trkpt>
      <trkpt lat="43.41873" lon="-0.24328">
        <ele>276</ele>
        <time>2022-06-27T19:33:17Z</time>
      </trkpt>
      <trkpt lat="43.41859" lon="-0.24326">
        <ele>276</ele>
        <time>2022-06-27T19:33:20Z</time>
      </trkpt>
      <trkpt lat="43.41824" lon="-0.24343">
        <ele>277</ele>
        <time>2022-06-27T19:33:26Z</time>
      </trkpt>
      <trkpt lat="43.41764" lon="-0.24428">
        <ele>276</ele>
        <time>2022-06-27T19:33:42Z</time>
      </trkpt>
      <trkpt lat="43.41746" lon="-0.2444">
        <ele>276</ele>
        <time>2022-06-27T19:33:45Z</time>
      </trkpt>
      <trkpt lat="43.4173" lon="-0.24441">
        <ele>275</ele>
        <time>2022-06-27T19:33:48Z</time>
      </trkpt>
      <trkpt lat="43.41713" lon="-0.2443">
        <ele>276</ele>
        <time>2022-06-27T19:33:52Z</time>
      </trkpt>
      <trkpt lat="43.41638" lon="-0.2434">
        <ele>275</ele>
        <time>2022-06-27T19:34:09Z</time>
      </trkpt>
      <trkpt lat="43.41588" lon="-0.24292">
        <ele>274</ele>
        <time>2022-06-27T19:34:20Z</time>
      </trkpt>
      <trkpt lat="43.4139" lon="-0.23868">
        <ele>276</ele>
        <time>2022-06-27T19:35:25Z</time>
      </trkpt>
      <trkpt lat="43.41312" lon="-0.23717">
        <ele>276</ele>
        <time>2022-06-27T19:35:49Z</time>
      </trkpt>
      <trkpt lat="43.41228" lon="-0.2352">
        <ele>278</ele>
        <time>2022-06-27T19:36:19Z</time>
      </trkpt>
      <trkpt lat="43.41216" lon="-0.23478">
        <ele>278</ele>
        <time>2022-06-27T19:36:25Z</time>
      </trkpt>
      <trkpt lat="43.41194" lon="-0.23279">
        <ele>281</ele>
        <time>2022-06-27T19:36:51Z</time>
      </trkpt>
      <trkpt lat="43.41196" lon="-0.23235">
        <ele>281</ele>
        <time>2022-06-27T19:36:56Z</time>
      </trkpt>
      <trkpt lat="43.41222" lon="-0.23126">
        <ele>282</ele>
        <time>2022-06-27T19:37:11Z</time>
      </trkpt>
      <trkpt lat="43.41218" lon="-0.23084">
        <ele>282</ele>
        <time>2022-06-27T19:37:17Z</time>
      </trkpt>
      <trkpt lat="43.41205" lon="-0.2306">
        <ele>282</ele>
        <time>2022-06-27T19:37:20Z</time>
      </trkpt>
      <trkpt lat="43.41151" lon="-0.22995">
        <ele>283</ele>
        <time>2022-06-27T19:37:33Z</time>
      </trkpt>
      <trkpt lat="43.40947" lon="-0.22859">
        <ele>282</ele>
        <time>2022-06-27T19:38:14Z</time>
      </trkpt>
      <trkpt lat="43.40855" lon="-0.22825">
        <ele>281</ele>
        <time>2022-06-27T19:38:30Z</time>
      </trkpt>
      <trkpt lat="43.40776" lon="-0.22819">
        <ele>280</ele>
        <time>2022-06-27T19:38:45Z</time>
      </trkpt>
      <trkpt lat="43.40726" lon="-0.22806">
        <ele>278</ele>
        <time>2022-06-27T19:38:54Z</time>
      </trkpt>
      <trkpt lat="43.40713" lon="-0.22795">
        <ele>278</ele>
        <time>2022-06-27T19:38:56Z</time>
      </trkpt>
      <trkpt lat="43.40487" lon="-0.22474">
        <ele>286</ele>
        <time>2022-06-27T19:39:54Z</time>
      </trkpt>
      <trkpt lat="43.40485" lon="-0.22433">
        <ele>286</ele>
        <time>2022-06-27T19:39:59Z</time>
      </trkpt>
      <trkpt lat="43.40558" lon="-0.22245">
        <ele>286</ele>
        <time>2022-06-27T19:40:27Z</time>
      </trkpt>
      <trkpt lat="43.40561" lon="-0.22202">
        <ele>286</ele>
        <time>2022-06-27T19:40:33Z</time>
      </trkpt>
      <trkpt lat="43.40552" lon="-0.22178">
        <ele>286</ele>
        <time>2022-06-27T19:40:36Z</time>
      </trkpt>
      <trkpt lat="43.40373" lon="-0.21896">
        <ele>287</ele>
        <time>2022-06-27T19:41:24Z</time>
      </trkpt>
      <trkpt lat="43.40005" lon="-0.21419">
        <ele>294</ele>
        <time>2022-06-27T19:42:54Z</time>
      </trkpt>
      <trkpt lat="43.39914" lon="-0.2136">
        <ele>299</ele>
        <time>2022-06-27T19:43:12Z</time>
      </trkpt>
      <trkpt lat="43.39839" lon="-0.2134">
        <ele>303</ele>
        <time>2022-06-27T19:43:26Z</time>
      </trkpt>
      <trkpt lat="43.39806" lon="-0.21321">
        <ele>304</ele>
        <time>2022-06-27T19:43:32Z</time>
      </trkpt>
      <trkpt lat="43.39672" lon="-0.21218">
        <ele>307</ele>
        <time>2022-06-27T19:44:00Z</time>
      </trkpt>
      <trkpt lat="43.39581" lon="-0.21166">
        <ele>308</ele>
        <time>2022-06-27T19:44:17Z</time>
      </trkpt>
      <trkpt lat="43.39549" lon="-0.21141">
        <ele>309</ele>
        <time>2022-06-27T19:44:24Z</time>
      </trkpt>
      <trkpt lat="43.39528" lon="-0.21114">
        <ele>311</ele>
        <time>2022-06-27T19:44:29Z</time>
      </trkpt>
      <trkpt lat="43.39401" lon="-0.20887">
        <ele>318</ele>
        <time>2022-06-27T19:45:06Z</time>
      </trkpt>
      <trkpt lat="43.39208" lon="-0.20656">
        <ele>323</ele>
        <time>2022-06-27T19:45:51Z</time>
      </trkpt>
      <trkpt lat="43.39121" lon="-0.2053">
        <ele>324</ele>
        <time>2022-06-27T19:46:14Z</time>
      </trkpt>
      <trkpt lat="43.3908" lon="-0.2045">
        <ele>325</ele>
        <time>2022-06-27T19:46:26Z</time>
      </trkpt>
      <trkpt lat="43.38866" lon="-0.20177">
        <ele>329</ele>
        <time>2022-06-27T19:47:18Z</time>
      </trkpt>
      <trkpt lat="43.38818" lon="-0.20085">
        <ele>330</ele>
        <time>2022-06-27T19:47:33Z</time>
      </trkpt>
      <trkpt lat="43.38724" lon="-0.19976">
        <ele>333</ele>
        <time>2022-06-27T19:47:55Z</time>
      </trkpt>
      <trkpt lat="43.38688" lon="-0.19954">
        <ele>334</ele>
        <time>2022-06-27T19:48:02Z</time>
      </trkpt>
      <trkpt lat="43.38627" lon="-0.19902">
        <ele>333</ele>
        <time>2022-06-27T19:48:15Z</time>
      </trkpt>
      <trkpt lat="43.3857" lon="-0.19824">
        <ele>333</ele>
        <time>2022-06-27T19:48:29Z</time>
      </trkpt>
      <trkpt lat="43.38549" lon="-0.19805">
        <ele>332</ele>
        <time>2022-06-27T19:48:33Z</time>
      </trkpt>
      <trkpt lat="43.38485" lon="-0.19765">
        <ele>332</ele>
        <time>2022-06-27T19:48:46Z</time>
      </trkpt>
      <trkpt lat="43.38465" lon="-0.19738">
        <ele>333</ele>
        <time>2022-06-27T19:48:51Z</time>
      </trkpt>
      <trkpt lat="43.38418" lon="-0.1961">
        <ele>334</ele>
        <time>2022-06-27T19:49:09Z</time>
      </trkpt>
      <trkpt lat="43.38256" lon="-0.19388">
        <ele>335</ele>
        <time>2022-06-27T19:49:50Z</time>
      </trkpt>
      <trkpt lat="43.38188" lon="-0.1925">
        <ele>335</ele>
        <time>2022-06-27T19:50:12Z</time>
      </trkpt>
      <trkpt lat="43.38162" lon="-0.19213">
        <ele>336</ele>
        <time>2022-06-27T19:50:18Z</time>
      </trkpt>
      <trkpt lat="43.3809" lon="-0.19133">
        <ele>337</ele>
        <time>2022-06-27T19:50:35Z</time>
      </trkpt>
      <trkpt lat="43.38024" lon="-0.1909">
        <ele>335</ele>
        <time>2022-06-27T19:50:48Z</time>
      </trkpt>
      <trkpt lat="43.37953" lon="-0.19026">
        <ele>336</ele>
        <time>2022-06-27T19:51:03Z</time>
      </trkpt>
      <trkpt lat="43.37859" lon="-0.18958">
        <ele>337</ele>
        <time>2022-06-27T19:51:22Z</time>
      </trkpt>
      <trkpt lat="43.3773" lon="-0.18906">
        <ele>338</ele>
        <time>2022-06-27T19:51:46Z</time>
      </trkpt>
      <trkpt lat="43.37575" lon="-0.1888">
        <ele>338</ele>
        <time>2022-06-27T19:52:14Z</time>
      </trkpt>
      <trkpt lat="43.3747" lon="-0.18877">
        <ele>339</ele>
        <time>2022-06-27T19:52:32Z</time>
      </trkpt>
      <trkpt lat="43.37314" lon="-0.18853">
        <ele>341</ele>
        <time>2022-06-27T19:53:00Z</time>
      </trkpt>
      <trkpt lat="43.37115" lon="-0.18837">
        <ele>338</ele>
        <time>2022-06-27T19:53:36Z</time>
      </trkpt>
      <trkpt lat="43.37085" lon="-0.18823">
        <ele>339</ele>
        <time>2022-06-27T19:53:41Z</time>
      </trkpt>
      <trkpt lat="43.37009" lon="-0.18772">
        <ele>340</ele>
        <time>2022-06-27T19:53:56Z</time>
      </trkpt>
      <trkpt lat="43.36884" lon="-0.18733">
        <ele>338</ele>
        <time>2022-06-27T19:54:19Z</time>
      </trkpt>
      <trkpt lat="43.36772" lon="-0.18666">
        <ele>336</ele>
        <time>2022-06-27T19:54:41Z</time>
      </trkpt>
      <trkpt lat="43.36618" lon="-0.18611">
        <ele>337</ele>
        <time>2022-06-27T19:55:09Z</time>
      </trkpt>
      <trkpt lat="43.36596" lon="-0.18591">
        <ele>336</ele>
        <time>2022-06-27T19:55:14Z</time>
      </trkpt>
      <trkpt lat="43.36565" lon="-0.18516">
        <ele>337</ele>
        <time>2022-06-27T19:55:25Z</time>
      </trkpt>
      <trkpt lat="43.36503" lon="-0.18433">
        <ele>341</ele>
        <time>2022-06-27T19:55:40Z</time>
      </trkpt>
      <trkpt lat="43.36269" lon="-0.18256">
        <ele>342</ele>
        <time>2022-06-27T19:56:28Z</time>
      </trkpt>
      <trkpt lat="43.36214" lon="-0.1822">
        <ele>342</ele>
        <time>2022-06-27T19:56:39Z</time>
      </trkpt>
      <trkpt lat="43.36137" lon="-0.18193">
        <ele>343</ele>
        <time>2022-06-27T19:56:53Z</time>
      </trkpt>
      <trkpt lat="43.36071" lon="-0.18139">
        <ele>343</ele>
        <time>2022-06-27T19:57:07Z</time>
      </trkpt>
      <trkpt lat="43.35811" lon="-0.17825">
        <ele>348</ele>
        <time>2022-06-27T19:58:08Z</time>
      </trkpt>
      <trkpt lat="43.3573" lon="-0.17736">
        <ele>351</ele>
        <time>2022-06-27T19:58:27Z</time>
      </trkpt>
      <trkpt lat="43.35709" lon="-0.1772">
        <ele>352</ele>
        <time>2022-06-27T19:58:31Z</time>
      </trkpt>
      <trkpt lat="43.35528" lon="-0.17674">
        <ele>350</ele>
        <time>2022-06-27T19:59:04Z</time>
      </trkpt>
      <trkpt lat="43.35363" lon="-0.17605">
        <ele>352</ele>
        <time>2022-06-27T19:59:34Z</time>
      </trkpt>
      <trkpt lat="43.35336" lon="-0.176">
        <ele>352</ele>
        <time>2022-06-27T19:59:39Z</time>
      </trkpt>
      <trkpt lat="43.35182" lon="-0.17602">
        <ele>352</ele>
        <time>2022-06-27T20:00:06Z</time>
      </trkpt>
      <trkpt lat="43.34974" lon="-0.17634">
        <ele>354</ele>
        <time>2022-06-27T20:00:44Z</time>
      </trkpt>
      <trkpt lat="43.34951" lon="-0.17632">
        <ele>354</ele>
        <time>2022-06-27T20:00:48Z</time>
      </trkpt>
      <trkpt lat="43.34931" lon="-0.17624">
        <ele>354</ele>
        <time>2022-06-27T20:00:52Z</time>
      </trkpt>
      <trkpt lat="43.34861" lon="-0.17563">
        <ele>354</ele>
        <time>2022-06-27T20:01:06Z</time>
      </trkpt>
      <trkpt lat="43.34818" lon="-0.17551">
        <ele>353</ele>
        <time>2022-06-27T20:01:14Z</time>
      </trkpt>
      <trkpt lat="43.34761" lon="-0.17554">
        <ele>351</ele>
        <time>2022-06-27T20:01:24Z</time>
      </trkpt>
      <trkpt lat="43.34733" lon="-0.17542">
        <ele>350</ele>
        <time>2022-06-27T20:01:29Z</time>
      </trkpt>
      <trkpt lat="43.34701" lon="-0.17514">
        <ele>348</ele>
        <time>2022-06-27T20:01:36Z</time>
      </trkpt>
      <trkpt lat="43.34637" lon="-0.17438">
        <ele>348</ele>
        <time>2022-06-27T20:01:51Z</time>
      </trkpt>
      <trkpt lat="43.3461" lon="-0.17435">
        <ele>349</ele>
        <time>2022-06-27T20:01:56Z</time>
      </trkpt>
      <trkpt lat="43.34551" lon="-0.17452">
        <ele>352</ele>
        <time>2022-06-27T20:02:07Z</time>
      </trkpt>
      <trkpt lat="43.3451" lon="-0.17454">
        <ele>354</ele>
        <time>2022-06-27T20:02:14Z</time>
      </trkpt>
      <trkpt lat="43.34293" lon="-0.17389">
        <ele>350</ele>
        <time>2022-06-27T20:02:54Z</time>
      </trkpt>
      <trkpt lat="43.34252" lon="-0.17385">
        <ele>349</ele>
        <time>2022-06-27T20:03:01Z</time>
      </trkpt>
      <trkpt lat="43.34194" lon="-0.17359">
        <ele>350</ele>
        <time>2022-06-27T20:03:12Z</time>
      </trkpt>
      <trkpt lat="43.34151" lon="-0.17291">
        <ele>353</ele>
        <time>2022-06-27T20:03:23Z</time>
      </trkpt>
      <trkpt lat="43.34131" lon="-0.17282">
        <ele>354</ele>
        <time>2022-06-27T20:03:27Z</time>
      </trkpt>
      <trkpt lat="43.3408" lon="-0.17301">
        <ele>356</ele>
        <time>2022-06-27T20:03:37Z</time>
      </trkpt>
      <trkpt lat="43.34016" lon="-0.17346">
        <ele>357</ele>
        <time>2022-06-27T20:03:49Z</time>
      </trkpt>
      <trkpt lat="43.33996" lon="-0.17342">
        <ele>358</ele>
        <time>2022-06-27T20:03:53Z</time>
      </trkpt>
      <trkpt lat="43.33953" lon="-0.17317">
        <ele>359</ele>
        <time>2022-06-27T20:04:01Z</time>
      </trkpt>
      <trkpt lat="43.33897" lon="-0.17323">
        <ele>358</ele>
        <time>2022-06-27T20:04:11Z</time>
      </trkpt>
      <trkpt lat="43.33751" lon="-0.17247">
        <ele>355</ele>
        <time>2022-06-27T20:04:39Z</time>
      </trkpt>
      <trkpt lat="43.33681" lon="-0.17173">
        <ele>352</ele>
        <time>2022-06-27T20:04:55Z</time>
      </trkpt>
      <trkpt lat="43.33597" lon="-0.17109">
        <ele>354</ele>
        <time>2022-06-27T20:05:12Z</time>
      </trkpt>
      <trkpt lat="43.33337" lon="-0.17043">
        <ele>354</ele>
        <time>2022-06-27T20:05:59Z</time>
      </trkpt>
      <trkpt lat="43.33152" lon="-0.17013">
        <ele>350</ele>
        <time>2022-06-27T20:06:32Z</time>
      </trkpt>
      <trkpt lat="43.33105" lon="-0.16991">
        <ele>348</ele>
        <time>2022-06-27T20:06:41Z</time>
      </trkpt>
      <trkpt lat="43.32891" lon="-0.16765">
        <ele>356</ele>
        <time>2022-06-27T20:07:29Z</time>
      </trkpt>
      <trkpt lat="43.32339" lon="-0.16466">
        <ele>364</ele>
        <time>2022-06-27T20:09:14Z</time>
      </trkpt>
      <trkpt lat="43.32115" lon="-0.16382">
        <ele>363</ele>
        <time>2022-06-27T20:09:56Z</time>
      </trkpt>
      <trkpt lat="43.3206" lon="-0.16342">
        <ele>365</ele>
        <time>2022-06-27T20:10:07Z</time>
      </trkpt>
      <trkpt lat="43.31985" lon="-0.16267">
        <ele>365</ele>
        <time>2022-06-27T20:10:23Z</time>
      </trkpt>
      <trkpt lat="43.31632" lon="-0.15883">
        <ele>377</ele>
        <time>2022-06-27T20:11:43Z</time>
      </trkpt>
      <trkpt lat="43.31556" lon="-0.15827">
        <ele>376</ele>
        <time>2022-06-27T20:11:59Z</time>
      </trkpt>
      <trkpt lat="43.31474" lon="-0.15786">
        <ele>376</ele>
        <time>2022-06-27T20:12:14Z</time>
      </trkpt>
      <trkpt lat="43.31457" lon="-0.15757">
        <ele>376</ele>
        <time>2022-06-27T20:12:19Z</time>
      </trkpt>
      <trkpt lat="43.31422" lon="-0.15664">
        <ele>380</ele>
        <time>2022-06-27T20:12:33Z</time>
      </trkpt>
      <trkpt lat="43.31399" lon="-0.15642">
        <ele>379</ele>
        <time>2022-06-27T20:12:38Z</time>
      </trkpt>
      <trkpt lat="43.3112" lon="-0.15545">
        <ele>377</ele>
        <time>2022-06-27T20:13:29Z</time>
      </trkpt>
      <trkpt lat="43.31013" lon="-0.1552">
        <ele>377</ele>
        <time>2022-06-27T20:13:48Z</time>
      </trkpt>
      <trkpt lat="43.31001" lon="-0.15539">
        <ele>377</ele>
        <time>2022-06-27T20:13:51Z</time>
      </trkpt>
      <trkpt lat="43.30938" lon="-0.15565">
        <ele>376</ele>
        <time>2022-06-27T20:14:03Z</time>
      </trkpt>
      <trkpt lat="43.30892" lon="-0.15577">
        <ele>375</ele>
        <time>2022-06-27T20:14:11Z</time>
      </trkpt>
      <trkpt lat="43.30822" lon="-0.1561">
        <ele>372</ele>
        <time>2022-06-27T20:14:25Z</time>
      </trkpt>
      <trkpt lat="43.30784" lon="-0.15654">
        <ele>368</ele>
        <time>2022-06-27T20:14:33Z</time>
      </trkpt>
      <trkpt lat="43.30755" lon="-0.15669">
        <ele>366</ele>
        <time>2022-06-27T20:14:39Z</time>
      </trkpt>
      <trkpt lat="43.30621" lon="-0.15652">
        <ele>364</ele>
        <time>2022-06-27T20:15:03Z</time>
      </trkpt>
      <trkpt lat="43.30599" lon="-0.15652">
        <ele>363</ele>
        <time>2022-06-27T20:15:07Z</time>
      </trkpt>
      <trkpt lat="43.30571" lon="-0.15661">
        <ele>362</ele>
        <time>2022-06-27T20:15:12Z</time>
      </trkpt>
      <trkpt lat="43.30536" lon="-0.1566">
        <ele>362</ele>
        <time>2022-06-27T20:15:18Z</time>
      </trkpt>
      <trkpt lat="43.30466" lon="-0.15625">
        <ele>362</ele>
        <time>2022-06-27T20:15:31Z</time>
      </trkpt>
      <trkpt lat="43.30448" lon="-0.15633">
        <ele>361</ele>
        <time>2022-06-27T20:15:35Z</time>
      </trkpt>
      <trkpt lat="43.3043" lon="-0.15671">
        <ele>358</ele>
        <time>2022-06-27T20:15:41Z</time>
      </trkpt>
      <trkpt lat="43.3041" lon="-0.15687">
        <ele>357</ele>
        <time>2022-06-27T20:15:45Z</time>
      </trkpt>
      <trkpt lat="43.30353" lon="-0.1567">
        <ele>357</ele>
        <time>2022-06-27T20:15:55Z</time>
      </trkpt>
      <trkpt lat="43.30297" lon="-0.15673">
        <ele>355</ele>
        <time>2022-06-27T20:16:05Z</time>
      </trkpt>
      <trkpt lat="43.3027" lon="-0.1568">
        <ele>354</ele>
        <time>2022-06-27T20:16:10Z</time>
      </trkpt>
      <trkpt lat="43.30161" lon="-0.1573">
        <ele>345</ele>
        <time>2022-06-27T20:16:31Z</time>
      </trkpt>
      <trkpt lat="43.30147" lon="-0.15726">
        <ele>344</ele>
        <time>2022-06-27T20:16:33Z</time>
      </trkpt>
      <trkpt lat="43.30125" lon="-0.1567">
        <ele>347</ele>
        <time>2022-06-27T20:16:41Z</time>
      </trkpt>
      <trkpt lat="43.30109" lon="-0.15668">
        <ele>346</ele>
        <time>2022-06-27T20:16:44Z</time>
      </trkpt>
      <trkpt lat="43.30058" lon="-0.15707">
        <ele>340</ele>
        <time>2022-06-27T20:16:55Z</time>
      </trkpt>
      <trkpt lat="43.30035" lon="-0.15736">
        <ele>337</ele>
        <time>2022-06-27T20:17:00Z</time>
      </trkpt>
      <trkpt lat="43.30018" lon="-0.15739">
        <ele>336</ele>
        <time>2022-06-27T20:17:03Z</time>
      </trkpt>
      <trkpt lat="43.30013" lon="-0.15747">
        <ele>335</ele>
        <time>2022-06-27T20:17:05Z</time>
      </trkpt>
      <trkpt lat="43.29962" lon="-0.15776">
        <ele>336</ele>
        <time>2022-06-27T20:17:14Z</time>
      </trkpt>
      <trkpt lat="43.29934" lon="-0.15805">
        <ele>336</ele>
        <time>2022-06-27T20:17:21Z</time>
      </trkpt>
      <trkpt lat="43.29853" lon="-0.15855">
        <ele>334</ele>
        <time>2022-06-27T20:17:36Z</time>
      </trkpt>
      <trkpt lat="43.29821" lon="-0.15849">
        <ele>334</ele>
        <time>2022-06-27T20:17:42Z</time>
      </trkpt>
      <trkpt lat="43.29767" lon="-0.15802">
        <ele>335</ele>
        <time>2022-06-27T20:17:53Z</time>
      </trkpt>
      <trkpt lat="43.29733" lon="-0.15788">
        <ele>336</ele>
        <time>2022-06-27T20:18:00Z</time>
      </trkpt>
      <trkpt lat="43.29682" lon="-0.1579">
        <ele>339</ele>
        <time>2022-06-27T20:18:09Z</time>
      </trkpt>
      <trkpt lat="43.29656" lon="-0.15807">
        <ele>341</ele>
        <time>2022-06-27T20:18:14Z</time>
      </trkpt>
      <trkpt lat="43.29619" lon="-0.15846">
        <ele>346</ele>
        <time>2022-06-27T20:18:22Z</time>
      </trkpt>
      <trkpt lat="43.29597" lon="-0.15857">
        <ele>349</ele>
        <time>2022-06-27T20:18:26Z</time>
      </trkpt>
      <trkpt lat="43.29489" lon="-0.15869">
        <ele>355</ele>
        <time>2022-06-27T20:18:46Z</time>
      </trkpt>
      <trkpt lat="43.29426" lon="-0.15907">
        <ele>360</ele>
        <time>2022-06-27T20:18:58Z</time>
      </trkpt>
      <trkpt lat="43.29345" lon="-0.15932">
        <ele>361</ele>
        <time>2022-06-27T20:19:13Z</time>
      </trkpt>
      <trkpt lat="43.29243" lon="-0.15975">
        <ele>364</ele>
        <time>2022-06-27T20:19:32Z</time>
      </trkpt>
      <trkpt lat="43.29058" lon="-0.16012">
        <ele>364</ele>
        <time>2022-06-27T20:20:05Z</time>
      </trkpt>
      <trkpt lat="43.28979" lon="-0.15989">
        <ele>365</ele>
        <time>2022-06-27T20:20:19Z</time>
      </trkpt>
      <trkpt lat="43.2896" lon="-0.15993">
        <ele>365</ele>
        <time>2022-06-27T20:20:23Z</time>
      </trkpt>
      <trkpt lat="43.28919" lon="-0.16019">
        <ele>365</ele>
        <time>2022-06-27T20:20:31Z</time>
      </trkpt>
      <trkpt lat="43.28861" lon="-0.16078">
        <ele>367</ele>
        <time>2022-06-27T20:20:44Z</time>
      </trkpt>
      <trkpt lat="43.28839" lon="-0.16117">
        <ele>367</ele>
        <time>2022-06-27T20:20:50Z</time>
      </trkpt>
      <trkpt lat="43.28826" lon="-0.16344">
        <ele>360</ele>
        <time>2022-06-27T20:21:20Z</time>
      </trkpt>
      <trkpt lat="43.28815" lon="-0.16363">
        <ele>359</ele>
        <time>2022-06-27T20:21:23Z</time>
      </trkpt>
      <trkpt lat="43.28737" lon="-0.16436">
        <ele>359</ele>
        <time>2022-06-27T20:21:39Z</time>
      </trkpt>
      <trkpt lat="43.28692" lon="-0.16518">
        <ele>362</ele>
        <time>2022-06-27T20:21:53Z</time>
      </trkpt>
      <trkpt lat="43.28592" lon="-0.16772">
        <ele>362</ele>
        <time>2022-06-27T20:22:30Z</time>
      </trkpt>
      <trkpt lat="43.28183" lon="-0.17693">
        <ele>367</ele>
        <time>2022-06-27T20:24:50Z</time>
      </trkpt>
      <trkpt lat="43.28176" lon="-0.17761">
        <ele>368</ele>
        <time>2022-06-27T20:24:59Z</time>
      </trkpt>
      <trkpt lat="43.28164" lon="-0.17789">
        <ele>368</ele>
        <time>2022-06-27T20:25:03Z</time>
      </trkpt>
      <trkpt lat="43.27927" lon="-0.17952">
        <ele>366</ele>
        <time>2022-06-27T20:25:50Z</time>
      </trkpt>
      <trkpt lat="43.27795" lon="-0.18031">
        <ele>364</ele>
        <time>2022-06-27T20:26:16Z</time>
      </trkpt>
      <trkpt lat="43.27717" lon="-0.18154">
        <ele>367</ele>
        <time>2022-06-27T20:26:37Z</time>
      </trkpt>
      <trkpt lat="43.27654" lon="-0.18288">
        <ele>368</ele>
        <time>2022-06-27T20:26:58Z</time>
      </trkpt>
      <trkpt lat="43.27624" lon="-0.18278">
        <ele>368</ele>
        <time>2022-06-27T20:27:03Z</time>
      </trkpt>
      <trkpt lat="43.2757" lon="-0.18245">
        <ele>369</ele>
        <time>2022-06-27T20:27:14Z</time>
      </trkpt>
      <trkpt lat="43.27511" lon="-0.18238">
        <ele>371</ele>
        <time>2022-06-27T20:27:24Z</time>
      </trkpt>
      <trkpt lat="43.27467" lon="-0.18217">
        <ele>370</ele>
        <time>2022-06-27T20:27:32Z</time>
      </trkpt>
      <trkpt lat="43.27451" lon="-0.18237">
        <ele>370</ele>
        <time>2022-06-27T20:27:36Z</time>
      </trkpt>
      <trkpt lat="43.27412" lon="-0.18318">
        <ele>370</ele>
        <time>2022-06-27T20:27:49Z</time>
      </trkpt>
      <trkpt lat="43.27353" lon="-0.18412">
        <ele>367</ele>
        <time>2022-06-27T20:28:05Z</time>
      </trkpt>
      <trkpt lat="43.27345" lon="-0.18437">
        <ele>365</ele>
        <time>2022-06-27T20:28:08Z</time>
      </trkpt>
      <trkpt lat="43.27346" lon="-0.18458">
        <ele>363</ele>
        <time>2022-06-27T20:28:11Z</time>
      </trkpt>
      <trkpt lat="43.27368" lon="-0.18525">
        <ele>360</ele>
        <time>2022-06-27T20:28:21Z</time>
      </trkpt>
      <trkpt lat="43.27383" lon="-0.18611">
        <ele>356</ele>
        <time>2022-06-27T20:28:32Z</time>
      </trkpt>
      <trkpt lat="43.27401" lon="-0.18656">
        <ele>354</ele>
        <time>2022-06-27T20:28:39Z</time>
      </trkpt>
      <trkpt lat="43.27459" lon="-0.18747">
        <ele>352</ele>
        <time>2022-06-27T20:28:55Z</time>
      </trkpt>
      <trkpt lat="43.27464" lon="-0.18778">
        <ele>350</ele>
        <time>2022-06-27T20:28:59Z</time>
      </trkpt>
      <trkpt lat="43.27454" lon="-0.188">
        <ele>346</ele>
        <time>2022-06-27T20:29:02Z</time>
      </trkpt>
      <trkpt lat="43.27436" lon="-0.18805">
        <ele>343</ele>
        <time>2022-06-27T20:29:05Z</time>
      </trkpt>
      <trkpt lat="43.27419" lon="-0.188">
        <ele>342</ele>
        <time>2022-06-27T20:29:08Z</time>
      </trkpt>
      <trkpt lat="43.27329" lon="-0.18692">
        <ele>344</ele>
        <time>2022-06-27T20:29:30Z</time>
      </trkpt>
      <trkpt lat="43.27213" lon="-0.18647">
        <ele>333</ele>
        <time>2022-06-27T20:29:51Z</time>
      </trkpt>
      <trkpt lat="43.2707" lon="-0.1856">
        <ele>324</ele>
        <time>2022-06-27T20:30:19Z</time>
      </trkpt>
      <trkpt lat="43.27041" lon="-0.18538">
        <ele>323</ele>
        <time>2022-06-27T20:30:25Z</time>
      </trkpt>
      <trkpt lat="43.26982" lon="-0.18473">
        <ele>322</ele>
        <time>2022-06-27T20:30:38Z</time>
      </trkpt>
      <trkpt lat="43.26877" lon="-0.18448">
        <ele>310</ele>
        <time>2022-06-27T20:30:57Z</time>
      </trkpt>
      <trkpt lat="43.26849" lon="-0.18449">
        <ele>306</ele>
        <time>2022-06-27T20:31:02Z</time>
      </trkpt>
      <trkpt lat="43.2682" lon="-0.18462">
        <ele>303</ele>
        <time>2022-06-27T20:31:08Z</time>
      </trkpt>
      <trkpt lat="43.26807" lon="-0.18475">
        <ele>302</ele>
        <time>2022-06-27T20:31:10Z</time>
      </trkpt>
      <trkpt lat="43.26694" lon="-0.18665">
        <ele>297</ele>
        <time>2022-06-27T20:31:42Z</time>
      </trkpt>
      <trkpt lat="43.26631" lon="-0.18744">
        <ele>298</ele>
        <time>2022-06-27T20:31:57Z</time>
      </trkpt>
      <trkpt lat="43.26605" lon="-0.18799">
        <ele>299</ele>
        <time>2022-06-27T20:32:06Z</time>
      </trkpt>
      <trkpt lat="43.26626" lon="-0.18882">
        <ele>299</ele>
        <time>2022-06-27T20:32:17Z</time>
      </trkpt>
      <trkpt lat="43.26479" lon="-0.18934">
        <ele>298</ele>
        <time>2022-06-27T20:32:44Z</time>
      </trkpt>
      <trkpt lat="43.26461" lon="-0.18932">
        <ele>298</ele>
        <time>2022-06-27T20:32:48Z</time>
      </trkpt>
      <trkpt lat="43.26441" lon="-0.18944">
        <ele>297</ele>
        <time>2022-06-27T20:32:51Z</time>
      </trkpt>
      <trkpt lat="43.26424" lon="-0.18946">
        <ele>297</ele>
        <time>2022-06-27T20:32:54Z</time>
      </trkpt>
      <trkpt lat="43.2641" lon="-0.18931">
        <ele>296</ele>
        <time>2022-06-27T20:32:58Z</time>
      </trkpt>
      <trkpt lat="43.26369" lon="-0.18858">
        <ele>294</ele>
        <time>2022-06-27T20:33:10Z</time>
      </trkpt>
      <trkpt lat="43.26356" lon="-0.18845">
        <ele>294</ele>
        <time>2022-06-27T20:33:12Z</time>
      </trkpt>
      <trkpt lat="43.26335" lon="-0.18846">
        <ele>292</ele>
        <time>2022-06-27T20:33:16Z</time>
      </trkpt>
      <trkpt lat="43.26105" lon="-0.19051">
        <ele>283</ele>
        <time>2022-06-27T20:34:05Z</time>
      </trkpt>
      <trkpt lat="43.26089" lon="-0.19046">
        <ele>283</ele>
        <time>2022-06-27T20:34:08Z</time>
      </trkpt>
      <trkpt lat="43.26065" lon="-0.19023">
        <ele>282</ele>
        <time>2022-06-27T20:34:13Z</time>
      </trkpt>
      <trkpt lat="43.26029" lon="-0.1897">
        <ele>283</ele>
        <time>2022-06-27T20:34:22Z</time>
      </trkpt>
      <trkpt lat="43.25953" lon="-0.18813">
        <ele>284</ele>
        <time>2022-06-27T20:34:47Z</time>
      </trkpt>
      <trkpt lat="43.2587" lon="-0.1871">
        <ele>285</ele>
        <time>2022-06-27T20:35:07Z</time>
      </trkpt>
      <trkpt lat="43.25784" lon="-0.1862">
        <ele>286</ele>
        <time>2022-06-27T20:35:26Z</time>
      </trkpt>
      <trkpt lat="43.25733" lon="-0.18581">
        <ele>286</ele>
        <time>2022-06-27T20:35:36Z</time>
      </trkpt>
      <trkpt lat="43.25591" lon="-0.18342">
        <ele>287</ele>
        <time>2022-06-27T20:36:16Z</time>
      </trkpt>
      <trkpt lat="43.25579" lon="-0.18329">
        <ele>287</ele>
        <time>2022-06-27T20:36:19Z</time>
      </trkpt>
      <trkpt lat="43.2557" lon="-0.1833">
        <ele>287</ele>
        <time>2022-06-27T20:36:21Z</time>
      </trkpt>
      <trkpt lat="43.25495" lon="-0.18386">
        <ele>286</ele>
        <time>2022-06-27T20:36:36Z</time>
      </trkpt>
      <trkpt lat="43.25454" lon="-0.18431">
        <ele>286</ele>
        <time>2022-06-27T20:36:45Z</time>
      </trkpt>
      <trkpt lat="43.25372" lon="-0.18503">
        <ele>285</ele>
        <time>2022-06-27T20:37:03Z</time>
      </trkpt>
      <trkpt lat="43.2531" lon="-0.18574">
        <ele>285</ele>
        <time>2022-06-27T20:37:17Z</time>
      </trkpt>
      <trkpt lat="43.25205" lon="-0.18679">
        <ele>288</ele>
        <time>2022-06-27T20:37:40Z</time>
      </trkpt>
      <trkpt lat="43.25066" lon="-0.18808">
        <ele>290</ele>
        <time>2022-06-27T20:38:10Z</time>
      </trkpt>
      <trkpt lat="43.2505" lon="-0.18844">
        <ele>292</ele>
        <time>2022-06-27T20:38:15Z</time>
      </trkpt>
      <trkpt lat="43.25049" lon="-0.18959">
        <ele>297</ele>
        <time>2022-06-27T20:38:30Z</time>
      </trkpt>
      <trkpt lat="43.25026" lon="-0.18992">
        <ele>298</ele>
        <time>2022-06-27T20:38:36Z</time>
      </trkpt>
      <trkpt lat="43.25013" lon="-0.19">
        <ele>298</ele>
        <time>2022-06-27T20:38:39Z</time>
      </trkpt>
      <trkpt lat="43.24981" lon="-0.18993">
        <ele>298</ele>
        <time>2022-06-27T20:38:44Z</time>
      </trkpt>
      <trkpt lat="43.24973" lon="-0.18999">
        <ele>298</ele>
        <time>2022-06-27T20:38:46Z</time>
      </trkpt>
      <trkpt lat="43.24897" lon="-0.19102">
        <ele>300</ele>
        <time>2022-06-27T20:39:05Z</time>
      </trkpt>
      <trkpt lat="43.24768" lon="-0.19202">
        <ele>303</ele>
        <time>2022-06-27T20:39:31Z</time>
      </trkpt>
      <trkpt lat="43.24546" lon="-0.19203">
        <ele>306</ele>
        <time>2022-06-27T20:40:11Z</time>
      </trkpt>
      <trkpt lat="43.24412" lon="-0.19191">
        <ele>305</ele>
        <time>2022-06-27T20:40:35Z</time>
      </trkpt>
      <trkpt lat="43.2428" lon="-0.19157">
        <ele>306</ele>
        <time>2022-06-27T20:40:59Z</time>
      </trkpt>
      <trkpt lat="43.24084" lon="-0.19118">
        <ele>306</ele>
        <time>2022-06-27T20:41:34Z</time>
      </trkpt>
      <trkpt lat="43.23981" lon="-0.19053">
        <ele>308</ele>
        <time>2022-06-27T20:41:54Z</time>
      </trkpt>
      <trkpt lat="43.23958" lon="-0.19029">
        <ele>308</ele>
        <time>2022-06-27T20:41:59Z</time>
      </trkpt>
      <trkpt lat="43.23931" lon="-0.18985">
        <ele>308</ele>
        <time>2022-06-27T20:42:07Z</time>
      </trkpt>
      <trkpt lat="43.23906" lon="-0.18963">
        <ele>309</ele>
        <time>2022-06-27T20:42:12Z</time>
      </trkpt>
      <trkpt lat="43.23751" lon="-0.18905">
        <ele>314</ele>
        <time>2022-06-27T20:42:41Z</time>
      </trkpt>
      <trkpt lat="43.23738" lon="-0.18909">
        <ele>314</ele>
        <time>2022-06-27T20:42:43Z</time>
      </trkpt>
      <trkpt lat="43.23728" lon="-0.18923">
        <ele>314</ele>
        <time>2022-06-27T20:42:46Z</time>
      </trkpt>
      <trkpt lat="43.23704" lon="-0.19018">
        <ele>315</ele>
        <time>2022-06-27T20:42:59Z</time>
      </trkpt>
      <trkpt lat="43.23676" lon="-0.19191">
        <ele>316</ele>
        <time>2022-06-27T20:43:22Z</time>
      </trkpt>
      <trkpt lat="43.23624" lon="-0.19172">
        <ele>318</ele>
        <time>2022-06-27T20:43:31Z</time>
      </trkpt>
      <trkpt lat="43.236" lon="-0.19159">
        <ele>319</ele>
        <time>2022-06-27T20:43:36Z</time>
      </trkpt>
      <trkpt lat="43.23575" lon="-0.19133">
        <ele>318</ele>
        <time>2022-06-27T20:43:41Z</time>
      </trkpt>
      <trkpt lat="43.23556" lon="-0.19129">
        <ele>318</ele>
        <time>2022-06-27T20:43:45Z</time>
      </trkpt>
      <trkpt lat="43.23483" lon="-0.19237">
        <ele>316</ele>
        <time>2022-06-27T20:44:04Z</time>
      </trkpt>
      <trkpt lat="43.23461" lon="-0.19253">
        <ele>316</ele>
        <time>2022-06-27T20:44:08Z</time>
      </trkpt>
      <trkpt lat="43.23446" lon="-0.19251">
        <ele>317</ele>
        <time>2022-06-27T20:44:11Z</time>
      </trkpt>
      <trkpt lat="43.23432" lon="-0.19242">
        <ele>317</ele>
        <time>2022-06-27T20:44:14Z</time>
      </trkpt>
      <trkpt lat="43.23418" lon="-0.1922">
        <ele>317</ele>
        <time>2022-06-27T20:44:17Z</time>
      </trkpt>
      <trkpt lat="43.23382" lon="-0.19127">
        <ele>318</ele>
        <time>2022-06-27T20:44:31Z</time>
      </trkpt>
      <trkpt lat="43.23358" lon="-0.1911">
        <ele>319</ele>
        <time>2022-06-27T20:44:36Z</time>
      </trkpt>
      <trkpt lat="43.23289" lon="-0.1908">
        <ele>320</ele>
        <time>2022-06-27T20:44:49Z</time>
      </trkpt>
      <trkpt lat="43.23205" lon="-0.19026">
        <ele>320</ele>
        <time>2022-06-27T20:45:05Z</time>
      </trkpt>
      <trkpt lat="43.23172" lon="-0.19014">
        <ele>321</ele>
        <time>2022-06-27T20:45:11Z</time>
      </trkpt>
      <trkpt lat="43.23147" lon="-0.18988">
        <ele>321</ele>
        <time>2022-06-27T20:45:17Z</time>
      </trkpt>
      <trkpt lat="43.23085" lon="-0.18851">
        <ele>324</ele>
        <time>2022-06-27T20:45:38Z</time>
      </trkpt>
      <trkpt lat="43.23024" lon="-0.18814">
        <ele>323</ele>
        <time>2022-06-27T20:45:50Z</time>
      </trkpt>
      <trkpt lat="43.2288" lon="-0.18751">
        <ele>324</ele>
        <time>2022-06-27T20:46:17Z</time>
      </trkpt>
      <trkpt lat="43.22767" lon="-0.18916">
        <ele>328</ele>
        <time>2022-06-27T20:46:46Z</time>
      </trkpt>
      <trkpt lat="43.22713" lon="-0.18978">
        <ele>327</ele>
        <time>2022-06-27T20:46:59Z</time>
      </trkpt>
      <trkpt lat="43.22661" lon="-0.19053">
        <ele>328</ele>
        <time>2022-06-27T20:47:12Z</time>
      </trkpt>
      <trkpt lat="43.22589" lon="-0.19123">
        <ele>329</ele>
        <time>2022-06-27T20:47:28Z</time>
      </trkpt>
      <trkpt lat="43.22518" lon="-0.19248">
        <ele>333</ele>
        <time>2022-06-27T20:47:48Z</time>
      </trkpt>
      <trkpt lat="43.22457" lon="-0.19318">
        <ele>337</ele>
        <time>2022-06-27T20:48:02Z</time>
      </trkpt>
      <trkpt lat="43.22436" lon="-0.19328">
        <ele>338</ele>
        <time>2022-06-27T20:48:06Z</time>
      </trkpt>
      <trkpt lat="43.22367" lon="-0.19334">
        <ele>344</ele>
        <time>2022-06-27T20:48:19Z</time>
      </trkpt>
      <trkpt lat="43.22194" lon="-0.19407">
        <ele>355</ele>
        <time>2022-06-27T20:48:51Z</time>
      </trkpt>
      <trkpt lat="43.22111" lon="-0.19453">
        <ele>362</ele>
        <time>2022-06-27T20:49:07Z</time>
      </trkpt>
      <trkpt lat="43.21909" lon="-0.19502">
        <ele>374</ele>
        <time>2022-06-27T20:49:43Z</time>
      </trkpt>
      <trkpt lat="43.21842" lon="-0.19485">
        <ele>381</ele>
        <time>2022-06-27T20:49:55Z</time>
      </trkpt>
      <trkpt lat="43.21803" lon="-0.19466">
        <ele>386</ele>
        <time>2022-06-27T20:50:03Z</time>
      </trkpt>
      <trkpt lat="43.21776" lon="-0.19467">
        <ele>390</ele>
        <time>2022-06-27T20:50:08Z</time>
      </trkpt>
      <trkpt lat="43.21769" lon="-0.19491">
        <ele>392</ele>
        <time>2022-06-27T20:50:11Z</time>
      </trkpt>
      <trkpt lat="43.21813" lon="-0.19574">
        <ele>391</ele>
        <time>2022-06-27T20:50:24Z</time>
      </trkpt>
      <trkpt lat="43.21826" lon="-0.19631">
        <ele>392</ele>
        <time>2022-06-27T20:50:32Z</time>
      </trkpt>
      <trkpt lat="43.21808" lon="-0.19655">
        <ele>391</ele>
        <time>2022-06-27T20:50:36Z</time>
      </trkpt>
      <trkpt lat="43.21819" lon="-0.19693">
        <ele>387</ele>
        <time>2022-06-27T20:50:42Z</time>
      </trkpt>
      <trkpt lat="43.21858" lon="-0.19746">
        <ele>385</ele>
        <time>2022-06-27T20:50:51Z</time>
      </trkpt>
      <trkpt lat="43.21888" lon="-0.19912">
        <ele>376</ele>
        <time>2022-06-27T20:51:14Z</time>
      </trkpt>
      <trkpt lat="43.21917" lon="-0.19982">
        <ele>370</ele>
        <time>2022-06-27T20:51:24Z</time>
      </trkpt>
      <trkpt lat="43.21975" lon="-0.20005">
        <ele>370</ele>
        <time>2022-06-27T20:51:35Z</time>
      </trkpt>
      <trkpt lat="43.21982" lon="-0.20027">
        <ele>367</ele>
        <time>2022-06-27T20:51:38Z</time>
      </trkpt>
      <trkpt lat="43.21961" lon="-0.20049">
        <ele>363</ele>
        <time>2022-06-27T20:51:43Z</time>
      </trkpt>
      <trkpt lat="43.21885" lon="-0.20095">
        <ele>354</ele>
        <time>2022-06-27T20:51:57Z</time>
      </trkpt>
      <trkpt lat="43.21845" lon="-0.20084">
        <ele>353</ele>
        <time>2022-06-27T20:52:05Z</time>
      </trkpt>
      <trkpt lat="43.21793" lon="-0.20012">
        <ele>352</ele>
        <time>2022-06-27T20:52:18Z</time>
      </trkpt>
      <trkpt lat="43.21768" lon="-0.19999">
        <ele>349</ele>
        <time>2022-06-27T20:52:23Z</time>
      </trkpt>
      <trkpt lat="43.21735" lon="-0.20018">
        <ele>343</ele>
        <time>2022-06-27T20:52:29Z</time>
      </trkpt>
      <trkpt lat="43.21737" lon="-0.20058">
        <ele>340</ele>
        <time>2022-06-27T20:52:34Z</time>
      </trkpt>
      <trkpt lat="43.21774" lon="-0.20177">
        <ele>336</ele>
        <time>2022-06-27T20:52:51Z</time>
      </trkpt>
      <trkpt lat="43.21779" lon="-0.20231">
        <ele>332</ele>
        <time>2022-06-27T20:52:58Z</time>
      </trkpt>
      <trkpt lat="43.21767" lon="-0.20286">
        <ele>327</ele>
        <time>2022-06-27T20:53:05Z</time>
      </trkpt>
      <trkpt lat="43.21769" lon="-0.20385">
        <ele>321</ele>
        <time>2022-06-27T20:53:18Z</time>
      </trkpt>
      <trkpt lat="43.21798" lon="-0.2046">
        <ele>315</ele>
        <time>2022-06-27T20:53:29Z</time>
      </trkpt>
      <trkpt lat="43.21797" lon="-0.20509">
        <ele>312</ele>
        <time>2022-06-27T20:53:36Z</time>
      </trkpt>
      <trkpt lat="43.21777" lon="-0.20585">
        <ele>310</ele>
        <time>2022-06-27T20:53:46Z</time>
      </trkpt>
      <trkpt lat="43.21741" lon="-0.20604">
        <ele>310</ele>
        <time>2022-06-27T20:53:53Z</time>
      </trkpt>
      <trkpt lat="43.21611" lon="-0.20647">
        <ele>301</ele>
        <time>2022-06-27T20:54:17Z</time>
      </trkpt>
      <trkpt lat="43.21529" lon="-0.20684">
        <ele>294</ele>
        <time>2022-06-27T20:54:32Z</time>
      </trkpt>
      <trkpt lat="43.21488" lon="-0.20703">
        <ele>289</ele>
        <time>2022-06-27T20:54:40Z</time>
      </trkpt>
      <trkpt lat="43.21467" lon="-0.20727">
        <ele>286</ele>
        <time>2022-06-27T20:54:45Z</time>
      </trkpt>
      <trkpt lat="43.21416" lon="-0.20734">
        <ele>283</ele>
        <time>2022-06-27T20:54:54Z</time>
      </trkpt>
      <trkpt lat="43.21363" lon="-0.2076">
        <ele>279</ele>
        <time>2022-06-27T20:55:04Z</time>
      </trkpt>
      <trkpt lat="43.21323" lon="-0.20804">
        <ele>277</ele>
        <time>2022-06-27T20:55:13Z</time>
      </trkpt>
      <trkpt lat="43.21292" lon="-0.20853">
        <ele>275</ele>
        <time>2022-06-27T20:55:21Z</time>
      </trkpt>
      <trkpt lat="43.21254" lon="-0.2106">
        <ele>256</ele>
        <time>2022-06-27T20:55:49Z</time>
      </trkpt>
      <trkpt lat="43.21194" lon="-0.21311">
        <ele>248</ele>
        <time>2022-06-27T20:56:23Z</time>
      </trkpt>
      <trkpt lat="43.21161" lon="-0.21413">
        <ele>247</ele>
        <time>2022-06-27T20:56:38Z</time>
      </trkpt>
      <trkpt lat="43.21137" lon="-0.21641">
        <ele>247</ele>
        <time>2022-06-27T20:57:08Z</time>
      </trkpt>
      <trkpt lat="43.21126" lon="-0.2168">
        <ele>247</ele>
        <time>2022-06-27T20:57:13Z</time>
      </trkpt>
      <trkpt lat="43.2108" lon="-0.21751">
        <ele>247</ele>
        <time>2022-06-27T20:57:25Z</time>
      </trkpt>
      <trkpt lat="43.21047" lon="-0.21884">
        <ele>246</ele>
        <time>2022-06-27T20:57:44Z</time>
      </trkpt>
      <trkpt lat="43.21047" lon="-0.22016">
        <ele>245</ele>
        <time>2022-06-27T20:58:01Z</time>
      </trkpt>
      <trkpt lat="43.21041" lon="-0.22059">
        <ele>246</ele>
        <time>2022-06-27T20:58:06Z</time>
      </trkpt>
      <trkpt lat="43.20959" lon="-0.22338">
        <ele>247</ele>
        <time>2022-06-27T20:58:45Z</time>
      </trkpt>
      <trkpt lat="43.20898" lon="-0.22466">
        <ele>248</ele>
        <time>2022-06-27T20:59:05Z</time>
      </trkpt>
      <trkpt lat="43.20903" lon="-0.22479">
        <ele>247</ele>
        <time>2022-06-27T20:59:07Z</time>
      </trkpt>
      <trkpt lat="43.20941" lon="-0.22518">
        <ele>247</ele>
        <time>2022-06-27T20:59:16Z</time>
      </trkpt>
      <trkpt lat="43.20938" lon="-0.22544">
        <ele>247</ele>
        <time>2022-06-27T20:59:19Z</time>
      </trkpt>
      <trkpt lat="43.20921" lon="-0.22571">
        <ele>247</ele>
        <time>2022-06-27T20:59:24Z</time>
      </trkpt>
      <trkpt lat="43.20898" lon="-0.22633">
        <ele>247</ele>
        <time>2022-06-27T20:59:33Z</time>
      </trkpt>
      <trkpt lat="43.20894" lon="-0.22659">
        <ele>247</ele>
        <time>2022-06-27T20:59:36Z</time>
      </trkpt>
      <trkpt lat="43.20882" lon="-0.22649">
        <ele>247</ele>
        <time>2022-06-27T20:59:39Z</time>
      </trkpt>
      <trkpt lat="43.20812" lon="-0.22628">
        <ele>247</ele>
        <time>2022-06-27T20:59:51Z</time>
      </trkpt>
      <trkpt lat="43.2079" lon="-0.22616">
        <ele>247</ele>
        <time>2022-06-27T20:59:56Z</time>
      </trkpt>
      <trkpt lat="43.20671" lon="-0.22504">
        <ele>248</ele>
        <time>2022-06-27T21:00:21Z</time>
      </trkpt>
      <trkpt lat="43.20645" lon="-0.22539">
        <ele>248</ele>
        <time>2022-06-27T21:00:28Z</time>
      </trkpt>
      <trkpt lat="43.20579" lon="-0.2271">
        <ele>249</ele>
        <time>2022-06-27T21:00:53Z</time>
      </trkpt>
      <trkpt lat="43.20522" lon="-0.2297">
        <ele>249</ele>
        <time>2022-06-27T21:01:28Z</time>
      </trkpt>
      <trkpt lat="43.20503" lon="-0.23022">
        <ele>250</ele>
        <time>2022-06-27T21:01:36Z</time>
      </trkpt>
      <trkpt lat="43.20281" lon="-0.23511">
        <ele>252</ele>
        <time>2022-06-27T21:02:50Z</time>
      </trkpt>
      <trkpt lat="43.20133" lon="-0.23805">
        <ele>252</ele>
        <time>2022-06-27T21:03:37Z</time>
      </trkpt>
      <trkpt lat="43.20094" lon="-0.23865">
        <ele>253</ele>
        <time>2022-06-27T21:03:47Z</time>
      </trkpt>
      <trkpt lat="43.20024" lon="-0.23923">
        <ele>254</ele>
        <time>2022-06-27T21:04:02Z</time>
      </trkpt>
      <trkpt lat="43.19988" lon="-0.23974">
        <ele>253</ele>
        <time>2022-06-27T21:04:11Z</time>
      </trkpt>
      <trkpt lat="43.1997" lon="-0.24018">
        <ele>253</ele>
        <time>2022-06-27T21:04:17Z</time>
      </trkpt>
      <trkpt lat="43.19903" lon="-0.2424">
        <ele>253</ele>
        <time>2022-06-27T21:04:48Z</time>
      </trkpt>
      <trkpt lat="43.19877" lon="-0.24277">
        <ele>253</ele>
        <time>2022-06-27T21:04:55Z</time>
      </trkpt>
      <trkpt lat="43.19879" lon="-0.24298">
        <ele>253</ele>
        <time>2022-06-27T21:04:58Z</time>
      </trkpt>
      <trkpt lat="43.19871" lon="-0.24316">
        <ele>252</ele>
        <time>2022-06-27T21:05:01Z</time>
      </trkpt>
      <trkpt lat="43.19857" lon="-0.24323">
        <ele>252</ele>
        <time>2022-06-27T21:05:03Z</time>
      </trkpt>
      <trkpt lat="43.19843" lon="-0.24317">
        <ele>252</ele>
        <time>2022-06-27T21:05:06Z</time>
      </trkpt>
      <trkpt lat="43.19815" lon="-0.24331">
        <ele>251</ele>
        <time>2022-06-27T21:05:11Z</time>
      </trkpt>
      <trkpt lat="43.1972" lon="-0.24485">
        <ele>253</ele>
        <time>2022-06-27T21:05:37Z</time>
      </trkpt>
      <trkpt lat="43.19701" lon="-0.24541">
        <ele>255</ele>
        <time>2022-06-27T21:05:45Z</time>
      </trkpt>
      <trkpt lat="43.19682" lon="-0.24577">
        <ele>255</ele>
        <time>2022-06-27T21:05:51Z</time>
      </trkpt>
      <trkpt lat="43.19636" lon="-0.24631">
        <ele>255</ele>
        <time>2022-06-27T21:06:02Z</time>
      </trkpt>
      <trkpt lat="43.19595" lon="-0.24699">
        <ele>256</ele>
        <time>2022-06-27T21:06:13Z</time>
      </trkpt>
      <trkpt lat="43.19558" lon="-0.24727">
        <ele>256</ele>
        <time>2022-06-27T21:06:21Z</time>
      </trkpt>
      <trkpt lat="43.19464" lon="-0.24757">
        <ele>256</ele>
        <time>2022-06-27T21:06:38Z</time>
      </trkpt>
      <trkpt lat="43.19445" lon="-0.24768">
        <ele>257</ele>
        <time>2022-06-27T21:06:42Z</time>
      </trkpt>
      <trkpt lat="43.19198" lon="-0.24945">
        <ele>258</ele>
        <time>2022-06-27T21:07:31Z</time>
      </trkpt>
      <trkpt lat="43.19104" lon="-0.24998">
        <ele>260</ele>
        <time>2022-06-27T21:07:49Z</time>
      </trkpt>
      <trkpt lat="43.19059" lon="-0.25012">
        <ele>260</ele>
        <time>2022-06-27T21:07:58Z</time>
      </trkpt>
      <trkpt lat="43.19026" lon="-0.25015">
        <ele>260</ele>
        <time>2022-06-27T21:08:03Z</time>
      </trkpt>
      <trkpt lat="43.19007" lon="-0.25008">
        <ele>260</ele>
        <time>2022-06-27T21:08:07Z</time>
      </trkpt>
      <trkpt lat="43.18946" lon="-0.2497">
        <ele>261</ele>
        <time>2022-06-27T21:08:19Z</time>
      </trkpt>
      <trkpt lat="43.18925" lon="-0.2504">
        <ele>262</ele>
        <time>2022-06-27T21:08:29Z</time>
      </trkpt>
      <trkpt lat="43.189" lon="-0.25012">
        <ele>262</ele>
        <time>2022-06-27T21:08:34Z</time>
      </trkpt>
      <trkpt lat="43.18781" lon="-0.24982">
        <ele>262</ele>
        <time>2022-06-27T21:08:56Z</time>
      </trkpt>
      <trkpt lat="43.18679" lon="-0.24941">
        <ele>263</ele>
        <time>2022-06-27T21:09:15Z</time>
      </trkpt>
      <trkpt lat="43.18653" lon="-0.25003">
        <ele>262</ele>
        <time>2022-06-27T21:09:24Z</time>
      </trkpt>
      <trkpt lat="43.186" lon="-0.25079">
        <ele>260</ele>
        <time>2022-06-27T21:09:38Z</time>
      </trkpt>
      <trkpt lat="43.18557" lon="-0.25172">
        <ele>259</ele>
        <time>2022-06-27T21:09:52Z</time>
      </trkpt>
      <trkpt lat="43.18192" lon="-0.25594">
        <ele>253</ele>
        <time>2022-06-27T21:11:17Z</time>
      </trkpt>
      <trkpt lat="43.18115" lon="-0.25681">
        <ele>256</ele>
        <time>2022-06-27T21:11:35Z</time>
      </trkpt>
      <trkpt lat="43.18102" lon="-0.25689">
        <ele>256</ele>
        <time>2022-06-27T21:11:37Z</time>
      </trkpt>
      <trkpt lat="43.18066" lon="-0.25741">
        <ele>256</ele>
        <time>2022-06-27T21:11:47Z</time>
      </trkpt>
      <trkpt lat="43.17955" lon="-0.25864">
        <ele>256</ele>
        <time>2022-06-27T21:12:12Z</time>
      </trkpt>
      <trkpt lat="43.17964" lon="-0.25924">
        <ele>255</ele>
        <time>2022-06-27T21:12:20Z</time>
      </trkpt>
      <trkpt lat="43.17981" lon="-0.26163">
        <ele>262</ele>
        <time>2022-06-27T21:12:51Z</time>
      </trkpt>
      <trkpt lat="43.1768" lon="-0.26205">
        <ele>263</ele>
        <time>2022-06-27T21:13:45Z</time>
      </trkpt>
      <trkpt lat="43.17632" lon="-0.262">
        <ele>267</ele>
        <time>2022-06-27T21:13:54Z</time>
      </trkpt>
      <trkpt lat="43.17557" lon="-0.26175">
        <ele>272</ele>
        <time>2022-06-27T21:14:07Z</time>
      </trkpt>
      <trkpt lat="43.17525" lon="-0.26189">
        <ele>275</ele>
        <time>2022-06-27T21:14:13Z</time>
      </trkpt>
      <trkpt lat="43.17361" lon="-0.26295">
        <ele>284</ele>
        <time>2022-06-27T21:14:46Z</time>
      </trkpt>
      <trkpt lat="43.17361" lon="-0.2631">
        <ele>284</ele>
        <time>2022-06-27T21:14:47Z</time>
      </trkpt>
      <trkpt lat="43.17355" lon="-0.26313">
        <ele>284</ele>
        <time>2022-06-27T21:14:49Z</time>
      </trkpt>
      <trkpt lat="43.17347" lon="-0.26306">
        <ele>283</ele>
        <time>2022-06-27T21:14:50Z</time>
      </trkpt>
      <trkpt lat="43.17349" lon="-0.26294">
        <ele>283</ele>
        <time>2022-06-27T21:14:52Z</time>
      </trkpt>
      <trkpt lat="43.17344" lon="-0.26286">
        <ele>282</ele>
        <time>2022-06-27T21:14:53Z</time>
      </trkpt>
      <trkpt lat="43.1731" lon="-0.26264">
        <ele>281</ele>
        <time>2022-06-27T21:15:00Z</time>
      </trkpt>
      <trkpt lat="43.17237" lon="-0.26275">
        <ele>279</ele>
        <time>2022-06-27T21:15:13Z</time>
      </trkpt>
      <trkpt lat="43.17182" lon="-0.26275">
        <ele>276</ele>
        <time>2022-06-27T21:15:23Z</time>
      </trkpt>
      <trkpt lat="43.17009" lon="-0.26233">
        <ele>271</ele>
        <time>2022-06-27T21:15:54Z</time>
      </trkpt>
      <trkpt lat="43.16923" lon="-0.26202">
        <ele>270</ele>
        <time>2022-06-27T21:16:10Z</time>
      </trkpt>
      <trkpt lat="43.16901" lon="-0.262">
        <ele>269</ele>
        <time>2022-06-27T21:16:14Z</time>
      </trkpt>
      <trkpt lat="43.16809" lon="-0.26214">
        <ele>268</ele>
        <time>2022-06-27T21:16:30Z</time>
      </trkpt>
      <trkpt lat="43.16783" lon="-0.26224">
        <ele>267</ele>
        <time>2022-06-27T21:16:35Z</time>
      </trkpt>
      <trkpt lat="43.16623" lon="-0.26359">
        <ele>269</ele>
        <time>2022-06-27T21:17:09Z</time>
      </trkpt>
      <trkpt lat="43.16506" lon="-0.26426">
        <ele>272</ele>
        <time>2022-06-27T21:17:31Z</time>
      </trkpt>
      <trkpt lat="43.16463" lon="-0.26426">
        <ele>276</ele>
        <time>2022-06-27T21:17:39Z</time>
      </trkpt>
      <trkpt lat="43.16312" lon="-0.26381">
        <ele>284</ele>
        <time>2022-06-27T21:18:06Z</time>
      </trkpt>
      <trkpt lat="43.1616" lon="-0.26306">
        <ele>297</ele>
        <time>2022-06-27T21:18:35Z</time>
      </trkpt>
      <trkpt lat="43.16014" lon="-0.26217">
        <ele>299</ele>
        <time>2022-06-27T21:19:03Z</time>
      </trkpt>
      <trkpt lat="43.15988" lon="-0.26193">
        <ele>301</ele>
        <time>2022-06-27T21:19:09Z</time>
      </trkpt>
      <trkpt lat="43.15697" lon="-0.25813">
        <ele>313</ele>
        <time>2022-06-27T21:20:20Z</time>
      </trkpt>
      <trkpt lat="43.15644" lon="-0.25759">
        <ele>314</ele>
        <time>2022-06-27T21:20:32Z</time>
      </trkpt>
      <trkpt lat="43.15494" lon="-0.25667">
        <ele>315</ele>
        <time>2022-06-27T21:21:01Z</time>
      </trkpt>
      <trkpt lat="43.15402" lon="-0.25588">
        <ele>318</ele>
        <time>2022-06-27T21:21:21Z</time>
      </trkpt>
      <trkpt lat="43.15112" lon="-0.25482">
        <ele>322</ele>
        <time>2022-06-27T21:22:14Z</time>
      </trkpt>
      <trkpt lat="43.15083" lon="-0.25482">
        <ele>322</ele>
        <time>2022-06-27T21:22:19Z</time>
      </trkpt>
      <trkpt lat="43.15045" lon="-0.25492">
        <ele>322</ele>
        <time>2022-06-27T21:22:26Z</time>
      </trkpt>
      <trkpt lat="43.14917" lon="-0.25579">
        <ele>322</ele>
        <time>2022-06-27T21:22:52Z</time>
      </trkpt>
      <trkpt lat="43.14679" lon="-0.25771">
        <ele>323</ele>
        <time>2022-06-27T21:23:41Z</time>
      </trkpt>
      <trkpt lat="43.1464" lon="-0.25792">
        <ele>323</ele>
        <time>2022-06-27T21:23:48Z</time>
      </trkpt>
      <trkpt lat="43.14632" lon="-0.25778">
        <ele>324</ele>
        <time>2022-06-27T21:23:51Z</time>
      </trkpt>
      <trkpt lat="43.14619" lon="-0.25773">
        <ele>324</ele>
        <time>2022-06-27T21:23:53Z</time>
      </trkpt>
      <trkpt lat="43.1447" lon="-0.25758">
        <ele>324</ele>
        <time>2022-06-27T21:24:20Z</time>
      </trkpt>
      <trkpt lat="43.14245" lon="-0.25753">
        <ele>324</ele>
        <time>2022-06-27T21:25:00Z</time>
      </trkpt>
      <trkpt lat="43.14219" lon="-0.25738">
        <ele>325</ele>
        <time>2022-06-27T21:25:05Z</time>
      </trkpt>
      <trkpt lat="43.14192" lon="-0.25701">
        <ele>325</ele>
        <time>2022-06-27T21:25:11Z</time>
      </trkpt>
      <trkpt lat="43.14183" lon="-0.25698">
        <ele>325</ele>
        <time>2022-06-27T21:25:13Z</time>
      </trkpt>
      <trkpt lat="43.14183" lon="-0.25684">
        <ele>325</ele>
        <time>2022-06-27T21:25:15Z</time>
      </trkpt>
      <trkpt lat="43.14093" lon="-0.2553">
        <ele>322</ele>
        <time>2022-06-27T21:25:40Z</time>
      </trkpt>
      <trkpt lat="43.14073" lon="-0.25515">
        <ele>322</ele>
        <time>2022-06-27T21:25:45Z</time>
      </trkpt>
      <trkpt lat="43.14037" lon="-0.25501">
        <ele>322</ele>
        <time>2022-06-27T21:25:51Z</time>
      </trkpt>
      <trkpt lat="43.13993" lon="-0.25457">
        <ele>320</ele>
        <time>2022-06-27T21:26:01Z</time>
      </trkpt>
      <trkpt lat="43.13974" lon="-0.25452">
        <ele>319</ele>
        <time>2022-06-27T21:26:04Z</time>
      </trkpt>
      <trkpt lat="43.13856" lon="-0.25506">
        <ele>318</ele>
        <time>2022-06-27T21:26:26Z</time>
      </trkpt>
      <trkpt lat="43.13779" lon="-0.25526">
        <ele>318</ele>
        <time>2022-06-27T21:26:40Z</time>
      </trkpt>
      <trkpt lat="43.13698" lon="-0.25557">
        <ele>315</ele>
        <time>2022-06-27T21:26:55Z</time>
      </trkpt>
      <trkpt lat="43.13691" lon="-0.25548">
        <ele>315</ele>
        <time>2022-06-27T21:26:57Z</time>
      </trkpt>
      <trkpt lat="43.13645" lon="-0.25532">
        <ele>313</ele>
        <time>2022-06-27T21:27:06Z</time>
      </trkpt>
      <trkpt lat="43.13377" lon="-0.25478">
        <ele>309</ele>
        <time>2022-06-27T21:27:54Z</time>
      </trkpt>
      <trkpt lat="43.13225" lon="-0.25402">
        <ele>310</ele>
        <time>2022-06-27T21:28:22Z</time>
      </trkpt>
      <trkpt lat="43.13074" lon="-0.25335">
        <ele>311</ele>
        <time>2022-06-27T21:28:51Z</time>
      </trkpt>
      <trkpt lat="43.12929" lon="-0.25294">
        <ele>315</ele>
        <time>2022-06-27T21:29:17Z</time>
      </trkpt>
      <trkpt lat="43.1287" lon="-0.25292">
        <ele>318</ele>
        <time>2022-06-27T21:29:28Z</time>
      </trkpt>
      <trkpt lat="43.12745" lon="-0.25247">
        <ele>320</ele>
        <time>2022-06-27T21:29:51Z</time>
      </trkpt>
      <trkpt lat="43.12686" lon="-0.25246">
        <ele>320</ele>
        <time>2022-06-27T21:30:01Z</time>
      </trkpt>
      <trkpt lat="43.12647" lon="-0.25239">
        <ele>321</ele>
        <time>2022-06-27T21:30:08Z</time>
      </trkpt>
      <trkpt lat="43.12544" lon="-0.25182">
        <ele>318</ele>
        <time>2022-06-27T21:30:28Z</time>
      </trkpt>
      <trkpt lat="43.12432" lon="-0.25078">
        <ele>316</ele>
        <time>2022-06-27T21:30:52Z</time>
      </trkpt>
      <trkpt lat="43.12376" lon="-0.25044">
        <ele>315</ele>
        <time>2022-06-27T21:31:03Z</time>
      </trkpt>
      <trkpt lat="43.12215" lon="-0.24921">
        <ele>320</ele>
        <time>2022-06-27T21:31:36Z</time>
      </trkpt>
      <trkpt lat="43.12174" lon="-0.24908">
        <ele>324</ele>
        <time>2022-06-27T21:31:43Z</time>
      </trkpt>
      <trkpt lat="43.1203" lon="-0.24921">
        <ele>329</ele>
        <time>2022-06-27T21:32:09Z</time>
      </trkpt>
      <trkpt lat="43.11995" lon="-0.2491">
        <ele>329</ele>
        <time>2022-06-27T21:32:15Z</time>
      </trkpt>
      <trkpt lat="43.11863" lon="-0.24781">
        <ele>320</ele>
        <time>2022-06-27T21:32:44Z</time>
      </trkpt>
      <trkpt lat="43.11693" lon="-0.24717">
        <ele>319</ele>
        <time>2022-06-27T21:33:15Z</time>
      </trkpt>
      <trkpt lat="43.11539" lon="-0.24632">
        <ele>325</ele>
        <time>2022-06-27T21:33:45Z</time>
      </trkpt>
      <trkpt lat="43.11501" lon="-0.24626">
        <ele>328</ele>
        <time>2022-06-27T21:33:52Z</time>
      </trkpt>
      <trkpt lat="43.11481" lon="-0.24629">
        <ele>329</ele>
        <time>2022-06-27T21:33:55Z</time>
      </trkpt>
      <trkpt lat="43.11459" lon="-0.24642">
        <ele>330</ele>
        <time>2022-06-27T21:34:00Z</time>
      </trkpt>
      <trkpt lat="43.1143" lon="-0.24682">
        <ele>336</ele>
        <time>2022-06-27T21:34:07Z</time>
      </trkpt>
      <trkpt lat="43.1141" lon="-0.24698">
        <ele>339</ele>
        <time>2022-06-27T21:34:11Z</time>
      </trkpt>
      <trkpt lat="43.11382" lon="-0.24701">
        <ele>340</ele>
        <time>2022-06-27T21:34:16Z</time>
      </trkpt>
      <trkpt lat="43.11079" lon="-0.24715">
        <ele>341</ele>
        <time>2022-06-27T21:35:10Z</time>
      </trkpt>
      <trkpt lat="43.10917" lon="-0.24713">
        <ele>341</ele>
        <time>2022-06-27T21:35:39Z</time>
      </trkpt>
      <trkpt lat="43.10898" lon="-0.24707">
        <ele>341</ele>
        <time>2022-06-27T21:35:42Z</time>
      </trkpt>
      <trkpt lat="43.10845" lon="-0.2467">
        <ele>335</ele>
        <time>2022-06-27T21:35:53Z</time>
      </trkpt>
      <trkpt lat="43.10807" lon="-0.24651">
        <ele>335</ele>
        <time>2022-06-27T21:36:00Z</time>
      </trkpt>
      <trkpt lat="43.10769" lon="-0.2466">
        <ele>335</ele>
        <time>2022-06-27T21:36:07Z</time>
      </trkpt>
      <trkpt lat="43.10731" lon="-0.24684">
        <ele>340</ele>
        <time>2022-06-27T21:36:14Z</time>
      </trkpt>
      <trkpt lat="43.10643" lon="-0.2471">
        <ele>350</ele>
        <time>2022-06-27T21:36:30Z</time>
      </trkpt>
      <trkpt lat="43.10617" lon="-0.24705">
        <ele>350</ele>
        <time>2022-06-27T21:36:35Z</time>
      </trkpt>
      <trkpt lat="43.10542" lon="-0.24637">
        <ele>337</ele>
        <time>2022-06-27T21:36:51Z</time>
      </trkpt>
      <trkpt lat="43.10511" lon="-0.24599">
        <ele>333</ele>
        <time>2022-06-27T21:36:58Z</time>
      </trkpt>
      <trkpt lat="43.10489" lon="-0.24592">
        <ele>333</ele>
        <time>2022-06-27T21:37:02Z</time>
      </trkpt>
      <trkpt lat="43.10427" lon="-0.246">
        <ele>333</ele>
        <time>2022-06-27T21:37:14Z</time>
      </trkpt>
      <trkpt lat="43.1032" lon="-0.24595">
        <ele>334</ele>
        <time>2022-06-27T21:37:33Z</time>
      </trkpt>
      <trkpt lat="43.10081" lon="-0.2453">
        <ele>335</ele>
        <time>2022-06-27T21:38:16Z</time>
      </trkpt>
      <trkpt lat="43.1006" lon="-0.24532">
        <ele>335</ele>
        <time>2022-06-27T21:38:20Z</time>
      </trkpt>
      <trkpt lat="43.10042" lon="-0.24542">
        <ele>335</ele>
        <time>2022-06-27T21:38:23Z</time>
      </trkpt>
      <trkpt lat="43.09948" lon="-0.24555">
        <ele>337</ele>
        <time>2022-06-27T21:38:40Z</time>
      </trkpt>
      <trkpt lat="43.09868" lon="-0.24549">
        <ele>337</ele>
        <time>2022-06-27T21:38:54Z</time>
      </trkpt>
      <trkpt lat="43.09813" lon="-0.24521">
        <ele>339</ele>
        <time>2022-06-27T21:39:05Z</time>
      </trkpt>
      <trkpt lat="43.09791" lon="-0.24521">
        <ele>339</ele>
        <time>2022-06-27T21:39:09Z</time>
      </trkpt>
      <trkpt lat="43.09749" lon="-0.24548">
        <ele>339</ele>
        <time>2022-06-27T21:39:17Z</time>
      </trkpt>
      <trkpt lat="43.09721" lon="-0.24577">
        <ele>340</ele>
        <time>2022-06-27T21:39:23Z</time>
      </trkpt>
      <trkpt lat="43.09665" lon="-0.24712">
        <ele>340</ele>
        <time>2022-06-27T21:39:43Z</time>
      </trkpt>
      <trkpt lat="43.09585" lon="-0.24806">
        <ele>346</ele>
        <time>2022-06-27T21:40:02Z</time>
      </trkpt>
      <trkpt lat="43.09516" lon="-0.24909">
        <ele>352</ele>
        <time>2022-06-27T21:40:20Z</time>
      </trkpt>
      <trkpt lat="43.09498" lon="-0.24927">
        <ele>354</ele>
        <time>2022-06-27T21:40:24Z</time>
      </trkpt>
      <trkpt lat="43.09478" lon="-0.24943">
        <ele>360</ele>
        <time>2022-06-27T21:40:28Z</time>
      </trkpt>
      <trkpt lat="43.09423" lon="-0.24967">
        <ele>367</ele>
        <time>2022-06-27T21:40:39Z</time>
      </trkpt>
      <trkpt lat="43.09346" lon="-0.24989">
        <ele>366</ele>
        <time>2022-06-27T21:40:53Z</time>
      </trkpt>
      <trkpt lat="43.09317" lon="-0.24982">
        <ele>362</ele>
        <time>2022-06-27T21:40:58Z</time>
      </trkpt>
      <trkpt lat="43.09302" lon="-0.24984">
        <ele>361</ele>
        <time>2022-06-27T21:41:00Z</time>
      </trkpt>
      <trkpt lat="43.09293" lon="-0.25">
        <ele>362</ele>
        <time>2022-06-27T21:41:03Z</time>
      </trkpt>
      <trkpt lat="43.09289" lon="-0.25067">
        <ele>378</ele>
        <time>2022-06-27T21:41:12Z</time>
      </trkpt>
      <trkpt lat="43.09279" lon="-0.25107">
        <ele>388</ele>
        <time>2022-06-27T21:41:17Z</time>
      </trkpt>
      <trkpt lat="43.09189" lon="-0.25203">
        <ele>390</ele>
        <time>2022-06-27T21:41:38Z</time>
      </trkpt>
      <trkpt lat="43.09168" lon="-0.25241">
        <ele>395</ele>
        <time>2022-06-27T21:41:44Z</time>
      </trkpt>
      <trkpt lat="43.09149" lon="-0.25262">
        <ele>397</ele>
        <time>2022-06-27T21:41:48Z</time>
      </trkpt>
      <trkpt lat="43.09073" lon="-0.25299">
        <ele>392</ele>
        <time>2022-06-27T21:42:02Z</time>
      </trkpt>
      <trkpt lat="43.09063" lon="-0.25293">
        <ele>392</ele>
        <time>2022-06-27T21:42:04Z</time>
      </trkpt>
      <trkpt lat="43.09028" lon="-0.25216">
        <ele>385</ele>
        <time>2022-06-27T21:42:16Z</time>
      </trkpt>
      <trkpt lat="43.09011" lon="-0.252">
        <ele>384</ele>
        <time>2022-06-27T21:42:20Z</time>
      </trkpt>
      <trkpt lat="43.08967" lon="-0.2519">
        <ele>386</ele>
        <time>2022-06-27T21:42:28Z</time>
      </trkpt>
      <trkpt lat="43.08821" lon="-0.25186">
        <ele>381</ele>
        <time>2022-06-27T21:42:54Z</time>
      </trkpt>
      <trkpt lat="43.08743" lon="-0.25217">
        <ele>377</ele>
        <time>2022-06-27T21:43:08Z</time>
      </trkpt>
      <trkpt lat="43.08665" lon="-0.25264">
        <ele>377</ele>
        <time>2022-06-27T21:43:23Z</time>
      </trkpt>
      <trkpt lat="43.08566" lon="-0.253">
        <ele>378</ele>
        <time>2022-06-27T21:43:42Z</time>
      </trkpt>
      <trkpt lat="43.08549" lon="-0.25315">
        <ele>379</ele>
        <time>2022-06-27T21:43:45Z</time>
      </trkpt>
      <trkpt lat="43.08541" lon="-0.25351">
        <ele>380</ele>
        <time>2022-06-27T21:43:50Z</time>
      </trkpt>
      <trkpt lat="43.08546" lon="-0.25596">
        <ele>393</ele>
        <time>2022-06-27T21:44:22Z</time>
      </trkpt>
      <trkpt lat="43.08532" lon="-0.25657">
        <ele>401</ele>
        <time>2022-06-27T21:44:30Z</time>
      </trkpt>
      <trkpt lat="43.08512" lon="-0.25689">
        <ele>409</ele>
        <time>2022-06-27T21:44:36Z</time>
      </trkpt>
      <trkpt lat="43.08478" lon="-0.25705">
        <ele>409</ele>
        <time>2022-06-27T21:44:42Z</time>
      </trkpt>
      <trkpt lat="43.08324" lon="-0.25715">
        <ele>398</ele>
        <time>2022-06-27T21:45:10Z</time>
      </trkpt>
      <trkpt lat="43.08208" lon="-0.25743">
        <ele>401</ele>
        <time>2022-06-27T21:45:31Z</time>
      </trkpt>
      <trkpt lat="43.08139" lon="-0.25745">
        <ele>403</ele>
        <time>2022-06-27T21:45:43Z</time>
      </trkpt>
      <trkpt lat="43.0808" lon="-0.25763">
        <ele>401</ele>
        <time>2022-06-27T21:45:54Z</time>
      </trkpt>
      <trkpt lat="43.08064" lon="-0.25775">
        <ele>400</ele>
        <time>2022-06-27T21:45:57Z</time>
      </trkpt>
      <trkpt lat="43.08013" lon="-0.25837">
        <ele>397</ele>
        <time>2022-06-27T21:46:09Z</time>
      </trkpt>
      <trkpt lat="43.07934" lon="-0.25881">
        <ele>395</ele>
        <time>2022-06-27T21:46:24Z</time>
      </trkpt>
      <trkpt lat="43.07866" lon="-0.25911">
        <ele>395</ele>
        <time>2022-06-27T21:46:37Z</time>
      </trkpt>
      <trkpt lat="43.0777" lon="-0.2599">
        <ele>405</ele>
        <time>2022-06-27T21:46:57Z</time>
      </trkpt>
      <trkpt lat="43.07739" lon="-0.26001">
        <ele>407</ele>
        <time>2022-06-27T21:47:02Z</time>
      </trkpt>
      <trkpt lat="43.07683" lon="-0.26005">
        <ele>409</ele>
        <time>2022-06-27T21:47:12Z</time>
      </trkpt>
      <trkpt lat="43.07603" lon="-0.26032">
        <ele>412</ele>
        <time>2022-06-27T21:47:27Z</time>
      </trkpt>
      <trkpt lat="43.07444" lon="-0.2616">
        <ele>409</ele>
        <time>2022-06-27T21:48:00Z</time>
      </trkpt>
      <trkpt lat="43.07369" lon="-0.26237">
        <ele>413</ele>
        <time>2022-06-27T21:48:17Z</time>
      </trkpt>
      <trkpt lat="43.07338" lon="-0.26289">
        <ele>418</ele>
        <time>2022-06-27T21:48:25Z</time>
      </trkpt>
      <trkpt lat="43.0732" lon="-0.26304">
        <ele>420</ele>
        <time>2022-06-27T21:48:29Z</time>
      </trkpt>
      <trkpt lat="43.07258" lon="-0.26314">
        <ele>421</ele>
        <time>2022-06-27T21:48:40Z</time>
      </trkpt>
      <trkpt lat="43.07207" lon="-0.26295">
        <ele>417</ele>
        <time>2022-06-27T21:48:50Z</time>
      </trkpt>
      <trkpt lat="43.07105" lon="-0.2627">
        <ele>420</ele>
        <time>2022-06-27T21:49:08Z</time>
      </trkpt>
      <trkpt lat="43.06965" lon="-0.26192">
        <ele>421</ele>
        <time>2022-06-27T21:49:35Z</time>
      </trkpt>
      <trkpt lat="43.06859" lon="-0.2607">
        <ele>405</ele>
        <time>2022-06-27T21:50:00Z</time>
      </trkpt>
      <trkpt lat="43.06759" lon="-0.26038">
        <ele>401</ele>
        <time>2022-06-27T21:50:18Z</time>
      </trkpt>
      <trkpt lat="43.06709" lon="-0.26048">
        <ele>404</ele>
        <time>2022-06-27T21:50:27Z</time>
      </trkpt>
      <trkpt lat="43.06686" lon="-0.26068">
        <ele>406</ele>
        <time>2022-06-27T21:50:32Z</time>
      </trkpt>
      <trkpt lat="43.06638" lon="-0.26141">
        <ele>416</ele>
        <time>2022-06-27T21:50:44Z</time>
      </trkpt>
      <trkpt lat="43.06549" lon="-0.26239">
        <ele>420</ele>
        <time>2022-06-27T21:51:05Z</time>
      </trkpt>
      <trkpt lat="43.06501" lon="-0.26268">
        <ele>417</ele>
        <time>2022-06-27T21:51:14Z</time>
      </trkpt>
      <trkpt lat="43.06458" lon="-0.26274">
        <ele>415</ele>
        <time>2022-06-27T21:51:22Z</time>
      </trkpt>
      <trkpt lat="43.06385" lon="-0.26316">
        <ele>432</ele>
        <time>2022-06-27T21:51:36Z</time>
      </trkpt>
      <trkpt lat="43.06369" lon="-0.26319">
        <ele>435</ele>
        <time>2022-06-27T21:51:39Z</time>
      </trkpt>
      <trkpt lat="43.06352" lon="-0.26318">
        <ele>437</ele>
        <time>2022-06-27T21:51:42Z</time>
      </trkpt>
      <trkpt lat="43.0634" lon="-0.26308">
        <ele>433</ele>
        <time>2022-06-27T21:51:44Z</time>
      </trkpt>
      <trkpt lat="43.0631" lon="-0.2625">
        <ele>407</ele>
        <time>2022-06-27T21:51:54Z</time>
      </trkpt>
      <trkpt lat="43.06293" lon="-0.26233">
        <ele>407</ele>
        <time>2022-06-27T21:51:57Z</time>
      </trkpt>
      <trkpt lat="43.0624" lon="-0.26229">
        <ele>409</ele>
        <time>2022-06-27T21:52:07Z</time>
      </trkpt>
      <trkpt lat="43.06223" lon="-0.26233">
        <ele>408</ele>
        <time>2022-06-27T21:52:10Z</time>
      </trkpt>
      <trkpt lat="43.0614" lon="-0.2629">
        <ele>419</ele>
        <time>2022-06-27T21:52:26Z</time>
      </trkpt>
      <trkpt lat="43.0611" lon="-0.26305">
        <ele>423</ele>
        <time>2022-06-27T21:52:32Z</time>
      </trkpt>
      <trkpt lat="43.06081" lon="-0.2631">
        <ele>423</ele>
        <time>2022-06-27T21:52:37Z</time>
      </trkpt>
      <trkpt lat="43.06049" lon="-0.2631">
        <ele>422</ele>
        <time>2022-06-27T21:52:43Z</time>
      </trkpt>
      <trkpt lat="43.0601" lon="-0.26294">
        <ele>417</ele>
        <time>2022-06-27T21:52:50Z</time>
      </trkpt>
      <trkpt lat="43.05997" lon="-0.2625">
        <ele>407</ele>
        <time>2022-06-27T21:52:56Z</time>
      </trkpt>
      <trkpt lat="43.05977" lon="-0.26235">
        <ele>409</ele>
        <time>2022-06-27T21:53:00Z</time>
      </trkpt>
      <trkpt lat="43.05904" lon="-0.26233">
        <ele>413</ele>
        <time>2022-06-27T21:53:13Z</time>
      </trkpt>
      <trkpt lat="43.0569" lon="-0.26259">
        <ele>423</ele>
        <time>2022-06-27T21:53:52Z</time>
      </trkpt>
      <trkpt lat="43.05669" lon="-0.26266">
        <ele>422</ele>
        <time>2022-06-27T21:53:55Z</time>
      </trkpt>
      <trkpt lat="43.05636" lon="-0.26288">
        <ele>423</ele>
        <time>2022-06-27T21:54:02Z</time>
      </trkpt>
      <trkpt lat="43.05579" lon="-0.26344">
        <ele>419</ele>
        <time>2022-06-27T21:54:14Z</time>
      </trkpt>
      <trkpt lat="43.05538" lon="-0.26355">
        <ele>419</ele>
        <time>2022-06-27T21:54:22Z</time>
      </trkpt>
      <trkpt lat="43.05503" lon="-0.26344">
        <ele>418</ele>
        <time>2022-06-27T21:54:28Z</time>
      </trkpt>
      <trkpt lat="43.05397" lon="-0.26255">
        <ele>428</ele>
        <time>2022-06-27T21:54:50Z</time>
      </trkpt>
      <trkpt lat="43.05359" lon="-0.26241">
        <ele>430</ele>
        <time>2022-06-27T21:54:57Z</time>
      </trkpt>
      <trkpt lat="43.05323" lon="-0.26242">
        <ele>430</ele>
        <time>2022-06-27T21:55:04Z</time>
      </trkpt>
      <trkpt lat="43.05309" lon="-0.26249">
        <ele>430</ele>
        <time>2022-06-27T21:55:06Z</time>
      </trkpt>
      <trkpt lat="43.05298" lon="-0.26263">
        <ele>431</ele>
        <time>2022-06-27T21:55:09Z</time>
      </trkpt>
      <trkpt lat="43.0522" lon="-0.26433">
        <ele>433</ele>
        <time>2022-06-27T21:55:35Z</time>
      </trkpt>
      <trkpt lat="43.0519" lon="-0.26481">
        <ele>430</ele>
        <time>2022-06-27T21:55:43Z</time>
      </trkpt>
      <trkpt lat="43.05166" lon="-0.26505">
        <ele>425</ele>
        <time>2022-06-27T21:55:49Z</time>
      </trkpt>
      <trkpt lat="43.05146" lon="-0.26514">
        <ele>427</ele>
        <time>2022-06-27T21:55:52Z</time>
      </trkpt>
      <trkpt lat="43.05121" lon="-0.26516">
        <ele>428</ele>
        <time>2022-06-27T21:55:57Z</time>
      </trkpt>
      <trkpt lat="43.05095" lon="-0.26513">
        <ele>429</ele>
        <time>2022-06-27T21:56:02Z</time>
      </trkpt>
      <trkpt lat="43.05008" lon="-0.26485">
        <ele>439</ele>
        <time>2022-06-27T21:56:17Z</time>
      </trkpt>
      <trkpt lat="43.04984" lon="-0.26484">
        <ele>441</ele>
        <time>2022-06-27T21:56:22Z</time>
      </trkpt>
      <trkpt lat="43.04931" lon="-0.26502">
        <ele>438</ele>
        <time>2022-06-27T21:56:31Z</time>
      </trkpt>
      <trkpt lat="43.04882" lon="-0.26531">
        <ele>440</ele>
        <time>2022-06-27T21:56:41Z</time>
      </trkpt>
      <trkpt lat="43.0482" lon="-0.2665">
        <ele>430</ele>
        <time>2022-06-27T21:57:00Z</time>
      </trkpt>
      <trkpt lat="43.04804" lon="-0.2667">
        <ele>431</ele>
        <time>2022-06-27T21:57:04Z</time>
      </trkpt>
      <trkpt lat="43.04719" lon="-0.26738">
        <ele>436</ele>
        <time>2022-06-27T21:57:21Z</time>
      </trkpt>
      <trkpt lat="43.04686" lon="-0.26749">
        <ele>437</ele>
        <time>2022-06-27T21:57:27Z</time>
      </trkpt>
      <trkpt lat="43.04618" lon="-0.2676">
        <ele>437</ele>
        <time>2022-06-27T21:57:40Z</time>
      </trkpt>
      <trkpt lat="43.046" lon="-0.26759">
        <ele>437</ele>
        <time>2022-06-27T21:57:43Z</time>
      </trkpt>
      <trkpt lat="43.04578" lon="-0.26748">
        <ele>437</ele>
        <time>2022-06-27T21:57:47Z</time>
      </trkpt>
      <trkpt lat="43.0444" lon="-0.26631">
        <ele>451</ele>
        <time>2022-06-27T21:58:16Z</time>
      </trkpt>
      <trkpt lat="43.04339" lon="-0.26362">
        <ele>455</ele>
        <time>2022-06-27T21:58:55Z</time>
      </trkpt>
      <trkpt lat="43.0421" lon="-0.26242">
        <ele>456</ele>
        <time>2022-06-27T21:59:23Z</time>
      </trkpt>
      <trkpt lat="43.04184" lon="-0.26231">
        <ele>461</ele>
        <time>2022-06-27T21:59:28Z</time>
      </trkpt>
      <trkpt lat="43.0411" lon="-0.26244">
        <ele>464</ele>
        <time>2022-06-27T21:59:41Z</time>
      </trkpt>
      <trkpt lat="43.04079" lon="-0.26236">
        <ele>464</ele>
        <time>2022-06-27T21:59:47Z</time>
      </trkpt>
      <trkpt lat="43.04054" lon="-0.26219">
        <ele>471</ele>
        <time>2022-06-27T21:59:52Z</time>
      </trkpt>
      <trkpt lat="43.04002" lon="-0.26135">
        <ele>458</ele>
        <time>2022-06-27T22:00:06Z</time>
      </trkpt>
      <trkpt lat="43.03967" lon="-0.261">
        <ele>460</ele>
        <time>2022-06-27T22:00:14Z</time>
      </trkpt>
      <trkpt lat="43.03829" lon="-0.26083">
        <ele>474</ele>
        <time>2022-06-27T22:00:38Z</time>
      </trkpt>
      <trkpt lat="43.038" lon="-0.26068">
        <ele>470</ele>
        <time>2022-06-27T22:00:44Z</time>
      </trkpt>
      <trkpt lat="43.03734" lon="-0.26016">
        <ele>466</ele>
        <time>2022-06-27T22:00:57Z</time>
      </trkpt>
      <trkpt lat="43.03683" lon="-0.25988">
        <ele>468</ele>
        <time>2022-06-27T22:01:07Z</time>
      </trkpt>
      <trkpt lat="43.03584" lon="-0.26005">
        <ele>473</ele>
        <time>2022-06-27T22:01:25Z</time>
      </trkpt>
      <trkpt lat="43.03522" lon="-0.25974">
        <ele>486</ele>
        <time>2022-06-27T22:01:37Z</time>
      </trkpt>
      <trkpt lat="43.03475" lon="-0.25968">
        <ele>488</ele>
        <time>2022-06-27T22:01:45Z</time>
      </trkpt>
      <trkpt lat="43.0346" lon="-0.25973">
        <ele>486</ele>
        <time>2022-06-27T22:01:48Z</time>
      </trkpt>
      <trkpt lat="43.03414" lon="-0.26013">
        <ele>479</ele>
        <time>2022-06-27T22:01:57Z</time>
      </trkpt>
      <trkpt lat="43.03355" lon="-0.261">
        <ele>479</ele>
        <time>2022-06-27T22:02:13Z</time>
      </trkpt>
      <trkpt lat="43.0333" lon="-0.26099">
        <ele>477</ele>
        <time>2022-06-27T22:02:17Z</time>
      </trkpt>
      <trkpt lat="43.0332" lon="-0.26075">
        <ele>478</ele>
        <time>2022-06-27T22:02:21Z</time>
      </trkpt>
      <trkpt lat="43.03323" lon="-0.26009">
        <ele>480</ele>
        <time>2022-06-27T22:02:30Z</time>
      </trkpt>
      <trkpt lat="43.03315" lon="-0.25977">
        <ele>483</ele>
        <time>2022-06-27T22:02:34Z</time>
      </trkpt>
      <trkpt lat="43.03272" lon="-0.25958">
        <ele>485</ele>
        <time>2022-06-27T22:02:42Z</time>
      </trkpt>
      <trkpt lat="43.032" lon="-0.25873">
        <ele>492</ele>
        <time>2022-06-27T22:02:59Z</time>
      </trkpt>
      <trkpt lat="43.03184" lon="-0.25861">
        <ele>491</ele>
        <time>2022-06-27T22:03:02Z</time>
      </trkpt>
      <trkpt lat="43.03106" lon="-0.25832">
        <ele>496</ele>
        <time>2022-06-27T22:03:17Z</time>
      </trkpt>
      <trkpt lat="43.03071" lon="-0.25815">
        <ele>503</ele>
        <time>2022-06-27T22:03:23Z</time>
      </trkpt>
      <trkpt lat="43.03058" lon="-0.25802">
        <ele>505</ele>
        <time>2022-06-27T22:03:26Z</time>
      </trkpt>
      <trkpt lat="43.03038" lon="-0.25759">
        <ele>500</ele>
        <time>2022-06-27T22:03:33Z</time>
      </trkpt>
      <trkpt lat="43.03003" lon="-0.25626">
        <ele>491</ele>
        <time>2022-06-27T22:03:51Z</time>
      </trkpt>
      <trkpt lat="43.02984" lon="-0.256">
        <ele>492</ele>
        <time>2022-06-27T22:03:56Z</time>
      </trkpt>
      <trkpt lat="43.02952" lon="-0.25584">
        <ele>490</ele>
        <time>2022-06-27T22:04:02Z</time>
      </trkpt>
      <trkpt lat="43.02809" lon="-0.25633">
        <ele>504</ele>
        <time>2022-06-27T22:04:28Z</time>
      </trkpt>
      <trkpt lat="43.02776" lon="-0.25634">
        <ele>508</ele>
        <time>2022-06-27T22:04:34Z</time>
      </trkpt>
      <trkpt lat="43.0275" lon="-0.25619">
        <ele>509</ele>
        <time>2022-06-27T22:04:39Z</time>
      </trkpt>
      <trkpt lat="43.02684" lon="-0.25539">
        <ele>519</ele>
        <time>2022-06-27T22:04:55Z</time>
      </trkpt>
      <trkpt lat="43.02652" lon="-0.25518">
        <ele>525</ele>
        <time>2022-06-27T22:05:01Z</time>
      </trkpt>
      <trkpt lat="43.02626" lon="-0.25528">
        <ele>526</ele>
        <time>2022-06-27T22:05:06Z</time>
      </trkpt>
      <trkpt lat="43.02596" lon="-0.25577">
        <ele>512</ele>
        <time>2022-06-27T22:05:14Z</time>
      </trkpt>
      <trkpt lat="43.02575" lon="-0.25596">
        <ele>515</ele>
        <time>2022-06-27T22:05:19Z</time>
      </trkpt>
      <trkpt lat="43.02536" lon="-0.2561">
        <ele>523</ele>
        <time>2022-06-27T22:05:26Z</time>
      </trkpt>
      <trkpt lat="43.02474" lon="-0.25614">
        <ele>527</ele>
        <time>2022-06-27T22:05:37Z</time>
      </trkpt>
      <trkpt lat="43.02449" lon="-0.25626">
        <ele>525</ele>
        <time>2022-06-27T22:05:42Z</time>
      </trkpt>
      <trkpt lat="43.02438" lon="-0.25626">
        <ele>525</ele>
        <time>2022-06-27T22:05:43Z</time>
      </trkpt>
      <trkpt lat="43.02365" lon="-0.25591">
        <ele>523</ele>
        <time>2022-06-27T22:05:57Z</time>
      </trkpt>
      <trkpt lat="43.02298" lon="-0.25578">
        <ele>522</ele>
        <time>2022-06-27T22:06:09Z</time>
      </trkpt>
      <trkpt lat="43.02266" lon="-0.25586">
        <ele>519</ele>
        <time>2022-06-27T22:06:15Z</time>
      </trkpt>
      <trkpt lat="43.0222" lon="-0.25628">
        <ele>520</ele>
        <time>2022-06-27T22:06:25Z</time>
      </trkpt>
      <trkpt lat="43.02185" lon="-0.25649">
        <ele>518</ele>
        <time>2022-06-27T22:06:32Z</time>
      </trkpt>
      <trkpt lat="43.02144" lon="-0.25664">
        <ele>517</ele>
        <time>2022-06-27T22:06:39Z</time>
      </trkpt>
      <trkpt lat="43.02088" lon="-0.25718">
        <ele>523</ele>
        <time>2022-06-27T22:06:51Z</time>
      </trkpt>
      <trkpt lat="43.02028" lon="-0.25749">
        <ele>527</ele>
        <time>2022-06-27T22:07:03Z</time>
      </trkpt>
      <trkpt lat="43.02011" lon="-0.25772">
        <ele>528</ele>
        <time>2022-06-27T22:07:07Z</time>
      </trkpt>
      <trkpt lat="43.01989" lon="-0.2582">
        <ele>527</ele>
        <time>2022-06-27T22:07:14Z</time>
      </trkpt>
      <trkpt lat="43.01901" lon="-0.25899">
        <ele>529</ele>
        <time>2022-06-27T22:07:33Z</time>
      </trkpt>
      <trkpt lat="43.01814" lon="-0.25867">
        <ele>545</ele>
        <time>2022-06-27T22:07:49Z</time>
      </trkpt>
      <trkpt lat="43.01802" lon="-0.25868">
        <ele>544</ele>
        <time>2022-06-27T22:07:51Z</time>
      </trkpt>
      <trkpt lat="43.01764" lon="-0.25892">
        <ele>535</ele>
        <time>2022-06-27T22:07:59Z</time>
      </trkpt>
      <trkpt lat="43.01732" lon="-0.259">
        <ele>535</ele>
        <time>2022-06-27T22:08:05Z</time>
      </trkpt>
      <trkpt lat="43.01705" lon="-0.25896">
        <ele>538</ele>
        <time>2022-06-27T22:08:09Z</time>
      </trkpt>
      <trkpt lat="43.0165" lon="-0.25867">
        <ele>546</ele>
        <time>2022-06-27T22:08:20Z</time>
      </trkpt>
      <trkpt lat="43.01559" lon="-0.25838">
        <ele>558</ele>
        <time>2022-06-27T22:08:37Z</time>
      </trkpt>
      <trkpt lat="43.01491" lon="-0.25849">
        <ele>561</ele>
        <time>2022-06-27T22:08:49Z</time>
      </trkpt>
      <trkpt lat="43.01424" lon="-0.25879">
        <ele>558</ele>
        <time>2022-06-27T22:09:01Z</time>
      </trkpt>
      <trkpt lat="43.0139" lon="-0.25907">
        <ele>553</ele>
        <time>2022-06-27T22:09:08Z</time>
      </trkpt>
      <trkpt lat="43.01352" lon="-0.25952">
        <ele>550</ele>
        <time>2022-06-27T22:09:17Z</time>
      </trkpt>
      <trkpt lat="43.01312" lon="-0.2598">
        <ele>550</ele>
        <time>2022-06-27T22:09:25Z</time>
      </trkpt>
      <trkpt lat="43.01262" lon="-0.26042">
        <ele>550</ele>
        <time>2022-06-27T22:09:37Z</time>
      </trkpt>
      <trkpt lat="43.01143" lon="-0.26211">
        <ele>553</ele>
        <time>2022-06-27T22:10:08Z</time>
      </trkpt>
      <trkpt lat="43.01072" lon="-0.26389">
        <ele>555</ele>
        <time>2022-06-27T22:10:34Z</time>
      </trkpt>
      <trkpt lat="43.0103" lon="-0.26438">
        <ele>558</ele>
        <time>2022-06-27T22:10:44Z</time>
      </trkpt>
      <trkpt lat="43.00991" lon="-0.2644">
        <ele>558</ele>
        <time>2022-06-27T22:10:51Z</time>
      </trkpt>
      <trkpt lat="43.00886" lon="-0.26413">
        <ele>570</ele>
        <time>2022-06-27T22:11:10Z</time>
      </trkpt>
      <trkpt lat="43.00852" lon="-0.2638">
        <ele>576</ele>
        <time>2022-06-27T22:11:17Z</time>
      </trkpt>
      <trkpt lat="43.00791" lon="-0.26288">
        <ele>584</ele>
        <time>2022-06-27T22:11:34Z</time>
      </trkpt>
      <trkpt lat="43.0078" lon="-0.26297">
        <ele>587</ele>
        <time>2022-06-27T22:11:36Z</time>
      </trkpt>
      <trkpt lat="43.00778" lon="-0.26335">
        <ele>591</ele>
        <time>2022-06-27T22:11:41Z</time>
      </trkpt>
      <trkpt lat="43.00792" lon="-0.26384">
        <ele>601</ele>
        <time>2022-06-27T22:11:48Z</time>
      </trkpt>
      <trkpt lat="43.00812" lon="-0.26417">
        <ele>597</ele>
        <time>2022-06-27T22:11:53Z</time>
      </trkpt>
      <trkpt lat="43.00882" lon="-0.26498">
        <ele>587</ele>
        <time>2022-06-27T22:12:10Z</time>
      </trkpt>
      <trkpt lat="43.00888" lon="-0.26523">
        <ele>587</ele>
        <time>2022-06-27T22:12:13Z</time>
      </trkpt>
      <trkpt lat="43.00883" lon="-0.26546">
        <ele>591</ele>
        <time>2022-06-27T22:12:16Z</time>
      </trkpt>
      <trkpt lat="43.00838" lon="-0.26591">
        <ele>612</ele>
        <time>2022-06-27T22:12:26Z</time>
      </trkpt>
      <trkpt lat="43.00813" lon="-0.26627">
        <ele>622</ele>
        <time>2022-06-27T22:12:32Z</time>
      </trkpt>
      <trkpt lat="43.00771" lon="-0.26716">
        <ele>628</ele>
        <time>2022-06-27T22:12:46Z</time>
      </trkpt>
      <trkpt lat="43.0073" lon="-0.26767">
        <ele>642</ele>
        <time>2022-06-27T22:12:56Z</time>
      </trkpt>
      <trkpt lat="43.00721" lon="-0.26793">
        <ele>645</ele>
        <time>2022-06-27T22:13:00Z</time>
      </trkpt>
      <trkpt lat="43.00695" lon="-0.26943">
        <ele>644</ele>
        <time>2022-06-27T22:13:20Z</time>
      </trkpt>
      <trkpt lat="43.00685" lon="-0.2696">
        <ele>646</ele>
        <time>2022-06-27T22:13:23Z</time>
      </trkpt>
      <trkpt lat="43.00644" lon="-0.26991">
        <ele>668</ele>
        <time>2022-06-27T22:13:31Z</time>
      </trkpt>
      <trkpt lat="43.00613" lon="-0.27024">
        <ele>686</ele>
        <time>2022-06-27T22:13:38Z</time>
      </trkpt>
      <trkpt lat="43.00613" lon="-0.27057">
        <ele>681</ele>
        <time>2022-06-27T22:13:42Z</time>
      </trkpt>
      <trkpt lat="43.00622" lon="-0.27098">
        <ele>668</ele>
        <time>2022-06-27T22:13:48Z</time>
      </trkpt>
      <trkpt lat="43.00596" lon="-0.27266">
        <ele>669</ele>
        <time>2022-06-27T22:14:10Z</time>
      </trkpt>
      <trkpt lat="43.00502" lon="-0.27423">
        <ele>691</ele>
        <time>2022-06-27T22:14:37Z</time>
      </trkpt>
      <trkpt lat="43.00467" lon="-0.27468">
        <ele>709</ele>
        <time>2022-06-27T22:14:45Z</time>
      </trkpt>
      <trkpt lat="43.00464" lon="-0.27555">
        <ele>697</ele>
        <time>2022-06-27T22:14:57Z</time>
      </trkpt>
      <trkpt lat="43.0038" lon="-0.27678">
        <ele>729</ele>
        <time>2022-06-27T22:15:18Z</time>
      </trkpt>
      <trkpt lat="43.0038" lon="-0.27698">
        <ele>732</ele>
        <time>2022-06-27T22:15:21Z</time>
      </trkpt>
      <trkpt lat="43.00447" lon="-0.2775">
        <ele>709</ele>
        <time>2022-06-27T22:15:35Z</time>
      </trkpt>
      <trkpt lat="43.00456" lon="-0.27765">
        <ele>707</ele>
        <time>2022-06-27T22:15:37Z</time>
      </trkpt>
      <trkpt lat="43.00454" lon="-0.27847">
        <ele>721</ele>
        <time>2022-06-27T22:15:48Z</time>
      </trkpt>
      <trkpt lat="43.00465" lon="-0.27916">
        <ele>716</ele>
        <time>2022-06-27T22:15:57Z</time>
      </trkpt>
      <trkpt lat="43.00465" lon="-0.27933">
        <ele>715</ele>
        <time>2022-06-27T22:15:59Z</time>
      </trkpt>
      <trkpt lat="43.0045" lon="-0.27972">
        <ele>724</ele>
        <time>2022-06-27T22:16:05Z</time>
      </trkpt>
      <trkpt lat="43.0045" lon="-0.28018">
        <ele>721</ele>
        <time>2022-06-27T22:16:11Z</time>
      </trkpt>
      <trkpt lat="43.00441" lon="-0.28078">
        <ele>718</ele>
        <time>2022-06-27T22:16:19Z</time>
      </trkpt>
      <trkpt lat="43.00424" lon="-0.2811">
        <ele>723</ele>
        <time>2022-06-27T22:16:24Z</time>
      </trkpt>
      <trkpt lat="43.00389" lon="-0.28155">
        <ele>741</ele>
        <time>2022-06-27T22:16:33Z</time>
      </trkpt>
      <trkpt lat="43.00399" lon="-0.28214">
        <ele>734</ele>
        <time>2022-06-27T22:16:41Z</time>
      </trkpt>
      <trkpt lat="43.0039" lon="-0.28317">
        <ele>744</ele>
        <time>2022-06-27T22:16:54Z</time>
      </trkpt>
      <trkpt lat="43.00426" lon="-0.28494">
        <ele>731</ele>
        <time>2022-06-27T22:17:18Z</time>
      </trkpt>
      <trkpt lat="43.00419" lon="-0.28516">
        <ele>731</ele>
        <time>2022-06-27T22:17:21Z</time>
      </trkpt>
      <trkpt lat="43.00394" lon="-0.28528">
        <ele>736</ele>
        <time>2022-06-27T22:17:26Z</time>
      </trkpt>
      <trkpt lat="43.00351" lon="-0.28532">
        <ele>751</ele>
        <time>2022-06-27T22:17:34Z</time>
      </trkpt>
      <trkpt lat="43.00267" lon="-0.28569">
        <ele>747</ele>
        <time>2022-06-27T22:17:49Z</time>
      </trkpt>
      <trkpt lat="43.00252" lon="-0.28571">
        <ele>748</ele>
        <time>2022-06-27T22:17:52Z</time>
      </trkpt>
      <trkpt lat="43.00188" lon="-0.28554">
        <ele>756</ele>
        <time>2022-06-27T22:18:04Z</time>
      </trkpt>
      <trkpt lat="43.00119" lon="-0.28557">
        <ele>757</ele>
        <time>2022-06-27T22:18:16Z</time>
      </trkpt>
      <trkpt lat="43.00022" lon="-0.28524">
        <ele>774</ele>
        <time>2022-06-27T22:18:34Z</time>
      </trkpt>
      <trkpt lat="42.99956" lon="-0.28539">
        <ele>778</ele>
        <time>2022-06-27T22:18:45Z</time>
      </trkpt>
      <trkpt lat="42.99913" lon="-0.28601">
        <ele>771</ele>
        <time>2022-06-27T22:18:57Z</time>
      </trkpt>
      <trkpt lat="42.99847" lon="-0.28634">
        <ele>773</ele>
        <time>2022-06-27T22:19:09Z</time>
      </trkpt>
      <trkpt lat="42.99781" lon="-0.28636">
        <ele>773</ele>
        <time>2022-06-27T22:19:21Z</time>
      </trkpt>
      <trkpt lat="42.99755" lon="-0.28625">
        <ele>774</ele>
        <time>2022-06-27T22:19:26Z</time>
      </trkpt>
      <trkpt lat="42.99734" lon="-0.28623">
        <ele>777</ele>
        <time>2022-06-27T22:19:29Z</time>
      </trkpt>
      <trkpt lat="42.99729" lon="-0.28601">
        <ele>782</ele>
        <time>2022-06-27T22:19:32Z</time>
      </trkpt>
      <trkpt lat="42.99742" lon="-0.28573">
        <ele>784</ele>
        <time>2022-06-27T22:19:37Z</time>
      </trkpt>
      <trkpt lat="42.99736" lon="-0.28564">
        <ele>788</ele>
        <time>2022-06-27T22:19:38Z</time>
      </trkpt>
      <trkpt lat="42.9973" lon="-0.28564">
        <ele>789</ele>
        <time>2022-06-27T22:19:39Z</time>
      </trkpt>
      <trkpt lat="42.99675" lon="-0.28623">
        <ele>789</ele>
        <time>2022-06-27T22:19:52Z</time>
      </trkpt>
      <trkpt lat="42.99627" lon="-0.28704">
        <ele>786</ele>
        <time>2022-06-27T22:20:05Z</time>
      </trkpt>
      <trkpt lat="42.99598" lon="-0.28715">
        <ele>793</ele>
        <time>2022-06-27T22:20:11Z</time>
      </trkpt>
      <trkpt lat="42.9949" lon="-0.28715">
        <ele>817</ele>
        <time>2022-06-27T22:20:30Z</time>
      </trkpt>
      <trkpt lat="42.99406" lon="-0.28738">
        <ele>816</ele>
        <time>2022-06-27T22:20:45Z</time>
      </trkpt>
      <trkpt lat="42.99359" lon="-0.2873">
        <ele>816</ele>
        <time>2022-06-27T22:20:54Z</time>
      </trkpt>
      <trkpt lat="42.99348" lon="-0.28723">
        <ele>817</ele>
        <time>2022-06-27T22:20:56Z</time>
      </trkpt>
      <trkpt lat="42.99343" lon="-0.28703">
        <ele>820</ele>
        <time>2022-06-27T22:20:59Z</time>
      </trkpt>
      <trkpt lat="42.99353" lon="-0.28687">
        <ele>824</ele>
        <time>2022-06-27T22:21:01Z</time>
      </trkpt>
      <trkpt lat="42.99398" lon="-0.28686">
        <ele>827</ele>
        <time>2022-06-27T22:21:09Z</time>
      </trkpt>
      <trkpt lat="42.99406" lon="-0.28681">
        <ele>829</ele>
        <time>2022-06-27T22:21:11Z</time>
      </trkpt>
      <trkpt lat="42.99414" lon="-0.28656">
        <ele>835</ele>
        <time>2022-06-27T22:21:14Z</time>
      </trkpt>
      <trkpt lat="42.99424" lon="-0.28644">
        <ele>838</ele>
        <time>2022-06-27T22:21:17Z</time>
      </trkpt>
      <trkpt lat="42.9949" lon="-0.28657">
        <ele>839</ele>
        <time>2022-06-27T22:21:29Z</time>
      </trkpt>
      <trkpt lat="42.99528" lon="-0.28649">
        <ele>836</ele>
        <time>2022-06-27T22:21:36Z</time>
      </trkpt>
      <trkpt lat="42.99555" lon="-0.28634">
        <ele>835</ele>
        <time>2022-06-27T22:21:41Z</time>
      </trkpt>
      <trkpt lat="42.9956" lon="-0.28627">
        <ele>836</ele>
        <time>2022-06-27T22:21:42Z</time>
      </trkpt>
      <trkpt lat="42.99555" lon="-0.2859">
        <ele>849</ele>
        <time>2022-06-27T22:21:47Z</time>
      </trkpt>
      <trkpt lat="42.99558" lon="-0.28531">
        <ele>862</ele>
        <time>2022-06-27T22:21:55Z</time>
      </trkpt>
      <trkpt lat="42.99593" lon="-0.28451">
        <ele>868</ele>
        <time>2022-06-27T22:22:07Z</time>
      </trkpt>
      <trkpt lat="42.99598" lon="-0.28381">
        <ele>883</ele>
        <time>2022-06-27T22:22:16Z</time>
      </trkpt>
      <trkpt lat="42.99606" lon="-0.28352">
        <ele>886</ele>
        <time>2022-06-27T22:22:20Z</time>
      </trkpt>
      <trkpt lat="42.99643" lon="-0.28278">
        <ele>898</ele>
        <time>2022-06-27T22:22:32Z</time>
      </trkpt>
      <trkpt lat="42.99702" lon="-0.28226">
        <ele>898</ele>
        <time>2022-06-27T22:22:44Z</time>
      </trkpt>
      <trkpt lat="42.99735" lon="-0.28173">
        <ele>902</ele>
        <time>2022-06-27T22:22:53Z</time>
      </trkpt>
      <trkpt lat="42.99751" lon="-0.28165">
        <ele>898</ele>
        <time>2022-06-27T22:22:56Z</time>
      </trkpt>
      <trkpt lat="42.99791" lon="-0.28161">
        <ele>900</ele>
        <time>2022-06-27T22:23:03Z</time>
      </trkpt>
      <trkpt lat="42.99824" lon="-0.28141">
        <ele>909</ele>
        <time>2022-06-27T22:23:10Z</time>
      </trkpt>
      <trkpt lat="42.99865" lon="-0.28145">
        <ele>916</ele>
        <time>2022-06-27T22:23:17Z</time>
      </trkpt>
      <trkpt lat="42.99894" lon="-0.28157">
        <ele>918</ele>
        <time>2022-06-27T22:23:22Z</time>
      </trkpt>
      <trkpt lat="42.99909" lon="-0.2817">
        <ele>917</ele>
        <time>2022-06-27T22:23:26Z</time>
      </trkpt>
      <trkpt lat="42.99915" lon="-0.28192">
        <ele>914</ele>
        <time>2022-06-27T22:23:29Z</time>
      </trkpt>
      <trkpt lat="42.99908" lon="-0.28218">
        <ele>906</ele>
        <time>2022-06-27T22:23:32Z</time>
      </trkpt>
      <trkpt lat="42.99918" lon="-0.28234">
        <ele>906</ele>
        <time>2022-06-27T22:23:35Z</time>
      </trkpt>
      <trkpt lat="42.99924" lon="-0.28231">
        <ele>908</ele>
        <time>2022-06-27T22:23:36Z</time>
      </trkpt>
      <trkpt lat="42.99927" lon="-0.28213">
        <ele>912</ele>
        <time>2022-06-27T22:23:38Z</time>
      </trkpt>
      <trkpt lat="42.99919" lon="-0.28173">
        <ele>919</ele>
        <time>2022-06-27T22:23:44Z</time>
      </trkpt>
      <trkpt lat="42.99835" lon="-0.28084">
        <ele>931</ele>
        <time>2022-06-27T22:24:03Z</time>
      </trkpt>
      <trkpt lat="42.99778" lon="-0.28046">
        <ele>945</ele>
        <time>2022-06-27T22:24:14Z</time>
      </trkpt>
      <trkpt lat="42.99753" lon="-0.28044">
        <ele>944</ele>
        <time>2022-06-27T22:24:19Z</time>
      </trkpt>
      <trkpt lat="42.99711" lon="-0.2805">
        <ele>958</ele>
        <time>2022-06-27T22:24:26Z</time>
      </trkpt>
      <trkpt lat="42.99694" lon="-0.2806">
        <ele>960</ele>
        <time>2022-06-27T22:24:29Z</time>
      </trkpt>
      <trkpt lat="42.99643" lon="-0.28145">
        <ele>951</ele>
        <time>2022-06-27T22:24:44Z</time>
      </trkpt>
      <trkpt lat="42.99617" lon="-0.28157">
        <ele>958</ele>
        <time>2022-06-27T22:24:49Z</time>
      </trkpt>
      <trkpt lat="42.99571" lon="-0.28202">
        <ele>955</ele>
        <time>2022-06-27T22:24:59Z</time>
      </trkpt>
      <trkpt lat="42.99511" lon="-0.28234">
        <ele>950</ele>
        <time>2022-06-27T22:25:10Z</time>
      </trkpt>
      <trkpt lat="42.9949" lon="-0.28233">
        <ele>950</ele>
        <time>2022-06-27T22:25:14Z</time>
      </trkpt>
      <trkpt lat="42.99458" lon="-0.28215">
        <ele>952</ele>
        <time>2022-06-27T22:25:20Z</time>
      </trkpt>
      <trkpt lat="42.99409" lon="-0.28148">
        <ele>961</ele>
        <time>2022-06-27T22:25:32Z</time>
      </trkpt>
      <trkpt lat="42.99399" lon="-0.28124">
        <ele>962</ele>
        <time>2022-06-27T22:25:36Z</time>
      </trkpt>
      <trkpt lat="42.99398" lon="-0.28051">
        <ele>977</ele>
        <time>2022-06-27T22:25:45Z</time>
      </trkpt>
      <trkpt lat="42.99385" lon="-0.28034">
        <ele>977</ele>
        <time>2022-06-27T22:25:49Z</time>
      </trkpt>
      <trkpt lat="42.99354" lon="-0.28012">
        <ele>974</ele>
        <time>2022-06-27T22:25:55Z</time>
      </trkpt>
      <trkpt lat="42.99337" lon="-0.27962">
        <ele>980</ele>
        <time>2022-06-27T22:26:02Z</time>
      </trkpt>
      <trkpt lat="42.99314" lon="-0.27938">
        <ele>981</ele>
        <time>2022-06-27T22:26:07Z</time>
      </trkpt>
      <trkpt lat="42.99305" lon="-0.2792">
        <ele>983</ele>
        <time>2022-06-27T22:26:10Z</time>
      </trkpt>
      <trkpt lat="42.99289" lon="-0.2787">
        <ele>987</ele>
        <time>2022-06-27T22:26:17Z</time>
      </trkpt>
      <trkpt lat="42.99249" lon="-0.27829">
        <ele>987</ele>
        <time>2022-06-27T22:26:26Z</time>
      </trkpt>
      <trkpt lat="42.99231" lon="-0.27774">
        <ele>992</ele>
        <time>2022-06-27T22:26:34Z</time>
      </trkpt>
      <trkpt lat="42.99232" lon="-0.27719">
        <ele>999</ele>
        <time>2022-06-27T22:26:41Z</time>
      </trkpt>
      <trkpt lat="42.9922" lon="-0.27663">
        <ele>1005</ele>
        <time>2022-06-27T22:26:49Z</time>
      </trkpt>
      <trkpt lat="42.99207" lon="-0.27645">
        <ele>1007</ele>
        <time>2022-06-27T22:26:52Z</time>
      </trkpt>
      <trkpt lat="42.99127" lon="-0.2761">
        <ele>1015</ele>
        <time>2022-06-27T22:27:07Z</time>
      </trkpt>
      <trkpt lat="42.99117" lon="-0.27614">
        <ele>1015</ele>
        <time>2022-06-27T22:27:09Z</time>
      </trkpt>
      <trkpt lat="42.99104" lon="-0.27633">
        <ele>1014</ele>
        <time>2022-06-27T22:27:12Z</time>
      </trkpt>
      <trkpt lat="42.99093" lon="-0.27691">
        <ele>1008</ele>
        <time>2022-06-27T22:27:20Z</time>
      </trkpt>
      <trkpt lat="42.99079" lon="-0.27708">
        <ele>1007</ele>
        <time>2022-06-27T22:27:23Z</time>
      </trkpt>
      <trkpt lat="42.99066" lon="-0.27714">
        <ele>1008</ele>
        <time>2022-06-27T22:27:26Z</time>
      </trkpt>
      <trkpt lat="42.99053" lon="-0.27712">
        <ele>1009</ele>
        <time>2022-06-27T22:27:28Z</time>
      </trkpt>
      <trkpt lat="42.9899" lon="-0.27659">
        <ele>1022</ele>
        <time>2022-06-27T22:27:41Z</time>
      </trkpt>
      <trkpt lat="42.9896" lon="-0.27621">
        <ele>1033</ele>
        <time>2022-06-27T22:27:48Z</time>
      </trkpt>
      <trkpt lat="42.98942" lon="-0.27609">
        <ele>1038</ele>
        <time>2022-06-27T22:27:52Z</time>
      </trkpt>
      <trkpt lat="42.98925" lon="-0.27611">
        <ele>1040</ele>
        <time>2022-06-27T22:27:55Z</time>
      </trkpt>
      <trkpt lat="42.98889" lon="-0.27659">
        <ele>1036</ele>
        <time>2022-06-27T22:28:04Z</time>
      </trkpt>
      <trkpt lat="42.98858" lon="-0.27674">
        <ele>1039</ele>
        <time>2022-06-27T22:28:10Z</time>
      </trkpt>
      <trkpt lat="42.98792" lon="-0.27655">
        <ele>1052</ele>
        <time>2022-06-27T22:28:22Z</time>
      </trkpt>
      <trkpt lat="42.98752" lon="-0.27686">
        <ele>1050</ele>
        <time>2022-06-27T22:28:30Z</time>
      </trkpt>
      <trkpt lat="42.98732" lon="-0.27685">
        <ele>1052</ele>
        <time>2022-06-27T22:28:33Z</time>
      </trkpt>
      <trkpt lat="42.98694" lon="-0.27666">
        <ele>1060</ele>
        <time>2022-06-27T22:28:41Z</time>
      </trkpt>
      <trkpt lat="42.9862" lon="-0.27689">
        <ele>1071</ele>
        <time>2022-06-27T22:28:54Z</time>
      </trkpt>
      <trkpt lat="42.98604" lon="-0.27702">
        <ele>1074</ele>
        <time>2022-06-27T22:28:58Z</time>
      </trkpt>
      <trkpt lat="42.9856" lon="-0.27772">
        <ele>1077</ele>
        <time>2022-06-27T22:29:10Z</time>
      </trkpt>
      <trkpt lat="42.98515" lon="-0.27861">
        <ele>1075</ele>
        <time>2022-06-27T22:29:24Z</time>
      </trkpt>
      <trkpt lat="42.98497" lon="-0.27872">
        <ele>1078</ele>
        <time>2022-06-27T22:29:27Z</time>
      </trkpt>
      <trkpt lat="42.98447" lon="-0.27887">
        <ele>1082</ele>
        <time>2022-06-27T22:29:36Z</time>
      </trkpt>
      <trkpt lat="42.98419" lon="-0.27887">
        <ele>1086</ele>
        <time>2022-06-27T22:29:41Z</time>
      </trkpt>
      <trkpt lat="42.98359" lon="-0.27865">
        <ele>1106</ele>
        <time>2022-06-27T22:29:52Z</time>
      </trkpt>
      <trkpt lat="42.98335" lon="-0.27871">
        <ele>1110</ele>
        <time>2022-06-27T22:29:57Z</time>
      </trkpt>
      <trkpt lat="42.98324" lon="-0.27881">
        <ele>1114</ele>
        <time>2022-06-27T22:29:59Z</time>
      </trkpt>
      <trkpt lat="42.98314" lon="-0.27895">
        <ele>1116</ele>
        <time>2022-06-27T22:30:01Z</time>
      </trkpt>
      <trkpt lat="42.98292" lon="-0.27978">
        <ele>1112</ele>
        <time>2022-06-27T22:30:13Z</time>
      </trkpt>
      <trkpt lat="42.98259" lon="-0.28071">
        <ele>1116</ele>
        <time>2022-06-27T22:30:26Z</time>
      </trkpt>
      <trkpt lat="42.98173" lon="-0.28182">
        <ele>1132</ele>
        <time>2022-06-27T22:30:47Z</time>
      </trkpt>
      <trkpt lat="42.98151" lon="-0.28275">
        <ele>1131</ele>
        <time>2022-06-27T22:31:00Z</time>
      </trkpt>
      <trkpt lat="42.98062" lon="-0.28313">
        <ele>1156</ele>
        <time>2022-06-27T22:31:17Z</time>
      </trkpt>
      <trkpt lat="42.9803" lon="-0.28383">
        <ele>1149</ele>
        <time>2022-06-27T22:31:28Z</time>
      </trkpt>
      <trkpt lat="42.98001" lon="-0.2841">
        <ele>1149</ele>
        <time>2022-06-27T22:31:34Z</time>
      </trkpt>
      <trkpt lat="42.9799" lon="-0.28415">
        <ele>1150</ele>
        <time>2022-06-27T22:31:36Z</time>
      </trkpt>
      <trkpt lat="42.9795" lon="-0.28413">
        <ele>1160</ele>
        <time>2022-06-27T22:31:43Z</time>
      </trkpt>
      <trkpt lat="42.97899" lon="-0.28404">
        <ele>1182</ele>
        <time>2022-06-27T22:31:52Z</time>
      </trkpt>
      <trkpt lat="42.97828" lon="-0.2847">
        <ele>1189</ele>
        <time>2022-06-27T22:32:07Z</time>
      </trkpt>
      <trkpt lat="42.97771" lon="-0.28538">
        <ele>1187</ele>
        <time>2022-06-27T22:32:21Z</time>
      </trkpt>
      <trkpt lat="42.97752" lon="-0.28552">
        <ele>1190</ele>
        <time>2022-06-27T22:32:25Z</time>
      </trkpt>
      <trkpt lat="42.97725" lon="-0.28562">
        <ele>1192</ele>
        <time>2022-06-27T22:32:30Z</time>
      </trkpt>
      <trkpt lat="42.97687" lon="-0.28612">
        <ele>1181</ele>
        <time>2022-06-27T22:32:39Z</time>
      </trkpt>
      <trkpt lat="42.97668" lon="-0.28604">
        <ele>1191</ele>
        <time>2022-06-27T22:32:43Z</time>
      </trkpt>
      <trkpt lat="42.9765" lon="-0.28578">
        <ele>1197</ele>
        <time>2022-06-27T22:32:47Z</time>
      </trkpt>
      <trkpt lat="42.97607" lon="-0.28574">
        <ele>1187</ele>
        <time>2022-06-27T22:32:55Z</time>
      </trkpt>
      <trkpt lat="42.97599" lon="-0.28554">
        <ele>1191</ele>
        <time>2022-06-27T22:32:58Z</time>
      </trkpt>
      <trkpt lat="42.97602" lon="-0.28436">
        <ele>1218</ele>
        <time>2022-06-27T22:33:13Z</time>
      </trkpt>
      <trkpt lat="42.97576" lon="-0.28364">
        <ele>1211</ele>
        <time>2022-06-27T22:33:24Z</time>
      </trkpt>
      <trkpt lat="42.97578" lon="-0.28342">
        <ele>1214</ele>
        <time>2022-06-27T22:33:27Z</time>
      </trkpt>
      <trkpt lat="42.97589" lon="-0.28323">
        <ele>1219</ele>
        <time>2022-06-27T22:33:30Z</time>
      </trkpt>
      <trkpt lat="42.97639" lon="-0.28263">
        <ele>1239</ele>
        <time>2022-06-27T22:33:42Z</time>
      </trkpt>
      <trkpt lat="42.97646" lon="-0.28244">
        <ele>1242</ele>
        <time>2022-06-27T22:33:44Z</time>
      </trkpt>
      <trkpt lat="42.97637" lon="-0.2818">
        <ele>1242</ele>
        <time>2022-06-27T22:33:53Z</time>
      </trkpt>
      <trkpt lat="42.9764" lon="-0.2814">
        <ele>1247</ele>
        <time>2022-06-27T22:33:58Z</time>
      </trkpt>
      <trkpt lat="42.97619" lon="-0.28079">
        <ele>1249</ele>
        <time>2022-06-27T22:34:07Z</time>
      </trkpt>
      <trkpt lat="42.97613" lon="-0.28021">
        <ele>1255</ele>
        <time>2022-06-27T22:34:14Z</time>
      </trkpt>
      <trkpt lat="42.97598" lon="-0.28003">
        <ele>1254</ele>
        <time>2022-06-27T22:34:18Z</time>
      </trkpt>
      <trkpt lat="42.97558" lon="-0.27992">
        <ele>1246</ele>
        <time>2022-06-27T22:34:25Z</time>
      </trkpt>
      <trkpt lat="42.97544" lon="-0.27975">
        <ele>1246</ele>
        <time>2022-06-27T22:34:29Z</time>
      </trkpt>
      <trkpt lat="42.97534" lon="-0.27901">
        <ele>1254</ele>
        <time>2022-06-27T22:34:38Z</time>
      </trkpt>
      <trkpt lat="42.97517" lon="-0.27841">
        <ele>1256</ele>
        <time>2022-06-27T22:34:47Z</time>
      </trkpt>
      <trkpt lat="42.97514" lon="-0.2775">
        <ele>1265</ele>
        <time>2022-06-27T22:34:59Z</time>
      </trkpt>
      <trkpt lat="42.97527" lon="-0.27663">
        <ele>1278</ele>
        <time>2022-06-27T22:35:10Z</time>
      </trkpt>
      <trkpt lat="42.97514" lon="-0.27639">
        <ele>1278</ele>
        <time>2022-06-27T22:35:14Z</time>
      </trkpt>
      <trkpt lat="42.97451" lon="-0.27581">
        <ele>1278</ele>
        <time>2022-06-27T22:35:28Z</time>
      </trkpt>
      <trkpt lat="42.97446" lon="-0.27569">
        <ele>1279</ele>
        <time>2022-06-27T22:35:29Z</time>
      </trkpt>
      <trkpt lat="42.97435" lon="-0.27497">
        <ele>1285</ele>
        <time>2022-06-27T22:35:39Z</time>
      </trkpt>
      <trkpt lat="42.97449" lon="-0.27423">
        <ele>1293</ele>
        <time>2022-06-27T22:35:49Z</time>
      </trkpt>
      <trkpt lat="42.97425" lon="-0.27374">
        <ele>1297</ele>
        <time>2022-06-27T22:35:57Z</time>
      </trkpt>
      <trkpt lat="42.97416" lon="-0.27362">
        <ele>1298</ele>
        <time>2022-06-27T22:35:59Z</time>
      </trkpt>
      <trkpt lat="42.97395" lon="-0.27356">
        <ele>1298</ele>
        <time>2022-06-27T22:36:03Z</time>
      </trkpt>
      <trkpt lat="42.97372" lon="-0.27335">
        <ele>1302</ele>
        <time>2022-06-27T22:36:08Z</time>
      </trkpt>
      <trkpt lat="42.9736" lon="-0.27335">
        <ele>1302</ele>
        <time>2022-06-27T22:36:10Z</time>
      </trkpt>
      <trkpt lat="42.97337" lon="-0.27347">
        <ele>1297</ele>
        <time>2022-06-27T22:36:14Z</time>
      </trkpt>
      <trkpt lat="42.97319" lon="-0.27346">
        <ele>1298</ele>
        <time>2022-06-27T22:36:17Z</time>
      </trkpt>
      <trkpt lat="42.97248" lon="-0.27317">
        <ele>1309</ele>
        <time>2022-06-27T22:36:31Z</time>
      </trkpt>
      <trkpt lat="42.97223" lon="-0.27311">
        <ele>1311</ele>
        <time>2022-06-27T22:36:35Z</time>
      </trkpt>
      <trkpt lat="42.97196" lon="-0.27314">
        <ele>1310</ele>
        <time>2022-06-27T22:36:40Z</time>
      </trkpt>
      <trkpt lat="42.97167" lon="-0.27296">
        <ele>1317</ele>
        <time>2022-06-27T22:36:46Z</time>
      </trkpt>
      <trkpt lat="42.97154" lon="-0.27295">
        <ele>1317</ele>
        <time>2022-06-27T22:36:48Z</time>
      </trkpt>
      <trkpt lat="42.97131" lon="-0.27306">
        <ele>1313</ele>
        <time>2022-06-27T22:36:52Z</time>
      </trkpt>
      <trkpt lat="42.97061" lon="-0.27293">
        <ele>1311</ele>
        <time>2022-06-27T22:37:05Z</time>
      </trkpt>
      <trkpt lat="42.97049" lon="-0.27284">
        <ele>1310</ele>
        <time>2022-06-27T22:37:07Z</time>
      </trkpt>
      <trkpt lat="42.97024" lon="-0.27243">
        <ele>1311</ele>
        <time>2022-06-27T22:37:14Z</time>
      </trkpt>
      <trkpt lat="42.97008" lon="-0.27186">
        <ele>1315</ele>
        <time>2022-06-27T22:37:22Z</time>
      </trkpt>
      <trkpt lat="42.97029" lon="-0.27072">
        <ele>1344</ele>
        <time>2022-06-27T22:37:37Z</time>
      </trkpt>
      <trkpt lat="42.97005" lon="-0.26975">
        <ele>1341</ele>
        <time>2022-06-27T22:37:51Z</time>
      </trkpt>
      <trkpt lat="42.96983" lon="-0.26921">
        <ele>1338</ele>
        <time>2022-06-27T22:37:59Z</time>
      </trkpt>
      <trkpt lat="42.96974" lon="-0.26838">
        <ele>1354</ele>
        <time>2022-06-27T22:38:10Z</time>
      </trkpt>
      <trkpt lat="42.96927" lon="-0.26736">
        <ele>1361</ele>
        <time>2022-06-27T22:38:25Z</time>
      </trkpt>
      <trkpt lat="42.96893" lon="-0.267">
        <ele>1366</ele>
        <time>2022-06-27T22:38:33Z</time>
      </trkpt>
      <trkpt lat="42.9683" lon="-0.26681">
        <ele>1371</ele>
        <time>2022-06-27T22:38:44Z</time>
      </trkpt>
      <trkpt lat="42.96794" lon="-0.26692">
        <ele>1368</ele>
        <time>2022-06-27T22:38:51Z</time>
      </trkpt>
      <trkpt lat="42.96761" lon="-0.26685">
        <ele>1373</ele>
        <time>2022-06-27T22:38:57Z</time>
      </trkpt>
      <trkpt lat="42.96706" lon="-0.26711">
        <ele>1369</ele>
        <time>2022-06-27T22:39:07Z</time>
      </trkpt>
      <trkpt lat="42.96677" lon="-0.26695">
        <ele>1378</ele>
        <time>2022-06-27T22:39:13Z</time>
      </trkpt>
      <trkpt lat="42.9665" lon="-0.26668">
        <ele>1390</ele>
        <time>2022-06-27T22:39:19Z</time>
      </trkpt>
      <trkpt lat="42.9664" lon="-0.26666">
        <ele>1391</ele>
        <time>2022-06-27T22:39:21Z</time>
      </trkpt>
      <trkpt lat="42.96539" lon="-0.26671">
        <ele>1398</ele>
        <time>2022-06-27T22:39:39Z</time>
      </trkpt>
      <trkpt lat="42.96502" lon="-0.26702">
        <ele>1393</ele>
        <time>2022-06-27T22:39:46Z</time>
      </trkpt>
      <trkpt lat="42.96479" lon="-0.26699">
        <ele>1396</ele>
        <time>2022-06-27T22:39:50Z</time>
      </trkpt>
      <trkpt lat="42.96426" lon="-0.26666">
        <ele>1409</ele>
        <time>2022-06-27T22:40:01Z</time>
      </trkpt>
      <trkpt lat="42.96404" lon="-0.26669">
        <ele>1410</ele>
        <time>2022-06-27T22:40:05Z</time>
      </trkpt>
      <trkpt lat="42.96376" lon="-0.26684">
        <ele>1410</ele>
        <time>2022-06-27T22:40:10Z</time>
      </trkpt>
      <trkpt lat="42.96323" lon="-0.26679">
        <ele>1417</ele>
        <time>2022-06-27T22:40:20Z</time>
      </trkpt>
      <trkpt lat="42.96311" lon="-0.26673">
        <ele>1418</ele>
        <time>2022-06-27T22:40:22Z</time>
      </trkpt>
      <trkpt lat="42.963" lon="-0.26663">
        <ele>1419</ele>
        <time>2022-06-27T22:40:24Z</time>
      </trkpt>
      <trkpt lat="42.96289" lon="-0.26633">
        <ele>1421</ele>
        <time>2022-06-27T22:40:29Z</time>
      </trkpt>
      <trkpt lat="42.96282" lon="-0.26527">
        <ele>1433</ele>
        <time>2022-06-27T22:40:42Z</time>
      </trkpt>
      <trkpt lat="42.96324" lon="-0.26418">
        <ele>1441</ele>
        <time>2022-06-27T22:40:58Z</time>
      </trkpt>
      <trkpt lat="42.96322" lon="-0.26381">
        <ele>1443</ele>
        <time>2022-06-27T22:41:03Z</time>
      </trkpt>
      <trkpt lat="42.96314" lon="-0.26371">
        <ele>1445</ele>
        <time>2022-06-27T22:41:05Z</time>
      </trkpt>
      <trkpt lat="42.96289" lon="-0.26359">
        <ele>1449</ele>
        <time>2022-06-27T22:41:10Z</time>
      </trkpt>
      <trkpt lat="42.96272" lon="-0.26367">
        <ele>1450</ele>
        <time>2022-06-27T22:41:13Z</time>
      </trkpt>
      <trkpt lat="42.96227" lon="-0.26417">
        <ele>1447</ele>
        <time>2022-06-27T22:41:23Z</time>
      </trkpt>
      <trkpt lat="42.962" lon="-0.2642">
        <ele>1449</ele>
        <time>2022-06-27T22:41:28Z</time>
      </trkpt>
      <trkpt lat="42.96183" lon="-0.26411">
        <ele>1451</ele>
        <time>2022-06-27T22:41:32Z</time>
      </trkpt>
      <trkpt lat="42.96165" lon="-0.26395">
        <ele>1453</ele>
        <time>2022-06-27T22:41:35Z</time>
      </trkpt>
      <trkpt lat="42.9615" lon="-0.26353">
        <ele>1456</ele>
        <time>2022-06-27T22:41:41Z</time>
      </trkpt>
      <trkpt lat="42.96157" lon="-0.26307">
        <ele>1458</ele>
        <time>2022-06-27T22:41:48Z</time>
      </trkpt>
      <trkpt lat="42.96198" lon="-0.26218">
        <ele>1462</ele>
        <time>2022-06-27T22:42:01Z</time>
      </trkpt>
      <trkpt lat="42.96196" lon="-0.26186">
        <ele>1464</ele>
        <time>2022-06-27T22:42:05Z</time>
      </trkpt>
      <trkpt lat="42.96189" lon="-0.26171">
        <ele>1464</ele>
        <time>2022-06-27T22:42:08Z</time>
      </trkpt>
      <trkpt lat="42.96165" lon="-0.26157">
        <ele>1464</ele>
        <time>2022-06-27T22:42:12Z</time>
      </trkpt>
      <trkpt lat="42.96074" lon="-0.26185">
        <ele>1469</ele>
        <time>2022-06-27T22:42:29Z</time>
      </trkpt>
      <trkpt lat="42.96064" lon="-0.26176">
        <ele>1470</ele>
        <time>2022-06-27T22:42:31Z</time>
      </trkpt>
      <trkpt lat="42.9604" lon="-0.26376">
        <ele>1462</ele>
        <time>2022-06-27T22:42:58Z</time>
      </trkpt>
      <trkpt lat="42.9599" lon="-0.26505">
        <ele>1453</ele>
        <time>2022-06-27T22:43:17Z</time>
      </trkpt>
      <trkpt lat="42.95942" lon="-0.26769">
        <ele>1446</ele>
        <time>2022-06-27T22:43:52Z</time>
      </trkpt>
      <trkpt lat="42.95934" lon="-0.26846">
        <ele>1445</ele>
        <time>2022-06-27T22:44:02Z</time>
      </trkpt>
      <trkpt lat="42.9591" lon="-0.26894">
        <ele>1443</ele>
        <time>2022-06-27T22:44:10Z</time>
      </trkpt>
      <trkpt lat="42.95883" lon="-0.26929">
        <ele>1446</ele>
        <time>2022-06-27T22:44:16Z</time>
      </trkpt>
      <trkpt lat="42.95861" lon="-0.27004">
        <ele>1441</ele>
        <time>2022-06-27T22:44:27Z</time>
      </trkpt>
      <trkpt lat="42.95834" lon="-0.27047">
        <ele>1445</ele>
        <time>2022-06-27T22:44:34Z</time>
      </trkpt>
      <trkpt lat="42.95827" lon="-0.2707">
        <ele>1446</ele>
        <time>2022-06-27T22:44:37Z</time>
      </trkpt>
      <trkpt lat="42.95834" lon="-0.27171">
        <ele>1441</ele>
        <time>2022-06-27T22:44:51Z</time>
      </trkpt>
      <trkpt lat="42.95805" lon="-0.27272">
        <ele>1448</ele>
        <time>2022-06-27T22:45:05Z</time>
      </trkpt>
      <trkpt lat="42.9581" lon="-0.2734">
        <ele>1445</ele>
        <time>2022-06-27T22:45:14Z</time>
      </trkpt>
      <trkpt lat="42.95842" lon="-0.27424">
        <ele>1434</ele>
        <time>2022-06-27T22:45:26Z</time>
      </trkpt>
      <trkpt lat="42.95844" lon="-0.27446">
        <ele>1433</ele>
        <time>2022-06-27T22:45:29Z</time>
      </trkpt>
      <trkpt lat="42.95822" lon="-0.27498">
        <ele>1439</ele>
        <time>2022-06-27T22:45:37Z</time>
      </trkpt>
      <trkpt lat="42.95814" lon="-0.27548">
        <ele>1427</ele>
        <time>2022-06-27T22:45:43Z</time>
      </trkpt>
      <trkpt lat="42.95786" lon="-0.27651">
        <ele>1402</ele>
        <time>2022-06-27T22:45:58Z</time>
      </trkpt>
      <trkpt lat="42.95779" lon="-0.27661">
        <ele>1401</ele>
        <time>2022-06-27T22:45:59Z</time>
      </trkpt>
      <trkpt lat="42.9576" lon="-0.27662">
        <ele>1406</ele>
        <time>2022-06-27T22:46:03Z</time>
      </trkpt>
      <trkpt lat="42.95718" lon="-0.27637">
        <ele>1413</ele>
        <time>2022-06-27T22:46:11Z</time>
      </trkpt>
      <trkpt lat="42.9564" lon="-0.27628">
        <ele>1410</ele>
        <time>2022-06-27T22:46:25Z</time>
      </trkpt>
      <trkpt lat="42.95573" lon="-0.27683">
        <ele>1402</ele>
        <time>2022-06-27T22:46:39Z</time>
      </trkpt>
      <trkpt lat="42.95531" lon="-0.27733">
        <ele>1402</ele>
        <time>2022-06-27T22:46:49Z</time>
      </trkpt>
      <trkpt lat="42.95542" lon="-0.27821">
        <ele>1394</ele>
        <time>2022-06-27T22:47:00Z</time>
      </trkpt>
      <trkpt lat="42.9553" lon="-0.27967">
        <ele>1388</ele>
        <time>2022-06-27T22:47:19Z</time>
      </trkpt>
      <trkpt lat="42.95517" lon="-0.28039">
        <ele>1382</ele>
        <time>2022-06-27T22:47:29Z</time>
      </trkpt>
      <trkpt lat="42.95486" lon="-0.2811">
        <ele>1391</ele>
        <time>2022-06-27T22:47:40Z</time>
      </trkpt>
      <trkpt lat="42.95501" lon="-0.28185">
        <ele>1366</ele>
        <time>2022-06-27T22:47:50Z</time>
      </trkpt>
      <trkpt lat="42.95489" lon="-0.28341">
        <ele>1365</ele>
        <time>2022-06-27T22:48:10Z</time>
      </trkpt>
      <trkpt lat="42.95502" lon="-0.2838">
        <ele>1356</ele>
        <time>2022-06-27T22:48:16Z</time>
      </trkpt>
      <trkpt lat="42.95503" lon="-0.28412">
        <ele>1357</ele>
        <time>2022-06-27T22:48:20Z</time>
      </trkpt>
      <trkpt lat="42.95493" lon="-0.28458">
        <ele>1360</ele>
        <time>2022-06-27T22:48:26Z</time>
      </trkpt>
      <trkpt lat="42.95461" lon="-0.28513">
        <ele>1367</ele>
        <time>2022-06-27T22:48:36Z</time>
      </trkpt>
      <trkpt lat="42.9539" lon="-0.28674">
        <ele>1378</ele>
        <time>2022-06-27T22:49:00Z</time>
      </trkpt>
      <trkpt lat="42.9543" lon="-0.28807">
        <ele>1370</ele>
        <time>2022-06-27T22:49:19Z</time>
      </trkpt>
      <trkpt lat="42.95439" lon="-0.28857">
        <ele>1379</ele>
        <time>2022-06-27T22:49:26Z</time>
      </trkpt>
      <trkpt lat="42.9546" lon="-0.2889">
        <ele>1376</ele>
        <time>2022-06-27T22:49:31Z</time>
      </trkpt>
      <trkpt lat="42.9549" lon="-0.2892">
        <ele>1367</ele>
        <time>2022-06-27T22:49:38Z</time>
      </trkpt>
      <trkpt lat="42.95506" lon="-0.28978">
        <ele>1433</ele>
        <time>2022-06-27T22:49:46Z</time>
      </trkpt>
      <trkpt lat="42.95588" lon="-0.29061">
        <ele>1495</ele>
        <time>2022-06-27T22:50:04Z</time>
      </trkpt>
      <trkpt lat="42.95607" lon="-0.29073">
        <ele>1491</ele>
        <time>2022-06-27T22:50:08Z</time>
      </trkpt>
      <trkpt lat="42.95696" lon="-0.29069">
        <ele>1418</ele>
        <time>2022-06-27T22:50:24Z</time>
      </trkpt>
      <trkpt lat="42.95736" lon="-0.29059">
        <ele>1370</ele>
        <time>2022-06-27T22:50:31Z</time>
      </trkpt>
      <trkpt lat="42.95769" lon="-0.29101">
        <ele>1366</ele>
        <time>2022-06-27T22:50:39Z</time>
      </trkpt>
      <trkpt lat="42.95795" lon="-0.29108">
        <ele>1344</ele>
        <time>2022-06-27T22:50:44Z</time>
      </trkpt>
      <trkpt lat="42.95803" lon="-0.29117">
        <ele>1342</ele>
        <time>2022-06-27T22:50:45Z</time>
      </trkpt>
      <trkpt lat="42.95804" lon="-0.29173">
        <ele>1373</ele>
        <time>2022-06-27T22:50:53Z</time>
      </trkpt>
      <trkpt lat="42.95828" lon="-0.29223">
        <ele>1365</ele>
        <time>2022-06-27T22:51:01Z</time>
      </trkpt>
      <trkpt lat="42.9583" lon="-0.29299">
        <ele>1381</ele>
        <time>2022-06-27T22:51:10Z</time>
      </trkpt>
      <trkpt lat="42.95855" lon="-0.29328">
        <ele>1367</ele>
        <time>2022-06-27T22:51:16Z</time>
      </trkpt>
      <trkpt lat="42.95878" lon="-0.29374">
        <ele>1369</ele>
        <time>2022-06-27T22:51:24Z</time>
      </trkpt>
      <trkpt lat="42.95932" lon="-0.29444">
        <ele>1368</ele>
        <time>2022-06-27T22:51:37Z</time>
      </trkpt>
      <trkpt lat="42.95946" lon="-0.29511">
        <ele>1394</ele>
        <time>2022-06-27T22:51:46Z</time>
      </trkpt>
      <trkpt lat="42.95957" lon="-0.29531">
        <ele>1395</ele>
        <time>2022-06-27T22:51:49Z</time>
      </trkpt>
      <trkpt lat="42.95988" lon="-0.29564">
        <ele>1385</ele>
        <time>2022-06-27T22:51:56Z</time>
      </trkpt>
      <trkpt lat="42.96024" lon="-0.29591">
        <ele>1366</ele>
        <time>2022-06-27T22:52:03Z</time>
      </trkpt>
      <trkpt lat="42.96039" lon="-0.29613">
        <ele>1365</ele>
        <time>2022-06-27T22:52:07Z</time>
      </trkpt>
      <trkpt lat="42.96093" lon="-0.29737">
        <ele>1386</ele>
        <time>2022-06-27T22:52:26Z</time>
      </trkpt>
      <trkpt lat="42.96129" lon="-0.29771">
        <ele>1378</ele>
        <time>2022-06-27T22:52:34Z</time>
      </trkpt>
      <trkpt lat="42.96175" lon="-0.29801">
        <ele>1362</ele>
        <time>2022-06-27T22:52:43Z</time>
      </trkpt>
      <trkpt lat="42.96242" lon="-0.29926">
        <ele>1382</ele>
        <time>2022-06-27T22:53:03Z</time>
      </trkpt>
      <trkpt lat="42.96257" lon="-0.29944">
        <ele>1377</ele>
        <time>2022-06-27T22:53:07Z</time>
      </trkpt>
      <trkpt lat="42.96276" lon="-0.30021">
        <ele>1389</ele>
        <time>2022-06-27T22:53:17Z</time>
      </trkpt>
      <trkpt lat="42.96327" lon="-0.30161">
        <ele>1384</ele>
        <time>2022-06-27T22:53:38Z</time>
      </trkpt>
      <trkpt lat="42.96354" lon="-0.30279">
        <ele>1408</ele>
        <time>2022-06-27T22:53:54Z</time>
      </trkpt>
      <trkpt lat="42.9637" lon="-0.30325">
        <ele>1417</ele>
        <time>2022-06-27T22:54:00Z</time>
      </trkpt>
      <trkpt lat="42.96379" lon="-0.30332">
        <ele>1414</ele>
        <time>2022-06-27T22:54:02Z</time>
      </trkpt>
      <trkpt lat="42.96422" lon="-0.30321">
        <ele>1391</ele>
        <time>2022-06-27T22:54:10Z</time>
      </trkpt>
      <trkpt lat="42.96437" lon="-0.30297">
        <ele>1389</ele>
        <time>2022-06-27T22:54:14Z</time>
      </trkpt>
      <trkpt lat="42.96477" lon="-0.30263">
        <ele>1392</ele>
        <time>2022-06-27T22:54:22Z</time>
      </trkpt>
      <trkpt lat="42.96525" lon="-0.30225">
        <ele>1396</ele>
        <time>2022-06-27T22:54:32Z</time>
      </trkpt>
      <trkpt lat="42.96588" lon="-0.30186">
        <ele>1402</ele>
        <time>2022-06-27T22:54:45Z</time>
      </trkpt>
      <trkpt lat="42.96601" lon="-0.30187">
        <ele>1401</ele>
        <time>2022-06-27T22:54:47Z</time>
      </trkpt>
      <trkpt lat="42.9661" lon="-0.30196">
        <ele>1402</ele>
        <time>2022-06-27T22:54:49Z</time>
      </trkpt>
      <trkpt lat="42.96655" lon="-0.30272">
        <ele>1423</ele>
        <time>2022-06-27T22:55:02Z</time>
      </trkpt>
      <trkpt lat="42.96694" lon="-0.30273">
        <ele>1428</ele>
        <time>2022-06-27T22:55:09Z</time>
      </trkpt>
      <trkpt lat="42.9677" lon="-0.30204">
        <ele>1416</ele>
        <time>2022-06-27T22:55:25Z</time>
      </trkpt>
      <trkpt lat="42.9679" lon="-0.30198">
        <ele>1420</ele>
        <time>2022-06-27T22:55:29Z</time>
      </trkpt>
      <trkpt lat="42.96829" lon="-0.30201">
        <ele>1433</ele>
        <time>2022-06-27T22:55:35Z</time>
      </trkpt>
      <trkpt lat="42.96868" lon="-0.30149">
        <ele>1427</ele>
        <time>2022-06-27T22:55:45Z</time>
      </trkpt>
      <trkpt lat="42.96898" lon="-0.30122">
        <ele>1428</ele>
        <time>2022-06-27T22:55:52Z</time>
      </trkpt>
      <trkpt lat="42.96977" lon="-0.3006">
        <ele>1419</ele>
        <time>2022-06-27T22:56:08Z</time>
      </trkpt>
      <trkpt lat="42.97" lon="-0.3005">
        <ele>1420</ele>
        <time>2022-06-27T22:56:12Z</time>
      </trkpt>
      <trkpt lat="42.97012" lon="-0.30064">
        <ele>1420</ele>
        <time>2022-06-27T22:56:15Z</time>
      </trkpt>
      <trkpt lat="42.97027" lon="-0.30114">
        <ele>1433</ele>
        <time>2022-06-27T22:56:22Z</time>
      </trkpt>
      <trkpt lat="42.9713" lon="-0.30209">
        <ele>1433</ele>
        <time>2022-06-27T22:56:44Z</time>
      </trkpt>
      <trkpt lat="42.97206" lon="-0.30344">
        <ele>1440</ele>
        <time>2022-06-27T22:57:06Z</time>
      </trkpt>
      <trkpt lat="42.97274" lon="-0.30442">
        <ele>1449</ele>
        <time>2022-06-27T22:57:24Z</time>
      </trkpt>
      <trkpt lat="42.97282" lon="-0.30446">
        <ele>1449</ele>
        <time>2022-06-27T22:57:25Z</time>
      </trkpt>
      <trkpt lat="42.97321" lon="-0.30444">
        <ele>1441</ele>
        <time>2022-06-27T22:57:32Z</time>
      </trkpt>
      <trkpt lat="42.97344" lon="-0.30462">
        <ele>1444</ele>
        <time>2022-06-27T22:57:37Z</time>
      </trkpt>
      <trkpt lat="42.97384" lon="-0.30469">
        <ele>1438</ele>
        <time>2022-06-27T22:57:44Z</time>
      </trkpt>
      <trkpt lat="42.97427" lon="-0.30525">
        <ele>1446</ele>
        <time>2022-06-27T22:57:55Z</time>
      </trkpt>
      <trkpt lat="42.9746" lon="-0.30548">
        <ele>1442</ele>
        <time>2022-06-27T22:58:01Z</time>
      </trkpt>
      <trkpt lat="42.97475" lon="-0.30566">
        <ele>1442</ele>
        <time>2022-06-27T22:58:05Z</time>
      </trkpt>
      <trkpt lat="42.97481" lon="-0.30599">
        <ele>1445</ele>
        <time>2022-06-27T22:58:09Z</time>
      </trkpt>
      <trkpt lat="42.97462" lon="-0.30749">
        <ele>1451</ele>
        <time>2022-06-27T22:58:29Z</time>
      </trkpt>
      <trkpt lat="42.97448" lon="-0.30781">
        <ele>1462</ele>
        <time>2022-06-27T22:58:34Z</time>
      </trkpt>
      <trkpt lat="42.97448" lon="-0.30802">
        <ele>1466</ele>
        <time>2022-06-27T22:58:37Z</time>
      </trkpt>
      <trkpt lat="42.97483" lon="-0.30872">
        <ele>1469</ele>
        <time>2022-06-27T22:58:48Z</time>
      </trkpt>
      <trkpt lat="42.97524" lon="-0.30914">
        <ele>1464</ele>
        <time>2022-06-27T22:58:57Z</time>
      </trkpt>
      <trkpt lat="42.97559" lon="-0.30974">
        <ele>1474</ele>
        <time>2022-06-27T22:59:07Z</time>
      </trkpt>
      <trkpt lat="42.97614" lon="-0.31045">
        <ele>1465</ele>
        <time>2022-06-27T22:59:20Z</time>
      </trkpt>
      <trkpt lat="42.97616" lon="-0.31083">
        <ele>1472</ele>
        <time>2022-06-27T22:59:25Z</time>
      </trkpt>
      <trkpt lat="42.97603" lon="-0.31148">
        <ele>1478</ele>
        <time>2022-06-27T22:59:34Z</time>
      </trkpt>
      <trkpt lat="42.97587" lon="-0.31219">
        <ele>1485</ele>
        <time>2022-06-27T22:59:44Z</time>
      </trkpt>
      <trkpt lat="42.97561" lon="-0.31295">
        <ele>1500</ele>
        <time>2022-06-27T22:59:55Z</time>
      </trkpt>
      <trkpt lat="42.97573" lon="-0.31351">
        <ele>1491</ele>
        <time>2022-06-27T23:00:02Z</time>
      </trkpt>
      <trkpt lat="42.97568" lon="-0.31421">
        <ele>1496</ele>
        <time>2022-06-27T23:00:11Z</time>
      </trkpt>
      <trkpt lat="42.97553" lon="-0.3147">
        <ele>1512</ele>
        <time>2022-06-27T23:00:18Z</time>
      </trkpt>
      <trkpt lat="42.97563" lon="-0.31505">
        <ele>1505</ele>
        <time>2022-06-27T23:00:23Z</time>
      </trkpt>
      <trkpt lat="42.9757" lon="-0.31646">
        <ele>1506</ele>
        <time>2022-06-27T23:00:42Z</time>
      </trkpt>
      <trkpt lat="42.97565" lon="-0.31701">
        <ele>1508</ele>
        <time>2022-06-27T23:00:49Z</time>
      </trkpt>
      <trkpt lat="42.97554" lon="-0.31733">
        <ele>1512</ele>
        <time>2022-06-27T23:00:53Z</time>
      </trkpt>
      <trkpt lat="42.97536" lon="-0.31765">
        <ele>1513</ele>
        <time>2022-06-27T23:00:59Z</time>
      </trkpt>
      <trkpt lat="42.97462" lon="-0.31809">
        <ele>1514</ele>
        <time>2022-06-27T23:01:13Z</time>
      </trkpt>
      <trkpt lat="42.97442" lon="-0.31833">
        <ele>1501</ele>
        <time>2022-06-27T23:01:18Z</time>
      </trkpt>
      <trkpt lat="42.97374" lon="-0.31819">
        <ele>1524</ele>
        <time>2022-06-27T23:01:30Z</time>
      </trkpt>
      <trkpt lat="42.97332" lon="-0.31803">
        <ele>1544</ele>
        <time>2022-06-27T23:01:38Z</time>
      </trkpt>
      <trkpt lat="42.97283" lon="-0.31803">
        <ele>1553</ele>
        <time>2022-06-27T23:01:46Z</time>
      </trkpt>
      <trkpt lat="42.97257" lon="-0.31815">
        <ele>1554</ele>
        <time>2022-06-27T23:01:51Z</time>
      </trkpt>
      <trkpt lat="42.97225" lon="-0.32028">
        <ele>1551</ele>
        <time>2022-06-27T23:02:20Z</time>
      </trkpt>
      <trkpt lat="42.97227" lon="-0.32079">
        <ele>1548</ele>
        <time>2022-06-27T23:02:26Z</time>
      </trkpt>
      <trkpt lat="42.9722" lon="-0.32118">
        <ele>1550</ele>
        <time>2022-06-27T23:02:31Z</time>
      </trkpt>
      <trkpt lat="42.97185" lon="-0.32201">
        <ele>1560</ele>
        <time>2022-06-27T23:02:44Z</time>
      </trkpt>
      <trkpt lat="42.97141" lon="-0.32242">
        <ele>1578</ele>
        <time>2022-06-27T23:02:53Z</time>
      </trkpt>
      <trkpt lat="42.97134" lon="-0.32276">
        <ele>1578</ele>
        <time>2022-06-27T23:02:58Z</time>
      </trkpt>
      <trkpt lat="42.97144" lon="-0.32321">
        <ele>1568</ele>
        <time>2022-06-27T23:03:04Z</time>
      </trkpt>
      <trkpt lat="42.97137" lon="-0.32356">
        <ele>1573</ele>
        <time>2022-06-27T23:03:09Z</time>
      </trkpt>
      <trkpt lat="42.97129" lon="-0.3237">
        <ele>1578</ele>
        <time>2022-06-27T23:03:11Z</time>
      </trkpt>
      <trkpt lat="42.97098" lon="-0.32391">
        <ele>1591</ele>
        <time>2022-06-27T23:03:17Z</time>
      </trkpt>
      <trkpt lat="42.97087" lon="-0.3241">
        <ele>1594</ele>
        <time>2022-06-27T23:03:20Z</time>
      </trkpt>
      <trkpt lat="42.97087" lon="-0.32422">
        <ele>1594</ele>
        <time>2022-06-27T23:03:22Z</time>
      </trkpt>
      <trkpt lat="42.97096" lon="-0.32436">
        <ele>1594</ele>
        <time>2022-06-27T23:03:24Z</time>
      </trkpt>
      <trkpt lat="42.97129" lon="-0.3246">
        <ele>1592</ele>
        <time>2022-06-27T23:03:31Z</time>
      </trkpt>
      <trkpt lat="42.9718" lon="-0.3247">
        <ele>1585</ele>
        <time>2022-06-27T23:03:40Z</time>
      </trkpt>
      <trkpt lat="42.97222" lon="-0.32468">
        <ele>1582</ele>
        <time>2022-06-27T23:03:48Z</time>
      </trkpt>
      <trkpt lat="42.97238" lon="-0.32483">
        <ele>1585</ele>
        <time>2022-06-27T23:03:51Z</time>
      </trkpt>
      <trkpt lat="42.97248" lon="-0.32509">
        <ele>1589</ele>
        <time>2022-06-27T23:03:55Z</time>
      </trkpt>
      <trkpt lat="42.97249" lon="-0.32527">
        <ele>1591</ele>
        <time>2022-06-27T23:03:57Z</time>
      </trkpt>
      <trkpt lat="42.97238" lon="-0.32563">
        <ele>1597</ele>
        <time>2022-06-27T23:04:02Z</time>
      </trkpt>
      <trkpt lat="42.97178" lon="-0.3262">
        <ele>1609</ele>
        <time>2022-06-27T23:04:15Z</time>
      </trkpt>
      <trkpt lat="42.97133" lon="-0.32697">
        <ele>1613</ele>
        <time>2022-06-27T23:04:28Z</time>
      </trkpt>
      <trkpt lat="42.97117" lon="-0.3274">
        <ele>1614</ele>
        <time>2022-06-27T23:04:35Z</time>
      </trkpt>
      <trkpt lat="42.97122" lon="-0.3277">
        <ele>1615</ele>
        <time>2022-06-27T23:04:39Z</time>
      </trkpt>
      <trkpt lat="42.97154" lon="-0.32816">
        <ele>1613</ele>
        <time>2022-06-27T23:04:47Z</time>
      </trkpt>
      <trkpt lat="42.97147" lon="-0.32872">
        <ele>1620</ele>
        <time>2022-06-27T23:04:54Z</time>
      </trkpt>
      <trkpt lat="42.97177" lon="-0.33014">
        <ele>1627</ele>
        <time>2022-06-27T23:05:14Z</time>
      </trkpt>
      <trkpt lat="42.97223" lon="-0.33101">
        <ele>1630</ele>
        <time>2022-06-27T23:05:27Z</time>
      </trkpt>
      <trkpt lat="42.97216" lon="-0.33188">
        <ele>1649</ele>
        <time>2022-06-27T23:05:39Z</time>
      </trkpt>
      <trkpt lat="42.97223" lon="-0.332">
        <ele>1650</ele>
        <time>2022-06-27T23:05:41Z</time>
      </trkpt>
      <trkpt lat="42.97234" lon="-0.33205">
        <ele>1649</ele>
        <time>2022-06-27T23:05:43Z</time>
      </trkpt>
      <trkpt lat="42.97279" lon="-0.33196">
        <ele>1644</ele>
        <time>2022-06-27T23:05:51Z</time>
      </trkpt>
      <trkpt lat="42.97311" lon="-0.33202">
        <ele>1646</ele>
        <time>2022-06-27T23:05:57Z</time>
      </trkpt>
      <trkpt lat="42.97335" lon="-0.33213">
        <ele>1650</ele>
        <time>2022-06-27T23:06:01Z</time>
      </trkpt>
      <trkpt lat="42.97367" lon="-0.33242">
        <ele>1653</ele>
        <time>2022-06-27T23:06:08Z</time>
      </trkpt>
      <trkpt lat="42.97392" lon="-0.33274">
        <ele>1656</ele>
        <time>2022-06-27T23:06:14Z</time>
      </trkpt>
      <trkpt lat="42.97445" lon="-0.33412">
        <ele>1669</ele>
        <time>2022-06-27T23:06:34Z</time>
      </trkpt>
      <trkpt lat="42.97485" lon="-0.33465">
        <ele>1666</ele>
        <time>2022-06-27T23:06:44Z</time>
      </trkpt>
      <trkpt lat="42.97506" lon="-0.33555">
        <ele>1673</ele>
        <time>2022-06-27T23:06:57Z</time>
      </trkpt>
      <trkpt lat="42.97514" lon="-0.33684">
        <ele>1686</ele>
        <time>2022-06-27T23:07:14Z</time>
      </trkpt>
      <trkpt lat="42.97521" lon="-0.33711">
        <ele>1692</ele>
        <time>2022-06-27T23:07:17Z</time>
      </trkpt>
      <trkpt lat="42.9754" lon="-0.33739">
        <ele>1694</ele>
        <time>2022-06-27T23:07:22Z</time>
      </trkpt>
      <trkpt lat="42.97612" lon="-0.33801">
        <ele>1694</ele>
        <time>2022-06-27T23:07:37Z</time>
      </trkpt>
      <trkpt lat="42.97622" lon="-0.33823">
        <ele>1696</ele>
        <time>2022-06-27T23:07:41Z</time>
      </trkpt>
      <trkpt lat="42.97641" lon="-0.33903">
        <ele>1705</ele>
        <time>2022-06-27T23:07:52Z</time>
      </trkpt>
      <trkpt lat="42.97662" lon="-0.3395">
        <ele>1707</ele>
        <time>2022-06-27T23:07:59Z</time>
      </trkpt>
      <trkpt lat="42.97657" lon="-0.3398">
        <ele>1709</ele>
        <time>2022-06-27T23:08:03Z</time>
      </trkpt>
      <trkpt lat="42.97634" lon="-0.34019">
        <ele>1707</ele>
        <time>2022-06-27T23:08:09Z</time>
      </trkpt>
      <trkpt lat="42.97628" lon="-0.34044">
        <ele>1704</ele>
        <time>2022-06-27T23:08:13Z</time>
      </trkpt>
      <trkpt lat="42.9763" lon="-0.34102">
        <ele>1698</ele>
        <time>2022-06-27T23:08:20Z</time>
      </trkpt>
      <trkpt lat="42.97651" lon="-0.34155">
        <ele>1695</ele>
        <time>2022-06-27T23:08:28Z</time>
      </trkpt>
      <trkpt lat="42.9769" lon="-0.34208">
        <ele>1695</ele>
        <time>2022-06-27T23:08:38Z</time>
      </trkpt>
      <trkpt lat="42.97714" lon="-0.34308">
        <ele>1680</ele>
        <time>2022-06-27T23:08:52Z</time>
      </trkpt>
      <trkpt lat="42.97724" lon="-0.34318">
        <ele>1679</ele>
        <time>2022-06-27T23:08:54Z</time>
      </trkpt>
      <trkpt lat="42.97747" lon="-0.34324">
        <ele>1679</ele>
        <time>2022-06-27T23:08:58Z</time>
      </trkpt>
      <trkpt lat="42.97774" lon="-0.34314">
        <ele>1678</ele>
        <time>2022-06-27T23:09:03Z</time>
      </trkpt>
      <trkpt lat="42.97806" lon="-0.34279">
        <ele>1683</ele>
        <time>2022-06-27T23:09:10Z</time>
      </trkpt>
      <trkpt lat="42.97818" lon="-0.34275">
        <ele>1682</ele>
        <time>2022-06-27T23:09:13Z</time>
      </trkpt>
      <trkpt lat="42.97849" lon="-0.34279">
        <ele>1678</ele>
        <time>2022-06-27T23:09:18Z</time>
      </trkpt>
      <trkpt lat="42.97886" lon="-0.34273">
        <ele>1679</ele>
        <time>2022-06-27T23:09:25Z</time>
      </trkpt>
      <trkpt lat="42.97897" lon="-0.34289">
        <ele>1673</ele>
        <time>2022-06-27T23:09:28Z</time>
      </trkpt>
      <trkpt lat="42.97897" lon="-0.34301">
        <ele>1669</ele>
        <time>2022-06-27T23:09:29Z</time>
      </trkpt>
      <trkpt lat="42.97888" lon="-0.3431">
        <ele>1667</ele>
        <time>2022-06-27T23:09:31Z</time>
      </trkpt>
      <trkpt lat="42.97873" lon="-0.3431">
        <ele>1667</ele>
        <time>2022-06-27T23:09:34Z</time>
      </trkpt>
      <trkpt lat="42.97852" lon="-0.343">
        <ele>1671</ele>
        <time>2022-06-27T23:09:38Z</time>
      </trkpt>
      <trkpt lat="42.97823" lon="-0.34307">
        <ele>1671</ele>
        <time>2022-06-27T23:09:43Z</time>
      </trkpt>
      <trkpt lat="42.97777" lon="-0.34421">
        <ele>1654</ele>
        <time>2022-06-27T23:10:00Z</time>
      </trkpt>
      <trkpt lat="42.97715" lon="-0.34524">
        <ele>1637</ele>
        <time>2022-06-27T23:10:17Z</time>
      </trkpt>
      <trkpt lat="42.97694" lon="-0.34534">
        <ele>1634</ele>
        <time>2022-06-27T23:10:21Z</time>
      </trkpt>
      <trkpt lat="42.97681" lon="-0.34534">
        <ele>1635</ele>
        <time>2022-06-27T23:10:24Z</time>
      </trkpt>
      <trkpt lat="42.9766" lon="-0.34525">
        <ele>1636</ele>
        <time>2022-06-27T23:10:28Z</time>
      </trkpt>
      <trkpt lat="42.97626" lon="-0.34488">
        <ele>1640</ele>
        <time>2022-06-27T23:10:35Z</time>
      </trkpt>
      <trkpt lat="42.97616" lon="-0.34484">
        <ele>1639</ele>
        <time>2022-06-27T23:10:37Z</time>
      </trkpt>
      <trkpt lat="42.97608" lon="-0.34486">
        <ele>1637</ele>
        <time>2022-06-27T23:10:39Z</time>
      </trkpt>
      <trkpt lat="42.97587" lon="-0.34519">
        <ele>1629</ele>
        <time>2022-06-27T23:10:44Z</time>
      </trkpt>
      <trkpt lat="42.97574" lon="-0.34529">
        <ele>1626</ele>
        <time>2022-06-27T23:10:47Z</time>
      </trkpt>
      <trkpt lat="42.97549" lon="-0.34531">
        <ele>1623</ele>
        <time>2022-06-27T23:10:51Z</time>
      </trkpt>
      <trkpt lat="42.97512" lon="-0.34478">
        <ele>1622</ele>
        <time>2022-06-27T23:11:01Z</time>
      </trkpt>
      <trkpt lat="42.97477" lon="-0.34449">
        <ele>1620</ele>
        <time>2022-06-27T23:11:08Z</time>
      </trkpt>
      <trkpt lat="42.97447" lon="-0.34445">
        <ele>1619</ele>
        <time>2022-06-27T23:11:14Z</time>
      </trkpt>
      <trkpt lat="42.97436" lon="-0.34451">
        <ele>1617</ele>
        <time>2022-06-27T23:11:16Z</time>
      </trkpt>
      <trkpt lat="42.97424" lon="-0.34472">
        <ele>1614</ele>
        <time>2022-06-27T23:11:19Z</time>
      </trkpt>
      <trkpt lat="42.97409" lon="-0.34518">
        <ele>1608</ele>
        <time>2022-06-27T23:11:26Z</time>
      </trkpt>
      <trkpt lat="42.97373" lon="-0.34538">
        <ele>1606</ele>
        <time>2022-06-27T23:11:33Z</time>
      </trkpt>
      <trkpt lat="42.97366" lon="-0.34549">
        <ele>1605</ele>
        <time>2022-06-27T23:11:34Z</time>
      </trkpt>
      <trkpt lat="42.97362" lon="-0.34565">
        <ele>1603</ele>
        <time>2022-06-27T23:11:37Z</time>
      </trkpt>
      <trkpt lat="42.97367" lon="-0.34626">
        <ele>1592</ele>
        <time>2022-06-27T23:11:45Z</time>
      </trkpt>
      <trkpt lat="42.97352" lon="-0.34648">
        <ele>1588</ele>
        <time>2022-06-27T23:11:49Z</time>
      </trkpt>
      <trkpt lat="42.97332" lon="-0.34652">
        <ele>1587</ele>
        <time>2022-06-27T23:11:52Z</time>
      </trkpt>
      <trkpt lat="42.97278" lon="-0.34641">
        <ele>1576</ele>
        <time>2022-06-27T23:12:02Z</time>
      </trkpt>
      <trkpt lat="42.9727" lon="-0.34635">
        <ele>1576</ele>
        <time>2022-06-27T23:12:04Z</time>
      </trkpt>
      <trkpt lat="42.9725" lon="-0.34581">
        <ele>1584</ele>
        <time>2022-06-27T23:12:11Z</time>
      </trkpt>
      <trkpt lat="42.97206" lon="-0.34577">
        <ele>1581</ele>
        <time>2022-06-27T23:12:19Z</time>
      </trkpt>
      <trkpt lat="42.97197" lon="-0.34579">
        <ele>1580</ele>
        <time>2022-06-27T23:12:21Z</time>
      </trkpt>
      <trkpt lat="42.97185" lon="-0.34601">
        <ele>1573</ele>
        <time>2022-06-27T23:12:24Z</time>
      </trkpt>
      <trkpt lat="42.97182" lon="-0.34669">
        <ele>1556</ele>
        <time>2022-06-27T23:12:33Z</time>
      </trkpt>
      <trkpt lat="42.97176" lon="-0.34677">
        <ele>1554</ele>
        <time>2022-06-27T23:12:35Z</time>
      </trkpt>
      <trkpt lat="42.97163" lon="-0.34675">
        <ele>1551</ele>
        <time>2022-06-27T23:12:37Z</time>
      </trkpt>
      <trkpt lat="42.97156" lon="-0.34626">
        <ele>1560</ele>
        <time>2022-06-27T23:12:44Z</time>
      </trkpt>
      <trkpt lat="42.97141" lon="-0.34576">
        <ele>1567</ele>
        <time>2022-06-27T23:12:51Z</time>
      </trkpt>
      <trkpt lat="42.97085" lon="-0.34535">
        <ele>1550</ele>
        <time>2022-06-27T23:13:02Z</time>
      </trkpt>
      <trkpt lat="42.97028" lon="-0.34415">
        <ele>1541</ele>
        <time>2022-06-27T23:13:21Z</time>
      </trkpt>
      <trkpt lat="42.96986" lon="-0.34374">
        <ele>1525</ele>
        <time>2022-06-27T23:13:30Z</time>
      </trkpt>
      <trkpt lat="42.96982" lon="-0.34359">
        <ele>1526</ele>
        <time>2022-06-27T23:13:32Z</time>
      </trkpt>
      <trkpt lat="42.96987" lon="-0.3428">
        <ele>1540</ele>
        <time>2022-06-27T23:13:42Z</time>
      </trkpt>
      <trkpt lat="42.96925" lon="-0.34135">
        <ele>1510</ele>
        <time>2022-06-27T23:14:04Z</time>
      </trkpt>
      <trkpt lat="42.96943" lon="-0.34069">
        <ele>1523</ele>
        <time>2022-06-27T23:14:13Z</time>
      </trkpt>
      <trkpt lat="42.96925" lon="-0.34025">
        <ele>1511</ele>
        <time>2022-06-27T23:14:20Z</time>
      </trkpt>
      <trkpt lat="42.969" lon="-0.33929">
        <ele>1502</ele>
        <time>2022-06-27T23:14:33Z</time>
      </trkpt>
      <trkpt lat="42.96882" lon="-0.33804">
        <ele>1493</ele>
        <time>2022-06-27T23:14:50Z</time>
      </trkpt>
      <trkpt lat="42.96891" lon="-0.33754">
        <ele>1495</ele>
        <time>2022-06-27T23:14:56Z</time>
      </trkpt>
      <trkpt lat="42.96881" lon="-0.33727">
        <ele>1490</ele>
        <time>2022-06-27T23:15:00Z</time>
      </trkpt>
      <trkpt lat="42.96889" lon="-0.33689">
        <ele>1498</ele>
        <time>2022-06-27T23:15:05Z</time>
      </trkpt>
      <trkpt lat="42.96885" lon="-0.33671">
        <ele>1497</ele>
        <time>2022-06-27T23:15:08Z</time>
      </trkpt>
      <trkpt lat="42.96879" lon="-0.33665">
        <ele>1495</ele>
        <time>2022-06-27T23:15:09Z</time>
      </trkpt>
      <trkpt lat="42.96829" lon="-0.33653">
        <ele>1475</ele>
        <time>2022-06-27T23:15:18Z</time>
      </trkpt>
      <trkpt lat="42.96804" lon="-0.33628">
        <ele>1477</ele>
        <time>2022-06-27T23:15:24Z</time>
      </trkpt>
      <trkpt lat="42.9679" lon="-0.33598">
        <ele>1483</ele>
        <time>2022-06-27T23:15:28Z</time>
      </trkpt>
      <trkpt lat="42.9676" lon="-0.33587">
        <ele>1479</ele>
        <time>2022-06-27T23:15:34Z</time>
      </trkpt>
      <trkpt lat="42.96734" lon="-0.33563">
        <ele>1481</ele>
        <time>2022-06-27T23:15:39Z</time>
      </trkpt>
      <trkpt lat="42.96692" lon="-0.33558">
        <ele>1469</ele>
        <time>2022-06-27T23:15:47Z</time>
      </trkpt>
      <trkpt lat="42.96653" lon="-0.33536">
        <ele>1459</ele>
        <time>2022-06-27T23:15:54Z</time>
      </trkpt>
      <trkpt lat="42.96639" lon="-0.33506">
        <ele>1459</ele>
        <time>2022-06-27T23:15:59Z</time>
      </trkpt>
      <trkpt lat="42.9663" lon="-0.33453">
        <ele>1473</ele>
        <time>2022-06-27T23:16:06Z</time>
      </trkpt>
      <trkpt lat="42.96616" lon="-0.3344">
        <ele>1472</ele>
        <time>2022-06-27T23:16:09Z</time>
      </trkpt>
      <trkpt lat="42.96562" lon="-0.33453">
        <ele>1441</ele>
        <time>2022-06-27T23:16:19Z</time>
      </trkpt>
      <trkpt lat="42.96537" lon="-0.33432">
        <ele>1434</ele>
        <time>2022-06-27T23:16:24Z</time>
      </trkpt>
      <trkpt lat="42.96509" lon="-0.33337">
        <ele>1434</ele>
        <time>2022-06-27T23:16:38Z</time>
      </trkpt>
      <trkpt lat="42.96493" lon="-0.33228">
        <ele>1440</ele>
        <time>2022-06-27T23:16:52Z</time>
      </trkpt>
      <trkpt lat="42.96437" lon="-0.33155">
        <ele>1437</ele>
        <time>2022-06-27T23:17:06Z</time>
      </trkpt>
      <trkpt lat="42.96381" lon="-0.33128">
        <ele>1427</ele>
        <time>2022-06-27T23:17:16Z</time>
      </trkpt>
      <trkpt lat="42.96357" lon="-0.33124">
        <ele>1420</ele>
        <time>2022-06-27T23:17:21Z</time>
      </trkpt>
      <trkpt lat="42.96348" lon="-0.33116">
        <ele>1419</ele>
        <time>2022-06-27T23:17:23Z</time>
      </trkpt>
      <trkpt lat="42.96327" lon="-0.33063">
        <ele>1428</ele>
        <time>2022-06-27T23:17:30Z</time>
      </trkpt>
      <trkpt lat="42.9631" lon="-0.33048">
        <ele>1428</ele>
        <time>2022-06-27T23:17:34Z</time>
      </trkpt>
      <trkpt lat="42.96274" lon="-0.33038">
        <ele>1422</ele>
        <time>2022-06-27T23:17:41Z</time>
      </trkpt>
      <trkpt lat="42.96151" lon="-0.33104">
        <ele>1392</ele>
        <time>2022-06-27T23:18:04Z</time>
      </trkpt>
      <trkpt lat="42.96131" lon="-0.3311">
        <ele>1390</ele>
        <time>2022-06-27T23:18:08Z</time>
      </trkpt>
      <trkpt lat="42.96103" lon="-0.33107">
        <ele>1390</ele>
        <time>2022-06-27T23:18:13Z</time>
      </trkpt>
      <trkpt lat="42.96086" lon="-0.33117">
        <ele>1387</ele>
        <time>2022-06-27T23:18:16Z</time>
      </trkpt>
      <trkpt lat="42.96043" lon="-0.33128">
        <ele>1384</ele>
        <time>2022-06-27T23:18:24Z</time>
      </trkpt>
      <trkpt lat="42.95994" lon="-0.33186">
        <ele>1374</ele>
        <time>2022-06-27T23:18:35Z</time>
      </trkpt>
      <trkpt lat="42.9598" lon="-0.3324">
        <ele>1366</ele>
        <time>2022-06-27T23:18:43Z</time>
      </trkpt>
      <trkpt lat="42.95964" lon="-0.33257">
        <ele>1364</ele>
        <time>2022-06-27T23:18:46Z</time>
      </trkpt>
      <trkpt lat="42.95938" lon="-0.33264">
        <ele>1363</ele>
        <time>2022-06-27T23:18:51Z</time>
      </trkpt>
      <trkpt lat="42.9591" lon="-0.33261">
        <ele>1363</ele>
        <time>2022-06-27T23:18:56Z</time>
      </trkpt>
      <trkpt lat="42.9588" lon="-0.33271">
        <ele>1361</ele>
        <time>2022-06-27T23:19:02Z</time>
      </trkpt>
      <trkpt lat="42.95864" lon="-0.33265">
        <ele>1360</ele>
        <time>2022-06-27T23:19:05Z</time>
      </trkpt>
      <trkpt lat="42.9584" lon="-0.33237">
        <ele>1362</ele>
        <time>2022-06-27T23:19:10Z</time>
      </trkpt>
      <trkpt lat="42.95826" lon="-0.33234">
        <ele>1362</ele>
        <time>2022-06-27T23:19:13Z</time>
      </trkpt>
      <trkpt lat="42.95812" lon="-0.33239">
        <ele>1362</ele>
        <time>2022-06-27T23:19:15Z</time>
      </trkpt>
      <trkpt lat="42.95806" lon="-0.33256">
        <ele>1360</ele>
        <time>2022-06-27T23:19:18Z</time>
      </trkpt>
      <trkpt lat="42.95828" lon="-0.3329">
        <ele>1359</ele>
        <time>2022-06-27T23:19:24Z</time>
      </trkpt>
      <trkpt lat="42.95846" lon="-0.33299">
        <ele>1359</ele>
        <time>2022-06-27T23:19:27Z</time>
      </trkpt>
      <trkpt lat="42.95878" lon="-0.33301">
        <ele>1359</ele>
        <time>2022-06-27T23:19:33Z</time>
      </trkpt>
      <trkpt lat="42.95905" lon="-0.33295">
        <ele>1360</ele>
        <time>2022-06-27T23:19:38Z</time>
      </trkpt>
      <trkpt lat="42.95994" lon="-0.33305">
        <ele>1354</ele>
        <time>2022-06-27T23:19:53Z</time>
      </trkpt>
      <trkpt lat="42.96045" lon="-0.33278">
        <ele>1351</ele>
        <time>2022-06-27T23:20:03Z</time>
      </trkpt>
      <trkpt lat="42.96062" lon="-0.33278">
        <ele>1348</ele>
        <time>2022-06-27T23:20:06Z</time>
      </trkpt>
      <trkpt lat="42.96107" lon="-0.3331">
        <ele>1329</ele>
        <time>2022-06-27T23:20:15Z</time>
      </trkpt>
      <trkpt lat="42.96117" lon="-0.33306">
        <ele>1328</ele>
        <time>2022-06-27T23:20:17Z</time>
      </trkpt>
      <trkpt lat="42.9616" lon="-0.33262">
        <ele>1336</ele>
        <time>2022-06-27T23:20:27Z</time>
      </trkpt>
      <trkpt lat="42.96239" lon="-0.33265">
        <ele>1329</ele>
        <time>2022-06-27T23:20:41Z</time>
      </trkpt>
      <trkpt lat="42.96328" lon="-0.33351">
        <ele>1318</ele>
        <time>2022-06-27T23:21:00Z</time>
      </trkpt>
      <trkpt lat="42.96364" lon="-0.33412">
        <ele>1315</ele>
        <time>2022-06-27T23:21:10Z</time>
      </trkpt>
      <trkpt lat="42.96427" lon="-0.33575">
        <ele>1301</ele>
        <time>2022-06-27T23:21:34Z</time>
      </trkpt>
      <trkpt lat="42.9645" lon="-0.33721">
        <ele>1285</ele>
        <time>2022-06-27T23:21:54Z</time>
      </trkpt>
      <trkpt lat="42.96447" lon="-0.33784">
        <ele>1266</ele>
        <time>2022-06-27T23:22:02Z</time>
      </trkpt>
      <trkpt lat="42.96467" lon="-0.33858">
        <ele>1261</ele>
        <time>2022-06-27T23:22:12Z</time>
      </trkpt>
      <trkpt lat="42.96463" lon="-0.33907">
        <ele>1254</ele>
        <time>2022-06-27T23:22:19Z</time>
      </trkpt>
      <trkpt lat="42.96473" lon="-0.33946">
        <ele>1256</ele>
        <time>2022-06-27T23:22:24Z</time>
      </trkpt>
      <trkpt lat="42.96479" lon="-0.34021">
        <ele>1253</ele>
        <time>2022-06-27T23:22:34Z</time>
      </trkpt>
      <trkpt lat="42.96494" lon="-0.34082">
        <ele>1259</ele>
        <time>2022-06-27T23:22:42Z</time>
      </trkpt>
      <trkpt lat="42.96509" lon="-0.34264">
        <ele>1237</ele>
        <time>2022-06-27T23:23:06Z</time>
      </trkpt>
      <trkpt lat="42.96507" lon="-0.34324">
        <ele>1230</ele>
        <time>2022-06-27T23:23:14Z</time>
      </trkpt>
      <trkpt lat="42.96499" lon="-0.3434">
        <ele>1224</ele>
        <time>2022-06-27T23:23:16Z</time>
      </trkpt>
      <trkpt lat="42.9649" lon="-0.34346">
        <ele>1219</ele>
        <time>2022-06-27T23:23:18Z</time>
      </trkpt>
      <trkpt lat="42.96479" lon="-0.34343">
        <ele>1215</ele>
        <time>2022-06-27T23:23:20Z</time>
      </trkpt>
      <trkpt lat="42.96462" lon="-0.34308">
        <ele>1212</ele>
        <time>2022-06-27T23:23:26Z</time>
      </trkpt>
      <trkpt lat="42.96418" lon="-0.3415">
        <ele>1211</ele>
        <time>2022-06-27T23:23:48Z</time>
      </trkpt>
      <trkpt lat="42.96407" lon="-0.3399">
        <ele>1215</ele>
        <time>2022-06-27T23:24:09Z</time>
      </trkpt>
      <trkpt lat="42.96396" lon="-0.33953">
        <ele>1216</ele>
        <time>2022-06-27T23:24:14Z</time>
      </trkpt>
      <trkpt lat="42.96382" lon="-0.33936">
        <ele>1213</ele>
        <time>2022-06-27T23:24:17Z</time>
      </trkpt>
      <trkpt lat="42.96359" lon="-0.3393">
        <ele>1206</ele>
        <time>2022-06-27T23:24:21Z</time>
      </trkpt>
      <trkpt lat="42.96309" lon="-0.33943">
        <ele>1191</ele>
        <time>2022-06-27T23:24:30Z</time>
      </trkpt>
      <trkpt lat="42.963" lon="-0.33962">
        <ele>1188</ele>
        <time>2022-06-27T23:24:33Z</time>
      </trkpt>
      <trkpt lat="42.963" lon="-0.33985">
        <ele>1186</ele>
        <time>2022-06-27T23:24:36Z</time>
      </trkpt>
      <trkpt lat="42.9635" lon="-0.34129">
        <ele>1190</ele>
        <time>2022-06-27T23:24:57Z</time>
      </trkpt>
      <trkpt lat="42.96347" lon="-0.34193">
        <ele>1188</ele>
        <time>2022-06-27T23:25:05Z</time>
      </trkpt>
      <trkpt lat="42.96323" lon="-0.34321">
        <ele>1180</ele>
        <time>2022-06-27T23:25:23Z</time>
      </trkpt>
      <trkpt lat="42.96322" lon="-0.34377">
        <ele>1172</ele>
        <time>2022-06-27T23:25:30Z</time>
      </trkpt>
      <trkpt lat="42.96308" lon="-0.34427">
        <ele>1169</ele>
        <time>2022-06-27T23:25:37Z</time>
      </trkpt>
      <trkpt lat="42.96311" lon="-0.34503">
        <ele>1157</ele>
        <time>2022-06-27T23:25:47Z</time>
      </trkpt>
      <trkpt lat="42.96302" lon="-0.34551">
        <ele>1156</ele>
        <time>2022-06-27T23:25:53Z</time>
      </trkpt>
      <trkpt lat="42.96262" lon="-0.34564">
        <ele>1173</ele>
        <time>2022-06-27T23:26:01Z</time>
      </trkpt>
      <trkpt lat="42.96251" lon="-0.34599">
        <ele>1174</ele>
        <time>2022-06-27T23:26:06Z</time>
      </trkpt>
      <trkpt lat="42.96255" lon="-0.34714">
        <ele>1152</ele>
        <time>2022-06-27T23:26:21Z</time>
      </trkpt>
      <trkpt lat="42.96229" lon="-0.34852">
        <ele>1144</ele>
        <time>2022-06-27T23:26:39Z</time>
      </trkpt>
      <trkpt lat="42.96219" lon="-0.34962">
        <ele>1133</ele>
        <time>2022-06-27T23:26:54Z</time>
      </trkpt>
      <trkpt lat="42.96222" lon="-0.34967">
        <ele>1130</ele>
        <time>2022-06-27T23:26:54Z</time>
      </trkpt>
      <trkpt lat="42.96228" lon="-0.34965">
        <ele>1126</ele>
        <time>2022-06-27T23:26:55Z</time>
      </trkpt>
      <trkpt lat="42.96234" lon="-0.34956">
        <ele>1123</ele>
        <time>2022-06-27T23:26:57Z</time>
      </trkpt>
      <trkpt lat="42.96242" lon="-0.34876">
        <ele>1129</ele>
        <time>2022-06-27T23:27:08Z</time>
      </trkpt>
      <trkpt lat="42.96278" lon="-0.34778">
        <ele>1129</ele>
        <time>2022-06-27T23:27:22Z</time>
      </trkpt>
      <trkpt lat="42.963" lon="-0.34762">
        <ele>1121</ele>
        <time>2022-06-27T23:27:26Z</time>
      </trkpt>
      <trkpt lat="42.96356" lon="-0.34695">
        <ele>1114</ele>
        <time>2022-06-27T23:27:40Z</time>
      </trkpt>
      <trkpt lat="42.9638" lon="-0.34615">
        <ele>1125</ele>
        <time>2022-06-27T23:27:51Z</time>
      </trkpt>
      <trkpt lat="42.96399" lon="-0.34617">
        <ele>1121</ele>
        <time>2022-06-27T23:27:54Z</time>
      </trkpt>
      <trkpt lat="42.96407" lon="-0.34632">
        <ele>1117</ele>
        <time>2022-06-27T23:27:57Z</time>
      </trkpt>
      <trkpt lat="42.96403" lon="-0.34762">
        <ele>1098</ele>
        <time>2022-06-27T23:28:14Z</time>
      </trkpt>
      <trkpt lat="42.96419" lon="-0.34785">
        <ele>1094</ele>
        <time>2022-06-27T23:28:18Z</time>
      </trkpt>
      <trkpt lat="42.96427" lon="-0.34812">
        <ele>1094</ele>
        <time>2022-06-27T23:28:21Z</time>
      </trkpt>
      <trkpt lat="42.96431" lon="-0.34861">
        <ele>1092</ele>
        <time>2022-06-27T23:28:28Z</time>
      </trkpt>
      <trkpt lat="42.96427" lon="-0.34874">
        <ele>1089</ele>
        <time>2022-06-27T23:28:30Z</time>
      </trkpt>
      <trkpt lat="42.96394" lon="-0.34917">
        <ele>1083</ele>
        <time>2022-06-27T23:28:38Z</time>
      </trkpt>
      <trkpt lat="42.96378" lon="-0.35036">
        <ele>1074</ele>
        <time>2022-06-27T23:28:54Z</time>
      </trkpt>
      <trkpt lat="42.96379" lon="-0.35062">
        <ele>1074</ele>
        <time>2022-06-27T23:28:57Z</time>
      </trkpt>
      <trkpt lat="42.96345" lon="-0.35117">
        <ele>1060</ele>
        <time>2022-06-27T23:29:06Z</time>
      </trkpt>
      <trkpt lat="42.96339" lon="-0.35145">
        <ele>1056</ele>
        <time>2022-06-27T23:29:10Z</time>
      </trkpt>
      <trkpt lat="42.96344" lon="-0.35251">
        <ele>1050</ele>
        <time>2022-06-27T23:29:24Z</time>
      </trkpt>
      <trkpt lat="42.96365" lon="-0.35322">
        <ele>1042</ele>
        <time>2022-06-27T23:29:34Z</time>
      </trkpt>
      <trkpt lat="42.96384" lon="-0.35341">
        <ele>1041</ele>
        <time>2022-06-27T23:29:38Z</time>
      </trkpt>
      <trkpt lat="42.96399" lon="-0.35369">
        <ele>1038</ele>
        <time>2022-06-27T23:29:43Z</time>
      </trkpt>
      <trkpt lat="42.96411" lon="-0.35419">
        <ele>1031</ele>
        <time>2022-06-27T23:29:49Z</time>
      </trkpt>
      <trkpt lat="42.96453" lon="-0.3549">
        <ele>1025</ele>
        <time>2022-06-27T23:30:01Z</time>
      </trkpt>
      <trkpt lat="42.96564" lon="-0.35617">
        <ele>1020</ele>
        <time>2022-06-27T23:30:27Z</time>
      </trkpt>
      <trkpt lat="42.96594" lon="-0.35721">
        <ele>1012</ele>
        <time>2022-06-27T23:30:42Z</time>
      </trkpt>
      <trkpt lat="42.96617" lon="-0.3582">
        <ele>1004</ele>
        <time>2022-06-27T23:30:55Z</time>
      </trkpt>
      <trkpt lat="42.96627" lon="-0.35993">
        <ele>987</ele>
        <time>2022-06-27T23:31:18Z</time>
      </trkpt>
      <trkpt lat="42.96643" lon="-0.36066">
        <ele>983</ele>
        <time>2022-06-27T23:31:28Z</time>
      </trkpt>
      <trkpt lat="42.96646" lon="-0.36128">
        <ele>977</ele>
        <time>2022-06-27T23:31:36Z</time>
      </trkpt>
      <trkpt lat="42.96687" lon="-0.36305">
        <ele>968</ele>
        <time>2022-06-27T23:32:00Z</time>
      </trkpt>
      <trkpt lat="42.96697" lon="-0.36406">
        <ele>956</ele>
        <time>2022-06-27T23:32:13Z</time>
      </trkpt>
      <trkpt lat="42.96716" lon="-0.3647">
        <ele>954</ele>
        <time>2022-06-27T23:32:22Z</time>
      </trkpt>
      <trkpt lat="42.96722" lon="-0.36545">
        <ele>946</ele>
        <time>2022-06-27T23:32:32Z</time>
      </trkpt>
      <trkpt lat="42.96759" lon="-0.36662">
        <ele>939</ele>
        <time>2022-06-27T23:32:49Z</time>
      </trkpt>
      <trkpt lat="42.96774" lon="-0.36783">
        <ele>932</ele>
        <time>2022-06-27T23:33:05Z</time>
      </trkpt>
      <trkpt lat="42.96785" lon="-0.36827">
        <ele>929</ele>
        <time>2022-06-27T23:33:11Z</time>
      </trkpt>
      <trkpt lat="42.96815" lon="-0.36901">
        <ele>924</ele>
        <time>2022-06-27T23:33:22Z</time>
      </trkpt>
      <trkpt lat="42.96829" lon="-0.36953">
        <ele>918</ele>
        <time>2022-06-27T23:33:29Z</time>
      </trkpt>
      <trkpt lat="42.96887" lon="-0.37065">
        <ele>912</ele>
        <time>2022-06-27T23:33:47Z</time>
      </trkpt>
      <trkpt lat="42.96892" lon="-0.37093">
        <ele>909</ele>
        <time>2022-06-27T23:33:51Z</time>
      </trkpt>
      <trkpt lat="42.96884" lon="-0.37146">
        <ele>903</ele>
        <time>2022-06-27T23:33:58Z</time>
      </trkpt>
      <trkpt lat="42.96906" lon="-0.37202">
        <ele>901</ele>
        <time>2022-06-27T23:34:06Z</time>
      </trkpt>
      <trkpt lat="42.96906" lon="-0.37227">
        <ele>899</ele>
        <time>2022-06-27T23:34:09Z</time>
      </trkpt>
      <trkpt lat="42.96898" lon="-0.37246">
        <ele>896</ele>
        <time>2022-06-27T23:34:12Z</time>
      </trkpt>
      <trkpt lat="42.9686" lon="-0.37264">
        <ele>890</ele>
        <time>2022-06-27T23:34:19Z</time>
      </trkpt>
      <trkpt lat="42.96835" lon="-0.37256">
        <ele>888</ele>
        <time>2022-06-27T23:34:24Z</time>
      </trkpt>
      <trkpt lat="42.96817" lon="-0.37237">
        <ele>885</ele>
        <time>2022-06-27T23:34:28Z</time>
      </trkpt>
      <trkpt lat="42.96782" lon="-0.3717">
        <ele>883</ele>
        <time>2022-06-27T23:34:38Z</time>
      </trkpt>
      <trkpt lat="42.96758" lon="-0.37164">
        <ele>879</ele>
        <time>2022-06-27T23:34:43Z</time>
      </trkpt>
      <trkpt lat="42.9674" lon="-0.37191">
        <ele>877</ele>
        <time>2022-06-27T23:34:48Z</time>
      </trkpt>
      <trkpt lat="42.96737" lon="-0.37224">
        <ele>877</ele>
        <time>2022-06-27T23:34:52Z</time>
      </trkpt>
      <trkpt lat="42.96752" lon="-0.37351">
        <ele>869</ele>
        <time>2022-06-27T23:35:09Z</time>
      </trkpt>
      <trkpt lat="42.96749" lon="-0.37427">
        <ele>869</ele>
        <time>2022-06-27T23:35:19Z</time>
      </trkpt>
      <trkpt lat="42.96763" lon="-0.37534">
        <ele>861</ele>
        <time>2022-06-27T23:35:33Z</time>
      </trkpt>
      <trkpt lat="42.96797" lon="-0.37581">
        <ele>855</ele>
        <time>2022-06-27T23:35:41Z</time>
      </trkpt>
      <trkpt lat="42.96796" lon="-0.37596">
        <ele>854</ele>
        <time>2022-06-27T23:35:43Z</time>
      </trkpt>
      <trkpt lat="42.9675" lon="-0.37647">
        <ele>862</ele>
        <time>2022-06-27T23:35:54Z</time>
      </trkpt>
      <trkpt lat="42.9675" lon="-0.37679">
        <ele>864</ele>
        <time>2022-06-27T23:35:58Z</time>
      </trkpt>
      <trkpt lat="42.96759" lon="-0.37704">
        <ele>864</ele>
        <time>2022-06-27T23:36:02Z</time>
      </trkpt>
      <trkpt lat="42.96783" lon="-0.37731">
        <ele>857</ele>
        <time>2022-06-27T23:36:07Z</time>
      </trkpt>
      <trkpt lat="42.96792" lon="-0.3775">
        <ele>854</ele>
        <time>2022-06-27T23:36:10Z</time>
      </trkpt>
      <trkpt lat="42.96796" lon="-0.37814">
        <ele>856</ele>
        <time>2022-06-27T23:36:18Z</time>
      </trkpt>
      <trkpt lat="42.96816" lon="-0.3786">
        <ele>848</ele>
        <time>2022-06-27T23:36:25Z</time>
      </trkpt>
      <trkpt lat="42.96819" lon="-0.37932">
        <ele>853</ele>
        <time>2022-06-27T23:36:35Z</time>
      </trkpt>
      <trkpt lat="42.96837" lon="-0.37944">
        <ele>845</ele>
        <time>2022-06-27T23:36:38Z</time>
      </trkpt>
      <trkpt lat="42.96868" lon="-0.37951">
        <ele>836</ele>
        <time>2022-06-27T23:36:44Z</time>
      </trkpt>
      <trkpt lat="42.96882" lon="-0.37975">
        <ele>833</ele>
        <time>2022-06-27T23:36:48Z</time>
      </trkpt>
      <trkpt lat="42.96883" lon="-0.38005">
        <ele>834</ele>
        <time>2022-06-27T23:36:52Z</time>
      </trkpt>
      <trkpt lat="42.96861" lon="-0.38049">
        <ele>846</ele>
        <time>2022-06-27T23:36:59Z</time>
      </trkpt>
      <trkpt lat="42.96866" lon="-0.38071">
        <ele>846</ele>
        <time>2022-06-27T23:37:02Z</time>
      </trkpt>
      <trkpt lat="42.96887" lon="-0.38093">
        <ele>840</ele>
        <time>2022-06-27T23:37:07Z</time>
      </trkpt>
      <trkpt lat="42.96931" lon="-0.38095">
        <ele>825</ele>
        <time>2022-06-27T23:37:14Z</time>
      </trkpt>
      <trkpt lat="42.96952" lon="-0.38137">
        <ele>826</ele>
        <time>2022-06-27T23:37:21Z</time>
      </trkpt>
      <trkpt lat="42.96973" lon="-0.38152">
        <ele>824</ele>
        <time>2022-06-27T23:37:25Z</time>
      </trkpt>
      <trkpt lat="42.9698" lon="-0.38171">
        <ele>824</ele>
        <time>2022-06-27T23:37:28Z</time>
      </trkpt>
      <trkpt lat="42.96986" lon="-0.38248">
        <ele>829</ele>
        <time>2022-06-27T23:37:38Z</time>
      </trkpt>
      <trkpt lat="42.96993" lon="-0.38256">
        <ele>828</ele>
        <time>2022-06-27T23:37:40Z</time>
      </trkpt>
      <trkpt lat="42.96999" lon="-0.38253">
        <ele>827</ele>
        <time>2022-06-27T23:37:41Z</time>
      </trkpt>
      <trkpt lat="42.97001" lon="-0.38241">
        <ele>825</ele>
        <time>2022-06-27T23:37:42Z</time>
      </trkpt>
      <trkpt lat="42.96996" lon="-0.38157">
        <ele>820</ele>
        <time>2022-06-27T23:37:53Z</time>
      </trkpt>
      <trkpt lat="42.96967" lon="-0.38086">
        <ele>817</ele>
        <time>2022-06-27T23:38:04Z</time>
      </trkpt>
      <trkpt lat="42.96967" lon="-0.38067">
        <ele>817</ele>
        <time>2022-06-27T23:38:06Z</time>
      </trkpt>
      <trkpt lat="42.96975" lon="-0.3806">
        <ele>816</ele>
        <time>2022-06-27T23:38:08Z</time>
      </trkpt>
      <trkpt lat="42.96983" lon="-0.38066">
        <ele>814</ele>
        <time>2022-06-27T23:38:10Z</time>
      </trkpt>
      <trkpt lat="42.97007" lon="-0.38109">
        <ele>813</ele>
        <time>2022-06-27T23:38:17Z</time>
      </trkpt>
      <trkpt lat="42.97033" lon="-0.3822">
        <ele>817</ele>
        <time>2022-06-27T23:38:32Z</time>
      </trkpt>
      <trkpt lat="42.97045" lon="-0.38236">
        <ele>815</ele>
        <time>2022-06-27T23:38:35Z</time>
      </trkpt>
      <trkpt lat="42.97098" lon="-0.3827">
        <ele>809</ele>
        <time>2022-06-27T23:38:45Z</time>
      </trkpt>
      <trkpt lat="42.97108" lon="-0.38283">
        <ele>809</ele>
        <time>2022-06-27T23:38:48Z</time>
      </trkpt>
      <trkpt lat="42.97153" lon="-0.38411">
        <ele>798</ele>
        <time>2022-06-27T23:39:06Z</time>
      </trkpt>
      <trkpt lat="42.9718" lon="-0.38471">
        <ele>794</ele>
        <time>2022-06-27T23:39:15Z</time>
      </trkpt>
      <trkpt lat="42.97188" lon="-0.3851">
        <ele>793</ele>
        <time>2022-06-27T23:39:21Z</time>
      </trkpt>
      <trkpt lat="42.97169" lon="-0.38626">
        <ele>794</ele>
        <time>2022-06-27T23:39:36Z</time>
      </trkpt>
      <trkpt lat="42.97214" lon="-0.38793">
        <ele>774</ele>
        <time>2022-06-27T23:39:59Z</time>
      </trkpt>
      <trkpt lat="42.9722" lon="-0.38838">
        <ele>770</ele>
        <time>2022-06-27T23:40:05Z</time>
      </trkpt>
      <trkpt lat="42.97257" lon="-0.38921">
        <ele>756</ele>
        <time>2022-06-27T23:40:18Z</time>
      </trkpt>
      <trkpt lat="42.97291" lon="-0.39052">
        <ele>741</ele>
        <time>2022-06-27T23:40:36Z</time>
      </trkpt>
      <trkpt lat="42.97323" lon="-0.39134">
        <ele>732</ele>
        <time>2022-06-27T23:40:48Z</time>
      </trkpt>
      <trkpt lat="42.97316" lon="-0.39157">
        <ele>734</ele>
        <time>2022-06-27T23:40:51Z</time>
      </trkpt>
      <trkpt lat="42.97273" lon="-0.39211">
        <ele>738</ele>
        <time>2022-06-27T23:41:02Z</time>
      </trkpt>
      <trkpt lat="42.97386" lon="-0.39388">
        <ele>716</ele>
        <time>2022-06-27T23:41:32Z</time>
      </trkpt>
      <trkpt lat="42.97399" lon="-0.39425">
        <ele>716</ele>
        <time>2022-06-27T23:41:38Z</time>
      </trkpt>
      <trkpt lat="42.97403" lon="-0.39486">
        <ele>723</ele>
        <time>2022-06-27T23:41:46Z</time>
      </trkpt>
      <trkpt lat="42.97417" lon="-0.39545">
        <ele>713</ele>
        <time>2022-06-27T23:41:54Z</time>
      </trkpt>
      <trkpt lat="42.97417" lon="-0.39568">
        <ele>711</ele>
        <time>2022-06-27T23:41:57Z</time>
      </trkpt>
      <trkpt lat="42.97403" lon="-0.39609">
        <ele>716</ele>
        <time>2022-06-27T23:42:03Z</time>
      </trkpt>
      <trkpt lat="42.97401" lon="-0.39656">
        <ele>712</ele>
        <time>2022-06-27T23:42:09Z</time>
      </trkpt>
      <trkpt lat="42.97384" lon="-0.39708">
        <ele>719</ele>
        <time>2022-06-27T23:42:16Z</time>
      </trkpt>
      <trkpt lat="42.97384" lon="-0.39735">
        <ele>717</ele>
        <time>2022-06-27T23:42:20Z</time>
      </trkpt>
      <trkpt lat="42.97395" lon="-0.39765">
        <ele>711</ele>
        <time>2022-06-27T23:42:24Z</time>
      </trkpt>
      <trkpt lat="42.97422" lon="-0.39801">
        <ele>702</ele>
        <time>2022-06-27T23:42:31Z</time>
      </trkpt>
      <trkpt lat="42.97429" lon="-0.39826">
        <ele>702</ele>
        <time>2022-06-27T23:42:34Z</time>
      </trkpt>
      <trkpt lat="42.97446" lon="-0.39952">
        <ele>697</ele>
        <time>2022-06-27T23:42:51Z</time>
      </trkpt>
      <trkpt lat="42.97443" lon="-0.40073">
        <ele>696</ele>
        <time>2022-06-27T23:43:07Z</time>
      </trkpt>
      <trkpt lat="42.97466" lon="-0.40205">
        <ele>689</ele>
        <time>2022-06-27T23:43:24Z</time>
      </trkpt>
      <trkpt lat="42.97466" lon="-0.40274">
        <ele>689</ele>
        <time>2022-06-27T23:43:33Z</time>
      </trkpt>
      <trkpt lat="42.97495" lon="-0.40407">
        <ele>683</ele>
        <time>2022-06-27T23:43:51Z</time>
      </trkpt>
      <trkpt lat="42.97558" lon="-0.40499">
        <ele>674</ele>
        <time>2022-06-27T23:44:08Z</time>
      </trkpt>
      <trkpt lat="42.97623" lon="-0.40534">
        <ele>660</ele>
        <time>2022-06-27T23:44:20Z</time>
      </trkpt>
      <trkpt lat="42.97657" lon="-0.40565">
        <ele>657</ele>
        <time>2022-06-27T23:44:28Z</time>
      </trkpt>
      <trkpt lat="42.97667" lon="-0.40587">
        <ele>658</ele>
        <time>2022-06-27T23:44:31Z</time>
      </trkpt>
      <trkpt lat="42.97684" lon="-0.40665">
        <ele>658</ele>
        <time>2022-06-27T23:44:42Z</time>
      </trkpt>
      <trkpt lat="42.977" lon="-0.407">
        <ele>655</ele>
        <time>2022-06-27T23:44:47Z</time>
      </trkpt>
      <trkpt lat="42.97757" lon="-0.40741">
        <ele>645</ele>
        <time>2022-06-27T23:44:58Z</time>
      </trkpt>
      <trkpt lat="42.97777" lon="-0.40768">
        <ele>642</ele>
        <time>2022-06-27T23:45:03Z</time>
      </trkpt>
      <trkpt lat="42.97791" lon="-0.40809">
        <ele>644</ele>
        <time>2022-06-27T23:45:09Z</time>
      </trkpt>
      <trkpt lat="42.97799" lon="-0.40943">
        <ele>644</ele>
        <time>2022-06-27T23:45:27Z</time>
      </trkpt>
      <trkpt lat="42.97834" lon="-0.41026">
        <ele>637</ele>
        <time>2022-06-27T23:45:39Z</time>
      </trkpt>
      <trkpt lat="42.97835" lon="-0.41066">
        <ele>635</ele>
        <time>2022-06-27T23:45:44Z</time>
      </trkpt>
      <trkpt lat="42.97809" lon="-0.41215">
        <ele>633</ele>
        <time>2022-06-27T23:46:04Z</time>
      </trkpt>
      <trkpt lat="42.97782" lon="-0.41286">
        <ele>638</ele>
        <time>2022-06-27T23:46:15Z</time>
      </trkpt>
      <trkpt lat="42.97765" lon="-0.41405">
        <ele>628</ele>
        <time>2022-06-27T23:46:31Z</time>
      </trkpt>
      <trkpt lat="42.97739" lon="-0.41491">
        <ele>628</ele>
        <time>2022-06-27T23:46:43Z</time>
      </trkpt>
      <trkpt lat="42.97749" lon="-0.41618">
        <ele>616</ele>
        <time>2022-06-27T23:46:59Z</time>
      </trkpt>
      <trkpt lat="42.97743" lon="-0.41672">
        <ele>614</ele>
        <time>2022-06-27T23:47:06Z</time>
      </trkpt>
      <trkpt lat="42.97723" lon="-0.41724">
        <ele>610</ele>
        <time>2022-06-27T23:47:14Z</time>
      </trkpt>
      <trkpt lat="42.97645" lon="-0.41856">
        <ele>613</ele>
        <time>2022-06-27T23:47:36Z</time>
      </trkpt>
      <trkpt lat="42.97611" lon="-0.41978">
        <ele>600</ele>
        <time>2022-06-27T23:47:53Z</time>
      </trkpt>
      <trkpt lat="42.97564" lon="-0.42044">
        <ele>608</ele>
        <time>2022-06-27T23:48:05Z</time>
      </trkpt>
      <trkpt lat="42.9756" lon="-0.42063">
        <ele>607</ele>
        <time>2022-06-27T23:48:08Z</time>
      </trkpt>
      <trkpt lat="42.97569" lon="-0.42084">
        <ele>602</ele>
        <time>2022-06-27T23:48:11Z</time>
      </trkpt>
      <trkpt lat="42.97557" lon="-0.421">
        <ele>607</ele>
        <time>2022-06-27T23:48:14Z</time>
      </trkpt>
      <trkpt lat="42.97569" lon="-0.42084">
        <ele>602</ele>
        <time>2022-06-27T23:48:17Z</time>
      </trkpt>
      <trkpt lat="42.97587" lon="-0.42087">
        <ele>595</ele>
        <time>2022-06-27T23:48:20Z</time>
      </trkpt>
      <trkpt lat="42.97596" lon="-0.42081">
        <ele>593</ele>
        <time>2022-06-27T23:48:22Z</time>
      </trkpt>
      <trkpt lat="42.97648" lon="-0.41944">
        <ele>592</ele>
        <time>2022-06-27T23:48:42Z</time>
      </trkpt>
      <trkpt lat="42.97683" lon="-0.41876">
        <ele>591</ele>
        <time>2022-06-27T23:48:53Z</time>
      </trkpt>
      <trkpt lat="42.97783" lon="-0.41743">
        <ele>579</ele>
        <time>2022-06-27T23:49:18Z</time>
      </trkpt>
      <trkpt lat="42.97828" lon="-0.41672">
        <ele>579</ele>
        <time>2022-06-27T23:49:30Z</time>
      </trkpt>
      <trkpt lat="42.97857" lon="-0.41637">
        <ele>575</ele>
        <time>2022-06-27T23:49:37Z</time>
      </trkpt>
      <trkpt lat="42.97927" lon="-0.41585">
        <ele>564</ele>
        <time>2022-06-27T23:49:51Z</time>
      </trkpt>
      <trkpt lat="42.97953" lon="-0.41534">
        <ele>561</ele>
        <time>2022-06-27T23:49:59Z</time>
      </trkpt>
      <trkpt lat="42.97974" lon="-0.41465">
        <ele>563</ele>
        <time>2022-06-27T23:50:09Z</time>
      </trkpt>
      <trkpt lat="42.97988" lon="-0.41457">
        <ele>561</ele>
        <time>2022-06-27T23:50:11Z</time>
      </trkpt>
      <trkpt lat="42.98" lon="-0.41461">
        <ele>558</ele>
        <time>2022-06-27T23:50:14Z</time>
      </trkpt>
      <trkpt lat="42.9801" lon="-0.41474">
        <ele>555</ele>
        <time>2022-06-27T23:50:16Z</time>
      </trkpt>
      <trkpt lat="42.9801" lon="-0.41501">
        <ele>553</ele>
        <time>2022-06-27T23:50:20Z</time>
      </trkpt>
      <trkpt lat="42.97989" lon="-0.41533">
        <ele>552</ele>
        <time>2022-06-27T23:50:25Z</time>
      </trkpt>
      <trkpt lat="42.97967" lon="-0.41583">
        <ele>552</ele>
        <time>2022-06-27T23:50:33Z</time>
      </trkpt>
      <trkpt lat="42.97937" lon="-0.4163">
        <ele>553</ele>
        <time>2022-06-27T23:50:41Z</time>
      </trkpt>
      <trkpt lat="42.97886" lon="-0.41683">
        <ele>558</ele>
        <time>2022-06-27T23:50:52Z</time>
      </trkpt>
      <trkpt lat="42.97867" lon="-0.41714">
        <ele>557</ele>
        <time>2022-06-27T23:50:58Z</time>
      </trkpt>
      <trkpt lat="42.97844" lon="-0.41791">
        <ele>548</ele>
        <time>2022-06-27T23:51:08Z</time>
      </trkpt>
      <trkpt lat="42.978" lon="-0.41895">
        <ele>544</ele>
        <time>2022-06-27T23:51:24Z</time>
      </trkpt>
      <trkpt lat="42.97794" lon="-0.41978">
        <ele>541</ele>
        <time>2022-06-27T23:51:35Z</time>
      </trkpt>
      <trkpt lat="42.97773" lon="-0.42051">
        <ele>551</ele>
        <time>2022-06-27T23:51:45Z</time>
      </trkpt>
      <trkpt lat="42.97783" lon="-0.42067">
        <ele>551</ele>
        <time>2022-06-27T23:51:48Z</time>
      </trkpt>
      <trkpt lat="42.97793" lon="-0.42071">
        <ele>548</ele>
        <time>2022-06-27T23:51:50Z</time>
      </trkpt>
      <trkpt lat="42.97807" lon="-0.42067">
        <ele>544</ele>
        <time>2022-06-27T23:51:52Z</time>
      </trkpt>
      <trkpt lat="42.97834" lon="-0.41901">
        <ele>532</ele>
        <time>2022-06-27T23:52:14Z</time>
      </trkpt>
      <trkpt lat="42.97851" lon="-0.41881">
        <ele>532</ele>
        <time>2022-06-27T23:52:18Z</time>
      </trkpt>
      <trkpt lat="42.97869" lon="-0.41877">
        <ele>528</ele>
        <time>2022-06-27T23:52:22Z</time>
      </trkpt>
      <trkpt lat="42.97885" lon="-0.41889">
        <ele>523</ele>
        <time>2022-06-27T23:52:25Z</time>
      </trkpt>
      <trkpt lat="42.9789" lon="-0.41902">
        <ele>521</ele>
        <time>2022-06-27T23:52:27Z</time>
      </trkpt>
      <trkpt lat="42.97904" lon="-0.41993">
        <ele>514</ele>
        <time>2022-06-27T23:52:39Z</time>
      </trkpt>
      <trkpt lat="42.97922" lon="-0.42035">
        <ele>512</ele>
        <time>2022-06-27T23:52:45Z</time>
      </trkpt>
      <trkpt lat="42.97934" lon="-0.4205">
        <ele>512</ele>
        <time>2022-06-27T23:52:48Z</time>
      </trkpt>
      <trkpt lat="42.97946" lon="-0.42057">
        <ele>512</ele>
        <time>2022-06-27T23:52:50Z</time>
      </trkpt>
      <trkpt lat="42.98102" lon="-0.42083">
        <ele>509</ele>
        <time>2022-06-27T23:53:18Z</time>
      </trkpt>
      <trkpt lat="42.98122" lon="-0.42094">
        <ele>509</ele>
        <time>2022-06-27T23:53:22Z</time>
      </trkpt>
      <trkpt lat="42.98134" lon="-0.42119">
        <ele>510</ele>
        <time>2022-06-27T23:53:26Z</time>
      </trkpt>
      <trkpt lat="42.98179" lon="-0.42313">
        <ele>516</ele>
        <time>2022-06-27T23:53:53Z</time>
      </trkpt>
      <trkpt lat="42.9819" lon="-0.4243">
        <ele>519</ele>
        <time>2022-06-27T23:54:08Z</time>
      </trkpt>
      <trkpt lat="42.98214" lon="-0.42573">
        <ele>525</ele>
        <time>2022-06-27T23:54:27Z</time>
      </trkpt>
      <trkpt lat="42.98275" lon="-0.42706">
        <ele>527</ele>
        <time>2022-06-27T23:54:47Z</time>
      </trkpt>
      <trkpt lat="42.98347" lon="-0.42789">
        <ele>522</ele>
        <time>2022-06-27T23:55:04Z</time>
      </trkpt>
      <trkpt lat="42.98377" lon="-0.42798">
        <ele>522</ele>
        <time>2022-06-27T23:55:10Z</time>
      </trkpt>
      <trkpt lat="42.98711" lon="-0.42659">
        <ele>528</ele>
        <time>2022-06-27T23:56:12Z</time>
      </trkpt>
      <trkpt lat="42.9874" lon="-0.42649">
        <ele>527</ele>
        <time>2022-06-27T23:56:17Z</time>
      </trkpt>
      <trkpt lat="42.98799" lon="-0.4264">
        <ele>526</ele>
        <time>2022-06-27T23:56:28Z</time>
      </trkpt>
      <trkpt lat="42.98798" lon="-0.42628">
        <ele>525</ele>
        <time>2022-06-27T23:56:29Z</time>
      </trkpt>
      <trkpt lat="42.98807" lon="-0.42623">
        <ele>525</ele>
        <time>2022-06-27T23:56:31Z</time>
      </trkpt>
      <trkpt lat="42.98808" lon="-0.42614">
        <ele>524</ele>
        <time>2022-06-27T23:56:32Z</time>
      </trkpt>
      <trkpt lat="42.98816" lon="-0.42269">
        <ele>510</ele>
        <time>2022-06-27T23:57:17Z</time>
      </trkpt>
      <trkpt lat="42.98822" lon="-0.42243">
        <ele>509</ele>
        <time>2022-06-27T23:57:21Z</time>
      </trkpt>
      <trkpt lat="42.9883" lon="-0.42237">
        <ele>509</ele>
        <time>2022-06-27T23:57:22Z</time>
      </trkpt>
      <trkpt lat="42.98969" lon="-0.42262">
        <ele>506</ele>
        <time>2022-06-27T23:57:47Z</time>
      </trkpt>
      <trkpt lat="42.98991" lon="-0.42258">
        <ele>505</ele>
        <time>2022-06-27T23:57:51Z</time>
      </trkpt>
      <trkpt lat="42.99061" lon="-0.42213">
        <ele>503</ele>
        <time>2022-06-27T23:58:05Z</time>
      </trkpt>
      <trkpt lat="42.99237" lon="-0.42246">
        <ele>499</ele>
        <time>2022-06-27T23:58:37Z</time>
      </trkpt>
      <trkpt lat="42.99409" lon="-0.42227">
        <ele>498</ele>
        <time>2022-06-27T23:59:07Z</time>
      </trkpt>
      <trkpt lat="42.99363" lon="-0.4205">
        <ele>488</ele>
        <time>2022-06-27T23:59:32Z</time>
      </trkpt>
      <trkpt lat="42.99359" lon="-0.41976">
        <ele>491</ele>
        <time>2022-06-27T23:59:41Z</time>
      </trkpt>
      <trkpt lat="42.9937" lon="-0.4193">
        <ele>492</ele>
        <time>2022-06-27T23:59:48Z</time>
      </trkpt>
    </trkseg>
  </trk>
</gpx>